<?xml version="1.0" encoding="UTF-8" standalone="no" ?>
<gpx xmlns="http://www.topografix.com/GPX/1/1" xmlns:xsi="http://www.w3.org/2001/XMLSchema-instance" xsi:schemaLocation="http://www.topografix.com/GPX/1/1 http://www.topografix.com/GPX/1/1/gpx.xsd" version="1.1" creator="VisuGPX - https://www.visugpx.com">
  <metadata>
    <name>Pornichet 26/12/2019</name>
    <desc><![CDATA[Sortie VTT du jeudi 26 décembre 2019]]></desc>
  </metadata>
  <trk>
    <name><![CDATA[Pornichet Cyclisme]]></name>
    <trkseg>
      <trkpt lat="47.26411" lon="-2.31564">
        <ele>9.8</ele>
        <time>2019-12-26T08:30:42.000Z</time>
      </trkpt>
      <trkpt lat="47.26411" lon="-2.31585">
        <ele>9.8</ele>
        <time>2019-12-26T08:30:46.000Z</time>
      </trkpt>
      <trkpt lat="47.26411" lon="-2.31591">
        <ele>0.40000000596046</ele>
        <time>2019-12-26T08:30:47.000Z</time>
      </trkpt>
      <trkpt lat="47.26411" lon="-2.31641">
        <ele>0.40000000596046</ele>
        <time>2019-12-26T08:30:55.000Z</time>
      </trkpt>
      <trkpt lat="47.2641" lon="-2.31662">
        <ele>0.40000000596046</ele>
        <time>2019-12-26T08:30:59.000Z</time>
      </trkpt>
      <trkpt lat="47.264" lon="-2.31665">
        <ele>0.40000000596046</ele>
        <time>2019-12-26T08:31:02.000Z</time>
      </trkpt>
      <trkpt lat="47.2639" lon="-2.31671">
        <ele>0.40000000596046</ele>
        <time>2019-12-26T08:31:04.000Z</time>
      </trkpt>
      <trkpt lat="47.26381" lon="-2.31677">
        <ele>7.6</ele>
        <time>2019-12-26T08:31:06.000Z</time>
      </trkpt>
      <trkpt lat="47.26376" lon="-2.3168">
        <ele>-0.60000002384186</ele>
        <time>2019-12-26T08:31:07.000Z</time>
      </trkpt>
      <trkpt lat="47.2637" lon="-2.31683">
        <ele>-1</ele>
        <time>2019-12-26T08:31:08.000Z</time>
      </trkpt>
      <trkpt lat="47.26365" lon="-2.31686">
        <ele>-1.3999999761581</ele>
        <time>2019-12-26T08:31:09.000Z</time>
      </trkpt>
      <trkpt lat="47.26359" lon="-2.31688">
        <ele>-1.7999999523163</ele>
        <time>2019-12-26T08:31:10.000Z</time>
      </trkpt>
      <trkpt lat="47.26343" lon="-2.31698">
        <ele>-1.7999999523163</ele>
        <time>2019-12-26T08:31:13.000Z</time>
      </trkpt>
      <trkpt lat="47.26337" lon="-2.317">
        <ele>-1.7999999523163</ele>
        <time>2019-12-26T08:31:14.000Z</time>
      </trkpt>
      <trkpt lat="47.26315" lon="-2.31712">
        <ele>-1.7999999523163</ele>
        <time>2019-12-26T08:31:18.000Z</time>
      </trkpt>
      <trkpt lat="47.2631" lon="-2.31713">
        <ele>-2.2000000476837</ele>
        <time>2019-12-26T08:31:19.000Z</time>
      </trkpt>
      <trkpt lat="47.26305" lon="-2.31713">
        <ele>-2.5999999046326</ele>
        <time>2019-12-26T08:31:20.000Z</time>
      </trkpt>
      <trkpt lat="47.26302" lon="-2.31712">
        <ele>-3</ele>
        <time>2019-12-26T08:31:21.000Z</time>
      </trkpt>
      <trkpt lat="47.26299" lon="-2.3171">
        <ele>-3.4000000953674</ele>
        <time>2019-12-26T08:31:22.000Z</time>
      </trkpt>
      <trkpt lat="47.26296" lon="-2.31707">
        <ele>-3.7999999523163</ele>
        <time>2019-12-26T08:31:23.000Z</time>
      </trkpt>
      <trkpt lat="47.26291" lon="-2.31698">
        <ele>-3.7999999523163</ele>
        <time>2019-12-26T08:31:25.000Z</time>
      </trkpt>
      <trkpt lat="47.26286" lon="-2.31688">
        <ele>-3.7999999523163</ele>
        <time>2019-12-26T08:31:27.000Z</time>
      </trkpt>
      <trkpt lat="47.26279" lon="-2.31674">
        <ele>-3.7999999523163</ele>
        <time>2019-12-26T08:31:30.000Z</time>
      </trkpt>
      <trkpt lat="47.26271" lon="-2.31656">
        <ele>-3.7999999523163</ele>
        <time>2019-12-26T08:31:34.000Z</time>
      </trkpt>
      <trkpt lat="47.26265" lon="-2.31641">
        <ele>-3.7999999523163</ele>
        <time>2019-12-26T08:31:38.000Z</time>
      </trkpt>
      <trkpt lat="47.26252" lon="-2.31623">
        <ele>-3.7999999523163</ele>
        <time>2019-12-26T08:31:43.000Z</time>
      </trkpt>
      <trkpt lat="47.26236" lon="-2.31608">
        <ele>-3.7999999523163</ele>
        <time>2019-12-26T08:31:46.000Z</time>
      </trkpt>
      <trkpt lat="47.2623" lon="-2.31605">
        <ele>-3.7999999523163</ele>
        <time>2019-12-26T08:31:47.000Z</time>
      </trkpt>
      <trkpt lat="47.26215" lon="-2.31599">
        <ele>-3.7999999523163</ele>
        <time>2019-12-26T08:31:50.000Z</time>
      </trkpt>
      <trkpt lat="47.26199" lon="-2.316">
        <ele>-3.7999999523163</ele>
        <time>2019-12-26T08:31:53.000Z</time>
      </trkpt>
      <trkpt lat="47.26194" lon="-2.31602">
        <ele>-3.7999999523163</ele>
        <time>2019-12-26T08:31:54.000Z</time>
      </trkpt>
      <trkpt lat="47.26164" lon="-2.31608">
        <ele>-3.7999999523163</ele>
        <time>2019-12-26T08:32:00.000Z</time>
      </trkpt>
      <trkpt lat="47.26142" lon="-2.31614">
        <ele>-3.7999999523163</ele>
        <time>2019-12-26T08:32:05.000Z</time>
      </trkpt>
      <trkpt lat="47.26137" lon="-2.31615">
        <ele>-3.7999999523163</ele>
        <time>2019-12-26T08:32:06.000Z</time>
      </trkpt>
      <trkpt lat="47.26114" lon="-2.31616">
        <ele>-3.7999999523163</ele>
        <time>2019-12-26T08:32:11.000Z</time>
      </trkpt>
      <trkpt lat="47.26105" lon="-2.31613">
        <ele>-3.7999999523163</ele>
        <time>2019-12-26T08:32:13.000Z</time>
      </trkpt>
      <trkpt lat="47.26093" lon="-2.31597">
        <ele>-3.7999999523163</ele>
        <time>2019-12-26T08:32:17.000Z</time>
      </trkpt>
      <trkpt lat="47.26081" lon="-2.31587">
        <ele>-3.7999999523163</ele>
        <time>2019-12-26T08:32:21.000Z</time>
      </trkpt>
      <trkpt lat="47.26072" lon="-2.31598">
        <ele>-3.7999999523163</ele>
        <time>2019-12-26T08:32:24.000Z</time>
      </trkpt>
      <trkpt lat="47.26052" lon="-2.31623">
        <ele>-3.7999999523163</ele>
        <time>2019-12-26T08:32:30.000Z</time>
      </trkpt>
      <trkpt lat="47.26045" lon="-2.31632">
        <ele>-3.7999999523163</ele>
        <time>2019-12-26T08:32:32.000Z</time>
      </trkpt>
      <trkpt lat="47.2603" lon="-2.31648">
        <ele>-3.7999999523163</ele>
        <time>2019-12-26T08:32:36.000Z</time>
      </trkpt>
      <trkpt lat="47.26015" lon="-2.31662">
        <ele>-3.7999999523163</ele>
        <time>2019-12-26T08:32:40.000Z</time>
      </trkpt>
      <trkpt lat="47.26002" lon="-2.31668">
        <ele>-3.7999999523163</ele>
        <time>2019-12-26T08:32:43.000Z</time>
      </trkpt>
      <trkpt lat="47.25973" lon="-2.31685">
        <ele>-3.7999999523163</ele>
        <time>2019-12-26T08:32:50.000Z</time>
      </trkpt>
      <trkpt lat="47.25969" lon="-2.31688">
        <ele>-3.7999999523163</ele>
        <time>2019-12-26T08:32:51.000Z</time>
      </trkpt>
      <trkpt lat="47.25945" lon="-2.31708">
        <ele>-3.7999999523163</ele>
        <time>2019-12-26T08:32:57.000Z</time>
      </trkpt>
      <trkpt lat="47.25931" lon="-2.31729">
        <ele>-3.4000000953674</ele>
        <time>2019-12-26T08:33:01.000Z</time>
      </trkpt>
      <trkpt lat="47.25928" lon="-2.31734">
        <ele>-3</ele>
        <time>2019-12-26T08:33:02.000Z</time>
      </trkpt>
      <trkpt lat="47.25925" lon="-2.3174">
        <ele>-2.5999999046326</ele>
        <time>2019-12-26T08:33:03.000Z</time>
      </trkpt>
      <trkpt lat="47.25923" lon="-2.31746">
        <ele>-2</ele>
        <time>2019-12-26T08:33:04.000Z</time>
      </trkpt>
      <trkpt lat="47.2592" lon="-2.31752">
        <ele>-1.6000000238419</ele>
        <time>2019-12-26T08:33:05.000Z</time>
      </trkpt>
      <trkpt lat="47.25906" lon="-2.31781">
        <ele>-1.6000000238419</ele>
        <time>2019-12-26T08:33:10.000Z</time>
      </trkpt>
      <trkpt lat="47.25904" lon="-2.31787">
        <ele>-1.6000000238419</ele>
        <time>2019-12-26T08:33:11.000Z</time>
      </trkpt>
      <trkpt lat="47.25892" lon="-2.31817">
        <ele>-1.6000000238419</ele>
        <time>2019-12-26T08:33:16.000Z</time>
      </trkpt>
      <trkpt lat="47.25887" lon="-2.31828">
        <ele>-2</ele>
        <time>2019-12-26T08:33:18.000Z</time>
      </trkpt>
      <trkpt lat="47.25884" lon="-2.31833">
        <ele>-2.4000000953674</ele>
        <time>2019-12-26T08:33:19.000Z</time>
      </trkpt>
      <trkpt lat="47.25881" lon="-2.31839">
        <ele>-2.7999999523163</ele>
        <time>2019-12-26T08:33:20.000Z</time>
      </trkpt>
      <trkpt lat="47.25878" lon="-2.31844">
        <ele>-3.2000000476837</ele>
        <time>2019-12-26T08:33:21.000Z</time>
      </trkpt>
      <trkpt lat="47.25876" lon="-2.31849">
        <ele>-3.5999999046326</ele>
        <time>2019-12-26T08:33:22.000Z</time>
      </trkpt>
      <trkpt lat="47.25868" lon="-2.31865">
        <ele>-3.5999999046326</ele>
        <time>2019-12-26T08:33:25.000Z</time>
      </trkpt>
      <trkpt lat="47.25846" lon="-2.31889">
        <ele>-3.5999999046326</ele>
        <time>2019-12-26T08:33:31.000Z</time>
      </trkpt>
      <trkpt lat="47.25812" lon="-2.31916">
        <ele>-3.5999999046326</ele>
        <time>2019-12-26T08:33:40.000Z</time>
      </trkpt>
      <trkpt lat="47.25788" lon="-2.31934">
        <ele>-3.2000000476837</ele>
        <time>2019-12-26T08:33:47.000Z</time>
      </trkpt>
      <trkpt lat="47.25785" lon="-2.31937">
        <ele>-2.7999999523163</ele>
        <time>2019-12-26T08:33:48.000Z</time>
      </trkpt>
      <trkpt lat="47.25782" lon="-2.31941">
        <ele>-2.4000000953674</ele>
        <time>2019-12-26T08:33:49.000Z</time>
      </trkpt>
      <trkpt lat="47.25779" lon="-2.31944">
        <ele>-2</ele>
        <time>2019-12-26T08:33:50.000Z</time>
      </trkpt>
      <trkpt lat="47.25776" lon="-2.31947">
        <ele>-1.6000000238419</ele>
        <time>2019-12-26T08:33:51.000Z</time>
      </trkpt>
      <trkpt lat="47.25762" lon="-2.31957">
        <ele>-1.6000000238419</ele>
        <time>2019-12-26T08:33:55.000Z</time>
      </trkpt>
      <trkpt lat="47.25734" lon="-2.31977">
        <ele>-1.6000000238419</ele>
        <time>2019-12-26T08:34:03.000Z</time>
      </trkpt>
      <trkpt lat="47.25731" lon="-2.31978">
        <ele>-1.2000000476837</ele>
        <time>2019-12-26T08:34:04.000Z</time>
      </trkpt>
      <trkpt lat="47.25727" lon="-2.3198">
        <ele>-0.80000001192093</ele>
        <time>2019-12-26T08:34:05.000Z</time>
      </trkpt>
      <trkpt lat="47.25724" lon="-2.31983">
        <ele>-0.40000000596046</ele>
        <time>2019-12-26T08:34:06.000Z</time>
      </trkpt>
      <trkpt lat="47.25721" lon="-2.31985">
        <ele>0.40000000596046</ele>
        <time>2019-12-26T08:34:07.000Z</time>
      </trkpt>
      <trkpt lat="47.25712" lon="-2.3199">
        <ele>0.40000000596046</ele>
        <time>2019-12-26T08:34:10.000Z</time>
      </trkpt>
      <trkpt lat="47.2571" lon="-2.31992">
        <ele>0.80000001192093</ele>
        <time>2019-12-26T08:34:11.000Z</time>
      </trkpt>
      <trkpt lat="47.25707" lon="-2.31994">
        <ele>1.2000000476837</ele>
        <time>2019-12-26T08:34:12.000Z</time>
      </trkpt>
      <trkpt lat="47.25704" lon="-2.31995">
        <ele>1.6000000238419</ele>
        <time>2019-12-26T08:34:13.000Z</time>
      </trkpt>
      <trkpt lat="47.25702" lon="-2.31995">
        <ele>2</ele>
        <time>2019-12-26T08:34:14.000Z</time>
      </trkpt>
      <trkpt lat="47.25699" lon="-2.31995">
        <ele>2.5999999046326</ele>
        <time>2019-12-26T08:34:15.000Z</time>
      </trkpt>
      <trkpt lat="47.25696" lon="-2.31995">
        <ele>2.5999999046326</ele>
        <time>2019-12-26T08:34:16.000Z</time>
      </trkpt>
      <trkpt lat="47.25686" lon="-2.32003">
        <ele>2.5999999046326</ele>
        <time>2019-12-26T08:34:20.000Z</time>
      </trkpt>
      <trkpt lat="47.25686" lon="-2.32008">
        <ele>2.5999999046326</ele>
        <time>2019-12-26T08:34:21.000Z</time>
      </trkpt>
      <trkpt lat="47.25682" lon="-2.32024">
        <ele>2.5999999046326</ele>
        <time>2019-12-26T08:34:25.000Z</time>
      </trkpt>
      <trkpt lat="47.25676" lon="-2.32029">
        <ele>2.5999999046326</ele>
        <time>2019-12-26T08:34:27.000Z</time>
      </trkpt>
      <trkpt lat="47.25663" lon="-2.32038">
        <ele>2.5999999046326</ele>
        <time>2019-12-26T08:34:31.000Z</time>
      </trkpt>
      <trkpt lat="47.25657" lon="-2.32044">
        <ele>3</ele>
        <time>2019-12-26T08:34:33.000Z</time>
      </trkpt>
      <trkpt lat="47.25654" lon="-2.32047">
        <ele>3.4000000953674</ele>
        <time>2019-12-26T08:34:34.000Z</time>
      </trkpt>
      <trkpt lat="47.25651" lon="-2.3205">
        <ele>3.7999999523163</ele>
        <time>2019-12-26T08:34:35.000Z</time>
      </trkpt>
      <trkpt lat="47.25648" lon="-2.32053">
        <ele>4.1999998092651</ele>
        <time>2019-12-26T08:34:36.000Z</time>
      </trkpt>
      <trkpt lat="47.25645" lon="-2.32056">
        <ele>4.5999999046326</ele>
        <time>2019-12-26T08:34:37.000Z</time>
      </trkpt>
      <trkpt lat="47.25642" lon="-2.32059">
        <ele>4.5999999046326</ele>
        <time>2019-12-26T08:34:38.000Z</time>
      </trkpt>
      <trkpt lat="47.2562" lon="-2.3208">
        <ele>4.5999999046326</ele>
        <time>2019-12-26T08:34:45.000Z</time>
      </trkpt>
      <trkpt lat="47.25604" lon="-2.32079">
        <ele>4.5999999046326</ele>
        <time>2019-12-26T08:34:50.000Z</time>
      </trkpt>
      <trkpt lat="47.25596" lon="-2.32069">
        <ele>4.5999999046326</ele>
        <time>2019-12-26T08:34:54.000Z</time>
      </trkpt>
      <trkpt lat="47.25584" lon="-2.32064">
        <ele>4.5999999046326</ele>
        <time>2019-12-26T08:35:00.000Z</time>
      </trkpt>
      <trkpt lat="47.2558" lon="-2.32063">
        <ele>4.5999999046326</ele>
        <time>2019-12-26T08:35:02.000Z</time>
      </trkpt>
      <trkpt lat="47.25579" lon="-2.32057">
        <ele>4.5999999046326</ele>
        <time>2019-12-26T08:35:04.000Z</time>
      </trkpt>
      <trkpt lat="47.25569" lon="-2.32054">
        <ele>4.5999999046326</ele>
        <time>2019-12-26T08:35:08.000Z</time>
      </trkpt>
      <trkpt lat="47.25565" lon="-2.32054">
        <ele>4.5999999046326</ele>
        <time>2019-12-26T08:35:13.000Z</time>
      </trkpt>
      <trkpt lat="47.25566" lon="-2.32054">
        <ele>4.5999999046326</ele>
        <time>2019-12-26T08:41:19.000Z</time>
      </trkpt>
      <trkpt lat="47.25567" lon="-2.32045">
        <ele>4.5999999046326</ele>
        <time>2019-12-26T08:41:22.000Z</time>
      </trkpt>
      <trkpt lat="47.25566" lon="-2.32043">
        <ele>4.5999999046326</ele>
        <time>2019-12-26T08:41:24.000Z</time>
      </trkpt>
      <trkpt lat="47.25564" lon="-2.32038">
        <ele>4.5999999046326</ele>
        <time>2019-12-26T08:41:26.000Z</time>
      </trkpt>
      <trkpt lat="47.25561" lon="-2.32026">
        <ele>4.5999999046326</ele>
        <time>2019-12-26T08:41:30.000Z</time>
      </trkpt>
      <trkpt lat="47.25562" lon="-2.32019">
        <ele>4.5999999046326</ele>
        <time>2019-12-26T08:41:32.000Z</time>
      </trkpt>
      <trkpt lat="47.25564" lon="-2.32013">
        <ele>4.5999999046326</ele>
        <time>2019-12-26T08:41:34.000Z</time>
      </trkpt>
      <trkpt lat="47.25566" lon="-2.32011">
        <ele>4.5999999046326</ele>
        <time>2019-12-26T08:41:35.000Z</time>
      </trkpt>
      <trkpt lat="47.25572" lon="-2.31999">
        <ele>4.5999999046326</ele>
        <time>2019-12-26T08:41:38.000Z</time>
      </trkpt>
      <trkpt lat="47.25572" lon="-2.31993">
        <ele>4.5999999046326</ele>
        <time>2019-12-26T08:41:39.000Z</time>
      </trkpt>
      <trkpt lat="47.25568" lon="-2.31966">
        <ele>4.5999999046326</ele>
        <time>2019-12-26T08:41:45.000Z</time>
      </trkpt>
      <trkpt lat="47.25564" lon="-2.31916">
        <ele>4.5999999046326</ele>
        <time>2019-12-26T08:41:55.000Z</time>
      </trkpt>
      <trkpt lat="47.25562" lon="-2.31878">
        <ele>4.5999999046326</ele>
        <time>2019-12-26T08:42:03.000Z</time>
      </trkpt>
      <trkpt lat="47.25563" lon="-2.31846">
        <ele>4.5999999046326</ele>
        <time>2019-12-26T08:42:10.000Z</time>
      </trkpt>
      <trkpt lat="47.25563" lon="-2.31809">
        <ele>4.5999999046326</ele>
        <time>2019-12-26T08:42:17.000Z</time>
      </trkpt>
      <trkpt lat="47.25567" lon="-2.31786">
        <ele>4.5999999046326</ele>
        <time>2019-12-26T08:42:21.000Z</time>
      </trkpt>
      <trkpt lat="47.25569" lon="-2.31781">
        <ele>4.5999999046326</ele>
        <time>2019-12-26T08:42:22.000Z</time>
      </trkpt>
      <trkpt lat="47.2558" lon="-2.31762">
        <ele>4.5999999046326</ele>
        <time>2019-12-26T08:42:26.000Z</time>
      </trkpt>
      <trkpt lat="47.25583" lon="-2.31758">
        <ele>4.5999999046326</ele>
        <time>2019-12-26T08:42:27.000Z</time>
      </trkpt>
      <trkpt lat="47.25586" lon="-2.31754">
        <ele>4.5999999046326</ele>
        <time>2019-12-26T08:42:28.000Z</time>
      </trkpt>
      <trkpt lat="47.25591" lon="-2.31738">
        <ele>4.5999999046326</ele>
        <time>2019-12-26T08:42:31.000Z</time>
      </trkpt>
      <trkpt lat="47.25594" lon="-2.31728">
        <ele>4.5999999046326</ele>
        <time>2019-12-26T08:42:33.000Z</time>
      </trkpt>
      <trkpt lat="47.25602" lon="-2.31715">
        <ele>4.5999999046326</ele>
        <time>2019-12-26T08:42:36.000Z</time>
      </trkpt>
      <trkpt lat="47.25619" lon="-2.31709">
        <ele>4.5999999046326</ele>
        <time>2019-12-26T08:42:40.000Z</time>
      </trkpt>
      <trkpt lat="47.25635" lon="-2.31704">
        <ele>4.5999999046326</ele>
        <time>2019-12-26T08:42:43.000Z</time>
      </trkpt>
      <trkpt lat="47.25645" lon="-2.31695">
        <ele>4.1999998092651</ele>
        <time>2019-12-26T08:42:45.000Z</time>
      </trkpt>
      <trkpt lat="47.25649" lon="-2.31688">
        <ele>3.7999999523163</ele>
        <time>2019-12-26T08:42:46.000Z</time>
      </trkpt>
      <trkpt lat="47.25653" lon="-2.3168">
        <ele>3.2000000476837</ele>
        <time>2019-12-26T08:42:47.000Z</time>
      </trkpt>
      <trkpt lat="47.25655" lon="-2.31673">
        <ele>2.7999999523163</ele>
        <time>2019-12-26T08:42:48.000Z</time>
      </trkpt>
      <trkpt lat="47.25658" lon="-2.31666">
        <ele>2.4000000953674</ele>
        <time>2019-12-26T08:42:49.000Z</time>
      </trkpt>
      <trkpt lat="47.25662" lon="-2.31662">
        <ele>1.7999999523163</ele>
        <time>2019-12-26T08:42:50.000Z</time>
      </trkpt>
      <trkpt lat="47.25667" lon="-2.31664">
        <ele>1.3999999761581</ele>
        <time>2019-12-26T08:42:51.000Z</time>
      </trkpt>
      <trkpt lat="47.25672" lon="-2.31666">
        <ele>0.80000001192093</ele>
        <time>2019-12-26T08:42:52.000Z</time>
      </trkpt>
      <trkpt lat="47.25677" lon="-2.3167">
        <ele>0.40000000596046</ele>
        <time>2019-12-26T08:42:53.000Z</time>
      </trkpt>
      <trkpt lat="47.25687" lon="-2.31675">
        <ele>0.40000000596046</ele>
        <time>2019-12-26T08:42:55.000Z</time>
      </trkpt>
      <trkpt lat="47.25723" lon="-2.31691">
        <ele>0.40000000596046</ele>
        <time>2019-12-26T08:43:01.000Z</time>
      </trkpt>
      <trkpt lat="47.25729" lon="-2.31694">
        <ele>0.40000000596046</ele>
        <time>2019-12-26T08:43:02.000Z</time>
      </trkpt>
      <trkpt lat="47.25739" lon="-2.31692">
        <ele>0.40000000596046</ele>
        <time>2019-12-26T08:43:04.000Z</time>
      </trkpt>
      <trkpt lat="47.25749" lon="-2.31684">
        <ele>-0.20000000298023</ele>
        <time>2019-12-26T08:43:06.000Z</time>
      </trkpt>
      <trkpt lat="47.25754" lon="-2.3168">
        <ele>-0.60000002384186</ele>
        <time>2019-12-26T08:43:07.000Z</time>
      </trkpt>
      <trkpt lat="47.25758" lon="-2.31676">
        <ele>-1</ele>
        <time>2019-12-26T08:43:08.000Z</time>
      </trkpt>
      <trkpt lat="47.25763" lon="-2.31672">
        <ele>-1.7999999523163</ele>
        <time>2019-12-26T08:43:09.000Z</time>
      </trkpt>
      <trkpt lat="47.25787" lon="-2.31654">
        <ele>-1.7999999523163</ele>
        <time>2019-12-26T08:43:14.000Z</time>
      </trkpt>
      <trkpt lat="47.25816" lon="-2.31632">
        <ele>-1.7999999523163</ele>
        <time>2019-12-26T08:43:20.000Z</time>
      </trkpt>
      <trkpt lat="47.2583" lon="-2.31622">
        <ele>-1.3999999761581</ele>
        <time>2019-12-26T08:43:23.000Z</time>
      </trkpt>
      <trkpt lat="47.25834" lon="-2.31618">
        <ele>-1</ele>
        <time>2019-12-26T08:43:24.000Z</time>
      </trkpt>
      <trkpt lat="47.25837" lon="-2.31614">
        <ele>-0.60000002384186</ele>
        <time>2019-12-26T08:43:25.000Z</time>
      </trkpt>
      <trkpt lat="47.25841" lon="-2.3161">
        <ele>-0.20000000298023</ele>
        <time>2019-12-26T08:43:26.000Z</time>
      </trkpt>
      <trkpt lat="47.25845" lon="-2.31606">
        <ele>0.20000000298023</ele>
        <time>2019-12-26T08:43:27.000Z</time>
      </trkpt>
      <trkpt lat="47.25872" lon="-2.31579">
        <ele>0.20000000298023</ele>
        <time>2019-12-26T08:43:33.000Z</time>
      </trkpt>
      <trkpt lat="47.25881" lon="-2.31567">
        <ele>0.20000000298023</ele>
        <time>2019-12-26T08:43:35.000Z</time>
      </trkpt>
      <trkpt lat="47.25885" lon="-2.3156">
        <ele>-0.20000000298023</ele>
        <time>2019-12-26T08:43:36.000Z</time>
      </trkpt>
      <trkpt lat="47.25889" lon="-2.31553">
        <ele>-0.60000002384186</ele>
        <time>2019-12-26T08:43:37.000Z</time>
      </trkpt>
      <trkpt lat="47.25892" lon="-2.31546">
        <ele>-1</ele>
        <time>2019-12-26T08:43:38.000Z</time>
      </trkpt>
      <trkpt lat="47.25894" lon="-2.31539">
        <ele>-1.3999999761581</ele>
        <time>2019-12-26T08:43:39.000Z</time>
      </trkpt>
      <trkpt lat="47.25896" lon="-2.31533">
        <ele>-1.7999999523163</ele>
        <time>2019-12-26T08:43:40.000Z</time>
      </trkpt>
      <trkpt lat="47.25897" lon="-2.31529">
        <ele>-1.7999999523163</ele>
        <time>2019-12-26T08:43:41.000Z</time>
      </trkpt>
      <trkpt lat="47.25901" lon="-2.31521">
        <ele>-1.7999999523163</ele>
        <time>2019-12-26T08:43:45.000Z</time>
      </trkpt>
      <trkpt lat="47.25902" lon="-2.31518">
        <ele>-1.7999999523163</ele>
        <time>2019-12-26T08:43:47.000Z</time>
      </trkpt>
      <trkpt lat="47.25903" lon="-2.31518">
        <ele>-2.2000000476837</ele>
        <time>2019-12-26T08:43:48.000Z</time>
      </trkpt>
      <trkpt lat="47.25904" lon="-2.31517">
        <ele>-2.7999999523163</ele>
        <time>2019-12-26T08:43:49.000Z</time>
      </trkpt>
      <trkpt lat="47.25904" lon="-2.31517">
        <ele>-3.2000000476837</ele>
        <time>2019-12-26T08:43:50.000Z</time>
      </trkpt>
      <trkpt lat="47.25906" lon="-2.31517">
        <ele>-3.5999999046326</ele>
        <time>2019-12-26T08:43:51.000Z</time>
      </trkpt>
      <trkpt lat="47.25906" lon="-2.31517">
        <ele>-4</ele>
        <time>2019-12-26T08:43:52.000Z</time>
      </trkpt>
      <trkpt lat="47.25909" lon="-2.31515">
        <ele>-4</ele>
        <time>2019-12-26T08:43:55.000Z</time>
      </trkpt>
      <trkpt lat="47.25909" lon="-2.31513">
        <ele>-4</ele>
        <time>2019-12-26T08:43:57.000Z</time>
      </trkpt>
      <trkpt lat="47.2591" lon="-2.31512">
        <ele>-4</ele>
        <time>2019-12-26T08:43:58.000Z</time>
      </trkpt>
      <trkpt lat="47.2591" lon="-2.31506">
        <ele>-4</ele>
        <time>2019-12-26T08:44:02.000Z</time>
      </trkpt>
      <trkpt lat="47.2591" lon="-2.31504">
        <ele>-4</ele>
        <time>2019-12-26T08:44:03.000Z</time>
      </trkpt>
      <trkpt lat="47.2591" lon="-2.31503">
        <ele>-4</ele>
        <time>2019-12-26T08:44:04.000Z</time>
      </trkpt>
      <trkpt lat="47.25914" lon="-2.31493">
        <ele>-4</ele>
        <time>2019-12-26T08:44:07.000Z</time>
      </trkpt>
      <trkpt lat="47.25925" lon="-2.31464">
        <ele>-4</ele>
        <time>2019-12-26T08:44:12.000Z</time>
      </trkpt>
      <trkpt lat="47.25927" lon="-2.3146">
        <ele>-4</ele>
        <time>2019-12-26T08:44:13.000Z</time>
      </trkpt>
      <trkpt lat="47.25935" lon="-2.31457">
        <ele>-4</ele>
        <time>2019-12-26T08:44:15.000Z</time>
      </trkpt>
      <trkpt lat="47.25953" lon="-2.31469">
        <ele>-4</ele>
        <time>2019-12-26T08:44:19.000Z</time>
      </trkpt>
      <trkpt lat="47.25971" lon="-2.3149">
        <ele>-4</ele>
        <time>2019-12-26T08:44:24.000Z</time>
      </trkpt>
      <trkpt lat="47.25982" lon="-2.31517">
        <ele>-4</ele>
        <time>2019-12-26T08:44:29.000Z</time>
      </trkpt>
      <trkpt lat="47.25993" lon="-2.31537">
        <ele>-4</ele>
        <time>2019-12-26T08:44:33.000Z</time>
      </trkpt>
      <trkpt lat="47.25999" lon="-2.31546">
        <ele>-4</ele>
        <time>2019-12-26T08:44:35.000Z</time>
      </trkpt>
      <trkpt lat="47.26014" lon="-2.3156">
        <ele>-4</ele>
        <time>2019-12-26T08:44:40.000Z</time>
      </trkpt>
      <trkpt lat="47.26025" lon="-2.31544">
        <ele>-4</ele>
        <time>2019-12-26T08:44:44.000Z</time>
      </trkpt>
      <trkpt lat="47.26031" lon="-2.31531">
        <ele>-4</ele>
        <time>2019-12-26T08:44:47.000Z</time>
      </trkpt>
      <trkpt lat="47.26034" lon="-2.31529">
        <ele>-4</ele>
        <time>2019-12-26T08:44:48.000Z</time>
      </trkpt>
      <trkpt lat="47.26044" lon="-2.3153">
        <ele>-4</ele>
        <time>2019-12-26T08:44:51.000Z</time>
      </trkpt>
      <trkpt lat="47.26048" lon="-2.31533">
        <ele>-4.4000000953674</ele>
        <time>2019-12-26T08:44:52.000Z</time>
      </trkpt>
      <trkpt lat="47.26052" lon="-2.31536">
        <ele>-4.8000001907349</ele>
        <time>2019-12-26T08:44:53.000Z</time>
      </trkpt>
      <trkpt lat="47.26055" lon="-2.31538">
        <ele>-5.1999998092651</ele>
        <time>2019-12-26T08:44:54.000Z</time>
      </trkpt>
      <trkpt lat="47.26059" lon="-2.31542">
        <ele>-5.8000001907349</ele>
        <time>2019-12-26T08:44:55.000Z</time>
      </trkpt>
      <trkpt lat="47.26062" lon="-2.31546">
        <ele>-6.1999998092651</ele>
        <time>2019-12-26T08:44:56.000Z</time>
      </trkpt>
      <trkpt lat="47.26073" lon="-2.31567">
        <ele>-6.1999998092651</ele>
        <time>2019-12-26T08:45:00.000Z</time>
      </trkpt>
      <trkpt lat="47.26081" lon="-2.31577">
        <ele>-6.1999998092651</ele>
        <time>2019-12-26T08:45:03.000Z</time>
      </trkpt>
      <trkpt lat="47.26093" lon="-2.31592">
        <ele>-6.1999998092651</ele>
        <time>2019-12-26T08:45:07.000Z</time>
      </trkpt>
      <trkpt lat="47.26102" lon="-2.31607">
        <ele>-6.1999998092651</ele>
        <time>2019-12-26T08:45:10.000Z</time>
      </trkpt>
      <trkpt lat="47.2611" lon="-2.31627">
        <ele>-6.1999998092651</ele>
        <time>2019-12-26T08:45:13.000Z</time>
      </trkpt>
      <trkpt lat="47.26123" lon="-2.31676">
        <ele>-6.1999998092651</ele>
        <time>2019-12-26T08:45:20.000Z</time>
      </trkpt>
      <trkpt lat="47.2613" lon="-2.31728">
        <ele>-6.1999998092651</ele>
        <time>2019-12-26T08:45:27.000Z</time>
      </trkpt>
      <trkpt lat="47.26133" lon="-2.31769">
        <ele>-6.1999998092651</ele>
        <time>2019-12-26T08:45:33.000Z</time>
      </trkpt>
      <trkpt lat="47.26135" lon="-2.31793">
        <ele>-6.5999999046326</ele>
        <time>2019-12-26T08:45:37.000Z</time>
      </trkpt>
      <trkpt lat="47.26136" lon="-2.31798">
        <ele>-7.5999999046326</ele>
        <time>2019-12-26T08:45:38.000Z</time>
      </trkpt>
      <trkpt lat="47.26137" lon="-2.31803">
        <ele>-8</ele>
        <time>2019-12-26T08:45:39.000Z</time>
      </trkpt>
      <trkpt lat="47.26137" lon="-2.31809">
        <ele>-8.3999996185303</ele>
        <time>2019-12-26T08:45:40.000Z</time>
      </trkpt>
      <trkpt lat="47.26141" lon="-2.31848">
        <ele>-8.3999996185303</ele>
        <time>2019-12-26T08:45:47.000Z</time>
      </trkpt>
      <trkpt lat="47.26145" lon="-2.31878">
        <ele>-8.3999996185303</ele>
        <time>2019-12-26T08:45:52.000Z</time>
      </trkpt>
      <trkpt lat="47.26151" lon="-2.31917">
        <ele>-8.3999996185303</ele>
        <time>2019-12-26T08:45:59.000Z</time>
      </trkpt>
      <trkpt lat="47.26154" lon="-2.31952">
        <ele>-8.3999996185303</ele>
        <time>2019-12-26T08:46:05.000Z</time>
      </trkpt>
      <trkpt lat="47.26159" lon="-2.3198">
        <ele>-8.3999996185303</ele>
        <time>2019-12-26T08:46:10.000Z</time>
      </trkpt>
      <trkpt lat="47.26169" lon="-2.32015">
        <ele>-8.3999996185303</ele>
        <time>2019-12-26T08:46:17.000Z</time>
      </trkpt>
      <trkpt lat="47.26176" lon="-2.32029">
        <ele>-8.3999996185303</ele>
        <time>2019-12-26T08:46:20.000Z</time>
      </trkpt>
      <trkpt lat="47.26186" lon="-2.32048">
        <ele>-8.3999996185303</ele>
        <time>2019-12-26T08:46:24.000Z</time>
      </trkpt>
      <trkpt lat="47.26201" lon="-2.3208">
        <ele>-8.3999996185303</ele>
        <time>2019-12-26T08:46:30.000Z</time>
      </trkpt>
      <trkpt lat="47.26218" lon="-2.32122">
        <ele>-8.3999996185303</ele>
        <time>2019-12-26T08:46:38.000Z</time>
      </trkpt>
      <trkpt lat="47.26237" lon="-2.3216">
        <ele>-8.3999996185303</ele>
        <time>2019-12-26T08:46:45.000Z</time>
      </trkpt>
      <trkpt lat="47.26254" lon="-2.32207">
        <ele>-8.3999996185303</ele>
        <time>2019-12-26T08:46:53.000Z</time>
      </trkpt>
      <trkpt lat="47.26266" lon="-2.32241">
        <ele>-8</ele>
        <time>2019-12-26T08:46:59.000Z</time>
      </trkpt>
      <trkpt lat="47.26268" lon="-2.32247">
        <ele>-7.5999999046326</ele>
        <time>2019-12-26T08:47:00.000Z</time>
      </trkpt>
      <trkpt lat="47.2627" lon="-2.32251">
        <ele>-7.1999998092651</ele>
        <time>2019-12-26T08:47:01.000Z</time>
      </trkpt>
      <trkpt lat="47.26272" lon="-2.32256">
        <ele>-6.8000001907349</ele>
        <time>2019-12-26T08:47:02.000Z</time>
      </trkpt>
      <trkpt lat="47.26274" lon="-2.32261">
        <ele>-6.4000000953674</ele>
        <time>2019-12-26T08:47:03.000Z</time>
      </trkpt>
      <trkpt lat="47.26282" lon="-2.32287">
        <ele>-6.4000000953674</ele>
        <time>2019-12-26T08:47:08.000Z</time>
      </trkpt>
      <trkpt lat="47.26296" lon="-2.32323">
        <ele>-6</ele>
        <time>2019-12-26T08:47:15.000Z</time>
      </trkpt>
      <trkpt lat="47.26298" lon="-2.32329">
        <ele>-5.5999999046326</ele>
        <time>2019-12-26T08:47:16.000Z</time>
      </trkpt>
      <trkpt lat="47.263" lon="-2.32334">
        <ele>-5.1999998092651</ele>
        <time>2019-12-26T08:47:17.000Z</time>
      </trkpt>
      <trkpt lat="47.26301" lon="-2.3234">
        <ele>-4.4000000953674</ele>
        <time>2019-12-26T08:47:18.000Z</time>
      </trkpt>
      <trkpt lat="47.26308" lon="-2.32363">
        <ele>-4.4000000953674</ele>
        <time>2019-12-26T08:47:22.000Z</time>
      </trkpt>
      <trkpt lat="47.26319" lon="-2.32404">
        <ele>-4.4000000953674</ele>
        <time>2019-12-26T08:47:29.000Z</time>
      </trkpt>
      <trkpt lat="47.26336" lon="-2.3245">
        <ele>-4.4000000953674</ele>
        <time>2019-12-26T08:47:37.000Z</time>
      </trkpt>
      <trkpt lat="47.26346" lon="-2.32474">
        <ele>-4.4000000953674</ele>
        <time>2019-12-26T08:47:42.000Z</time>
      </trkpt>
      <trkpt lat="47.26345" lon="-2.32482">
        <ele>-4.8000001907349</ele>
        <time>2019-12-26T08:47:44.000Z</time>
      </trkpt>
      <trkpt lat="47.26343" lon="-2.32486">
        <ele>-5.1999998092651</ele>
        <time>2019-12-26T08:47:45.000Z</time>
      </trkpt>
      <trkpt lat="47.26341" lon="-2.3249">
        <ele>-5.5999999046326</ele>
        <time>2019-12-26T08:47:46.000Z</time>
      </trkpt>
      <trkpt lat="47.26338" lon="-2.32494">
        <ele>-6</ele>
        <time>2019-12-26T08:47:47.000Z</time>
      </trkpt>
      <trkpt lat="47.26334" lon="-2.32498">
        <ele>-6.4000000953674</ele>
        <time>2019-12-26T08:47:48.000Z</time>
      </trkpt>
      <trkpt lat="47.26328" lon="-2.32506">
        <ele>-6.4000000953674</ele>
        <time>2019-12-26T08:47:50.000Z</time>
      </trkpt>
      <trkpt lat="47.26308" lon="-2.32532">
        <ele>-6.4000000953674</ele>
        <time>2019-12-26T08:47:56.000Z</time>
      </trkpt>
      <trkpt lat="47.26306" lon="-2.32537">
        <ele>-6.4000000953674</ele>
        <time>2019-12-26T08:47:57.000Z</time>
      </trkpt>
      <trkpt lat="47.26303" lon="-2.32557">
        <ele>-6.4000000953674</ele>
        <time>2019-12-26T08:48:00.000Z</time>
      </trkpt>
      <trkpt lat="47.26304" lon="-2.32573">
        <ele>-6.4000000953674</ele>
        <time>2019-12-26T08:48:02.000Z</time>
      </trkpt>
      <trkpt lat="47.26306" lon="-2.32606">
        <ele>-6.4000000953674</ele>
        <time>2019-12-26T08:48:06.000Z</time>
      </trkpt>
      <trkpt lat="47.26308" lon="-2.32656">
        <ele>-6.4000000953674</ele>
        <time>2019-12-26T08:48:12.000Z</time>
      </trkpt>
      <trkpt lat="47.2631" lon="-2.32664">
        <ele>-6.4000000953674</ele>
        <time>2019-12-26T08:48:13.000Z</time>
      </trkpt>
      <trkpt lat="47.26323" lon="-2.32704">
        <ele>-6.4000000953674</ele>
        <time>2019-12-26T08:48:18.000Z</time>
      </trkpt>
      <trkpt lat="47.26342" lon="-2.32755">
        <ele>-6.4000000953674</ele>
        <time>2019-12-26T08:48:25.000Z</time>
      </trkpt>
      <trkpt lat="47.26368" lon="-2.32827">
        <ele>-6.4000000953674</ele>
        <time>2019-12-26T08:48:35.000Z</time>
      </trkpt>
      <trkpt lat="47.2639" lon="-2.32884">
        <ele>-6.4000000953674</ele>
        <time>2019-12-26T08:48:43.000Z</time>
      </trkpt>
      <trkpt lat="47.26393" lon="-2.32892">
        <ele>-6.8000001907349</ele>
        <time>2019-12-26T08:48:44.000Z</time>
      </trkpt>
      <trkpt lat="47.26396" lon="-2.32899">
        <ele>-7.4000000953674</ele>
        <time>2019-12-26T08:48:45.000Z</time>
      </trkpt>
      <trkpt lat="47.26398" lon="-2.32906">
        <ele>-7.8000001907349</ele>
        <time>2019-12-26T08:48:46.000Z</time>
      </trkpt>
      <trkpt lat="47.26401" lon="-2.32912">
        <ele>-8.1999998092651</ele>
        <time>2019-12-26T08:48:47.000Z</time>
      </trkpt>
      <trkpt lat="47.26403" lon="-2.32919">
        <ele>-8.6000003814697</ele>
        <time>2019-12-26T08:48:48.000Z</time>
      </trkpt>
      <trkpt lat="47.26408" lon="-2.32931">
        <ele>-8.1999998092651</ele>
        <time>2019-12-26T08:48:50.000Z</time>
      </trkpt>
      <trkpt lat="47.2641" lon="-2.32937">
        <ele>-7.5999999046326</ele>
        <time>2019-12-26T08:48:51.000Z</time>
      </trkpt>
      <trkpt lat="47.26412" lon="-2.32943">
        <ele>-7.1999998092651</ele>
        <time>2019-12-26T08:48:52.000Z</time>
      </trkpt>
      <trkpt lat="47.26414" lon="-2.32949">
        <ele>-6.5999999046326</ele>
        <time>2019-12-26T08:48:53.000Z</time>
      </trkpt>
      <trkpt lat="47.26417" lon="-2.32956">
        <ele>-6.1999998092651</ele>
        <time>2019-12-26T08:48:54.000Z</time>
      </trkpt>
      <trkpt lat="47.26422" lon="-2.32968">
        <ele>-6.5999999046326</ele>
        <time>2019-12-26T08:48:56.000Z</time>
      </trkpt>
      <trkpt lat="47.26425" lon="-2.32975">
        <ele>-7.5999999046326</ele>
        <time>2019-12-26T08:48:57.000Z</time>
      </trkpt>
      <trkpt lat="47.26429" lon="-2.32981">
        <ele>-8</ele>
        <time>2019-12-26T08:48:58.000Z</time>
      </trkpt>
      <trkpt lat="47.26432" lon="-2.32986">
        <ele>-8.6000003814697</ele>
        <time>2019-12-26T08:48:59.000Z</time>
      </trkpt>
      <trkpt lat="47.26457" lon="-2.33018">
        <ele>-8.6000003814697</ele>
        <time>2019-12-26T08:49:05.000Z</time>
      </trkpt>
      <trkpt lat="47.26487" lon="-2.33053">
        <ele>-8.6000003814697</ele>
        <time>2019-12-26T08:49:12.000Z</time>
      </trkpt>
      <trkpt lat="47.26524" lon="-2.33087">
        <ele>-8.6000003814697</ele>
        <time>2019-12-26T08:49:20.000Z</time>
      </trkpt>
      <trkpt lat="47.26557" lon="-2.3311">
        <ele>-8.6000003814697</ele>
        <time>2019-12-26T08:49:27.000Z</time>
      </trkpt>
      <trkpt lat="47.26592" lon="-2.33134">
        <ele>-8.6000003814697</ele>
        <time>2019-12-26T08:49:35.000Z</time>
      </trkpt>
      <trkpt lat="47.2662" lon="-2.33148">
        <ele>-8.6000003814697</ele>
        <time>2019-12-26T08:49:41.000Z</time>
      </trkpt>
      <trkpt lat="47.26629" lon="-2.33149">
        <ele>-8.6000003814697</ele>
        <time>2019-12-26T08:49:43.000Z</time>
      </trkpt>
      <trkpt lat="47.26639" lon="-2.33146">
        <ele>-8.6000003814697</ele>
        <time>2019-12-26T08:49:45.000Z</time>
      </trkpt>
      <trkpt lat="47.26649" lon="-2.33138">
        <ele>-8.6000003814697</ele>
        <time>2019-12-26T08:49:47.000Z</time>
      </trkpt>
      <trkpt lat="47.26668" lon="-2.33122">
        <ele>-8.6000003814697</ele>
        <time>2019-12-26T08:49:51.000Z</time>
      </trkpt>
      <trkpt lat="47.26678" lon="-2.33113">
        <ele>-8.6000003814697</ele>
        <time>2019-12-26T08:49:53.000Z</time>
      </trkpt>
      <trkpt lat="47.26694" lon="-2.33095">
        <ele>-8.6000003814697</ele>
        <time>2019-12-26T08:49:57.000Z</time>
      </trkpt>
      <trkpt lat="47.26721" lon="-2.33062">
        <ele>-8.6000003814697</ele>
        <time>2019-12-26T08:50:04.000Z</time>
      </trkpt>
      <trkpt lat="47.26732" lon="-2.33032">
        <ele>-8.6000003814697</ele>
        <time>2019-12-26T08:50:09.000Z</time>
      </trkpt>
      <trkpt lat="47.26733" lon="-2.3301">
        <ele>-8.6000003814697</ele>
        <time>2019-12-26T08:50:13.000Z</time>
      </trkpt>
      <trkpt lat="47.26734" lon="-2.33004">
        <ele>-8.6000003814697</ele>
        <time>2019-12-26T08:50:14.000Z</time>
      </trkpt>
      <trkpt lat="47.26735" lon="-2.32998">
        <ele>-8.6000003814697</ele>
        <time>2019-12-26T08:50:15.000Z</time>
      </trkpt>
      <trkpt lat="47.2674" lon="-2.32981">
        <ele>-8.6000003814697</ele>
        <time>2019-12-26T08:50:18.000Z</time>
      </trkpt>
      <trkpt lat="47.26748" lon="-2.32968">
        <ele>-8.6000003814697</ele>
        <time>2019-12-26T08:50:21.000Z</time>
      </trkpt>
      <trkpt lat="47.26755" lon="-2.32959">
        <ele>-8.6000003814697</ele>
        <time>2019-12-26T08:50:23.000Z</time>
      </trkpt>
      <trkpt lat="47.26782" lon="-2.32928">
        <ele>-8.6000003814697</ele>
        <time>2019-12-26T08:50:30.000Z</time>
      </trkpt>
      <trkpt lat="47.26786" lon="-2.32924">
        <ele>-8.6000003814697</ele>
        <time>2019-12-26T08:50:31.000Z</time>
      </trkpt>
      <trkpt lat="47.26801" lon="-2.32915">
        <ele>-8.6000003814697</ele>
        <time>2019-12-26T08:50:34.000Z</time>
      </trkpt>
      <trkpt lat="47.2681" lon="-2.32909">
        <ele>-8.6000003814697</ele>
        <time>2019-12-26T08:50:36.000Z</time>
      </trkpt>
      <trkpt lat="47.26816" lon="-2.329">
        <ele>-8.6000003814697</ele>
        <time>2019-12-26T08:50:38.000Z</time>
      </trkpt>
      <trkpt lat="47.2683" lon="-2.32884">
        <ele>-8.6000003814697</ele>
        <time>2019-12-26T08:50:43.000Z</time>
      </trkpt>
      <trkpt lat="47.26834" lon="-2.32882">
        <ele>-8.6000003814697</ele>
        <time>2019-12-26T08:50:44.000Z</time>
      </trkpt>
      <trkpt lat="47.26849" lon="-2.32877">
        <ele>-8.6000003814697</ele>
        <time>2019-12-26T08:50:48.000Z</time>
      </trkpt>
      <trkpt lat="47.26856" lon="-2.32865">
        <ele>-8.6000003814697</ele>
        <time>2019-12-26T08:50:51.000Z</time>
      </trkpt>
      <trkpt lat="47.26854" lon="-2.3285">
        <ele>-8.6000003814697</ele>
        <time>2019-12-26T08:50:54.000Z</time>
      </trkpt>
      <trkpt lat="47.26852" lon="-2.32845">
        <ele>-8.6000003814697</ele>
        <time>2019-12-26T08:50:55.000Z</time>
      </trkpt>
      <trkpt lat="47.2685" lon="-2.3284">
        <ele>-8.6000003814697</ele>
        <time>2019-12-26T08:50:56.000Z</time>
      </trkpt>
      <trkpt lat="47.26845" lon="-2.32826">
        <ele>-8.1999998092651</ele>
        <time>2019-12-26T08:50:59.000Z</time>
      </trkpt>
      <trkpt lat="47.26844" lon="-2.32822">
        <ele>-7.4000000953674</ele>
        <time>2019-12-26T08:51:00.000Z</time>
      </trkpt>
      <trkpt lat="47.26843" lon="-2.32818">
        <ele>-7</ele>
        <time>2019-12-26T08:51:01.000Z</time>
      </trkpt>
      <trkpt lat="47.26842" lon="-2.32813">
        <ele>-6.4000000953674</ele>
        <time>2019-12-26T08:51:02.000Z</time>
      </trkpt>
      <trkpt lat="47.26842" lon="-2.3281">
        <ele>-6</ele>
        <time>2019-12-26T08:51:03.000Z</time>
      </trkpt>
      <trkpt lat="47.26841" lon="-2.32806">
        <ele>-5.4000000953674</ele>
        <time>2019-12-26T08:51:04.000Z</time>
      </trkpt>
      <trkpt lat="47.2684" lon="-2.32803">
        <ele>-5</ele>
        <time>2019-12-26T08:51:05.000Z</time>
      </trkpt>
      <trkpt lat="47.26839" lon="-2.32799">
        <ele>-4.5999999046326</ele>
        <time>2019-12-26T08:51:06.000Z</time>
      </trkpt>
      <trkpt lat="47.26837" lon="-2.3279">
        <ele>-4.5999999046326</ele>
        <time>2019-12-26T08:51:08.000Z</time>
      </trkpt>
      <trkpt lat="47.26835" lon="-2.32782">
        <ele>-4</ele>
        <time>2019-12-26T08:51:10.000Z</time>
      </trkpt>
      <trkpt lat="47.26834" lon="-2.32778">
        <ele>-3.5999999046326</ele>
        <time>2019-12-26T08:51:11.000Z</time>
      </trkpt>
      <trkpt lat="47.26833" lon="-2.32774">
        <ele>-3.2000000476837</ele>
        <time>2019-12-26T08:51:12.000Z</time>
      </trkpt>
      <trkpt lat="47.26831" lon="-2.3277">
        <ele>-2.7999999523163</ele>
        <time>2019-12-26T08:51:13.000Z</time>
      </trkpt>
      <trkpt lat="47.2683" lon="-2.32765">
        <ele>-2.4000000953674</ele>
        <time>2019-12-26T08:51:14.000Z</time>
      </trkpt>
      <trkpt lat="47.26827" lon="-2.32758">
        <ele>-2</ele>
        <time>2019-12-26T08:51:16.000Z</time>
      </trkpt>
      <trkpt lat="47.26826" lon="-2.32754">
        <ele>-1.3999999761581</ele>
        <time>2019-12-26T08:51:17.000Z</time>
      </trkpt>
      <trkpt lat="47.26824" lon="-2.3275">
        <ele>-1</ele>
        <time>2019-12-26T08:51:18.000Z</time>
      </trkpt>
      <trkpt lat="47.26822" lon="-2.32747">
        <ele>-0.60000002384186</ele>
        <time>2019-12-26T08:51:19.000Z</time>
      </trkpt>
      <trkpt lat="47.26821" lon="-2.32743">
        <ele>16.1</ele>
        <time>2019-12-26T08:51:20.000Z</time>
      </trkpt>
      <trkpt lat="47.26819" lon="-2.32736">
        <ele>0.40000000596046</ele>
        <time>2019-12-26T08:51:22.000Z</time>
      </trkpt>
      <trkpt lat="47.26817" lon="-2.32733">
        <ele>0.80000001192093</ele>
        <time>2019-12-26T08:51:23.000Z</time>
      </trkpt>
      <trkpt lat="47.26816" lon="-2.32729">
        <ele>1.2000000476837</ele>
        <time>2019-12-26T08:51:24.000Z</time>
      </trkpt>
      <trkpt lat="47.26815" lon="-2.32725">
        <ele>2.2000000476837</ele>
        <time>2019-12-26T08:51:25.000Z</time>
      </trkpt>
      <trkpt lat="47.2681" lon="-2.32711">
        <ele>2.2000000476837</ele>
        <time>2019-12-26T08:51:29.000Z</time>
      </trkpt>
      <trkpt lat="47.26804" lon="-2.32695">
        <ele>2.5999999046326</ele>
        <time>2019-12-26T08:51:33.000Z</time>
      </trkpt>
      <trkpt lat="47.26803" lon="-2.32691">
        <ele>3</ele>
        <time>2019-12-26T08:51:34.000Z</time>
      </trkpt>
      <trkpt lat="47.26802" lon="-2.32686">
        <ele>3.4000000953674</ele>
        <time>2019-12-26T08:51:35.000Z</time>
      </trkpt>
      <trkpt lat="47.26802" lon="-2.32681">
        <ele>3.7999999523163</ele>
        <time>2019-12-26T08:51:36.000Z</time>
      </trkpt>
      <trkpt lat="47.26802" lon="-2.32677">
        <ele>4.1999998092651</ele>
        <time>2019-12-26T08:51:37.000Z</time>
      </trkpt>
      <trkpt lat="47.26806" lon="-2.32668">
        <ele>4.1999998092651</ele>
        <time>2019-12-26T08:51:39.000Z</time>
      </trkpt>
      <trkpt lat="47.2681" lon="-2.32659">
        <ele>4.1999998092651</ele>
        <time>2019-12-26T08:51:41.000Z</time>
      </trkpt>
      <trkpt lat="47.26811" lon="-2.32646">
        <ele>4.1999998092651</ele>
        <time>2019-12-26T08:51:43.000Z</time>
      </trkpt>
      <trkpt lat="47.26809" lon="-2.32632">
        <ele>4.1999998092651</ele>
        <time>2019-12-26T08:51:45.000Z</time>
      </trkpt>
      <trkpt lat="47.26806" lon="-2.32604">
        <ele>4.1999998092651</ele>
        <time>2019-12-26T08:51:49.000Z</time>
      </trkpt>
      <trkpt lat="47.268" lon="-2.32572">
        <ele>4.1999998092651</ele>
        <time>2019-12-26T08:51:55.000Z</time>
      </trkpt>
      <trkpt lat="47.26798" lon="-2.3255">
        <ele>4.1999998092651</ele>
        <time>2019-12-26T08:52:00.000Z</time>
      </trkpt>
      <trkpt lat="47.26797" lon="-2.32519">
        <ele>4.1999998092651</ele>
        <time>2019-12-26T08:52:05.000Z</time>
      </trkpt>
      <trkpt lat="47.26793" lon="-2.32473">
        <ele>4.1999998092651</ele>
        <time>2019-12-26T08:52:12.000Z</time>
      </trkpt>
      <trkpt lat="47.2679" lon="-2.32447">
        <ele>4.1999998092651</ele>
        <time>2019-12-26T08:52:16.000Z</time>
      </trkpt>
      <trkpt lat="47.26788" lon="-2.32435">
        <ele>4.1999998092651</ele>
        <time>2019-12-26T08:52:18.000Z</time>
      </trkpt>
      <trkpt lat="47.2678" lon="-2.32386">
        <ele>4.1999998092651</ele>
        <time>2019-12-26T08:52:26.000Z</time>
      </trkpt>
      <trkpt lat="47.2678" lon="-2.32373">
        <ele>4.1999998092651</ele>
        <time>2019-12-26T08:52:28.000Z</time>
      </trkpt>
      <trkpt lat="47.26785" lon="-2.32364">
        <ele>4.1999998092651</ele>
        <time>2019-12-26T08:52:30.000Z</time>
      </trkpt>
      <trkpt lat="47.26799" lon="-2.3236">
        <ele>4.1999998092651</ele>
        <time>2019-12-26T08:52:33.000Z</time>
      </trkpt>
      <trkpt lat="47.26805" lon="-2.32358">
        <ele>4.1999998092651</ele>
        <time>2019-12-26T08:52:34.000Z</time>
      </trkpt>
      <trkpt lat="47.26843" lon="-2.32349">
        <ele>3.7999999523163</ele>
        <time>2019-12-26T08:52:40.000Z</time>
      </trkpt>
      <trkpt lat="47.26851" lon="-2.32347">
        <ele>3.4000000953674</ele>
        <time>2019-12-26T08:52:41.000Z</time>
      </trkpt>
      <trkpt lat="47.26858" lon="-2.32346">
        <ele>3</ele>
        <time>2019-12-26T08:52:42.000Z</time>
      </trkpt>
      <trkpt lat="47.26866" lon="-2.32344">
        <ele>2.5999999046326</ele>
        <time>2019-12-26T08:52:43.000Z</time>
      </trkpt>
      <trkpt lat="47.26874" lon="-2.32342">
        <ele>2.2000000476837</ele>
        <time>2019-12-26T08:52:44.000Z</time>
      </trkpt>
      <trkpt lat="47.26883" lon="-2.32339">
        <ele>1.6000000238419</ele>
        <time>2019-12-26T08:52:45.000Z</time>
      </trkpt>
      <trkpt lat="47.26891" lon="-2.32337">
        <ele>1.2000000476837</ele>
        <time>2019-12-26T08:52:46.000Z</time>
      </trkpt>
      <trkpt lat="47.26899" lon="-2.32336">
        <ele>0.80000001192093</ele>
        <time>2019-12-26T08:52:47.000Z</time>
      </trkpt>
      <trkpt lat="47.26905" lon="-2.32335">
        <ele>9.3</ele>
        <time>2019-12-26T08:52:48.000Z</time>
      </trkpt>
      <trkpt lat="47.26911" lon="-2.32335">
        <ele>-0.60000002384186</ele>
        <time>2019-12-26T08:52:49.000Z</time>
      </trkpt>
      <trkpt lat="47.26916" lon="-2.32336">
        <ele>-1.3999999761581</ele>
        <time>2019-12-26T08:52:50.000Z</time>
      </trkpt>
      <trkpt lat="47.2692" lon="-2.32338">
        <ele>-2.2000000476837</ele>
        <time>2019-12-26T08:52:51.000Z</time>
      </trkpt>
      <trkpt lat="47.26924" lon="-2.32342">
        <ele>-2.7999999523163</ele>
        <time>2019-12-26T08:52:52.000Z</time>
      </trkpt>
      <trkpt lat="47.26927" lon="-2.32345">
        <ele>-3.5999999046326</ele>
        <time>2019-12-26T08:52:53.000Z</time>
      </trkpt>
      <trkpt lat="47.2693" lon="-2.32349">
        <ele>-4.4000000953674</ele>
        <time>2019-12-26T08:52:54.000Z</time>
      </trkpt>
      <trkpt lat="47.26933" lon="-2.32353">
        <ele>-5.1999998092651</ele>
        <time>2019-12-26T08:52:55.000Z</time>
      </trkpt>
      <trkpt lat="47.26937" lon="-2.32363">
        <ele>-5.1999998092651</ele>
        <time>2019-12-26T08:52:57.000Z</time>
      </trkpt>
      <trkpt lat="47.2694" lon="-2.32375">
        <ele>-5.1999998092651</ele>
        <time>2019-12-26T08:52:59.000Z</time>
      </trkpt>
      <trkpt lat="47.26943" lon="-2.32386">
        <ele>-5.1999998092651</ele>
        <time>2019-12-26T08:53:01.000Z</time>
      </trkpt>
      <trkpt lat="47.26945" lon="-2.32392">
        <ele>-5.1999998092651</ele>
        <time>2019-12-26T08:53:02.000Z</time>
      </trkpt>
      <trkpt lat="47.2695" lon="-2.32411">
        <ele>-5.1999998092651</ele>
        <time>2019-12-26T08:53:05.000Z</time>
      </trkpt>
      <trkpt lat="47.26956" lon="-2.32428">
        <ele>-5.1999998092651</ele>
        <time>2019-12-26T08:53:08.000Z</time>
      </trkpt>
      <trkpt lat="47.26976" lon="-2.32453">
        <ele>-5.1999998092651</ele>
        <time>2019-12-26T08:53:14.000Z</time>
      </trkpt>
      <trkpt lat="47.26979" lon="-2.32458">
        <ele>-5.1999998092651</ele>
        <time>2019-12-26T08:53:15.000Z</time>
      </trkpt>
      <trkpt lat="47.2699" lon="-2.32478">
        <ele>-5.1999998092651</ele>
        <time>2019-12-26T08:53:19.000Z</time>
      </trkpt>
      <trkpt lat="47.27002" lon="-2.325">
        <ele>-5.1999998092651</ele>
        <time>2019-12-26T08:53:23.000Z</time>
      </trkpt>
      <trkpt lat="47.27006" lon="-2.32502">
        <ele>-5.5999999046326</ele>
        <time>2019-12-26T08:53:24.000Z</time>
      </trkpt>
      <trkpt lat="47.27011" lon="-2.32502">
        <ele>-6</ele>
        <time>2019-12-26T08:53:25.000Z</time>
      </trkpt>
      <trkpt lat="47.27015" lon="-2.325">
        <ele>-6.4000000953674</ele>
        <time>2019-12-26T08:53:26.000Z</time>
      </trkpt>
      <trkpt lat="47.2702" lon="-2.32499">
        <ele>-6.8000001907349</ele>
        <time>2019-12-26T08:53:27.000Z</time>
      </trkpt>
      <trkpt lat="47.27023" lon="-2.32497">
        <ele>-7.1999998092651</ele>
        <time>2019-12-26T08:53:28.000Z</time>
      </trkpt>
      <trkpt lat="47.27026" lon="-2.32493">
        <ele>-7.5999999046326</ele>
        <time>2019-12-26T08:53:29.000Z</time>
      </trkpt>
      <trkpt lat="47.27028" lon="-2.32488">
        <ele>-8</ele>
        <time>2019-12-26T08:53:30.000Z</time>
      </trkpt>
      <trkpt lat="47.2703" lon="-2.32482">
        <ele>-8.3999996185303</ele>
        <time>2019-12-26T08:53:31.000Z</time>
      </trkpt>
      <trkpt lat="47.2703" lon="-2.32475">
        <ele>-8.8000001907349</ele>
        <time>2019-12-26T08:53:32.000Z</time>
      </trkpt>
      <trkpt lat="47.2703" lon="-2.32468">
        <ele>-9.1999998092651</ele>
        <time>2019-12-26T08:53:33.000Z</time>
      </trkpt>
      <trkpt lat="47.2703" lon="-2.32461">
        <ele>-9.1999998092651</ele>
        <time>2019-12-26T08:53:34.000Z</time>
      </trkpt>
      <trkpt lat="47.27029" lon="-2.3242">
        <ele>-9.1999998092651</ele>
        <time>2019-12-26T08:53:39.000Z</time>
      </trkpt>
      <trkpt lat="47.27026" lon="-2.32367">
        <ele>-9.1999998092651</ele>
        <time>2019-12-26T08:53:46.000Z</time>
      </trkpt>
      <trkpt lat="47.27023" lon="-2.32348">
        <ele>-9.1999998092651</ele>
        <time>2019-12-26T08:53:49.000Z</time>
      </trkpt>
      <trkpt lat="47.27022" lon="-2.32334">
        <ele>-9.1999998092651</ele>
        <time>2019-12-26T08:53:51.000Z</time>
      </trkpt>
      <trkpt lat="47.2702" lon="-2.32298">
        <ele>-9.1999998092651</ele>
        <time>2019-12-26T08:53:56.000Z</time>
      </trkpt>
      <trkpt lat="47.2702" lon="-2.32291">
        <ele>-9.1999998092651</ele>
        <time>2019-12-26T08:53:57.000Z</time>
      </trkpt>
      <trkpt lat="47.27022" lon="-2.32262">
        <ele>-9.1999998092651</ele>
        <time>2019-12-26T08:54:01.000Z</time>
      </trkpt>
      <trkpt lat="47.27022" lon="-2.32249">
        <ele>-9.1999998092651</ele>
        <time>2019-12-26T08:54:03.000Z</time>
      </trkpt>
      <trkpt lat="47.27022" lon="-2.32229">
        <ele>-9.1999998092651</ele>
        <time>2019-12-26T08:54:06.000Z</time>
      </trkpt>
      <trkpt lat="47.27018" lon="-2.32218">
        <ele>-9.1999998092651</ele>
        <time>2019-12-26T08:54:08.000Z</time>
      </trkpt>
      <trkpt lat="47.27013" lon="-2.32194">
        <ele>-9.1999998092651</ele>
        <time>2019-12-26T08:54:13.000Z</time>
      </trkpt>
      <trkpt lat="47.27003" lon="-2.32176">
        <ele>-9.1999998092651</ele>
        <time>2019-12-26T08:54:17.000Z</time>
      </trkpt>
      <trkpt lat="47.26989" lon="-2.32147">
        <ele>-9.1999998092651</ele>
        <time>2019-12-26T08:54:23.000Z</time>
      </trkpt>
      <trkpt lat="47.26992" lon="-2.32133">
        <ele>-9.1999998092651</ele>
        <time>2019-12-26T08:54:27.000Z</time>
      </trkpt>
      <trkpt lat="47.27003" lon="-2.32123">
        <ele>-9.1999998092651</ele>
        <time>2019-12-26T08:54:31.000Z</time>
      </trkpt>
      <trkpt lat="47.2701" lon="-2.32107">
        <ele>-9.1999998092651</ele>
        <time>2019-12-26T08:54:35.000Z</time>
      </trkpt>
      <trkpt lat="47.27011" lon="-2.32103">
        <ele>-9.1999998092651</ele>
        <time>2019-12-26T08:54:36.000Z</time>
      </trkpt>
      <trkpt lat="47.27015" lon="-2.32083">
        <ele>-9.1999998092651</ele>
        <time>2019-12-26T08:54:41.000Z</time>
      </trkpt>
      <trkpt lat="47.27016" lon="-2.32074">
        <ele>-8.8000001907349</ele>
        <time>2019-12-26T08:54:43.000Z</time>
      </trkpt>
      <trkpt lat="47.27017" lon="-2.32069">
        <ele>-8.3999996185303</ele>
        <time>2019-12-26T08:54:44.000Z</time>
      </trkpt>
      <trkpt lat="47.27017" lon="-2.32064">
        <ele>-8</ele>
        <time>2019-12-26T08:54:45.000Z</time>
      </trkpt>
      <trkpt lat="47.27017" lon="-2.32059">
        <ele>-7.5999999046326</ele>
        <time>2019-12-26T08:54:46.000Z</time>
      </trkpt>
      <trkpt lat="47.27017" lon="-2.32054">
        <ele>-7.1999998092651</ele>
        <time>2019-12-26T08:54:47.000Z</time>
      </trkpt>
      <trkpt lat="47.27015" lon="-2.32028">
        <ele>-7.1999998092651</ele>
        <time>2019-12-26T08:54:52.000Z</time>
      </trkpt>
      <trkpt lat="47.27009" lon="-2.32001">
        <ele>-7.1999998092651</ele>
        <time>2019-12-26T08:54:58.000Z</time>
      </trkpt>
      <trkpt lat="47.27008" lon="-2.31984">
        <ele>-6.8000001907349</ele>
        <time>2019-12-26T08:55:02.000Z</time>
      </trkpt>
      <trkpt lat="47.2701" lon="-2.31981">
        <ele>-6.1999998092651</ele>
        <time>2019-12-26T08:55:03.000Z</time>
      </trkpt>
      <trkpt lat="47.27012" lon="-2.31979">
        <ele>-5.8000001907349</ele>
        <time>2019-12-26T08:55:04.000Z</time>
      </trkpt>
      <trkpt lat="47.27016" lon="-2.31977">
        <ele>-5.4000000953674</ele>
        <time>2019-12-26T08:55:05.000Z</time>
      </trkpt>
      <trkpt lat="47.27019" lon="-2.31975">
        <ele>-5</ele>
        <time>2019-12-26T08:55:06.000Z</time>
      </trkpt>
      <trkpt lat="47.27022" lon="-2.31973">
        <ele>-5</ele>
        <time>2019-12-26T08:55:07.000Z</time>
      </trkpt>
      <trkpt lat="47.27032" lon="-2.31967">
        <ele>-5</ele>
        <time>2019-12-26T08:55:11.000Z</time>
      </trkpt>
      <trkpt lat="47.27045" lon="-2.31959">
        <ele>-5</ele>
        <time>2019-12-26T08:55:17.000Z</time>
      </trkpt>
      <trkpt lat="47.2706" lon="-2.31959">
        <ele>-5</ele>
        <time>2019-12-26T08:55:23.000Z</time>
      </trkpt>
      <trkpt lat="47.2707" lon="-2.31957">
        <ele>-5</ele>
        <time>2019-12-26T08:55:29.000Z</time>
      </trkpt>
      <trkpt lat="47.27071" lon="-2.31957">
        <ele>-5</ele>
        <time>2019-12-26T08:55:30.000Z</time>
      </trkpt>
      <trkpt lat="47.27075" lon="-2.31957">
        <ele>-5</ele>
        <time>2019-12-26T08:55:33.000Z</time>
      </trkpt>
      <trkpt lat="47.27088" lon="-2.31955">
        <ele>-5</ele>
        <time>2019-12-26T08:55:38.000Z</time>
      </trkpt>
      <trkpt lat="47.27103" lon="-2.31958">
        <ele>-5</ele>
        <time>2019-12-26T08:55:43.000Z</time>
      </trkpt>
      <trkpt lat="47.27122" lon="-2.31968">
        <ele>-5.4000000953674</ele>
        <time>2019-12-26T08:55:48.000Z</time>
      </trkpt>
      <trkpt lat="47.27125" lon="-2.3197">
        <ele>-5.8000001907349</ele>
        <time>2019-12-26T08:55:49.000Z</time>
      </trkpt>
      <trkpt lat="47.27128" lon="-2.31972">
        <ele>-6.1999998092651</ele>
        <time>2019-12-26T08:55:50.000Z</time>
      </trkpt>
      <trkpt lat="47.27131" lon="-2.31974">
        <ele>-6.5999999046326</ele>
        <time>2019-12-26T08:55:51.000Z</time>
      </trkpt>
      <trkpt lat="47.27133" lon="-2.31976">
        <ele>-7.1999998092651</ele>
        <time>2019-12-26T08:55:52.000Z</time>
      </trkpt>
      <trkpt lat="47.27136" lon="-2.31979">
        <ele>-7.1999998092651</ele>
        <time>2019-12-26T08:55:53.000Z</time>
      </trkpt>
      <trkpt lat="47.27151" lon="-2.31994">
        <ele>-7.1999998092651</ele>
        <time>2019-12-26T08:55:59.000Z</time>
      </trkpt>
      <trkpt lat="47.27157" lon="-2.31997">
        <ele>-7.1999998092651</ele>
        <time>2019-12-26T08:56:01.000Z</time>
      </trkpt>
      <trkpt lat="47.27162" lon="-2.31995">
        <ele>-7.1999998092651</ele>
        <time>2019-12-26T08:56:03.000Z</time>
      </trkpt>
      <trkpt lat="47.2717" lon="-2.31987">
        <ele>-7.1999998092651</ele>
        <time>2019-12-26T08:56:06.000Z</time>
      </trkpt>
      <trkpt lat="47.27172" lon="-2.31984">
        <ele>-7.1999998092651</ele>
        <time>2019-12-26T08:56:07.000Z</time>
      </trkpt>
      <trkpt lat="47.27182" lon="-2.3197">
        <ele>-7.1999998092651</ele>
        <time>2019-12-26T08:56:12.000Z</time>
      </trkpt>
      <trkpt lat="47.27192" lon="-2.31958">
        <ele>-7.1999998092651</ele>
        <time>2019-12-26T08:56:17.000Z</time>
      </trkpt>
      <trkpt lat="47.27203" lon="-2.31945">
        <ele>-7.1999998092651</ele>
        <time>2019-12-26T08:56:23.000Z</time>
      </trkpt>
      <trkpt lat="47.27213" lon="-2.31925">
        <ele>-7.1999998092651</ele>
        <time>2019-12-26T08:56:29.000Z</time>
      </trkpt>
      <trkpt lat="47.27219" lon="-2.31918">
        <ele>-7.1999998092651</ele>
        <time>2019-12-26T08:56:34.000Z</time>
      </trkpt>
      <trkpt lat="47.27221" lon="-2.31917">
        <ele>-7.1999998092651</ele>
        <time>2019-12-26T08:56:35.000Z</time>
      </trkpt>
      <trkpt lat="47.27225" lon="-2.31916">
        <ele>-7.1999998092651</ele>
        <time>2019-12-26T08:56:38.000Z</time>
      </trkpt>
      <trkpt lat="47.27226" lon="-2.31918">
        <ele>-7.1999998092651</ele>
        <time>2019-12-26T08:56:40.000Z</time>
      </trkpt>
      <trkpt lat="47.27226" lon="-2.31919">
        <ele>-7.1999998092651</ele>
        <time>2019-12-26T08:56:41.000Z</time>
      </trkpt>
      <trkpt lat="47.27228" lon="-2.31916">
        <ele>-7.1999998092651</ele>
        <time>2019-12-26T08:56:44.000Z</time>
      </trkpt>
      <trkpt lat="47.27228" lon="-2.31915">
        <ele>-7.1999998092651</ele>
        <time>2019-12-26T08:56:45.000Z</time>
      </trkpt>
      <trkpt lat="47.27233" lon="-2.31917">
        <ele>-7.1999998092651</ele>
        <time>2019-12-26T08:56:48.000Z</time>
      </trkpt>
      <trkpt lat="47.27235" lon="-2.31918">
        <ele>-7.1999998092651</ele>
        <time>2019-12-26T08:56:51.000Z</time>
      </trkpt>
      <trkpt lat="47.27232" lon="-2.31918">
        <ele>-7.1999998092651</ele>
        <time>2019-12-26T08:57:07.000Z</time>
      </trkpt>
      <trkpt lat="47.2723" lon="-2.31918">
        <ele>-7.1999998092651</ele>
        <time>2019-12-26T08:57:08.000Z</time>
      </trkpt>
      <trkpt lat="47.27222" lon="-2.31916">
        <ele>-7.1999998092651</ele>
        <time>2019-12-26T08:57:12.000Z</time>
      </trkpt>
      <trkpt lat="47.27217" lon="-2.31912">
        <ele>-7.1999998092651</ele>
        <time>2019-12-26T08:57:16.000Z</time>
      </trkpt>
      <trkpt lat="47.27216" lon="-2.31909">
        <ele>-7.1999998092651</ele>
        <time>2019-12-26T08:57:18.000Z</time>
      </trkpt>
      <trkpt lat="47.27217" lon="-2.31909">
        <ele>-7.1999998092651</ele>
        <time>2019-12-26T08:57:20.000Z</time>
      </trkpt>
      <trkpt lat="47.27227" lon="-2.31915">
        <ele>-6.8000001907349</ele>
        <time>2019-12-26T08:57:26.000Z</time>
      </trkpt>
      <trkpt lat="47.2723" lon="-2.31916">
        <ele>-6.1999998092651</ele>
        <time>2019-12-26T08:57:27.000Z</time>
      </trkpt>
      <trkpt lat="47.27233" lon="-2.31917">
        <ele>-5.8000001907349</ele>
        <time>2019-12-26T08:57:28.000Z</time>
      </trkpt>
      <trkpt lat="47.27237" lon="-2.31919">
        <ele>-5.4000000953674</ele>
        <time>2019-12-26T08:57:29.000Z</time>
      </trkpt>
      <trkpt lat="47.2724" lon="-2.31921">
        <ele>-5</ele>
        <time>2019-12-26T08:57:30.000Z</time>
      </trkpt>
      <trkpt lat="47.27243" lon="-2.31923">
        <ele>-5</ele>
        <time>2019-12-26T08:57:31.000Z</time>
      </trkpt>
      <trkpt lat="47.27252" lon="-2.31926">
        <ele>-5</ele>
        <time>2019-12-26T08:57:33.000Z</time>
      </trkpt>
      <trkpt lat="47.27262" lon="-2.31929">
        <ele>-5</ele>
        <time>2019-12-26T08:57:35.000Z</time>
      </trkpt>
      <trkpt lat="47.27283" lon="-2.31939">
        <ele>-5</ele>
        <time>2019-12-26T08:57:39.000Z</time>
      </trkpt>
      <trkpt lat="47.27293" lon="-2.31945">
        <ele>-5</ele>
        <time>2019-12-26T08:57:41.000Z</time>
      </trkpt>
      <trkpt lat="47.27304" lon="-2.31953">
        <ele>-5</ele>
        <time>2019-12-26T08:57:43.000Z</time>
      </trkpt>
      <trkpt lat="47.27319" lon="-2.31968">
        <ele>-5</ele>
        <time>2019-12-26T08:57:46.000Z</time>
      </trkpt>
      <trkpt lat="47.27356" lon="-2.32006">
        <ele>-5</ele>
        <time>2019-12-26T08:57:53.000Z</time>
      </trkpt>
      <trkpt lat="47.27384" lon="-2.32033">
        <ele>-5</ele>
        <time>2019-12-26T08:57:59.000Z</time>
      </trkpt>
      <trkpt lat="47.27413" lon="-2.32064">
        <ele>-4.5999999046326</ele>
        <time>2019-12-26T08:58:06.000Z</time>
      </trkpt>
      <trkpt lat="47.27418" lon="-2.32069">
        <ele>-4.1999998092651</ele>
        <time>2019-12-26T08:58:07.000Z</time>
      </trkpt>
      <trkpt lat="47.27422" lon="-2.32073">
        <ele>-3.7999999523163</ele>
        <time>2019-12-26T08:58:08.000Z</time>
      </trkpt>
      <trkpt lat="47.27426" lon="-2.32078">
        <ele>-3.4000000953674</ele>
        <time>2019-12-26T08:58:09.000Z</time>
      </trkpt>
      <trkpt lat="47.2743" lon="-2.32082">
        <ele>-2.7999999523163</ele>
        <time>2019-12-26T08:58:10.000Z</time>
      </trkpt>
      <trkpt lat="47.27434" lon="-2.32087">
        <ele>-2.4000000953674</ele>
        <time>2019-12-26T08:58:11.000Z</time>
      </trkpt>
      <trkpt lat="47.27437" lon="-2.32091">
        <ele>-1.7999999523163</ele>
        <time>2019-12-26T08:58:12.000Z</time>
      </trkpt>
      <trkpt lat="47.27441" lon="-2.32096">
        <ele>-1.2000000476837</ele>
        <time>2019-12-26T08:58:13.000Z</time>
      </trkpt>
      <trkpt lat="47.27445" lon="-2.321">
        <ele>-0.60000002384186</ele>
        <time>2019-12-26T08:58:14.000Z</time>
      </trkpt>
      <trkpt lat="47.27471" lon="-2.32135">
        <ele>-0.60000002384186</ele>
        <time>2019-12-26T08:58:21.000Z</time>
      </trkpt>
      <trkpt lat="47.27494" lon="-2.32164">
        <ele>-0.60000002384186</ele>
        <time>2019-12-26T08:58:27.000Z</time>
      </trkpt>
      <trkpt lat="47.27514" lon="-2.32191">
        <ele>-0.60000002384186</ele>
        <time>2019-12-26T08:58:33.000Z</time>
      </trkpt>
      <trkpt lat="47.27536" lon="-2.32214">
        <ele>-0.60000002384186</ele>
        <time>2019-12-26T08:58:40.000Z</time>
      </trkpt>
      <trkpt lat="47.27539" lon="-2.32217">
        <ele>-0.20000000298023</ele>
        <time>2019-12-26T08:58:41.000Z</time>
      </trkpt>
      <trkpt lat="47.27542" lon="-2.3222">
        <ele>0.20000000298023</ele>
        <time>2019-12-26T08:58:42.000Z</time>
      </trkpt>
      <trkpt lat="47.27545" lon="-2.32223">
        <ele>0.60000002384186</ele>
        <time>2019-12-26T08:58:43.000Z</time>
      </trkpt>
      <trkpt lat="47.27548" lon="-2.32226">
        <ele>1</ele>
        <time>2019-12-26T08:58:44.000Z</time>
      </trkpt>
      <trkpt lat="47.27552" lon="-2.32229">
        <ele>1.3999999761581</ele>
        <time>2019-12-26T08:58:45.000Z</time>
      </trkpt>
      <trkpt lat="47.27558" lon="-2.32234">
        <ele>1.3999999761581</ele>
        <time>2019-12-26T08:58:47.000Z</time>
      </trkpt>
      <trkpt lat="47.27573" lon="-2.32248">
        <ele>1.7999999523163</ele>
        <time>2019-12-26T08:58:52.000Z</time>
      </trkpt>
      <trkpt lat="47.27576" lon="-2.32251">
        <ele>2.2000000476837</ele>
        <time>2019-12-26T08:58:53.000Z</time>
      </trkpt>
      <trkpt lat="47.27579" lon="-2.32253">
        <ele>2.5999999046326</ele>
        <time>2019-12-26T08:58:54.000Z</time>
      </trkpt>
      <trkpt lat="47.27582" lon="-2.32256">
        <ele>3.2000000476837</ele>
        <time>2019-12-26T08:58:55.000Z</time>
      </trkpt>
      <trkpt lat="47.27585" lon="-2.32259">
        <ele>3.5999999046326</ele>
        <time>2019-12-26T08:58:56.000Z</time>
      </trkpt>
      <trkpt lat="47.27601" lon="-2.32272">
        <ele>3.5999999046326</ele>
        <time>2019-12-26T08:59:01.000Z</time>
      </trkpt>
      <trkpt lat="47.27604" lon="-2.32273">
        <ele>4</ele>
        <time>2019-12-26T08:59:02.000Z</time>
      </trkpt>
      <trkpt lat="47.27607" lon="-2.32274">
        <ele>4.4000000953674</ele>
        <time>2019-12-26T08:59:03.000Z</time>
      </trkpt>
      <trkpt lat="47.27611" lon="-2.32273">
        <ele>4.8000001907349</ele>
        <time>2019-12-26T08:59:04.000Z</time>
      </trkpt>
      <trkpt lat="47.27614" lon="-2.32272">
        <ele>5.1999998092651</ele>
        <time>2019-12-26T08:59:05.000Z</time>
      </trkpt>
      <trkpt lat="47.27617" lon="-2.3227">
        <ele>5.5999999046326</ele>
        <time>2019-12-26T08:59:06.000Z</time>
      </trkpt>
      <trkpt lat="47.2762" lon="-2.32267">
        <ele>5.5999999046326</ele>
        <time>2019-12-26T08:59:07.000Z</time>
      </trkpt>
      <trkpt lat="47.27627" lon="-2.32254">
        <ele>5.5999999046326</ele>
        <time>2019-12-26T08:59:10.000Z</time>
      </trkpt>
      <trkpt lat="47.27631" lon="-2.32243">
        <ele>6</ele>
        <time>2019-12-26T08:59:12.000Z</time>
      </trkpt>
      <trkpt lat="47.27632" lon="-2.32237">
        <ele>6.4000000953674</ele>
        <time>2019-12-26T08:59:13.000Z</time>
      </trkpt>
      <trkpt lat="47.27634" lon="-2.32231">
        <ele>7.4000000953674</ele>
        <time>2019-12-26T08:59:14.000Z</time>
      </trkpt>
      <trkpt lat="47.27636" lon="-2.32226">
        <ele>7.8000001907349</ele>
        <time>2019-12-26T08:59:15.000Z</time>
      </trkpt>
      <trkpt lat="47.27638" lon="-2.3222">
        <ele>7.8000001907349</ele>
        <time>2019-12-26T08:59:16.000Z</time>
      </trkpt>
      <trkpt lat="47.2765" lon="-2.32177">
        <ele>7.8000001907349</ele>
        <time>2019-12-26T08:59:22.000Z</time>
      </trkpt>
      <trkpt lat="47.27655" lon="-2.3216">
        <ele>7.8000001907349</ele>
        <time>2019-12-26T08:59:24.000Z</time>
      </trkpt>
      <trkpt lat="47.27665" lon="-2.32131">
        <ele>7.8000001907349</ele>
        <time>2019-12-26T08:59:27.000Z</time>
      </trkpt>
      <trkpt lat="47.27678" lon="-2.32092">
        <ele>7.4000000953674</ele>
        <time>2019-12-26T08:59:31.000Z</time>
      </trkpt>
      <trkpt lat="47.27683" lon="-2.32084">
        <ele>6.8000001907349</ele>
        <time>2019-12-26T08:59:32.000Z</time>
      </trkpt>
      <trkpt lat="47.27688" lon="-2.32077">
        <ele>6.4000000953674</ele>
        <time>2019-12-26T08:59:33.000Z</time>
      </trkpt>
      <trkpt lat="47.27695" lon="-2.32073">
        <ele>6</ele>
        <time>2019-12-26T08:59:34.000Z</time>
      </trkpt>
      <trkpt lat="47.27701" lon="-2.3207">
        <ele>5.5999999046326</ele>
        <time>2019-12-26T08:59:35.000Z</time>
      </trkpt>
      <trkpt lat="47.27708" lon="-2.3207">
        <ele>5.5999999046326</ele>
        <time>2019-12-26T08:59:36.000Z</time>
      </trkpt>
      <trkpt lat="47.27721" lon="-2.3207">
        <ele>5.5999999046326</ele>
        <time>2019-12-26T08:59:38.000Z</time>
      </trkpt>
      <trkpt lat="47.27739" lon="-2.32072">
        <ele>5.5999999046326</ele>
        <time>2019-12-26T08:59:41.000Z</time>
      </trkpt>
      <trkpt lat="47.27761" lon="-2.32072">
        <ele>5.5999999046326</ele>
        <time>2019-12-26T08:59:45.000Z</time>
      </trkpt>
      <trkpt lat="47.27772" lon="-2.32067">
        <ele>5.5999999046326</ele>
        <time>2019-12-26T08:59:47.000Z</time>
      </trkpt>
      <trkpt lat="47.27788" lon="-2.32048">
        <ele>5.5999999046326</ele>
        <time>2019-12-26T08:59:51.000Z</time>
      </trkpt>
      <trkpt lat="47.27791" lon="-2.32042">
        <ele>5.5999999046326</ele>
        <time>2019-12-26T08:59:52.000Z</time>
      </trkpt>
      <trkpt lat="47.278" lon="-2.32024">
        <ele>6</ele>
        <time>2019-12-26T08:59:55.000Z</time>
      </trkpt>
      <trkpt lat="47.27803" lon="-2.32017">
        <ele>6.4000000953674</ele>
        <time>2019-12-26T08:59:56.000Z</time>
      </trkpt>
      <trkpt lat="47.27806" lon="-2.32011">
        <ele>6.8000001907349</ele>
        <time>2019-12-26T08:59:57.000Z</time>
      </trkpt>
      <trkpt lat="47.27809" lon="-2.32006">
        <ele>7.1999998092651</ele>
        <time>2019-12-26T08:59:58.000Z</time>
      </trkpt>
      <trkpt lat="47.27812" lon="-2.32">
        <ele>7.8000001907349</ele>
        <time>2019-12-26T08:59:59.000Z</time>
      </trkpt>
      <trkpt lat="47.27822" lon="-2.31979">
        <ele>8.6000003814697</ele>
        <time>2019-12-26T09:00:03.000Z</time>
      </trkpt>
      <trkpt lat="47.27825" lon="-2.31974">
        <ele>9</ele>
        <time>2019-12-26T09:00:04.000Z</time>
      </trkpt>
      <trkpt lat="47.27828" lon="-2.31969">
        <ele>9.3999996185303</ele>
        <time>2019-12-26T09:00:05.000Z</time>
      </trkpt>
      <trkpt lat="47.27832" lon="-2.31966">
        <ele>9.8000001907349</ele>
        <time>2019-12-26T09:00:06.000Z</time>
      </trkpt>
      <trkpt lat="47.27844" lon="-2.31959">
        <ele>9.8000001907349</ele>
        <time>2019-12-26T09:00:09.000Z</time>
      </trkpt>
      <trkpt lat="47.27849" lon="-2.31958">
        <ele>9.8000001907349</ele>
        <time>2019-12-26T09:00:10.000Z</time>
      </trkpt>
      <trkpt lat="47.27854" lon="-2.31955">
        <ele>9.8000001907349</ele>
        <time>2019-12-26T09:00:11.000Z</time>
      </trkpt>
      <trkpt lat="47.27866" lon="-2.31942">
        <ele>9.8000001907349</ele>
        <time>2019-12-26T09:00:14.000Z</time>
      </trkpt>
      <trkpt lat="47.27878" lon="-2.31907">
        <ele>9.8000001907349</ele>
        <time>2019-12-26T09:00:19.000Z</time>
      </trkpt>
      <trkpt lat="47.27879" lon="-2.319">
        <ele>9.8000001907349</ele>
        <time>2019-12-26T09:00:20.000Z</time>
      </trkpt>
      <trkpt lat="47.27882" lon="-2.31885">
        <ele>9.8000001907349</ele>
        <time>2019-12-26T09:00:22.000Z</time>
      </trkpt>
      <trkpt lat="47.27881" lon="-2.31863">
        <ele>9.8000001907349</ele>
        <time>2019-12-26T09:00:25.000Z</time>
      </trkpt>
      <trkpt lat="47.27881" lon="-2.31856">
        <ele>9.8000001907349</ele>
        <time>2019-12-26T09:00:26.000Z</time>
      </trkpt>
      <trkpt lat="47.27877" lon="-2.3181">
        <ele>9.8000001907349</ele>
        <time>2019-12-26T09:00:32.000Z</time>
      </trkpt>
      <trkpt lat="47.27873" lon="-2.31756">
        <ele>9.8000001907349</ele>
        <time>2019-12-26T09:00:39.000Z</time>
      </trkpt>
      <trkpt lat="47.27874" lon="-2.31748">
        <ele>9.8000001907349</ele>
        <time>2019-12-26T09:00:40.000Z</time>
      </trkpt>
      <trkpt lat="47.27883" lon="-2.31731">
        <ele>9.8000001907349</ele>
        <time>2019-12-26T09:00:43.000Z</time>
      </trkpt>
      <trkpt lat="47.27896" lon="-2.31722">
        <ele>9.8000001907349</ele>
        <time>2019-12-26T09:00:46.000Z</time>
      </trkpt>
      <trkpt lat="47.2791" lon="-2.31713">
        <ele>9.8000001907349</ele>
        <time>2019-12-26T09:00:49.000Z</time>
      </trkpt>
      <trkpt lat="47.27926" lon="-2.31699">
        <ele>9.8000001907349</ele>
        <time>2019-12-26T09:00:53.000Z</time>
      </trkpt>
      <trkpt lat="47.27935" lon="-2.31691">
        <ele>9.8000001907349</ele>
        <time>2019-12-26T09:00:55.000Z</time>
      </trkpt>
      <trkpt lat="47.27939" lon="-2.31688">
        <ele>9.8000001907349</ele>
        <time>2019-12-26T09:00:56.000Z</time>
      </trkpt>
      <trkpt lat="47.27953" lon="-2.31678">
        <ele>9.8000001907349</ele>
        <time>2019-12-26T09:00:59.000Z</time>
      </trkpt>
      <trkpt lat="47.27967" lon="-2.31667">
        <ele>9.8000001907349</ele>
        <time>2019-12-26T09:01:02.000Z</time>
      </trkpt>
      <trkpt lat="47.27983" lon="-2.31657">
        <ele>9.8000001907349</ele>
        <time>2019-12-26T09:01:05.000Z</time>
      </trkpt>
      <trkpt lat="47.28028" lon="-2.31635">
        <ele>9.8000001907349</ele>
        <time>2019-12-26T09:01:12.000Z</time>
      </trkpt>
      <trkpt lat="47.28054" lon="-2.31627">
        <ele>9.1999998092651</ele>
        <time>2019-12-26T09:01:16.000Z</time>
      </trkpt>
      <trkpt lat="47.2806" lon="-2.31626">
        <ele>8.3999996185303</ele>
        <time>2019-12-26T09:01:17.000Z</time>
      </trkpt>
      <trkpt lat="47.28066" lon="-2.31626">
        <ele>8</ele>
        <time>2019-12-26T09:01:18.000Z</time>
      </trkpt>
      <trkpt lat="47.28072" lon="-2.31626">
        <ele>7.5999999046326</ele>
        <time>2019-12-26T09:01:19.000Z</time>
      </trkpt>
      <trkpt lat="47.28089" lon="-2.31628">
        <ele>7.5999999046326</ele>
        <time>2019-12-26T09:01:22.000Z</time>
      </trkpt>
      <trkpt lat="47.28124" lon="-2.31626">
        <ele>7.5999999046326</ele>
        <time>2019-12-26T09:01:28.000Z</time>
      </trkpt>
      <trkpt lat="47.28161" lon="-2.31624">
        <ele>7.5999999046326</ele>
        <time>2019-12-26T09:01:35.000Z</time>
      </trkpt>
      <trkpt lat="47.2817" lon="-2.31622">
        <ele>7.5999999046326</ele>
        <time>2019-12-26T09:01:37.000Z</time>
      </trkpt>
      <trkpt lat="47.28185" lon="-2.31619">
        <ele>7.5999999046326</ele>
        <time>2019-12-26T09:01:40.000Z</time>
      </trkpt>
      <trkpt lat="47.28191" lon="-2.3162">
        <ele>7.5999999046326</ele>
        <time>2019-12-26T09:01:41.000Z</time>
      </trkpt>
      <trkpt lat="47.28196" lon="-2.31619">
        <ele>7.5999999046326</ele>
        <time>2019-12-26T09:01:42.000Z</time>
      </trkpt>
      <trkpt lat="47.28219" lon="-2.31614">
        <ele>7.5999999046326</ele>
        <time>2019-12-26T09:01:47.000Z</time>
      </trkpt>
      <trkpt lat="47.28224" lon="-2.31613">
        <ele>8</ele>
        <time>2019-12-26T09:01:48.000Z</time>
      </trkpt>
      <trkpt lat="47.28229" lon="-2.31612">
        <ele>8.3999996185303</ele>
        <time>2019-12-26T09:01:49.000Z</time>
      </trkpt>
      <trkpt lat="47.28233" lon="-2.31611">
        <ele>8.8000001907349</ele>
        <time>2019-12-26T09:01:50.000Z</time>
      </trkpt>
      <trkpt lat="47.28238" lon="-2.3161">
        <ele>9.1999998092651</ele>
        <time>2019-12-26T09:01:51.000Z</time>
      </trkpt>
      <trkpt lat="47.28242" lon="-2.31609">
        <ele>9.6000003814697</ele>
        <time>2019-12-26T09:01:52.000Z</time>
      </trkpt>
      <trkpt lat="47.28247" lon="-2.31607">
        <ele>9.6000003814697</ele>
        <time>2019-12-26T09:01:53.000Z</time>
      </trkpt>
      <trkpt lat="47.28252" lon="-2.31606">
        <ele>9.6000003814697</ele>
        <time>2019-12-26T09:01:54.000Z</time>
      </trkpt>
      <trkpt lat="47.28282" lon="-2.31594">
        <ele>9.6000003814697</ele>
        <time>2019-12-26T09:02:01.000Z</time>
      </trkpt>
      <trkpt lat="47.28305" lon="-2.3159">
        <ele>9.6000003814697</ele>
        <time>2019-12-26T09:02:07.000Z</time>
      </trkpt>
      <trkpt lat="47.28326" lon="-2.31584">
        <ele>9.6000003814697</ele>
        <time>2019-12-26T09:02:13.000Z</time>
      </trkpt>
      <trkpt lat="47.28341" lon="-2.31581">
        <ele>9.6000003814697</ele>
        <time>2019-12-26T09:02:16.000Z</time>
      </trkpt>
      <trkpt lat="47.28351" lon="-2.31577">
        <ele>9.6000003814697</ele>
        <time>2019-12-26T09:02:18.000Z</time>
      </trkpt>
      <trkpt lat="47.28383" lon="-2.31566">
        <ele>10</ele>
        <time>2019-12-26T09:02:24.000Z</time>
      </trkpt>
      <trkpt lat="47.28388" lon="-2.31565">
        <ele>10.39999961853</ele>
        <time>2019-12-26T09:02:25.000Z</time>
      </trkpt>
      <trkpt lat="47.28393" lon="-2.31563">
        <ele>11</ele>
        <time>2019-12-26T09:02:26.000Z</time>
      </trkpt>
      <trkpt lat="47.28398" lon="-2.31561">
        <ele>11.39999961853</ele>
        <time>2019-12-26T09:02:27.000Z</time>
      </trkpt>
      <trkpt lat="47.28403" lon="-2.31558">
        <ele>11.800000190735</ele>
        <time>2019-12-26T09:02:28.000Z</time>
      </trkpt>
      <trkpt lat="47.28424" lon="-2.31547">
        <ele>11.800000190735</ele>
        <time>2019-12-26T09:02:32.000Z</time>
      </trkpt>
      <trkpt lat="47.28449" lon="-2.31522">
        <ele>11.800000190735</ele>
        <time>2019-12-26T09:02:38.000Z</time>
      </trkpt>
      <trkpt lat="47.28454" lon="-2.3152">
        <ele>11.800000190735</ele>
        <time>2019-12-26T09:02:39.000Z</time>
      </trkpt>
      <trkpt lat="47.28468" lon="-2.31512">
        <ele>11.800000190735</ele>
        <time>2019-12-26T09:02:42.000Z</time>
      </trkpt>
      <trkpt lat="47.28473" lon="-2.3151">
        <ele>11.800000190735</ele>
        <time>2019-12-26T09:02:43.000Z</time>
      </trkpt>
      <trkpt lat="47.28478" lon="-2.31508">
        <ele>11.800000190735</ele>
        <time>2019-12-26T09:02:44.000Z</time>
      </trkpt>
      <trkpt lat="47.285" lon="-2.31503">
        <ele>11.800000190735</ele>
        <time>2019-12-26T09:02:49.000Z</time>
      </trkpt>
      <trkpt lat="47.28537" lon="-2.31497">
        <ele>11.800000190735</ele>
        <time>2019-12-26T09:02:57.000Z</time>
      </trkpt>
      <trkpt lat="47.28568" lon="-2.31487">
        <ele>11.800000190735</ele>
        <time>2019-12-26T09:03:04.000Z</time>
      </trkpt>
      <trkpt lat="47.28582" lon="-2.31483">
        <ele>12.199999809265</ele>
        <time>2019-12-26T09:03:07.000Z</time>
      </trkpt>
      <trkpt lat="47.28586" lon="-2.31481">
        <ele>12.60000038147</ele>
        <time>2019-12-26T09:03:08.000Z</time>
      </trkpt>
      <trkpt lat="47.2859" lon="-2.31479">
        <ele>13</ele>
        <time>2019-12-26T09:03:09.000Z</time>
      </trkpt>
      <trkpt lat="47.28595" lon="-2.31477">
        <ele>13.39999961853</ele>
        <time>2019-12-26T09:03:10.000Z</time>
      </trkpt>
      <trkpt lat="47.28599" lon="-2.31476">
        <ele>13.800000190735</ele>
        <time>2019-12-26T09:03:11.000Z</time>
      </trkpt>
      <trkpt lat="47.28604" lon="-2.31474">
        <ele>13.800000190735</ele>
        <time>2019-12-26T09:03:12.000Z</time>
      </trkpt>
      <trkpt lat="47.28624" lon="-2.31464">
        <ele>13.800000190735</ele>
        <time>2019-12-26T09:03:17.000Z</time>
      </trkpt>
      <trkpt lat="47.28648" lon="-2.31452">
        <ele>13.800000190735</ele>
        <time>2019-12-26T09:03:23.000Z</time>
      </trkpt>
      <trkpt lat="47.28663" lon="-2.31452">
        <ele>13.800000190735</ele>
        <time>2019-12-26T09:03:27.000Z</time>
      </trkpt>
      <trkpt lat="47.28667" lon="-2.31456">
        <ele>13.800000190735</ele>
        <time>2019-12-26T09:03:28.000Z</time>
      </trkpt>
      <trkpt lat="47.28673" lon="-2.31472">
        <ele>13.800000190735</ele>
        <time>2019-12-26T09:03:31.000Z</time>
      </trkpt>
      <trkpt lat="47.28675" lon="-2.31479">
        <ele>13.800000190735</ele>
        <time>2019-12-26T09:03:32.000Z</time>
      </trkpt>
      <trkpt lat="47.28679" lon="-2.31485">
        <ele>13.800000190735</ele>
        <time>2019-12-26T09:03:33.000Z</time>
      </trkpt>
      <trkpt lat="47.28688" lon="-2.31491">
        <ele>13.800000190735</ele>
        <time>2019-12-26T09:03:35.000Z</time>
      </trkpt>
      <trkpt lat="47.28705" lon="-2.31488">
        <ele>13.800000190735</ele>
        <time>2019-12-26T09:03:38.000Z</time>
      </trkpt>
      <trkpt lat="47.28732" lon="-2.31474">
        <ele>13.800000190735</ele>
        <time>2019-12-26T09:03:43.000Z</time>
      </trkpt>
      <trkpt lat="47.28744" lon="-2.31469">
        <ele>13.800000190735</ele>
        <time>2019-12-26T09:03:45.000Z</time>
      </trkpt>
      <trkpt lat="47.2876" lon="-2.3146">
        <ele>13.800000190735</ele>
        <time>2019-12-26T09:03:48.000Z</time>
      </trkpt>
      <trkpt lat="47.28791" lon="-2.31439">
        <ele>13.800000190735</ele>
        <time>2019-12-26T09:03:54.000Z</time>
      </trkpt>
      <trkpt lat="47.28835" lon="-2.31409">
        <ele>13.800000190735</ele>
        <time>2019-12-26T09:04:02.000Z</time>
      </trkpt>
      <trkpt lat="47.28875" lon="-2.31392">
        <ele>13.800000190735</ele>
        <time>2019-12-26T09:04:09.000Z</time>
      </trkpt>
      <trkpt lat="47.28911" lon="-2.31388">
        <ele>13.800000190735</ele>
        <time>2019-12-26T09:04:15.000Z</time>
      </trkpt>
      <trkpt lat="47.28942" lon="-2.31384">
        <ele>13.800000190735</ele>
        <time>2019-12-26T09:04:20.000Z</time>
      </trkpt>
      <trkpt lat="47.28947" lon="-2.31381">
        <ele>13.800000190735</ele>
        <time>2019-12-26T09:04:21.000Z</time>
      </trkpt>
      <trkpt lat="47.28963" lon="-2.3137">
        <ele>13.800000190735</ele>
        <time>2019-12-26T09:04:24.000Z</time>
      </trkpt>
      <trkpt lat="47.28968" lon="-2.31365">
        <ele>13.800000190735</ele>
        <time>2019-12-26T09:04:25.000Z</time>
      </trkpt>
      <trkpt lat="47.28973" lon="-2.31359">
        <ele>13.800000190735</ele>
        <time>2019-12-26T09:04:26.000Z</time>
      </trkpt>
      <trkpt lat="47.28994" lon="-2.31325">
        <ele>13.800000190735</ele>
        <time>2019-12-26T09:04:31.000Z</time>
      </trkpt>
      <trkpt lat="47.29009" lon="-2.31291">
        <ele>13</ele>
        <time>2019-12-26T09:04:35.000Z</time>
      </trkpt>
      <trkpt lat="47.29013" lon="-2.31282">
        <ele>12.39999961853</ele>
        <time>2019-12-26T09:04:36.000Z</time>
      </trkpt>
      <trkpt lat="47.29017" lon="-2.31274">
        <ele>12</ele>
        <time>2019-12-26T09:04:37.000Z</time>
      </trkpt>
      <trkpt lat="47.2902" lon="-2.31266">
        <ele>11.60000038147</ele>
        <time>2019-12-26T09:04:38.000Z</time>
      </trkpt>
      <trkpt lat="47.29037" lon="-2.31226">
        <ele>11.60000038147</ele>
        <time>2019-12-26T09:04:43.000Z</time>
      </trkpt>
      <trkpt lat="47.29039" lon="-2.31217">
        <ele>11.60000038147</ele>
        <time>2019-12-26T09:04:44.000Z</time>
      </trkpt>
      <trkpt lat="47.29039" lon="-2.31178">
        <ele>11.60000038147</ele>
        <time>2019-12-26T09:04:48.000Z</time>
      </trkpt>
      <trkpt lat="47.29038" lon="-2.31168">
        <ele>11.60000038147</ele>
        <time>2019-12-26T09:04:49.000Z</time>
      </trkpt>
      <trkpt lat="47.29033" lon="-2.31112">
        <ele>11.60000038147</ele>
        <time>2019-12-26T09:04:55.000Z</time>
      </trkpt>
      <trkpt lat="47.29031" lon="-2.31091">
        <ele>11.199999809265</ele>
        <time>2019-12-26T09:04:57.000Z</time>
      </trkpt>
      <trkpt lat="47.29031" lon="-2.31081">
        <ele>10.800000190735</ele>
        <time>2019-12-26T09:04:58.000Z</time>
      </trkpt>
      <trkpt lat="47.2903" lon="-2.3107">
        <ele>10.199999809265</ele>
        <time>2019-12-26T09:04:59.000Z</time>
      </trkpt>
      <trkpt lat="47.2903" lon="-2.31059">
        <ele>9.3999996185303</ele>
        <time>2019-12-26T09:05:00.000Z</time>
      </trkpt>
      <trkpt lat="47.2903" lon="-2.31049">
        <ele>9.3999996185303</ele>
        <time>2019-12-26T09:05:01.000Z</time>
      </trkpt>
      <trkpt lat="47.2903" lon="-2.31028">
        <ele>9</ele>
        <time>2019-12-26T09:05:03.000Z</time>
      </trkpt>
      <trkpt lat="47.2903" lon="-2.31017">
        <ele>8.3999996185303</ele>
        <time>2019-12-26T09:05:04.000Z</time>
      </trkpt>
      <trkpt lat="47.29031" lon="-2.31006">
        <ele>8</ele>
        <time>2019-12-26T09:05:05.000Z</time>
      </trkpt>
      <trkpt lat="47.29031" lon="-2.30997">
        <ele>7.5999999046326</ele>
        <time>2019-12-26T09:05:06.000Z</time>
      </trkpt>
      <trkpt lat="47.29031" lon="-2.30986">
        <ele>7</ele>
        <time>2019-12-26T09:05:07.000Z</time>
      </trkpt>
      <trkpt lat="47.29031" lon="-2.30966">
        <ele>6.5999999046326</ele>
        <time>2019-12-26T09:05:09.000Z</time>
      </trkpt>
      <trkpt lat="47.29031" lon="-2.30954">
        <ele>6.1999998092651</ele>
        <time>2019-12-26T09:05:10.000Z</time>
      </trkpt>
      <trkpt lat="47.29031" lon="-2.30943">
        <ele>5.8000001907349</ele>
        <time>2019-12-26T09:05:11.000Z</time>
      </trkpt>
      <trkpt lat="47.2903" lon="-2.30931">
        <ele>5.4000000953674</ele>
        <time>2019-12-26T09:05:12.000Z</time>
      </trkpt>
      <trkpt lat="47.2903" lon="-2.3092">
        <ele>5</ele>
        <time>2019-12-26T09:05:13.000Z</time>
      </trkpt>
      <trkpt lat="47.2903" lon="-2.30908">
        <ele>5</ele>
        <time>2019-12-26T09:05:14.000Z</time>
      </trkpt>
      <trkpt lat="47.29026" lon="-2.30858">
        <ele>4.5999999046326</ele>
        <time>2019-12-26T09:05:18.000Z</time>
      </trkpt>
      <trkpt lat="47.29024" lon="-2.30847">
        <ele>4.1999998092651</ele>
        <time>2019-12-26T09:05:19.000Z</time>
      </trkpt>
      <trkpt lat="47.29022" lon="-2.30835">
        <ele>3.7999999523163</ele>
        <time>2019-12-26T09:05:20.000Z</time>
      </trkpt>
      <trkpt lat="47.29021" lon="-2.30823">
        <ele>3.4000000953674</ele>
        <time>2019-12-26T09:05:21.000Z</time>
      </trkpt>
      <trkpt lat="47.29019" lon="-2.30812">
        <ele>3</ele>
        <time>2019-12-26T09:05:22.000Z</time>
      </trkpt>
      <trkpt lat="47.29014" lon="-2.3078">
        <ele>2.5999999046326</ele>
        <time>2019-12-26T09:05:25.000Z</time>
      </trkpt>
      <trkpt lat="47.29011" lon="-2.3077">
        <ele>1.7999999523163</ele>
        <time>2019-12-26T09:05:26.000Z</time>
      </trkpt>
      <trkpt lat="47.29009" lon="-2.30759">
        <ele>1.3999999761581</ele>
        <time>2019-12-26T09:05:27.000Z</time>
      </trkpt>
      <trkpt lat="47.29007" lon="-2.30749">
        <ele>1</ele>
        <time>2019-12-26T09:05:28.000Z</time>
      </trkpt>
      <trkpt lat="47.29006" lon="-2.30738">
        <ele>1</ele>
        <time>2019-12-26T09:05:29.000Z</time>
      </trkpt>
      <trkpt lat="47.29005" lon="-2.30715">
        <ele>0.40000000596046</ele>
        <time>2019-12-26T09:05:31.000Z</time>
      </trkpt>
      <trkpt lat="47.29005" lon="-2.30705">
        <ele>10</ele>
        <time>2019-12-26T09:05:32.000Z</time>
      </trkpt>
      <trkpt lat="47.29005" lon="-2.30694">
        <ele>-0.40000000596046</ele>
        <time>2019-12-26T09:05:33.000Z</time>
      </trkpt>
      <trkpt lat="47.29004" lon="-2.30684">
        <ele>-0.80000001192093</ele>
        <time>2019-12-26T09:05:34.000Z</time>
      </trkpt>
      <trkpt lat="47.29004" lon="-2.30674">
        <ele>-1.2000000476837</ele>
        <time>2019-12-26T09:05:35.000Z</time>
      </trkpt>
      <trkpt lat="47.29003" lon="-2.30647">
        <ele>-1.2000000476837</ele>
        <time>2019-12-26T09:05:38.000Z</time>
      </trkpt>
      <trkpt lat="47.29003" lon="-2.30608">
        <ele>-1.2000000476837</ele>
        <time>2019-12-26T09:05:43.000Z</time>
      </trkpt>
      <trkpt lat="47.29002" lon="-2.30601">
        <ele>-1.2000000476837</ele>
        <time>2019-12-26T09:05:44.000Z</time>
      </trkpt>
      <trkpt lat="47.28998" lon="-2.30573">
        <ele>-1.2000000476837</ele>
        <time>2019-12-26T09:05:48.000Z</time>
      </trkpt>
      <trkpt lat="47.28991" lon="-2.30528">
        <ele>-1.2000000476837</ele>
        <time>2019-12-26T09:05:54.000Z</time>
      </trkpt>
      <trkpt lat="47.2899" lon="-2.3052">
        <ele>-1.2000000476837</ele>
        <time>2019-12-26T09:05:55.000Z</time>
      </trkpt>
      <trkpt lat="47.28986" lon="-2.30491">
        <ele>-1.2000000476837</ele>
        <time>2019-12-26T09:05:59.000Z</time>
      </trkpt>
      <trkpt lat="47.28978" lon="-2.30431">
        <ele>-1.2000000476837</ele>
        <time>2019-12-26T09:06:07.000Z</time>
      </trkpt>
      <trkpt lat="47.28975" lon="-2.3039">
        <ele>-1.2000000476837</ele>
        <time>2019-12-26T09:06:13.000Z</time>
      </trkpt>
      <trkpt lat="47.28975" lon="-2.30339">
        <ele>-1.2000000476837</ele>
        <time>2019-12-26T09:06:20.000Z</time>
      </trkpt>
      <trkpt lat="47.28973" lon="-2.30291">
        <ele>-1.2000000476837</ele>
        <time>2019-12-26T09:06:26.000Z</time>
      </trkpt>
      <trkpt lat="47.28972" lon="-2.30275">
        <ele>-1.2000000476837</ele>
        <time>2019-12-26T09:06:28.000Z</time>
      </trkpt>
      <trkpt lat="47.28976" lon="-2.30262">
        <ele>-1.2000000476837</ele>
        <time>2019-12-26T09:06:30.000Z</time>
      </trkpt>
      <trkpt lat="47.28987" lon="-2.30255">
        <ele>-1.2000000476837</ele>
        <time>2019-12-26T09:06:33.000Z</time>
      </trkpt>
      <trkpt lat="47.29007" lon="-2.30253">
        <ele>-1.2000000476837</ele>
        <time>2019-12-26T09:06:37.000Z</time>
      </trkpt>
      <trkpt lat="47.29029" lon="-2.30249">
        <ele>-1.2000000476837</ele>
        <time>2019-12-26T09:06:41.000Z</time>
      </trkpt>
      <trkpt lat="47.29046" lon="-2.30243">
        <ele>-1.2000000476837</ele>
        <time>2019-12-26T09:06:44.000Z</time>
      </trkpt>
      <trkpt lat="47.29058" lon="-2.30238">
        <ele>-1.2000000476837</ele>
        <time>2019-12-26T09:06:46.000Z</time>
      </trkpt>
      <trkpt lat="47.29099" lon="-2.30218">
        <ele>-1.2000000476837</ele>
        <time>2019-12-26T09:06:53.000Z</time>
      </trkpt>
      <trkpt lat="47.29133" lon="-2.30199">
        <ele>-1.2000000476837</ele>
        <time>2019-12-26T09:06:59.000Z</time>
      </trkpt>
      <trkpt lat="47.29156" lon="-2.30187">
        <ele>-1.7999999523163</ele>
        <time>2019-12-26T09:07:03.000Z</time>
      </trkpt>
      <trkpt lat="47.29162" lon="-2.30184">
        <ele>-2.2000000476837</ele>
        <time>2019-12-26T09:07:04.000Z</time>
      </trkpt>
      <trkpt lat="47.29168" lon="-2.30181">
        <ele>-3</ele>
        <time>2019-12-26T09:07:05.000Z</time>
      </trkpt>
      <trkpt lat="47.29174" lon="-2.30177">
        <ele>-3.4000000953674</ele>
        <time>2019-12-26T09:07:06.000Z</time>
      </trkpt>
      <trkpt lat="47.29206" lon="-2.30159">
        <ele>-3.4000000953674</ele>
        <time>2019-12-26T09:07:12.000Z</time>
      </trkpt>
      <trkpt lat="47.2924" lon="-2.30141">
        <ele>-3.4000000953674</ele>
        <time>2019-12-26T09:07:18.000Z</time>
      </trkpt>
      <trkpt lat="47.29246" lon="-2.30139">
        <ele>-3.4000000953674</ele>
        <time>2019-12-26T09:07:19.000Z</time>
      </trkpt>
      <trkpt lat="47.29258" lon="-2.30139">
        <ele>-3.4000000953674</ele>
        <time>2019-12-26T09:07:21.000Z</time>
      </trkpt>
      <trkpt lat="47.29293" lon="-2.30136">
        <ele>-3.4000000953674</ele>
        <time>2019-12-26T09:07:27.000Z</time>
      </trkpt>
      <trkpt lat="47.29322" lon="-2.30137">
        <ele>-3.4000000953674</ele>
        <time>2019-12-26T09:07:33.000Z</time>
      </trkpt>
      <trkpt lat="47.29333" lon="-2.30125">
        <ele>-3.4000000953674</ele>
        <time>2019-12-26T09:07:37.000Z</time>
      </trkpt>
      <trkpt lat="47.29334" lon="-2.30119">
        <ele>-3.4000000953674</ele>
        <time>2019-12-26T09:07:38.000Z</time>
      </trkpt>
      <trkpt lat="47.29338" lon="-2.30103">
        <ele>-3.4000000953674</ele>
        <time>2019-12-26T09:07:41.000Z</time>
      </trkpt>
      <trkpt lat="47.2934" lon="-2.3009">
        <ele>-3.4000000953674</ele>
        <time>2019-12-26T09:07:43.000Z</time>
      </trkpt>
      <trkpt lat="47.29344" lon="-2.30038">
        <ele>-3.4000000953674</ele>
        <time>2019-12-26T09:07:51.000Z</time>
      </trkpt>
      <trkpt lat="47.29347" lon="-2.30008">
        <ele>-3.4000000953674</ele>
        <time>2019-12-26T09:07:57.000Z</time>
      </trkpt>
      <trkpt lat="47.29349" lon="-2.30002">
        <ele>-3.4000000953674</ele>
        <time>2019-12-26T09:07:59.000Z</time>
      </trkpt>
      <trkpt lat="47.29353" lon="-2.30003">
        <ele>-3.4000000953674</ele>
        <time>2019-12-26T09:08:01.000Z</time>
      </trkpt>
      <trkpt lat="47.29365" lon="-2.3001">
        <ele>-3.4000000953674</ele>
        <time>2019-12-26T09:08:05.000Z</time>
      </trkpt>
      <trkpt lat="47.29369" lon="-2.30012">
        <ele>-3.4000000953674</ele>
        <time>2019-12-26T09:08:06.000Z</time>
      </trkpt>
      <trkpt lat="47.29387" lon="-2.30021">
        <ele>-3.4000000953674</ele>
        <time>2019-12-26T09:08:10.000Z</time>
      </trkpt>
      <trkpt lat="47.29392" lon="-2.30022">
        <ele>-3.4000000953674</ele>
        <time>2019-12-26T09:08:11.000Z</time>
      </trkpt>
      <trkpt lat="47.29413" lon="-2.30028">
        <ele>-3.4000000953674</ele>
        <time>2019-12-26T09:08:15.000Z</time>
      </trkpt>
      <trkpt lat="47.29423" lon="-2.30029">
        <ele>-3.4000000953674</ele>
        <time>2019-12-26T09:08:17.000Z</time>
      </trkpt>
      <trkpt lat="47.29444" lon="-2.30029">
        <ele>-3.7999999523163</ele>
        <time>2019-12-26T09:08:21.000Z</time>
      </trkpt>
      <trkpt lat="47.2945" lon="-2.30028">
        <ele>-4.4000000953674</ele>
        <time>2019-12-26T09:08:22.000Z</time>
      </trkpt>
      <trkpt lat="47.29455" lon="-2.30028">
        <ele>-4.8000001907349</ele>
        <time>2019-12-26T09:08:23.000Z</time>
      </trkpt>
      <trkpt lat="47.2946" lon="-2.30028">
        <ele>-5.1999998092651</ele>
        <time>2019-12-26T09:08:24.000Z</time>
      </trkpt>
      <trkpt lat="47.29465" lon="-2.30027">
        <ele>-5.5999999046326</ele>
        <time>2019-12-26T09:08:25.000Z</time>
      </trkpt>
      <trkpt lat="47.29488" lon="-2.30028">
        <ele>-5.5999999046326</ele>
        <time>2019-12-26T09:08:30.000Z</time>
      </trkpt>
      <trkpt lat="47.2951" lon="-2.30023">
        <ele>-5.5999999046326</ele>
        <time>2019-12-26T09:08:36.000Z</time>
      </trkpt>
      <trkpt lat="47.29514" lon="-2.30023">
        <ele>-5.5999999046326</ele>
        <time>2019-12-26T09:08:37.000Z</time>
      </trkpt>
      <trkpt lat="47.2953" lon="-2.30027">
        <ele>-5.5999999046326</ele>
        <time>2019-12-26T09:08:40.000Z</time>
      </trkpt>
      <trkpt lat="47.29551" lon="-2.30021">
        <ele>-5.5999999046326</ele>
        <time>2019-12-26T09:08:44.000Z</time>
      </trkpt>
      <trkpt lat="47.29577" lon="-2.30011">
        <ele>-5.5999999046326</ele>
        <time>2019-12-26T09:08:49.000Z</time>
      </trkpt>
      <trkpt lat="47.29588" lon="-2.30008">
        <ele>-5.5999999046326</ele>
        <time>2019-12-26T09:08:51.000Z</time>
      </trkpt>
      <trkpt lat="47.29623" lon="-2.29997">
        <ele>-5.5999999046326</ele>
        <time>2019-12-26T09:08:58.000Z</time>
      </trkpt>
      <trkpt lat="47.29636" lon="-2.2999">
        <ele>-5.5999999046326</ele>
        <time>2019-12-26T09:09:01.000Z</time>
      </trkpt>
      <trkpt lat="47.29644" lon="-2.29984">
        <ele>-5.5999999046326</ele>
        <time>2019-12-26T09:09:03.000Z</time>
      </trkpt>
      <trkpt lat="47.29654" lon="-2.29987">
        <ele>-5.5999999046326</ele>
        <time>2019-12-26T09:09:06.000Z</time>
      </trkpt>
      <trkpt lat="47.29675" lon="-2.29999">
        <ele>-5.5999999046326</ele>
        <time>2019-12-26T09:09:10.000Z</time>
      </trkpt>
      <trkpt lat="47.29687" lon="-2.3">
        <ele>-5.5999999046326</ele>
        <time>2019-12-26T09:09:12.000Z</time>
      </trkpt>
      <trkpt lat="47.29705" lon="-2.29999">
        <ele>-5.5999999046326</ele>
        <time>2019-12-26T09:09:15.000Z</time>
      </trkpt>
      <trkpt lat="47.29718" lon="-2.29998">
        <ele>-5.5999999046326</ele>
        <time>2019-12-26T09:09:17.000Z</time>
      </trkpt>
      <trkpt lat="47.29734" lon="-2.2999">
        <ele>-5.5999999046326</ele>
        <time>2019-12-26T09:09:20.000Z</time>
      </trkpt>
      <trkpt lat="47.2974" lon="-2.29987">
        <ele>-5.5999999046326</ele>
        <time>2019-12-26T09:09:21.000Z</time>
      </trkpt>
      <trkpt lat="47.29759" lon="-2.29974">
        <ele>-5.5999999046326</ele>
        <time>2019-12-26T09:09:25.000Z</time>
      </trkpt>
      <trkpt lat="47.29779" lon="-2.29956">
        <ele>-5.5999999046326</ele>
        <time>2019-12-26T09:09:30.000Z</time>
      </trkpt>
      <trkpt lat="47.29797" lon="-2.29949">
        <ele>-5.5999999046326</ele>
        <time>2019-12-26T09:09:34.000Z</time>
      </trkpt>
      <trkpt lat="47.29808" lon="-2.29951">
        <ele>-5.5999999046326</ele>
        <time>2019-12-26T09:09:36.000Z</time>
      </trkpt>
      <trkpt lat="47.29829" lon="-2.29952">
        <ele>-5.5999999046326</ele>
        <time>2019-12-26T09:09:40.000Z</time>
      </trkpt>
      <trkpt lat="47.2984" lon="-2.29951">
        <ele>-6.1999998092651</ele>
        <time>2019-12-26T09:09:42.000Z</time>
      </trkpt>
      <trkpt lat="47.29845" lon="-2.2995">
        <ele>-6.5999999046326</ele>
        <time>2019-12-26T09:09:43.000Z</time>
      </trkpt>
      <trkpt lat="47.29851" lon="-2.29948">
        <ele>-7</ele>
        <time>2019-12-26T09:09:44.000Z</time>
      </trkpt>
      <trkpt lat="47.29856" lon="-2.29946">
        <ele>-7.4000000953674</ele>
        <time>2019-12-26T09:09:45.000Z</time>
      </trkpt>
      <trkpt lat="47.29861" lon="-2.29945">
        <ele>-7.8000001907349</ele>
        <time>2019-12-26T09:09:46.000Z</time>
      </trkpt>
      <trkpt lat="47.29896" lon="-2.29939">
        <ele>-7.8000001907349</ele>
        <time>2019-12-26T09:09:53.000Z</time>
      </trkpt>
      <trkpt lat="47.299" lon="-2.29937">
        <ele>-7.8000001907349</ele>
        <time>2019-12-26T09:09:54.000Z</time>
      </trkpt>
      <trkpt lat="47.29908" lon="-2.29927">
        <ele>-7.8000001907349</ele>
        <time>2019-12-26T09:09:57.000Z</time>
      </trkpt>
      <trkpt lat="47.29909" lon="-2.29907">
        <ele>-7.8000001907349</ele>
        <time>2019-12-26T09:10:01.000Z</time>
      </trkpt>
      <trkpt lat="47.29906" lon="-2.29882">
        <ele>-7.8000001907349</ele>
        <time>2019-12-26T09:10:06.000Z</time>
      </trkpt>
      <trkpt lat="47.29904" lon="-2.29852">
        <ele>-7.8000001907349</ele>
        <time>2019-12-26T09:10:12.000Z</time>
      </trkpt>
      <trkpt lat="47.29913" lon="-2.29829">
        <ele>-7.8000001907349</ele>
        <time>2019-12-26T09:10:17.000Z</time>
      </trkpt>
      <trkpt lat="47.2993" lon="-2.29815">
        <ele>-7.8000001907349</ele>
        <time>2019-12-26T09:10:22.000Z</time>
      </trkpt>
      <trkpt lat="47.29939" lon="-2.29803">
        <ele>-7.8000001907349</ele>
        <time>2019-12-26T09:10:26.000Z</time>
      </trkpt>
      <trkpt lat="47.29938" lon="-2.29798">
        <ele>-7.8000001907349</ele>
        <time>2019-12-26T09:10:27.000Z</time>
      </trkpt>
      <trkpt lat="47.29931" lon="-2.29776">
        <ele>-7.8000001907349</ele>
        <time>2019-12-26T09:10:31.000Z</time>
      </trkpt>
      <trkpt lat="47.29917" lon="-2.29729">
        <ele>-7.8000001907349</ele>
        <time>2019-12-26T09:10:38.000Z</time>
      </trkpt>
      <trkpt lat="47.29906" lon="-2.29696">
        <ele>-7.8000001907349</ele>
        <time>2019-12-26T09:10:44.000Z</time>
      </trkpt>
      <trkpt lat="47.29895" lon="-2.29681">
        <ele>-7.8000001907349</ele>
        <time>2019-12-26T09:10:50.000Z</time>
      </trkpt>
      <trkpt lat="47.29892" lon="-2.2967">
        <ele>-7.8000001907349</ele>
        <time>2019-12-26T09:10:52.000Z</time>
      </trkpt>
      <trkpt lat="47.29892" lon="-2.29664">
        <ele>-7.8000001907349</ele>
        <time>2019-12-26T09:10:53.000Z</time>
      </trkpt>
      <trkpt lat="47.29903" lon="-2.29656">
        <ele>-7.8000001907349</ele>
        <time>2019-12-26T09:10:56.000Z</time>
      </trkpt>
      <trkpt lat="47.29922" lon="-2.29653">
        <ele>-7.8000001907349</ele>
        <time>2019-12-26T09:11:00.000Z</time>
      </trkpt>
      <trkpt lat="47.29933" lon="-2.29646">
        <ele>-7.8000001907349</ele>
        <time>2019-12-26T09:11:02.000Z</time>
      </trkpt>
      <trkpt lat="47.2995" lon="-2.29638">
        <ele>-7.8000001907349</ele>
        <time>2019-12-26T09:11:05.000Z</time>
      </trkpt>
      <trkpt lat="47.29978" lon="-2.29631">
        <ele>-7.8000001907349</ele>
        <time>2019-12-26T09:11:10.000Z</time>
      </trkpt>
      <trkpt lat="47.29984" lon="-2.29631">
        <ele>-7.8000001907349</ele>
        <time>2019-12-26T09:11:11.000Z</time>
      </trkpt>
      <trkpt lat="47.30024" lon="-2.29629">
        <ele>-7.8000001907349</ele>
        <time>2019-12-26T09:11:18.000Z</time>
      </trkpt>
      <trkpt lat="47.30055" lon="-2.29632">
        <ele>-7.8000001907349</ele>
        <time>2019-12-26T09:11:24.000Z</time>
      </trkpt>
      <trkpt lat="47.30087" lon="-2.29641">
        <ele>-7.8000001907349</ele>
        <time>2019-12-26T09:11:30.000Z</time>
      </trkpt>
      <trkpt lat="47.30122" lon="-2.29651">
        <ele>-7.8000001907349</ele>
        <time>2019-12-26T09:11:37.000Z</time>
      </trkpt>
      <trkpt lat="47.30144" lon="-2.29657">
        <ele>-7.8000001907349</ele>
        <time>2019-12-26T09:11:41.000Z</time>
      </trkpt>
      <trkpt lat="47.30155" lon="-2.29662">
        <ele>-7.8000001907349</ele>
        <time>2019-12-26T09:11:43.000Z</time>
      </trkpt>
      <trkpt lat="47.30171" lon="-2.29672">
        <ele>-7.8000001907349</ele>
        <time>2019-12-26T09:11:46.000Z</time>
      </trkpt>
      <trkpt lat="47.30181" lon="-2.29676">
        <ele>-7.8000001907349</ele>
        <time>2019-12-26T09:11:48.000Z</time>
      </trkpt>
      <trkpt lat="47.30186" lon="-2.29678">
        <ele>-7.8000001907349</ele>
        <time>2019-12-26T09:11:49.000Z</time>
      </trkpt>
      <trkpt lat="47.30195" lon="-2.29684">
        <ele>-8.1999998092651</ele>
        <time>2019-12-26T09:11:51.000Z</time>
      </trkpt>
      <trkpt lat="47.302" lon="-2.29687">
        <ele>-8.6000003814697</ele>
        <time>2019-12-26T09:11:52.000Z</time>
      </trkpt>
      <trkpt lat="47.30204" lon="-2.29689">
        <ele>-9</ele>
        <time>2019-12-26T09:11:53.000Z</time>
      </trkpt>
      <trkpt lat="47.30208" lon="-2.29691">
        <ele>-9.3999996185303</ele>
        <time>2019-12-26T09:11:54.000Z</time>
      </trkpt>
      <trkpt lat="47.30212" lon="-2.29693">
        <ele>-9.8000001907349</ele>
        <time>2019-12-26T09:11:55.000Z</time>
      </trkpt>
      <trkpt lat="47.30228" lon="-2.29704">
        <ele>-9.8000001907349</ele>
        <time>2019-12-26T09:11:59.000Z</time>
      </trkpt>
      <trkpt lat="47.30237" lon="-2.29707">
        <ele>-9.8000001907349</ele>
        <time>2019-12-26T09:12:01.000Z</time>
      </trkpt>
      <trkpt lat="47.30246" lon="-2.29712">
        <ele>-9.8000001907349</ele>
        <time>2019-12-26T09:12:03.000Z</time>
      </trkpt>
      <trkpt lat="47.3025" lon="-2.29714">
        <ele>-9.8000001907349</ele>
        <time>2019-12-26T09:12:04.000Z</time>
      </trkpt>
      <trkpt lat="47.30275" lon="-2.29712">
        <ele>-9.8000001907349</ele>
        <time>2019-12-26T09:12:09.000Z</time>
      </trkpt>
      <trkpt lat="47.30304" lon="-2.29704">
        <ele>-9.8000001907349</ele>
        <time>2019-12-26T09:12:15.000Z</time>
      </trkpt>
      <trkpt lat="47.30317" lon="-2.29699">
        <ele>-9.8000001907349</ele>
        <time>2019-12-26T09:12:18.000Z</time>
      </trkpt>
      <trkpt lat="47.30326" lon="-2.29697">
        <ele>-9.8000001907349</ele>
        <time>2019-12-26T09:12:20.000Z</time>
      </trkpt>
      <trkpt lat="47.30354" lon="-2.29691">
        <ele>-9.8000001907349</ele>
        <time>2019-12-26T09:12:26.000Z</time>
      </trkpt>
      <trkpt lat="47.30362" lon="-2.29687">
        <ele>-9.8000001907349</ele>
        <time>2019-12-26T09:12:28.000Z</time>
      </trkpt>
      <trkpt lat="47.30372" lon="-2.29683">
        <ele>-9.8000001907349</ele>
        <time>2019-12-26T09:12:30.000Z</time>
      </trkpt>
      <trkpt lat="47.30377" lon="-2.29682">
        <ele>-9.8000001907349</ele>
        <time>2019-12-26T09:12:31.000Z</time>
      </trkpt>
      <trkpt lat="47.30396" lon="-2.29676">
        <ele>-9.8000001907349</ele>
        <time>2019-12-26T09:12:35.000Z</time>
      </trkpt>
      <trkpt lat="47.30406" lon="-2.29674">
        <ele>-9.8000001907349</ele>
        <time>2019-12-26T09:12:37.000Z</time>
      </trkpt>
      <trkpt lat="47.30446" lon="-2.29661">
        <ele>-9.8000001907349</ele>
        <time>2019-12-26T09:12:45.000Z</time>
      </trkpt>
      <trkpt lat="47.3046" lon="-2.29658">
        <ele>-9.8000001907349</ele>
        <time>2019-12-26T09:12:48.000Z</time>
      </trkpt>
      <trkpt lat="47.30475" lon="-2.29653">
        <ele>-9.8000001907349</ele>
        <time>2019-12-26T09:12:51.000Z</time>
      </trkpt>
      <trkpt lat="47.30502" lon="-2.29645">
        <ele>-9.8000001907349</ele>
        <time>2019-12-26T09:12:57.000Z</time>
      </trkpt>
      <trkpt lat="47.30512" lon="-2.29644">
        <ele>-9.8000001907349</ele>
        <time>2019-12-26T09:12:59.000Z</time>
      </trkpt>
      <trkpt lat="47.30535" lon="-2.29638">
        <ele>-9.8000001907349</ele>
        <time>2019-12-26T09:13:04.000Z</time>
      </trkpt>
      <trkpt lat="47.30554" lon="-2.29629">
        <ele>-9.8000001907349</ele>
        <time>2019-12-26T09:13:08.000Z</time>
      </trkpt>
      <trkpt lat="47.3056" lon="-2.29627">
        <ele>-9.8000001907349</ele>
        <time>2019-12-26T09:13:09.000Z</time>
      </trkpt>
      <trkpt lat="47.30585" lon="-2.29618">
        <ele>-9.8000001907349</ele>
        <time>2019-12-26T09:13:14.000Z</time>
      </trkpt>
      <trkpt lat="47.30591" lon="-2.29617">
        <ele>-9.8000001907349</ele>
        <time>2019-12-26T09:13:15.000Z</time>
      </trkpt>
      <trkpt lat="47.30613" lon="-2.29611">
        <ele>-9.8000001907349</ele>
        <time>2019-12-26T09:13:19.000Z</time>
      </trkpt>
      <trkpt lat="47.3065" lon="-2.29597">
        <ele>-9.8000001907349</ele>
        <time>2019-12-26T09:13:26.000Z</time>
      </trkpt>
      <trkpt lat="47.30664" lon="-2.29592">
        <ele>-9.8000001907349</ele>
        <time>2019-12-26T09:13:29.000Z</time>
      </trkpt>
      <trkpt lat="47.30673" lon="-2.29589">
        <ele>-9.8000001907349</ele>
        <time>2019-12-26T09:13:31.000Z</time>
      </trkpt>
      <trkpt lat="47.30704" lon="-2.2958">
        <ele>-9.8000001907349</ele>
        <time>2019-12-26T09:13:38.000Z</time>
      </trkpt>
      <trkpt lat="47.30716" lon="-2.29575">
        <ele>-9.8000001907349</ele>
        <time>2019-12-26T09:13:41.000Z</time>
      </trkpt>
      <trkpt lat="47.30729" lon="-2.29572">
        <ele>-9.8000001907349</ele>
        <time>2019-12-26T09:13:44.000Z</time>
      </trkpt>
      <trkpt lat="47.30734" lon="-2.2957">
        <ele>-9.8000001907349</ele>
        <time>2019-12-26T09:13:45.000Z</time>
      </trkpt>
      <trkpt lat="47.30754" lon="-2.29565">
        <ele>-9.8000001907349</ele>
        <time>2019-12-26T09:13:49.000Z</time>
      </trkpt>
      <trkpt lat="47.30788" lon="-2.29554">
        <ele>-9.8000001907349</ele>
        <time>2019-12-26T09:13:56.000Z</time>
      </trkpt>
      <trkpt lat="47.30793" lon="-2.29553">
        <ele>-9.3999996185303</ele>
        <time>2019-12-26T09:13:57.000Z</time>
      </trkpt>
      <trkpt lat="47.30798" lon="-2.29551">
        <ele>-9</ele>
        <time>2019-12-26T09:13:58.000Z</time>
      </trkpt>
      <trkpt lat="47.30803" lon="-2.2955">
        <ele>-8.6000003814697</ele>
        <time>2019-12-26T09:13:59.000Z</time>
      </trkpt>
      <trkpt lat="47.30808" lon="-2.29548">
        <ele>-8.1999998092651</ele>
        <time>2019-12-26T09:14:00.000Z</time>
      </trkpt>
      <trkpt lat="47.30813" lon="-2.29547">
        <ele>-7.8000001907349</ele>
        <time>2019-12-26T09:14:01.000Z</time>
      </trkpt>
      <trkpt lat="47.30819" lon="-2.29546">
        <ele>-7.8000001907349</ele>
        <time>2019-12-26T09:14:02.000Z</time>
      </trkpt>
      <trkpt lat="47.30834" lon="-2.29545">
        <ele>-7.8000001907349</ele>
        <time>2019-12-26T09:14:05.000Z</time>
      </trkpt>
      <trkpt lat="47.30848" lon="-2.29547">
        <ele>-7.8000001907349</ele>
        <time>2019-12-26T09:14:08.000Z</time>
      </trkpt>
      <trkpt lat="47.30872" lon="-2.29552">
        <ele>-7.8000001907349</ele>
        <time>2019-12-26T09:14:13.000Z</time>
      </trkpt>
      <trkpt lat="47.30881" lon="-2.29555">
        <ele>-7.8000001907349</ele>
        <time>2019-12-26T09:14:15.000Z</time>
      </trkpt>
      <trkpt lat="47.309" lon="-2.29561">
        <ele>-7.4000000953674</ele>
        <time>2019-12-26T09:14:19.000Z</time>
      </trkpt>
      <trkpt lat="47.30905" lon="-2.29562">
        <ele>-7</ele>
        <time>2019-12-26T09:14:20.000Z</time>
      </trkpt>
      <trkpt lat="47.3091" lon="-2.29563">
        <ele>-6.5999999046326</ele>
        <time>2019-12-26T09:14:21.000Z</time>
      </trkpt>
      <trkpt lat="47.30915" lon="-2.29565">
        <ele>-6.1999998092651</ele>
        <time>2019-12-26T09:14:22.000Z</time>
      </trkpt>
      <trkpt lat="47.3092" lon="-2.29566">
        <ele>-5.5999999046326</ele>
        <time>2019-12-26T09:14:23.000Z</time>
      </trkpt>
      <trkpt lat="47.30953" lon="-2.29576">
        <ele>-5.5999999046326</ele>
        <time>2019-12-26T09:14:30.000Z</time>
      </trkpt>
      <trkpt lat="47.30984" lon="-2.29587">
        <ele>-5.5999999046326</ele>
        <time>2019-12-26T09:14:36.000Z</time>
      </trkpt>
      <trkpt lat="47.30988" lon="-2.29591">
        <ele>-5.5999999046326</ele>
        <time>2019-12-26T09:14:37.000Z</time>
      </trkpt>
      <trkpt lat="47.31" lon="-2.29604">
        <ele>-5.5999999046326</ele>
        <time>2019-12-26T09:14:40.000Z</time>
      </trkpt>
      <trkpt lat="47.31013" lon="-2.29629">
        <ele>-5.5999999046326</ele>
        <time>2019-12-26T09:14:44.000Z</time>
      </trkpt>
      <trkpt lat="47.31025" lon="-2.29663">
        <ele>-5.5999999046326</ele>
        <time>2019-12-26T09:14:49.000Z</time>
      </trkpt>
      <trkpt lat="47.31027" lon="-2.29669">
        <ele>-5.5999999046326</ele>
        <time>2019-12-26T09:14:50.000Z</time>
      </trkpt>
      <trkpt lat="47.31033" lon="-2.29688">
        <ele>-5.5999999046326</ele>
        <time>2019-12-26T09:14:53.000Z</time>
      </trkpt>
      <trkpt lat="47.31043" lon="-2.29699">
        <ele>-5.5999999046326</ele>
        <time>2019-12-26T09:14:56.000Z</time>
      </trkpt>
      <trkpt lat="47.31056" lon="-2.29692">
        <ele>-5.5999999046326</ele>
        <time>2019-12-26T09:14:59.000Z</time>
      </trkpt>
      <trkpt lat="47.31069" lon="-2.2968">
        <ele>-5.5999999046326</ele>
        <time>2019-12-26T09:15:02.000Z</time>
      </trkpt>
      <trkpt lat="47.31082" lon="-2.29667">
        <ele>-5.5999999046326</ele>
        <time>2019-12-26T09:15:05.000Z</time>
      </trkpt>
      <trkpt lat="47.31086" lon="-2.29661">
        <ele>-5.5999999046326</ele>
        <time>2019-12-26T09:15:06.000Z</time>
      </trkpt>
      <trkpt lat="47.31092" lon="-2.29651">
        <ele>-5.5999999046326</ele>
        <time>2019-12-26T09:15:08.000Z</time>
      </trkpt>
      <trkpt lat="47.311" lon="-2.2964">
        <ele>-5.5999999046326</ele>
        <time>2019-12-26T09:15:10.000Z</time>
      </trkpt>
      <trkpt lat="47.31124" lon="-2.29609">
        <ele>-5.5999999046326</ele>
        <time>2019-12-26T09:15:16.000Z</time>
      </trkpt>
      <trkpt lat="47.31152" lon="-2.29589">
        <ele>-5.5999999046326</ele>
        <time>2019-12-26T09:15:22.000Z</time>
      </trkpt>
      <trkpt lat="47.31157" lon="-2.29585">
        <ele>-5.5999999046326</ele>
        <time>2019-12-26T09:15:23.000Z</time>
      </trkpt>
      <trkpt lat="47.31169" lon="-2.29566">
        <ele>-5.5999999046326</ele>
        <time>2019-12-26T09:15:26.000Z</time>
      </trkpt>
      <trkpt lat="47.31167" lon="-2.29556">
        <ele>-5.5999999046326</ele>
        <time>2019-12-26T09:15:27.000Z</time>
      </trkpt>
      <trkpt lat="47.31165" lon="-2.29548">
        <ele>-5.5999999046326</ele>
        <time>2019-12-26T09:15:28.000Z</time>
      </trkpt>
      <trkpt lat="47.31155" lon="-2.29519">
        <ele>-5.5999999046326</ele>
        <time>2019-12-26T09:15:32.000Z</time>
      </trkpt>
      <trkpt lat="47.31153" lon="-2.29512">
        <ele>-5.5999999046326</ele>
        <time>2019-12-26T09:15:33.000Z</time>
      </trkpt>
      <trkpt lat="47.31147" lon="-2.29491">
        <ele>-5.5999999046326</ele>
        <time>2019-12-26T09:15:36.000Z</time>
      </trkpt>
      <trkpt lat="47.31144" lon="-2.29471">
        <ele>-5.5999999046326</ele>
        <time>2019-12-26T09:15:39.000Z</time>
      </trkpt>
      <trkpt lat="47.31153" lon="-2.2946">
        <ele>-5.5999999046326</ele>
        <time>2019-12-26T09:15:42.000Z</time>
      </trkpt>
      <trkpt lat="47.31161" lon="-2.29453">
        <ele>-5.5999999046326</ele>
        <time>2019-12-26T09:15:44.000Z</time>
      </trkpt>
      <trkpt lat="47.31165" lon="-2.29447">
        <ele>-5.5999999046326</ele>
        <time>2019-12-26T09:15:45.000Z</time>
      </trkpt>
      <trkpt lat="47.3117" lon="-2.29444">
        <ele>-5.5999999046326</ele>
        <time>2019-12-26T09:15:46.000Z</time>
      </trkpt>
      <trkpt lat="47.31195" lon="-2.29421">
        <ele>-5.5999999046326</ele>
        <time>2019-12-26T09:15:52.000Z</time>
      </trkpt>
      <trkpt lat="47.31199" lon="-2.29418">
        <ele>-5.5999999046326</ele>
        <time>2019-12-26T09:15:53.000Z</time>
      </trkpt>
      <trkpt lat="47.31213" lon="-2.2941">
        <ele>-5.5999999046326</ele>
        <time>2019-12-26T09:15:56.000Z</time>
      </trkpt>
      <trkpt lat="47.31218" lon="-2.29406">
        <ele>-5.5999999046326</ele>
        <time>2019-12-26T09:15:57.000Z</time>
      </trkpt>
      <trkpt lat="47.3125" lon="-2.29383">
        <ele>-5.5999999046326</ele>
        <time>2019-12-26T09:16:05.000Z</time>
      </trkpt>
      <trkpt lat="47.31253" lon="-2.29379">
        <ele>-5.5999999046326</ele>
        <time>2019-12-26T09:16:06.000Z</time>
      </trkpt>
      <trkpt lat="47.3126" lon="-2.29358">
        <ele>-5.5999999046326</ele>
        <time>2019-12-26T09:16:09.000Z</time>
      </trkpt>
      <trkpt lat="47.31271" lon="-2.29337">
        <ele>-5.5999999046326</ele>
        <time>2019-12-26T09:16:13.000Z</time>
      </trkpt>
      <trkpt lat="47.31274" lon="-2.29333">
        <ele>-5.5999999046326</ele>
        <time>2019-12-26T09:16:14.000Z</time>
      </trkpt>
      <trkpt lat="47.31282" lon="-2.29316">
        <ele>-5.5999999046326</ele>
        <time>2019-12-26T09:16:18.000Z</time>
      </trkpt>
      <trkpt lat="47.313" lon="-2.29297">
        <ele>-5.5999999046326</ele>
        <time>2019-12-26T09:16:24.000Z</time>
      </trkpt>
      <trkpt lat="47.31321" lon="-2.29299">
        <ele>-5.5999999046326</ele>
        <time>2019-12-26T09:16:30.000Z</time>
      </trkpt>
      <trkpt lat="47.31331" lon="-2.29303">
        <ele>-5.5999999046326</ele>
        <time>2019-12-26T09:16:32.000Z</time>
      </trkpt>
      <trkpt lat="47.31351" lon="-2.29312">
        <ele>-5.1999998092651</ele>
        <time>2019-12-26T09:16:36.000Z</time>
      </trkpt>
      <trkpt lat="47.31355" lon="-2.29314">
        <ele>-4.8000001907349</ele>
        <time>2019-12-26T09:16:37.000Z</time>
      </trkpt>
      <trkpt lat="47.3136" lon="-2.29316">
        <ele>-4.4000000953674</ele>
        <time>2019-12-26T09:16:38.000Z</time>
      </trkpt>
      <trkpt lat="47.31365" lon="-2.29318">
        <ele>-4</ele>
        <time>2019-12-26T09:16:39.000Z</time>
      </trkpt>
      <trkpt lat="47.31369" lon="-2.29319">
        <ele>-3.5999999046326</ele>
        <time>2019-12-26T09:16:40.000Z</time>
      </trkpt>
      <trkpt lat="47.31381" lon="-2.29323">
        <ele>-3.5999999046326</ele>
        <time>2019-12-26T09:16:43.000Z</time>
      </trkpt>
      <trkpt lat="47.31393" lon="-2.29329">
        <ele>-3.5999999046326</ele>
        <time>2019-12-26T09:16:46.000Z</time>
      </trkpt>
      <trkpt lat="47.31397" lon="-2.29332">
        <ele>-3.5999999046326</ele>
        <time>2019-12-26T09:16:48.000Z</time>
      </trkpt>
      <trkpt lat="47.314" lon="-2.29335">
        <ele>-3.5999999046326</ele>
        <time>2019-12-26T09:16:50.000Z</time>
      </trkpt>
      <trkpt lat="47.31405" lon="-2.29339">
        <ele>-3.5999999046326</ele>
        <time>2019-12-26T09:16:54.000Z</time>
      </trkpt>
      <trkpt lat="47.31407" lon="-2.2934">
        <ele>-3.5999999046326</ele>
        <time>2019-12-26T09:16:55.000Z</time>
      </trkpt>
      <trkpt lat="47.31418" lon="-2.29348">
        <ele>-3.5999999046326</ele>
        <time>2019-12-26T09:17:00.000Z</time>
      </trkpt>
      <trkpt lat="47.3142" lon="-2.2935">
        <ele>-3.5999999046326</ele>
        <time>2019-12-26T09:17:01.000Z</time>
      </trkpt>
      <trkpt lat="47.31429" lon="-2.29361">
        <ele>-3.5999999046326</ele>
        <time>2019-12-26T09:17:05.000Z</time>
      </trkpt>
      <trkpt lat="47.31431" lon="-2.29364">
        <ele>-3.5999999046326</ele>
        <time>2019-12-26T09:17:06.000Z</time>
      </trkpt>
      <trkpt lat="47.31445" lon="-2.29389">
        <ele>-3.5999999046326</ele>
        <time>2019-12-26T09:17:13.000Z</time>
      </trkpt>
      <trkpt lat="47.31458" lon="-2.29398">
        <ele>-3.2000000476837</ele>
        <time>2019-12-26T09:17:17.000Z</time>
      </trkpt>
      <trkpt lat="47.31461" lon="-2.29398">
        <ele>-2.7999999523163</ele>
        <time>2019-12-26T09:17:18.000Z</time>
      </trkpt>
      <trkpt lat="47.31464" lon="-2.29398">
        <ele>-2.4000000953674</ele>
        <time>2019-12-26T09:17:19.000Z</time>
      </trkpt>
      <trkpt lat="47.31468" lon="-2.29398">
        <ele>-2</ele>
        <time>2019-12-26T09:17:20.000Z</time>
      </trkpt>
      <trkpt lat="47.31471" lon="-2.29397">
        <ele>-1.6000000238419</ele>
        <time>2019-12-26T09:17:21.000Z</time>
      </trkpt>
      <trkpt lat="47.31482" lon="-2.29392">
        <ele>-1.6000000238419</ele>
        <time>2019-12-26T09:17:25.000Z</time>
      </trkpt>
      <trkpt lat="47.31499" lon="-2.29393">
        <ele>-1.6000000238419</ele>
        <time>2019-12-26T09:17:30.000Z</time>
      </trkpt>
      <trkpt lat="47.31509" lon="-2.29411">
        <ele>-1.6000000238419</ele>
        <time>2019-12-26T09:17:35.000Z</time>
      </trkpt>
      <trkpt lat="47.3152" lon="-2.29433">
        <ele>-1</ele>
        <time>2019-12-26T09:17:40.000Z</time>
      </trkpt>
      <trkpt lat="47.31521" lon="-2.29438">
        <ele>-0.60000002384186</ele>
        <time>2019-12-26T09:17:41.000Z</time>
      </trkpt>
      <trkpt lat="47.31523" lon="-2.29442">
        <ele>-0.20000000298023</ele>
        <time>2019-12-26T09:17:42.000Z</time>
      </trkpt>
      <trkpt lat="47.31525" lon="-2.29446">
        <ele>0.20000000298023</ele>
        <time>2019-12-26T09:17:43.000Z</time>
      </trkpt>
      <trkpt lat="47.31527" lon="-2.29451">
        <ele>0.80000001192093</ele>
        <time>2019-12-26T09:17:44.000Z</time>
      </trkpt>
      <trkpt lat="47.31532" lon="-2.29466">
        <ele>0.80000001192093</ele>
        <time>2019-12-26T09:17:47.000Z</time>
      </trkpt>
      <trkpt lat="47.31541" lon="-2.29495">
        <ele>0.80000001192093</ele>
        <time>2019-12-26T09:17:53.000Z</time>
      </trkpt>
      <trkpt lat="47.31545" lon="-2.29518">
        <ele>0.80000001192093</ele>
        <time>2019-12-26T09:17:57.000Z</time>
      </trkpt>
      <trkpt lat="47.31547" lon="-2.29523">
        <ele>1.2000000476837</ele>
        <time>2019-12-26T09:17:58.000Z</time>
      </trkpt>
      <trkpt lat="47.31549" lon="-2.29528">
        <ele>1.6000000238419</ele>
        <time>2019-12-26T09:17:59.000Z</time>
      </trkpt>
      <trkpt lat="47.31551" lon="-2.29533">
        <ele>2</ele>
        <time>2019-12-26T09:18:00.000Z</time>
      </trkpt>
      <trkpt lat="47.31554" lon="-2.29538">
        <ele>2.4000000953674</ele>
        <time>2019-12-26T09:18:01.000Z</time>
      </trkpt>
      <trkpt lat="47.31556" lon="-2.29542">
        <ele>2.7999999523163</ele>
        <time>2019-12-26T09:18:02.000Z</time>
      </trkpt>
      <trkpt lat="47.31569" lon="-2.29563">
        <ele>2.7999999523163</ele>
        <time>2019-12-26T09:18:07.000Z</time>
      </trkpt>
      <trkpt lat="47.31587" lon="-2.29587">
        <ele>2.7999999523163</ele>
        <time>2019-12-26T09:18:13.000Z</time>
      </trkpt>
      <trkpt lat="47.31605" lon="-2.29604">
        <ele>2.7999999523163</ele>
        <time>2019-12-26T09:18:18.000Z</time>
      </trkpt>
      <trkpt lat="47.31616" lon="-2.29619">
        <ele>2.7999999523163</ele>
        <time>2019-12-26T09:18:22.000Z</time>
      </trkpt>
      <trkpt lat="47.31628" lon="-2.2964">
        <ele>2.7999999523163</ele>
        <time>2019-12-26T09:18:27.000Z</time>
      </trkpt>
      <trkpt lat="47.31638" lon="-2.29665">
        <ele>2.7999999523163</ele>
        <time>2019-12-26T09:18:32.000Z</time>
      </trkpt>
      <trkpt lat="47.31641" lon="-2.29675">
        <ele>3.2000000476837</ele>
        <time>2019-12-26T09:18:34.000Z</time>
      </trkpt>
      <trkpt lat="47.31642" lon="-2.2968">
        <ele>3.5999999046326</ele>
        <time>2019-12-26T09:18:35.000Z</time>
      </trkpt>
      <trkpt lat="47.31644" lon="-2.29685">
        <ele>4.4000000953674</ele>
        <time>2019-12-26T09:18:36.000Z</time>
      </trkpt>
      <trkpt lat="47.31646" lon="-2.2969">
        <ele>4.8000001907349</ele>
        <time>2019-12-26T09:18:37.000Z</time>
      </trkpt>
      <trkpt lat="47.31648" lon="-2.29696">
        <ele>4.8000001907349</ele>
        <time>2019-12-26T09:18:38.000Z</time>
      </trkpt>
      <trkpt lat="47.31659" lon="-2.29724">
        <ele>4.8000001907349</ele>
        <time>2019-12-26T09:18:44.000Z</time>
      </trkpt>
      <trkpt lat="47.31662" lon="-2.29728">
        <ele>4.8000001907349</ele>
        <time>2019-12-26T09:18:45.000Z</time>
      </trkpt>
      <trkpt lat="47.31671" lon="-2.29731">
        <ele>4.8000001907349</ele>
        <time>2019-12-26T09:18:47.000Z</time>
      </trkpt>
      <trkpt lat="47.3168" lon="-2.2973">
        <ele>4.8000001907349</ele>
        <time>2019-12-26T09:18:49.000Z</time>
      </trkpt>
      <trkpt lat="47.31693" lon="-2.29727">
        <ele>4.8000001907349</ele>
        <time>2019-12-26T09:18:52.000Z</time>
      </trkpt>
      <trkpt lat="47.31697" lon="-2.29725">
        <ele>4.8000001907349</ele>
        <time>2019-12-26T09:18:53.000Z</time>
      </trkpt>
      <trkpt lat="47.31715" lon="-2.29715">
        <ele>4.8000001907349</ele>
        <time>2019-12-26T09:18:57.000Z</time>
      </trkpt>
      <trkpt lat="47.31728" lon="-2.29706">
        <ele>4.8000001907349</ele>
        <time>2019-12-26T09:19:00.000Z</time>
      </trkpt>
      <trkpt lat="47.31746" lon="-2.29692">
        <ele>4.8000001907349</ele>
        <time>2019-12-26T09:19:04.000Z</time>
      </trkpt>
      <trkpt lat="47.31755" lon="-2.29686">
        <ele>4.8000001907349</ele>
        <time>2019-12-26T09:19:06.000Z</time>
      </trkpt>
      <trkpt lat="47.31773" lon="-2.29675">
        <ele>4.8000001907349</ele>
        <time>2019-12-26T09:19:10.000Z</time>
      </trkpt>
      <trkpt lat="47.3178" lon="-2.2967">
        <ele>4.8000001907349</ele>
        <time>2019-12-26T09:19:12.000Z</time>
      </trkpt>
      <trkpt lat="47.31787" lon="-2.29665">
        <ele>4.8000001907349</ele>
        <time>2019-12-26T09:19:14.000Z</time>
      </trkpt>
      <trkpt lat="47.31799" lon="-2.29656">
        <ele>4.8000001907349</ele>
        <time>2019-12-26T09:19:18.000Z</time>
      </trkpt>
      <trkpt lat="47.31817" lon="-2.29644">
        <ele>4.8000001907349</ele>
        <time>2019-12-26T09:19:23.000Z</time>
      </trkpt>
      <trkpt lat="47.31824" lon="-2.2964">
        <ele>4.4000000953674</ele>
        <time>2019-12-26T09:19:25.000Z</time>
      </trkpt>
      <trkpt lat="47.31828" lon="-2.29638">
        <ele>4</ele>
        <time>2019-12-26T09:19:26.000Z</time>
      </trkpt>
      <trkpt lat="47.31831" lon="-2.29637">
        <ele>3.5999999046326</ele>
        <time>2019-12-26T09:19:27.000Z</time>
      </trkpt>
      <trkpt lat="47.31835" lon="-2.29635">
        <ele>3</ele>
        <time>2019-12-26T09:19:28.000Z</time>
      </trkpt>
      <trkpt lat="47.31838" lon="-2.29634">
        <ele>2.5999999046326</ele>
        <time>2019-12-26T09:19:29.000Z</time>
      </trkpt>
      <trkpt lat="47.31842" lon="-2.29633">
        <ele>2.5999999046326</ele>
        <time>2019-12-26T09:19:30.000Z</time>
      </trkpt>
      <trkpt lat="47.31848" lon="-2.29628">
        <ele>2.5999999046326</ele>
        <time>2019-12-26T09:19:34.000Z</time>
      </trkpt>
      <trkpt lat="47.31852" lon="-2.29628">
        <ele>2.5999999046326</ele>
        <time>2019-12-26T09:20:20.000Z</time>
      </trkpt>
      <trkpt lat="47.31856" lon="-2.29624">
        <ele>2.5999999046326</ele>
        <time>2019-12-26T09:20:23.000Z</time>
      </trkpt>
      <trkpt lat="47.31857" lon="-2.29622">
        <ele>2.5999999046326</ele>
        <time>2019-12-26T09:20:24.000Z</time>
      </trkpt>
      <trkpt lat="47.31863" lon="-2.29614">
        <ele>2.5999999046326</ele>
        <time>2019-12-26T09:20:29.000Z</time>
      </trkpt>
      <trkpt lat="47.31873" lon="-2.29601">
        <ele>2.5999999046326</ele>
        <time>2019-12-26T09:20:37.000Z</time>
      </trkpt>
      <trkpt lat="47.31875" lon="-2.29592">
        <ele>2.5999999046326</ele>
        <time>2019-12-26T09:20:41.000Z</time>
      </trkpt>
      <trkpt lat="47.31876" lon="-2.2959">
        <ele>2.5999999046326</ele>
        <time>2019-12-26T09:20:42.000Z</time>
      </trkpt>
      <trkpt lat="47.31874" lon="-2.29582">
        <ele>2.5999999046326</ele>
        <time>2019-12-26T09:20:46.000Z</time>
      </trkpt>
      <trkpt lat="47.31873" lon="-2.29579">
        <ele>2.5999999046326</ele>
        <time>2019-12-26T09:20:47.000Z</time>
      </trkpt>
      <trkpt lat="47.3187" lon="-2.29566">
        <ele>2.5999999046326</ele>
        <time>2019-12-26T09:20:52.000Z</time>
      </trkpt>
      <trkpt lat="47.31865" lon="-2.29549">
        <ele>2.5999999046326</ele>
        <time>2019-12-26T09:20:58.000Z</time>
      </trkpt>
      <trkpt lat="47.31859" lon="-2.29533">
        <ele>2.5999999046326</ele>
        <time>2019-12-26T09:21:04.000Z</time>
      </trkpt>
      <trkpt lat="47.31854" lon="-2.29513">
        <ele>2.5999999046326</ele>
        <time>2019-12-26T09:21:11.000Z</time>
      </trkpt>
      <trkpt lat="47.31846" lon="-2.29488">
        <ele>2.5999999046326</ele>
        <time>2019-12-26T09:21:19.000Z</time>
      </trkpt>
      <trkpt lat="47.31846" lon="-2.29469">
        <ele>2.5999999046326</ele>
        <time>2019-12-26T09:21:24.000Z</time>
      </trkpt>
      <trkpt lat="47.31852" lon="-2.29432">
        <ele>2.5999999046326</ele>
        <time>2019-12-26T09:21:32.000Z</time>
      </trkpt>
      <trkpt lat="47.3185" lon="-2.29399">
        <ele>2.5999999046326</ele>
        <time>2019-12-26T09:21:38.000Z</time>
      </trkpt>
      <trkpt lat="47.31844" lon="-2.29367">
        <ele>2.5999999046326</ele>
        <time>2019-12-26T09:21:44.000Z</time>
      </trkpt>
      <trkpt lat="47.31836" lon="-2.29333">
        <ele>2.5999999046326</ele>
        <time>2019-12-26T09:21:51.000Z</time>
      </trkpt>
      <trkpt lat="47.31833" lon="-2.29295">
        <ele>2.5999999046326</ele>
        <time>2019-12-26T09:21:58.000Z</time>
      </trkpt>
      <trkpt lat="47.31832" lon="-2.29289">
        <ele>2.2000000476837</ele>
        <time>2019-12-26T09:21:59.000Z</time>
      </trkpt>
      <trkpt lat="47.31831" lon="-2.29282">
        <ele>1.7999999523163</ele>
        <time>2019-12-26T09:22:00.000Z</time>
      </trkpt>
      <trkpt lat="47.3183" lon="-2.29275">
        <ele>1.3999999761581</ele>
        <time>2019-12-26T09:22:01.000Z</time>
      </trkpt>
      <trkpt lat="47.31829" lon="-2.29268">
        <ele>1</ele>
        <time>2019-12-26T09:22:02.000Z</time>
      </trkpt>
      <trkpt lat="47.31829" lon="-2.29261">
        <ele>0.60000002384186</ele>
        <time>2019-12-26T09:22:03.000Z</time>
      </trkpt>
      <trkpt lat="47.31827" lon="-2.29245">
        <ele>0.60000002384186</ele>
        <time>2019-12-26T09:22:05.000Z</time>
      </trkpt>
      <trkpt lat="47.31826" lon="-2.29239">
        <ele>0.60000002384186</ele>
        <time>2019-12-26T09:22:06.000Z</time>
      </trkpt>
      <trkpt lat="47.31825" lon="-2.29232">
        <ele>0.20000000298023</ele>
        <time>2019-12-26T09:22:07.000Z</time>
      </trkpt>
      <trkpt lat="47.31824" lon="-2.29225">
        <ele>-0.20000000298023</ele>
        <time>2019-12-26T09:22:08.000Z</time>
      </trkpt>
      <trkpt lat="47.31824" lon="-2.29218">
        <ele>-0.60000002384186</ele>
        <time>2019-12-26T09:22:09.000Z</time>
      </trkpt>
      <trkpt lat="47.31824" lon="-2.2921">
        <ele>-1</ele>
        <time>2019-12-26T09:22:10.000Z</time>
      </trkpt>
      <trkpt lat="47.31824" lon="-2.29202">
        <ele>-1.3999999761581</ele>
        <time>2019-12-26T09:22:11.000Z</time>
      </trkpt>
      <trkpt lat="47.31826" lon="-2.29175">
        <ele>-1.3999999761581</ele>
        <time>2019-12-26T09:22:14.000Z</time>
      </trkpt>
      <trkpt lat="47.31835" lon="-2.29111">
        <ele>-1.7999999523163</ele>
        <time>2019-12-26T09:22:21.000Z</time>
      </trkpt>
      <trkpt lat="47.31836" lon="-2.29102">
        <ele>-2.4000000953674</ele>
        <time>2019-12-26T09:22:22.000Z</time>
      </trkpt>
      <trkpt lat="47.31838" lon="-2.29093">
        <ele>-2.7999999523163</ele>
        <time>2019-12-26T09:22:23.000Z</time>
      </trkpt>
      <trkpt lat="47.31839" lon="-2.29084">
        <ele>-3.4000000953674</ele>
        <time>2019-12-26T09:22:24.000Z</time>
      </trkpt>
      <trkpt lat="47.31841" lon="-2.29075">
        <ele>-3.7999999523163</ele>
        <time>2019-12-26T09:22:25.000Z</time>
      </trkpt>
      <trkpt lat="47.31845" lon="-2.29058">
        <ele>-4.1999998092651</ele>
        <time>2019-12-26T09:22:27.000Z</time>
      </trkpt>
      <trkpt lat="47.31846" lon="-2.2905">
        <ele>-4.5999999046326</ele>
        <time>2019-12-26T09:22:28.000Z</time>
      </trkpt>
      <trkpt lat="47.31848" lon="-2.29042">
        <ele>-5</ele>
        <time>2019-12-26T09:22:29.000Z</time>
      </trkpt>
      <trkpt lat="47.3185" lon="-2.29034">
        <ele>-5.4000000953674</ele>
        <time>2019-12-26T09:22:30.000Z</time>
      </trkpt>
      <trkpt lat="47.31851" lon="-2.29026">
        <ele>-5.8000001907349</ele>
        <time>2019-12-26T09:22:31.000Z</time>
      </trkpt>
      <trkpt lat="47.31858" lon="-2.28995">
        <ele>-5.8000001907349</ele>
        <time>2019-12-26T09:22:35.000Z</time>
      </trkpt>
      <trkpt lat="47.31863" lon="-2.28948">
        <ele>-5.8000001907349</ele>
        <time>2019-12-26T09:22:41.000Z</time>
      </trkpt>
      <trkpt lat="47.31866" lon="-2.28903">
        <ele>-5.8000001907349</ele>
        <time>2019-12-26T09:22:47.000Z</time>
      </trkpt>
      <trkpt lat="47.31867" lon="-2.28882">
        <ele>-5.8000001907349</ele>
        <time>2019-12-26T09:22:50.000Z</time>
      </trkpt>
      <trkpt lat="47.31866" lon="-2.28865">
        <ele>-5.8000001907349</ele>
        <time>2019-12-26T09:22:53.000Z</time>
      </trkpt>
      <trkpt lat="47.3187" lon="-2.28839">
        <ele>-5.8000001907349</ele>
        <time>2019-12-26T09:22:58.000Z</time>
      </trkpt>
      <trkpt lat="47.31872" lon="-2.28829">
        <ele>-5.8000001907349</ele>
        <time>2019-12-26T09:23:00.000Z</time>
      </trkpt>
      <trkpt lat="47.31874" lon="-2.28815">
        <ele>-5.8000001907349</ele>
        <time>2019-12-26T09:23:02.000Z</time>
      </trkpt>
      <trkpt lat="47.3188" lon="-2.28763">
        <ele>-5.8000001907349</ele>
        <time>2019-12-26T09:23:09.000Z</time>
      </trkpt>
      <trkpt lat="47.31885" lon="-2.28712">
        <ele>-5.8000001907349</ele>
        <time>2019-12-26T09:23:16.000Z</time>
      </trkpt>
      <trkpt lat="47.3189" lon="-2.28669">
        <ele>-5.8000001907349</ele>
        <time>2019-12-26T09:23:22.000Z</time>
      </trkpt>
      <trkpt lat="47.31894" lon="-2.28629">
        <ele>-5.8000001907349</ele>
        <time>2019-12-26T09:23:28.000Z</time>
      </trkpt>
      <trkpt lat="47.31897" lon="-2.28609">
        <ele>-5.8000001907349</ele>
        <time>2019-12-26T09:23:31.000Z</time>
      </trkpt>
      <trkpt lat="47.31901" lon="-2.28587">
        <ele>-5.8000001907349</ele>
        <time>2019-12-26T09:23:34.000Z</time>
      </trkpt>
      <trkpt lat="47.31897" lon="-2.28546">
        <ele>-5.8000001907349</ele>
        <time>2019-12-26T09:23:39.000Z</time>
      </trkpt>
      <trkpt lat="47.31896" lon="-2.28513">
        <ele>-5.8000001907349</ele>
        <time>2019-12-26T09:23:43.000Z</time>
      </trkpt>
      <trkpt lat="47.31896" lon="-2.28504">
        <ele>-5.8000001907349</ele>
        <time>2019-12-26T09:23:44.000Z</time>
      </trkpt>
      <trkpt lat="47.31898" lon="-2.28479">
        <ele>-5.8000001907349</ele>
        <time>2019-12-26T09:23:47.000Z</time>
      </trkpt>
      <trkpt lat="47.31899" lon="-2.2843">
        <ele>-5.8000001907349</ele>
        <time>2019-12-26T09:23:53.000Z</time>
      </trkpt>
      <trkpt lat="47.31891" lon="-2.28381">
        <ele>-5.8000001907349</ele>
        <time>2019-12-26T09:23:59.000Z</time>
      </trkpt>
      <trkpt lat="47.3188" lon="-2.28328">
        <ele>-5.8000001907349</ele>
        <time>2019-12-26T09:24:06.000Z</time>
      </trkpt>
      <trkpt lat="47.31869" lon="-2.28269">
        <ele>-5.8000001907349</ele>
        <time>2019-12-26T09:24:14.000Z</time>
      </trkpt>
      <trkpt lat="47.31862" lon="-2.28207">
        <ele>-5.8000001907349</ele>
        <time>2019-12-26T09:24:21.000Z</time>
      </trkpt>
      <trkpt lat="47.31862" lon="-2.2817">
        <ele>-5.8000001907349</ele>
        <time>2019-12-26T09:24:25.000Z</time>
      </trkpt>
      <trkpt lat="47.31863" lon="-2.28161">
        <ele>-5.8000001907349</ele>
        <time>2019-12-26T09:24:26.000Z</time>
      </trkpt>
      <trkpt lat="47.31864" lon="-2.28108">
        <ele>-5.8000001907349</ele>
        <time>2019-12-26T09:24:32.000Z</time>
      </trkpt>
      <trkpt lat="47.31863" lon="-2.28042">
        <ele>-5.8000001907349</ele>
        <time>2019-12-26T09:24:40.000Z</time>
      </trkpt>
      <trkpt lat="47.31863" lon="-2.28034">
        <ele>-5.8000001907349</ele>
        <time>2019-12-26T09:24:41.000Z</time>
      </trkpt>
      <trkpt lat="47.31864" lon="-2.28018">
        <ele>-5.8000001907349</ele>
        <time>2019-12-26T09:24:43.000Z</time>
      </trkpt>
      <trkpt lat="47.31864" lon="-2.28003">
        <ele>-5.8000001907349</ele>
        <time>2019-12-26T09:24:45.000Z</time>
      </trkpt>
      <trkpt lat="47.31862" lon="-2.27944">
        <ele>-5.8000001907349</ele>
        <time>2019-12-26T09:24:52.000Z</time>
      </trkpt>
      <trkpt lat="47.31863" lon="-2.27892">
        <ele>-5.8000001907349</ele>
        <time>2019-12-26T09:24:58.000Z</time>
      </trkpt>
      <trkpt lat="47.31866" lon="-2.27857">
        <ele>-5.4000000953674</ele>
        <time>2019-12-26T09:25:02.000Z</time>
      </trkpt>
      <trkpt lat="47.31867" lon="-2.27848">
        <ele>-5</ele>
        <time>2019-12-26T09:25:03.000Z</time>
      </trkpt>
      <trkpt lat="47.31868" lon="-2.27839">
        <ele>-4.4000000953674</ele>
        <time>2019-12-26T09:25:04.000Z</time>
      </trkpt>
      <trkpt lat="47.31868" lon="-2.27831">
        <ele>-4</ele>
        <time>2019-12-26T09:25:05.000Z</time>
      </trkpt>
      <trkpt lat="47.31868" lon="-2.27822">
        <ele>-3.5999999046326</ele>
        <time>2019-12-26T09:25:06.000Z</time>
      </trkpt>
      <trkpt lat="47.31868" lon="-2.27795">
        <ele>-3.5999999046326</ele>
        <time>2019-12-26T09:25:09.000Z</time>
      </trkpt>
      <trkpt lat="47.31867" lon="-2.2775">
        <ele>-3.5999999046326</ele>
        <time>2019-12-26T09:25:14.000Z</time>
      </trkpt>
      <trkpt lat="47.31868" lon="-2.27733">
        <ele>-3.5999999046326</ele>
        <time>2019-12-26T09:25:16.000Z</time>
      </trkpt>
      <trkpt lat="47.31868" lon="-2.27667">
        <ele>-3.5999999046326</ele>
        <time>2019-12-26T09:25:23.000Z</time>
      </trkpt>
      <trkpt lat="47.31868" lon="-2.27628">
        <ele>-3.5999999046326</ele>
        <time>2019-12-26T09:25:27.000Z</time>
      </trkpt>
      <trkpt lat="47.31867" lon="-2.27618">
        <ele>-3.5999999046326</ele>
        <time>2019-12-26T09:25:28.000Z</time>
      </trkpt>
      <trkpt lat="47.31864" lon="-2.2756">
        <ele>-3.5999999046326</ele>
        <time>2019-12-26T09:25:34.000Z</time>
      </trkpt>
      <trkpt lat="47.31863" lon="-2.27551">
        <ele>-4.4000000953674</ele>
        <time>2019-12-26T09:25:35.000Z</time>
      </trkpt>
      <trkpt lat="47.31863" lon="-2.2754">
        <ele>-4.8000001907349</ele>
        <time>2019-12-26T09:25:36.000Z</time>
      </trkpt>
      <trkpt lat="47.31862" lon="-2.2753">
        <ele>-5.1999998092651</ele>
        <time>2019-12-26T09:25:37.000Z</time>
      </trkpt>
      <trkpt lat="47.31862" lon="-2.2752">
        <ele>-5.5999999046326</ele>
        <time>2019-12-26T09:25:38.000Z</time>
      </trkpt>
      <trkpt lat="47.31861" lon="-2.2748">
        <ele>-5.5999999046326</ele>
        <time>2019-12-26T09:25:42.000Z</time>
      </trkpt>
      <trkpt lat="47.31859" lon="-2.27423">
        <ele>-5.5999999046326</ele>
        <time>2019-12-26T09:25:48.000Z</time>
      </trkpt>
      <trkpt lat="47.31858" lon="-2.2738">
        <ele>-5.5999999046326</ele>
        <time>2019-12-26T09:25:53.000Z</time>
      </trkpt>
      <trkpt lat="47.31858" lon="-2.27372">
        <ele>-5.5999999046326</ele>
        <time>2019-12-26T09:25:54.000Z</time>
      </trkpt>
      <trkpt lat="47.31857" lon="-2.27318">
        <ele>-5.5999999046326</ele>
        <time>2019-12-26T09:26:00.000Z</time>
      </trkpt>
      <trkpt lat="47.31854" lon="-2.2727">
        <ele>-5.5999999046326</ele>
        <time>2019-12-26T09:26:06.000Z</time>
      </trkpt>
      <trkpt lat="47.31852" lon="-2.27221">
        <ele>-5.5999999046326</ele>
        <time>2019-12-26T09:26:12.000Z</time>
      </trkpt>
      <trkpt lat="47.3185" lon="-2.27156">
        <ele>-5.5999999046326</ele>
        <time>2019-12-26T09:26:20.000Z</time>
      </trkpt>
      <trkpt lat="47.31848" lon="-2.27099">
        <ele>-5.5999999046326</ele>
        <time>2019-12-26T09:26:28.000Z</time>
      </trkpt>
      <trkpt lat="47.31846" lon="-2.27083">
        <ele>-5.5999999046326</ele>
        <time>2019-12-26T09:26:32.000Z</time>
      </trkpt>
      <trkpt lat="47.31847" lon="-2.27062">
        <ele>-5.5999999046326</ele>
        <time>2019-12-26T09:26:36.000Z</time>
      </trkpt>
      <trkpt lat="47.31847" lon="-2.27055">
        <ele>-5.5999999046326</ele>
        <time>2019-12-26T09:26:37.000Z</time>
      </trkpt>
      <trkpt lat="47.31845" lon="-2.27015">
        <ele>-5.5999999046326</ele>
        <time>2019-12-26T09:26:42.000Z</time>
      </trkpt>
      <trkpt lat="47.31845" lon="-2.27006">
        <ele>-5.5999999046326</ele>
        <time>2019-12-26T09:26:43.000Z</time>
      </trkpt>
      <trkpt lat="47.31844" lon="-2.26988">
        <ele>-6</ele>
        <time>2019-12-26T09:26:45.000Z</time>
      </trkpt>
      <trkpt lat="47.31843" lon="-2.26979">
        <ele>-6.4000000953674</ele>
        <time>2019-12-26T09:26:46.000Z</time>
      </trkpt>
      <trkpt lat="47.31843" lon="-2.2697">
        <ele>-6.8000001907349</ele>
        <time>2019-12-26T09:26:47.000Z</time>
      </trkpt>
      <trkpt lat="47.31843" lon="-2.26961">
        <ele>-7.5999999046326</ele>
        <time>2019-12-26T09:26:48.000Z</time>
      </trkpt>
      <trkpt lat="47.31842" lon="-2.26945">
        <ele>-7.5999999046326</ele>
        <time>2019-12-26T09:26:50.000Z</time>
      </trkpt>
      <trkpt lat="47.31841" lon="-2.26893">
        <ele>-7.5999999046326</ele>
        <time>2019-12-26T09:26:56.000Z</time>
      </trkpt>
      <trkpt lat="47.31838" lon="-2.26837">
        <ele>-7.5999999046326</ele>
        <time>2019-12-26T09:27:03.000Z</time>
      </trkpt>
      <trkpt lat="47.31836" lon="-2.26803">
        <ele>-7.5999999046326</ele>
        <time>2019-12-26T09:27:08.000Z</time>
      </trkpt>
      <trkpt lat="47.31837" lon="-2.26782">
        <ele>-7.1999998092651</ele>
        <time>2019-12-26T09:27:11.000Z</time>
      </trkpt>
      <trkpt lat="47.31838" lon="-2.26775">
        <ele>-6.8000001907349</ele>
        <time>2019-12-26T09:27:12.000Z</time>
      </trkpt>
      <trkpt lat="47.31839" lon="-2.26769">
        <ele>-5.8000001907349</ele>
        <time>2019-12-26T09:27:13.000Z</time>
      </trkpt>
      <trkpt lat="47.31841" lon="-2.26762">
        <ele>-5.4000000953674</ele>
        <time>2019-12-26T09:27:14.000Z</time>
      </trkpt>
      <trkpt lat="47.31847" lon="-2.26751">
        <ele>-5.4000000953674</ele>
        <time>2019-12-26T09:27:16.000Z</time>
      </trkpt>
      <trkpt lat="47.31858" lon="-2.26739">
        <ele>-5.4000000953674</ele>
        <time>2019-12-26T09:27:19.000Z</time>
      </trkpt>
      <trkpt lat="47.31861" lon="-2.26736">
        <ele>-5</ele>
        <time>2019-12-26T09:27:20.000Z</time>
      </trkpt>
      <trkpt lat="47.31865" lon="-2.26732">
        <ele>-4.5999999046326</ele>
        <time>2019-12-26T09:27:21.000Z</time>
      </trkpt>
      <trkpt lat="47.3187" lon="-2.26729">
        <ele>-4.1999998092651</ele>
        <time>2019-12-26T09:27:22.000Z</time>
      </trkpt>
      <trkpt lat="47.31874" lon="-2.26725">
        <ele>-3.5999999046326</ele>
        <time>2019-12-26T09:27:23.000Z</time>
      </trkpt>
      <trkpt lat="47.31879" lon="-2.26721">
        <ele>-3.2000000476837</ele>
        <time>2019-12-26T09:27:24.000Z</time>
      </trkpt>
      <trkpt lat="47.31888" lon="-2.26713">
        <ele>-3.2000000476837</ele>
        <time>2019-12-26T09:27:26.000Z</time>
      </trkpt>
      <trkpt lat="47.31892" lon="-2.2671">
        <ele>-3.2000000476837</ele>
        <time>2019-12-26T09:27:27.000Z</time>
      </trkpt>
      <trkpt lat="47.31912" lon="-2.26692">
        <ele>-3.2000000476837</ele>
        <time>2019-12-26T09:27:31.000Z</time>
      </trkpt>
      <trkpt lat="47.31937" lon="-2.26672">
        <ele>-3.2000000476837</ele>
        <time>2019-12-26T09:27:36.000Z</time>
      </trkpt>
      <trkpt lat="47.31972" lon="-2.26644">
        <ele>-3.2000000476837</ele>
        <time>2019-12-26T09:27:42.000Z</time>
      </trkpt>
      <trkpt lat="47.32017" lon="-2.26615">
        <ele>-3.2000000476837</ele>
        <time>2019-12-26T09:27:49.000Z</time>
      </trkpt>
      <trkpt lat="47.32035" lon="-2.26605">
        <ele>-3.5999999046326</ele>
        <time>2019-12-26T09:27:52.000Z</time>
      </trkpt>
      <trkpt lat="47.32041" lon="-2.26601">
        <ele>-4</ele>
        <time>2019-12-26T09:27:53.000Z</time>
      </trkpt>
      <trkpt lat="47.32046" lon="-2.26598">
        <ele>-4.4000000953674</ele>
        <time>2019-12-26T09:27:54.000Z</time>
      </trkpt>
      <trkpt lat="47.32052" lon="-2.26595">
        <ele>-4.8000001907349</ele>
        <time>2019-12-26T09:27:55.000Z</time>
      </trkpt>
      <trkpt lat="47.32058" lon="-2.26592">
        <ele>-5.1999998092651</ele>
        <time>2019-12-26T09:27:56.000Z</time>
      </trkpt>
      <trkpt lat="47.32092" lon="-2.26583">
        <ele>-5.1999998092651</ele>
        <time>2019-12-26T09:28:02.000Z</time>
      </trkpt>
      <trkpt lat="47.32097" lon="-2.26583">
        <ele>-5.1999998092651</ele>
        <time>2019-12-26T09:28:03.000Z</time>
      </trkpt>
      <trkpt lat="47.32113" lon="-2.26588">
        <ele>-5.1999998092651</ele>
        <time>2019-12-26T09:28:06.000Z</time>
      </trkpt>
      <trkpt lat="47.32139" lon="-2.26597">
        <ele>-5.1999998092651</ele>
        <time>2019-12-26T09:28:11.000Z</time>
      </trkpt>
      <trkpt lat="47.32175" lon="-2.26605">
        <ele>-5.1999998092651</ele>
        <time>2019-12-26T09:28:17.000Z</time>
      </trkpt>
      <trkpt lat="47.32194" lon="-2.26606">
        <ele>-5.1999998092651</ele>
        <time>2019-12-26T09:28:20.000Z</time>
      </trkpt>
      <trkpt lat="47.32214" lon="-2.26605">
        <ele>-5.1999998092651</ele>
        <time>2019-12-26T09:28:23.000Z</time>
      </trkpt>
      <trkpt lat="47.3226" lon="-2.26604">
        <ele>-5.8000001907349</ele>
        <time>2019-12-26T09:28:30.000Z</time>
      </trkpt>
      <trkpt lat="47.32266" lon="-2.26603">
        <ele>-6.1999998092651</ele>
        <time>2019-12-26T09:28:31.000Z</time>
      </trkpt>
      <trkpt lat="47.32273" lon="-2.26602">
        <ele>-6.5999999046326</ele>
        <time>2019-12-26T09:28:32.000Z</time>
      </trkpt>
      <trkpt lat="47.32279" lon="-2.26601">
        <ele>-7</ele>
        <time>2019-12-26T09:28:33.000Z</time>
      </trkpt>
      <trkpt lat="47.32286" lon="-2.26598">
        <ele>-7.4000000953674</ele>
        <time>2019-12-26T09:28:34.000Z</time>
      </trkpt>
      <trkpt lat="47.32292" lon="-2.26594">
        <ele>-7.4000000953674</ele>
        <time>2019-12-26T09:28:35.000Z</time>
      </trkpt>
      <trkpt lat="47.32307" lon="-2.26576">
        <ele>-7.4000000953674</ele>
        <time>2019-12-26T09:28:38.000Z</time>
      </trkpt>
      <trkpt lat="47.32312" lon="-2.2657">
        <ele>-7.4000000953674</ele>
        <time>2019-12-26T09:28:39.000Z</time>
      </trkpt>
      <trkpt lat="47.32322" lon="-2.26558">
        <ele>-7.4000000953674</ele>
        <time>2019-12-26T09:28:41.000Z</time>
      </trkpt>
      <trkpt lat="47.32338" lon="-2.26543">
        <ele>-7.4000000953674</ele>
        <time>2019-12-26T09:28:44.000Z</time>
      </trkpt>
      <trkpt lat="47.32344" lon="-2.26539">
        <ele>-7.4000000953674</ele>
        <time>2019-12-26T09:28:45.000Z</time>
      </trkpt>
      <trkpt lat="47.32349" lon="-2.26535">
        <ele>-7.4000000953674</ele>
        <time>2019-12-26T09:28:46.000Z</time>
      </trkpt>
      <trkpt lat="47.32366" lon="-2.26528">
        <ele>-7.4000000953674</ele>
        <time>2019-12-26T09:28:49.000Z</time>
      </trkpt>
      <trkpt lat="47.32372" lon="-2.26529">
        <ele>-7.4000000953674</ele>
        <time>2019-12-26T09:28:50.000Z</time>
      </trkpt>
      <trkpt lat="47.32381" lon="-2.26543">
        <ele>-7.4000000953674</ele>
        <time>2019-12-26T09:28:53.000Z</time>
      </trkpt>
      <trkpt lat="47.32384" lon="-2.26558">
        <ele>-7.4000000953674</ele>
        <time>2019-12-26T09:28:55.000Z</time>
      </trkpt>
      <trkpt lat="47.32388" lon="-2.2658">
        <ele>-7.4000000953674</ele>
        <time>2019-12-26T09:28:58.000Z</time>
      </trkpt>
      <trkpt lat="47.32395" lon="-2.26605">
        <ele>-7.4000000953674</ele>
        <time>2019-12-26T09:29:02.000Z</time>
      </trkpt>
      <trkpt lat="47.324" lon="-2.26618">
        <ele>-7.4000000953674</ele>
        <time>2019-12-26T09:29:04.000Z</time>
      </trkpt>
      <trkpt lat="47.32415" lon="-2.26659">
        <ele>-7.4000000953674</ele>
        <time>2019-12-26T09:29:10.000Z</time>
      </trkpt>
      <trkpt lat="47.32416" lon="-2.26666">
        <ele>-7.4000000953674</ele>
        <time>2019-12-26T09:29:11.000Z</time>
      </trkpt>
      <trkpt lat="47.32419" lon="-2.26681">
        <ele>-7.4000000953674</ele>
        <time>2019-12-26T09:29:13.000Z</time>
      </trkpt>
      <trkpt lat="47.32419" lon="-2.26689">
        <ele>-7.4000000953674</ele>
        <time>2019-12-26T09:29:14.000Z</time>
      </trkpt>
      <trkpt lat="47.3242" lon="-2.26698">
        <ele>-7.4000000953674</ele>
        <time>2019-12-26T09:29:15.000Z</time>
      </trkpt>
      <trkpt lat="47.3242" lon="-2.26731">
        <ele>-7.4000000953674</ele>
        <time>2019-12-26T09:29:19.000Z</time>
      </trkpt>
      <trkpt lat="47.32422" lon="-2.26762">
        <ele>-7.4000000953674</ele>
        <time>2019-12-26T09:29:23.000Z</time>
      </trkpt>
      <trkpt lat="47.32422" lon="-2.26771">
        <ele>-7.4000000953674</ele>
        <time>2019-12-26T09:29:24.000Z</time>
      </trkpt>
      <trkpt lat="47.32423" lon="-2.26815">
        <ele>-7.4000000953674</ele>
        <time>2019-12-26T09:29:29.000Z</time>
      </trkpt>
      <trkpt lat="47.32424" lon="-2.26824">
        <ele>-7.4000000953674</ele>
        <time>2019-12-26T09:29:30.000Z</time>
      </trkpt>
      <trkpt lat="47.32429" lon="-2.26871">
        <ele>-7.4000000953674</ele>
        <time>2019-12-26T09:29:36.000Z</time>
      </trkpt>
      <trkpt lat="47.32437" lon="-2.26913">
        <ele>-7.4000000953674</ele>
        <time>2019-12-26T09:29:41.000Z</time>
      </trkpt>
      <trkpt lat="47.32438" lon="-2.26921">
        <ele>-7.4000000953674</ele>
        <time>2019-12-26T09:29:42.000Z</time>
      </trkpt>
      <trkpt lat="47.32445" lon="-2.26944">
        <ele>-7.4000000953674</ele>
        <time>2019-12-26T09:29:45.000Z</time>
      </trkpt>
      <trkpt lat="47.32448" lon="-2.26958">
        <ele>-7.4000000953674</ele>
        <time>2019-12-26T09:29:47.000Z</time>
      </trkpt>
      <trkpt lat="47.32455" lon="-2.26995">
        <ele>-7.4000000953674</ele>
        <time>2019-12-26T09:29:52.000Z</time>
      </trkpt>
      <trkpt lat="47.32455" lon="-2.27002">
        <ele>-7.4000000953674</ele>
        <time>2019-12-26T09:29:53.000Z</time>
      </trkpt>
      <trkpt lat="47.32449" lon="-2.27019">
        <ele>-7.4000000953674</ele>
        <time>2019-12-26T09:29:56.000Z</time>
      </trkpt>
      <trkpt lat="47.32435" lon="-2.27024">
        <ele>-7.4000000953674</ele>
        <time>2019-12-26T09:29:59.000Z</time>
      </trkpt>
      <trkpt lat="47.32431" lon="-2.27025">
        <ele>-7.4000000953674</ele>
        <time>2019-12-26T09:30:00.000Z</time>
      </trkpt>
      <trkpt lat="47.32427" lon="-2.27025">
        <ele>-7.4000000953674</ele>
        <time>2019-12-26T09:30:01.000Z</time>
      </trkpt>
      <trkpt lat="47.32409" lon="-2.27023">
        <ele>-7.4000000953674</ele>
        <time>2019-12-26T09:30:05.000Z</time>
      </trkpt>
      <trkpt lat="47.32397" lon="-2.2702">
        <ele>-7.4000000953674</ele>
        <time>2019-12-26T09:30:08.000Z</time>
      </trkpt>
      <trkpt lat="47.3239" lon="-2.27026">
        <ele>-7.4000000953674</ele>
        <time>2019-12-26T09:30:10.000Z</time>
      </trkpt>
      <trkpt lat="47.32386" lon="-2.27044">
        <ele>-7.4000000953674</ele>
        <time>2019-12-26T09:30:13.000Z</time>
      </trkpt>
      <trkpt lat="47.32386" lon="-2.27052">
        <ele>-7.4000000953674</ele>
        <time>2019-12-26T09:30:14.000Z</time>
      </trkpt>
      <trkpt lat="47.32385" lon="-2.27075">
        <ele>-7.4000000953674</ele>
        <time>2019-12-26T09:30:17.000Z</time>
      </trkpt>
      <trkpt lat="47.32386" lon="-2.2709">
        <ele>-7.4000000953674</ele>
        <time>2019-12-26T09:30:19.000Z</time>
      </trkpt>
      <trkpt lat="47.32387" lon="-2.27106">
        <ele>-7.4000000953674</ele>
        <time>2019-12-26T09:30:21.000Z</time>
      </trkpt>
      <trkpt lat="47.32387" lon="-2.27138">
        <ele>-7.4000000953674</ele>
        <time>2019-12-26T09:30:25.000Z</time>
      </trkpt>
      <trkpt lat="47.32385" lon="-2.27153">
        <ele>-7.4000000953674</ele>
        <time>2019-12-26T09:30:27.000Z</time>
      </trkpt>
      <trkpt lat="47.32379" lon="-2.27174">
        <ele>-7.4000000953674</ele>
        <time>2019-12-26T09:30:30.000Z</time>
      </trkpt>
      <trkpt lat="47.32376" lon="-2.27181">
        <ele>-7.4000000953674</ele>
        <time>2019-12-26T09:30:31.000Z</time>
      </trkpt>
      <trkpt lat="47.32373" lon="-2.27193">
        <ele>-7.4000000953674</ele>
        <time>2019-12-26T09:30:33.000Z</time>
      </trkpt>
      <trkpt lat="47.32372" lon="-2.27199">
        <ele>-7</ele>
        <time>2019-12-26T09:30:34.000Z</time>
      </trkpt>
      <trkpt lat="47.3237" lon="-2.27205">
        <ele>-6.5999999046326</ele>
        <time>2019-12-26T09:30:35.000Z</time>
      </trkpt>
      <trkpt lat="47.32368" lon="-2.27212">
        <ele>-6.1999998092651</ele>
        <time>2019-12-26T09:30:36.000Z</time>
      </trkpt>
      <trkpt lat="47.32366" lon="-2.27219">
        <ele>-5.8000001907349</ele>
        <time>2019-12-26T09:30:37.000Z</time>
      </trkpt>
      <trkpt lat="47.32363" lon="-2.27225">
        <ele>-5.4000000953674</ele>
        <time>2019-12-26T09:30:38.000Z</time>
      </trkpt>
      <trkpt lat="47.32355" lon="-2.27242">
        <ele>-5.4000000953674</ele>
        <time>2019-12-26T09:30:41.000Z</time>
      </trkpt>
      <trkpt lat="47.32344" lon="-2.27256">
        <ele>-5.4000000953674</ele>
        <time>2019-12-26T09:30:44.000Z</time>
      </trkpt>
      <trkpt lat="47.32334" lon="-2.27265">
        <ele>-5.4000000953674</ele>
        <time>2019-12-26T09:30:46.000Z</time>
      </trkpt>
      <trkpt lat="47.32328" lon="-2.27269">
        <ele>-5.4000000953674</ele>
        <time>2019-12-26T09:30:47.000Z</time>
      </trkpt>
      <trkpt lat="47.32305" lon="-2.27285">
        <ele>-5.4000000953674</ele>
        <time>2019-12-26T09:30:51.000Z</time>
      </trkpt>
      <trkpt lat="47.32265" lon="-2.27311">
        <ele>-5.4000000953674</ele>
        <time>2019-12-26T09:30:58.000Z</time>
      </trkpt>
      <trkpt lat="47.3226" lon="-2.27315">
        <ele>-5.4000000953674</ele>
        <time>2019-12-26T09:30:59.000Z</time>
      </trkpt>
      <trkpt lat="47.32253" lon="-2.27336">
        <ele>-5.4000000953674</ele>
        <time>2019-12-26T09:31:02.000Z</time>
      </trkpt>
      <trkpt lat="47.32254" lon="-2.27367">
        <ele>-5.4000000953674</ele>
        <time>2019-12-26T09:31:06.000Z</time>
      </trkpt>
      <trkpt lat="47.32254" lon="-2.27376">
        <ele>-5.4000000953674</ele>
        <time>2019-12-26T09:31:07.000Z</time>
      </trkpt>
      <trkpt lat="47.32255" lon="-2.27399">
        <ele>-5.4000000953674</ele>
        <time>2019-12-26T09:31:10.000Z</time>
      </trkpt>
      <trkpt lat="47.32254" lon="-2.27415">
        <ele>-5.4000000953674</ele>
        <time>2019-12-26T09:31:12.000Z</time>
      </trkpt>
      <trkpt lat="47.32253" lon="-2.27422">
        <ele>-5.4000000953674</ele>
        <time>2019-12-26T09:31:13.000Z</time>
      </trkpt>
      <trkpt lat="47.32246" lon="-2.2746">
        <ele>-5.4000000953674</ele>
        <time>2019-12-26T09:31:18.000Z</time>
      </trkpt>
      <trkpt lat="47.32245" lon="-2.27495">
        <ele>-5.4000000953674</ele>
        <time>2019-12-26T09:31:23.000Z</time>
      </trkpt>
      <trkpt lat="47.32253" lon="-2.27504">
        <ele>-5.4000000953674</ele>
        <time>2019-12-26T09:31:26.000Z</time>
      </trkpt>
      <trkpt lat="47.32257" lon="-2.27504">
        <ele>-5.8000001907349</ele>
        <time>2019-12-26T09:31:27.000Z</time>
      </trkpt>
      <trkpt lat="47.32262" lon="-2.27503">
        <ele>-6.1999998092651</ele>
        <time>2019-12-26T09:31:28.000Z</time>
      </trkpt>
      <trkpt lat="47.32267" lon="-2.27502">
        <ele>-6.5999999046326</ele>
        <time>2019-12-26T09:31:29.000Z</time>
      </trkpt>
      <trkpt lat="47.32273" lon="-2.27502">
        <ele>-7</ele>
        <time>2019-12-26T09:31:30.000Z</time>
      </trkpt>
      <trkpt lat="47.32278" lon="-2.27502">
        <ele>-7.4000000953674</ele>
        <time>2019-12-26T09:31:31.000Z</time>
      </trkpt>
      <trkpt lat="47.3229" lon="-2.27504">
        <ele>-7.4000000953674</ele>
        <time>2019-12-26T09:31:33.000Z</time>
      </trkpt>
      <trkpt lat="47.32308" lon="-2.27506">
        <ele>-7.4000000953674</ele>
        <time>2019-12-26T09:31:36.000Z</time>
      </trkpt>
      <trkpt lat="47.3232" lon="-2.27507">
        <ele>-7.4000000953674</ele>
        <time>2019-12-26T09:31:38.000Z</time>
      </trkpt>
      <trkpt lat="47.32343" lon="-2.27508">
        <ele>-7.4000000953674</ele>
        <time>2019-12-26T09:31:42.000Z</time>
      </trkpt>
      <trkpt lat="47.32353" lon="-2.27511">
        <ele>-7.4000000953674</ele>
        <time>2019-12-26T09:31:44.000Z</time>
      </trkpt>
      <trkpt lat="47.3236" lon="-2.27521">
        <ele>-7.4000000953674</ele>
        <time>2019-12-26T09:31:46.000Z</time>
      </trkpt>
      <trkpt lat="47.32363" lon="-2.27537">
        <ele>-7.4000000953674</ele>
        <time>2019-12-26T09:31:48.000Z</time>
      </trkpt>
      <trkpt lat="47.32365" lon="-2.27544">
        <ele>-7.4000000953674</ele>
        <time>2019-12-26T09:31:49.000Z</time>
      </trkpt>
      <trkpt lat="47.32367" lon="-2.27567">
        <ele>-7.4000000953674</ele>
        <time>2019-12-26T09:31:52.000Z</time>
      </trkpt>
      <trkpt lat="47.32367" lon="-2.27582">
        <ele>-7.4000000953674</ele>
        <time>2019-12-26T09:31:54.000Z</time>
      </trkpt>
      <trkpt lat="47.32362" lon="-2.27618">
        <ele>-7.4000000953674</ele>
        <time>2019-12-26T09:31:59.000Z</time>
      </trkpt>
      <trkpt lat="47.32356" lon="-2.27667">
        <ele>-7.4000000953674</ele>
        <time>2019-12-26T09:32:06.000Z</time>
      </trkpt>
      <trkpt lat="47.32349" lon="-2.27722">
        <ele>-7.4000000953674</ele>
        <time>2019-12-26T09:32:13.000Z</time>
      </trkpt>
      <trkpt lat="47.32348" lon="-2.2773">
        <ele>-7.4000000953674</ele>
        <time>2019-12-26T09:32:14.000Z</time>
      </trkpt>
      <trkpt lat="47.32343" lon="-2.2776">
        <ele>-7.4000000953674</ele>
        <time>2019-12-26T09:32:18.000Z</time>
      </trkpt>
      <trkpt lat="47.32339" lon="-2.27774">
        <ele>-7.4000000953674</ele>
        <time>2019-12-26T09:32:20.000Z</time>
      </trkpt>
      <trkpt lat="47.32332" lon="-2.278">
        <ele>-7.4000000953674</ele>
        <time>2019-12-26T09:32:24.000Z</time>
      </trkpt>
      <trkpt lat="47.32327" lon="-2.27816">
        <ele>-7.4000000953674</ele>
        <time>2019-12-26T09:32:27.000Z</time>
      </trkpt>
      <trkpt lat="47.32324" lon="-2.27826">
        <ele>-7.4000000953674</ele>
        <time>2019-12-26T09:32:29.000Z</time>
      </trkpt>
      <trkpt lat="47.32329" lon="-2.27834">
        <ele>-7.4000000953674</ele>
        <time>2019-12-26T09:32:32.000Z</time>
      </trkpt>
      <trkpt lat="47.32331" lon="-2.27835">
        <ele>-7.4000000953674</ele>
        <time>2019-12-26T09:32:33.000Z</time>
      </trkpt>
      <trkpt lat="47.32346" lon="-2.27835">
        <ele>-7.4000000953674</ele>
        <time>2019-12-26T09:32:37.000Z</time>
      </trkpt>
      <trkpt lat="47.32376" lon="-2.27835">
        <ele>-7.4000000953674</ele>
        <time>2019-12-26T09:32:43.000Z</time>
      </trkpt>
      <trkpt lat="47.32387" lon="-2.27835">
        <ele>-7.4000000953674</ele>
        <time>2019-12-26T09:32:45.000Z</time>
      </trkpt>
      <trkpt lat="47.32414" lon="-2.27833">
        <ele>-7.8000001907349</ele>
        <time>2019-12-26T09:32:50.000Z</time>
      </trkpt>
      <trkpt lat="47.3242" lon="-2.27832">
        <ele>-8.1999998092651</ele>
        <time>2019-12-26T09:32:51.000Z</time>
      </trkpt>
      <trkpt lat="47.32425" lon="-2.27832">
        <ele>-8.6000003814697</ele>
        <time>2019-12-26T09:32:52.000Z</time>
      </trkpt>
      <trkpt lat="47.32431" lon="-2.27832">
        <ele>-9.1999998092651</ele>
        <time>2019-12-26T09:32:53.000Z</time>
      </trkpt>
      <trkpt lat="47.32436" lon="-2.27831">
        <ele>-9.6000003814697</ele>
        <time>2019-12-26T09:32:54.000Z</time>
      </trkpt>
      <trkpt lat="47.32458" lon="-2.27831">
        <ele>-9.6000003814697</ele>
        <time>2019-12-26T09:32:58.000Z</time>
      </trkpt>
      <trkpt lat="47.32496" lon="-2.27833">
        <ele>-9.6000003814697</ele>
        <time>2019-12-26T09:33:05.000Z</time>
      </trkpt>
      <trkpt lat="47.32501" lon="-2.27834">
        <ele>-9.6000003814697</ele>
        <time>2019-12-26T09:33:06.000Z</time>
      </trkpt>
      <trkpt lat="47.32519" lon="-2.27852">
        <ele>-9.6000003814697</ele>
        <time>2019-12-26T09:33:11.000Z</time>
      </trkpt>
      <trkpt lat="47.32522" lon="-2.27864">
        <ele>-9.6000003814697</ele>
        <time>2019-12-26T09:33:13.000Z</time>
      </trkpt>
      <trkpt lat="47.32524" lon="-2.27879">
        <ele>-9.6000003814697</ele>
        <time>2019-12-26T09:33:16.000Z</time>
      </trkpt>
      <trkpt lat="47.32533" lon="-2.2792">
        <ele>-9.6000003814697</ele>
        <time>2019-12-26T09:33:24.000Z</time>
      </trkpt>
      <trkpt lat="47.32539" lon="-2.27948">
        <ele>-9.6000003814697</ele>
        <time>2019-12-26T09:33:31.000Z</time>
      </trkpt>
      <trkpt lat="47.32544" lon="-2.2797">
        <ele>-9.6000003814697</ele>
        <time>2019-12-26T09:33:38.000Z</time>
      </trkpt>
      <trkpt lat="47.3255" lon="-2.28">
        <ele>-9.6000003814697</ele>
        <time>2019-12-26T09:33:45.000Z</time>
      </trkpt>
      <trkpt lat="47.32558" lon="-2.28041">
        <ele>-9.6000003814697</ele>
        <time>2019-12-26T09:33:53.000Z</time>
      </trkpt>
      <trkpt lat="47.32565" lon="-2.2807">
        <ele>-9.6000003814697</ele>
        <time>2019-12-26T09:33:59.000Z</time>
      </trkpt>
      <trkpt lat="47.32572" lon="-2.28107">
        <ele>-9.6000003814697</ele>
        <time>2019-12-26T09:34:06.000Z</time>
      </trkpt>
      <trkpt lat="47.32578" lon="-2.28133">
        <ele>-9.6000003814697</ele>
        <time>2019-12-26T09:34:12.000Z</time>
      </trkpt>
      <trkpt lat="47.32582" lon="-2.28145">
        <ele>-9.6000003814697</ele>
        <time>2019-12-26T09:34:18.000Z</time>
      </trkpt>
      <trkpt lat="47.32583" lon="-2.28153">
        <ele>-9.6000003814697</ele>
        <time>2019-12-26T09:34:22.000Z</time>
      </trkpt>
      <trkpt lat="47.32583" lon="-2.28158">
        <ele>-9.6000003814697</ele>
        <time>2019-12-26T09:34:24.000Z</time>
      </trkpt>
      <trkpt lat="47.32586" lon="-2.28172">
        <ele>-9.6000003814697</ele>
        <time>2019-12-26T09:34:29.000Z</time>
      </trkpt>
      <trkpt lat="47.32587" lon="-2.28175">
        <ele>-9.6000003814697</ele>
        <time>2019-12-26T09:34:30.000Z</time>
      </trkpt>
      <trkpt lat="47.32591" lon="-2.28198">
        <ele>-9.6000003814697</ele>
        <time>2019-12-26T09:34:35.000Z</time>
      </trkpt>
      <trkpt lat="47.326" lon="-2.2824">
        <ele>-9.6000003814697</ele>
        <time>2019-12-26T09:34:42.000Z</time>
      </trkpt>
      <trkpt lat="47.32611" lon="-2.28287">
        <ele>-9.6000003814697</ele>
        <time>2019-12-26T09:34:49.000Z</time>
      </trkpt>
      <trkpt lat="47.32621" lon="-2.28322">
        <ele>-9.1999998092651</ele>
        <time>2019-12-26T09:34:55.000Z</time>
      </trkpt>
      <trkpt lat="47.32625" lon="-2.28327">
        <ele>-8.8000001907349</ele>
        <time>2019-12-26T09:34:56.000Z</time>
      </trkpt>
      <trkpt lat="47.32628" lon="-2.28332">
        <ele>-8.3999996185303</ele>
        <time>2019-12-26T09:34:57.000Z</time>
      </trkpt>
      <trkpt lat="47.32632" lon="-2.28337">
        <ele>-7.8000001907349</ele>
        <time>2019-12-26T09:34:58.000Z</time>
      </trkpt>
      <trkpt lat="47.32637" lon="-2.28341">
        <ele>-7.4000000953674</ele>
        <time>2019-12-26T09:34:59.000Z</time>
      </trkpt>
      <trkpt lat="47.32641" lon="-2.28345">
        <ele>-7.4000000953674</ele>
        <time>2019-12-26T09:35:00.000Z</time>
      </trkpt>
      <trkpt lat="47.32655" lon="-2.28346">
        <ele>-7.4000000953674</ele>
        <time>2019-12-26T09:35:03.000Z</time>
      </trkpt>
      <trkpt lat="47.32672" lon="-2.28333">
        <ele>-7.4000000953674</ele>
        <time>2019-12-26T09:35:07.000Z</time>
      </trkpt>
      <trkpt lat="47.32676" lon="-2.28329">
        <ele>-7.4000000953674</ele>
        <time>2019-12-26T09:35:08.000Z</time>
      </trkpt>
      <trkpt lat="47.32696" lon="-2.28313">
        <ele>-7.4000000953674</ele>
        <time>2019-12-26T09:35:13.000Z</time>
      </trkpt>
      <trkpt lat="47.32703" lon="-2.28316">
        <ele>-7.4000000953674</ele>
        <time>2019-12-26T09:35:15.000Z</time>
      </trkpt>
      <trkpt lat="47.32707" lon="-2.28335">
        <ele>-7.4000000953674</ele>
        <time>2019-12-26T09:35:18.000Z</time>
      </trkpt>
      <trkpt lat="47.32708" lon="-2.28342">
        <ele>-7.4000000953674</ele>
        <time>2019-12-26T09:35:19.000Z</time>
      </trkpt>
      <trkpt lat="47.32709" lon="-2.28355">
        <ele>-7.4000000953674</ele>
        <time>2019-12-26T09:35:21.000Z</time>
      </trkpt>
      <trkpt lat="47.32712" lon="-2.28382">
        <ele>-7.4000000953674</ele>
        <time>2019-12-26T09:35:25.000Z</time>
      </trkpt>
      <trkpt lat="47.32716" lon="-2.28421">
        <ele>-7</ele>
        <time>2019-12-26T09:35:31.000Z</time>
      </trkpt>
      <trkpt lat="47.32717" lon="-2.28428">
        <ele>-6.5999999046326</ele>
        <time>2019-12-26T09:35:32.000Z</time>
      </trkpt>
      <trkpt lat="47.32718" lon="-2.28435">
        <ele>-6.1999998092651</ele>
        <time>2019-12-26T09:35:33.000Z</time>
      </trkpt>
      <trkpt lat="47.32719" lon="-2.28443">
        <ele>-5.8000001907349</ele>
        <time>2019-12-26T09:35:34.000Z</time>
      </trkpt>
      <trkpt lat="47.32719" lon="-2.2845">
        <ele>-5.4000000953674</ele>
        <time>2019-12-26T09:35:35.000Z</time>
      </trkpt>
      <trkpt lat="47.32722" lon="-2.28479">
        <ele>-5.4000000953674</ele>
        <time>2019-12-26T09:35:39.000Z</time>
      </trkpt>
      <trkpt lat="47.32729" lon="-2.28543">
        <ele>-5.4000000953674</ele>
        <time>2019-12-26T09:35:47.000Z</time>
      </trkpt>
      <trkpt lat="47.32733" lon="-2.28567">
        <ele>-5.4000000953674</ele>
        <time>2019-12-26T09:35:50.000Z</time>
      </trkpt>
      <trkpt lat="47.3274" lon="-2.28588">
        <ele>-5.4000000953674</ele>
        <time>2019-12-26T09:35:53.000Z</time>
      </trkpt>
      <trkpt lat="47.32744" lon="-2.28595">
        <ele>-5.4000000953674</ele>
        <time>2019-12-26T09:35:54.000Z</time>
      </trkpt>
      <trkpt lat="47.32758" lon="-2.28621">
        <ele>-5.4000000953674</ele>
        <time>2019-12-26T09:35:58.000Z</time>
      </trkpt>
      <trkpt lat="47.32768" lon="-2.2864">
        <ele>-5</ele>
        <time>2019-12-26T09:36:01.000Z</time>
      </trkpt>
      <trkpt lat="47.32772" lon="-2.28647">
        <ele>-4.5999999046326</ele>
        <time>2019-12-26T09:36:02.000Z</time>
      </trkpt>
      <trkpt lat="47.32775" lon="-2.28654">
        <ele>-4.1999998092651</ele>
        <time>2019-12-26T09:36:03.000Z</time>
      </trkpt>
      <trkpt lat="47.32779" lon="-2.2866">
        <ele>-3.5999999046326</ele>
        <time>2019-12-26T09:36:04.000Z</time>
      </trkpt>
      <trkpt lat="47.32781" lon="-2.28666">
        <ele>-3.2000000476837</ele>
        <time>2019-12-26T09:36:05.000Z</time>
      </trkpt>
      <trkpt lat="47.32787" lon="-2.2868">
        <ele>-3.2000000476837</ele>
        <time>2019-12-26T09:36:07.000Z</time>
      </trkpt>
      <trkpt lat="47.32793" lon="-2.28712">
        <ele>-3.2000000476837</ele>
        <time>2019-12-26T09:36:11.000Z</time>
      </trkpt>
      <trkpt lat="47.32799" lon="-2.28769">
        <ele>-3.2000000476837</ele>
        <time>2019-12-26T09:36:18.000Z</time>
      </trkpt>
      <trkpt lat="47.32799" lon="-2.28802">
        <ele>-3.2000000476837</ele>
        <time>2019-12-26T09:36:22.000Z</time>
      </trkpt>
      <trkpt lat="47.32797" lon="-2.28819">
        <ele>-3.2000000476837</ele>
        <time>2019-12-26T09:36:24.000Z</time>
      </trkpt>
      <trkpt lat="47.3279" lon="-2.28842">
        <ele>-3.2000000476837</ele>
        <time>2019-12-26T09:36:27.000Z</time>
      </trkpt>
      <trkpt lat="47.32785" lon="-2.28856">
        <ele>-3.2000000476837</ele>
        <time>2019-12-26T09:36:29.000Z</time>
      </trkpt>
      <trkpt lat="47.32774" lon="-2.289">
        <ele>-3.2000000476837</ele>
        <time>2019-12-26T09:36:35.000Z</time>
      </trkpt>
      <trkpt lat="47.32772" lon="-2.28907">
        <ele>-3.2000000476837</ele>
        <time>2019-12-26T09:36:36.000Z</time>
      </trkpt>
      <trkpt lat="47.32769" lon="-2.28931">
        <ele>-3.2000000476837</ele>
        <time>2019-12-26T09:36:39.000Z</time>
      </trkpt>
      <trkpt lat="47.32768" lon="-2.2894">
        <ele>-3.2000000476837</ele>
        <time>2019-12-26T09:36:40.000Z</time>
      </trkpt>
      <trkpt lat="47.32765" lon="-2.28978">
        <ele>-3.5999999046326</ele>
        <time>2019-12-26T09:36:45.000Z</time>
      </trkpt>
      <trkpt lat="47.32764" lon="-2.28985">
        <ele>-4</ele>
        <time>2019-12-26T09:36:46.000Z</time>
      </trkpt>
      <trkpt lat="47.32764" lon="-2.28991">
        <ele>-4.5999999046326</ele>
        <time>2019-12-26T09:36:47.000Z</time>
      </trkpt>
      <trkpt lat="47.32764" lon="-2.28998">
        <ele>-5</ele>
        <time>2019-12-26T09:36:48.000Z</time>
      </trkpt>
      <trkpt lat="47.32764" lon="-2.29003">
        <ele>-5.4000000953674</ele>
        <time>2019-12-26T09:36:49.000Z</time>
      </trkpt>
      <trkpt lat="47.32766" lon="-2.29006">
        <ele>-5.4000000953674</ele>
        <time>2019-12-26T09:36:50.000Z</time>
      </trkpt>
      <trkpt lat="47.32778" lon="-2.29002">
        <ele>-5.4000000953674</ele>
        <time>2019-12-26T09:36:53.000Z</time>
      </trkpt>
      <trkpt lat="47.32791" lon="-2.28993">
        <ele>-5.4000000953674</ele>
        <time>2019-12-26T09:36:56.000Z</time>
      </trkpt>
      <trkpt lat="47.328" lon="-2.28987">
        <ele>-5.4000000953674</ele>
        <time>2019-12-26T09:36:58.000Z</time>
      </trkpt>
      <trkpt lat="47.3283" lon="-2.28965">
        <ele>-5.4000000953674</ele>
        <time>2019-12-26T09:37:04.000Z</time>
      </trkpt>
      <trkpt lat="47.32835" lon="-2.28962">
        <ele>-5.4000000953674</ele>
        <time>2019-12-26T09:37:05.000Z</time>
      </trkpt>
      <trkpt lat="47.3285" lon="-2.2895">
        <ele>-5.4000000953674</ele>
        <time>2019-12-26T09:37:08.000Z</time>
      </trkpt>
      <trkpt lat="47.32868" lon="-2.28934">
        <ele>-5.4000000953674</ele>
        <time>2019-12-26T09:37:12.000Z</time>
      </trkpt>
      <trkpt lat="47.32873" lon="-2.28933">
        <ele>-5.4000000953674</ele>
        <time>2019-12-26T09:37:13.000Z</time>
      </trkpt>
      <trkpt lat="47.32878" lon="-2.28933">
        <ele>-5</ele>
        <time>2019-12-26T09:37:14.000Z</time>
      </trkpt>
      <trkpt lat="47.32883" lon="-2.28934">
        <ele>-4.5999999046326</ele>
        <time>2019-12-26T09:37:15.000Z</time>
      </trkpt>
      <trkpt lat="47.32887" lon="-2.28934">
        <ele>-4.1999998092651</ele>
        <time>2019-12-26T09:37:16.000Z</time>
      </trkpt>
      <trkpt lat="47.32892" lon="-2.28935">
        <ele>-3.7999999523163</ele>
        <time>2019-12-26T09:37:17.000Z</time>
      </trkpt>
      <trkpt lat="47.32898" lon="-2.28935">
        <ele>-3.4000000953674</ele>
        <time>2019-12-26T09:37:18.000Z</time>
      </trkpt>
      <trkpt lat="47.32911" lon="-2.28937">
        <ele>-3.4000000953674</ele>
        <time>2019-12-26T09:37:21.000Z</time>
      </trkpt>
      <trkpt lat="47.3292" lon="-2.28934">
        <ele>-3.4000000953674</ele>
        <time>2019-12-26T09:37:23.000Z</time>
      </trkpt>
      <trkpt lat="47.32933" lon="-2.28924">
        <ele>-3.4000000953674</ele>
        <time>2019-12-26T09:37:26.000Z</time>
      </trkpt>
      <trkpt lat="47.32937" lon="-2.2892">
        <ele>-3.4000000953674</ele>
        <time>2019-12-26T09:37:27.000Z</time>
      </trkpt>
      <trkpt lat="47.32948" lon="-2.2891">
        <ele>-3</ele>
        <time>2019-12-26T09:37:30.000Z</time>
      </trkpt>
      <trkpt lat="47.32953" lon="-2.28905">
        <ele>-2.4000000953674</ele>
        <time>2019-12-26T09:37:31.000Z</time>
      </trkpt>
      <trkpt lat="47.32957" lon="-2.28902">
        <ele>-2</ele>
        <time>2019-12-26T09:37:32.000Z</time>
      </trkpt>
      <trkpt lat="47.32962" lon="-2.28897">
        <ele>-1.6000000238419</ele>
        <time>2019-12-26T09:37:33.000Z</time>
      </trkpt>
      <trkpt lat="47.32967" lon="-2.28893">
        <ele>-1.2000000476837</ele>
        <time>2019-12-26T09:37:34.000Z</time>
      </trkpt>
      <trkpt lat="47.32995" lon="-2.28869">
        <ele>-1.2000000476837</ele>
        <time>2019-12-26T09:37:40.000Z</time>
      </trkpt>
      <trkpt lat="47.33018" lon="-2.28853">
        <ele>-0.80000001192093</ele>
        <time>2019-12-26T09:37:45.000Z</time>
      </trkpt>
      <trkpt lat="47.33023" lon="-2.2885">
        <ele>-0.40000000596046</ele>
        <time>2019-12-26T09:37:46.000Z</time>
      </trkpt>
      <trkpt lat="47.33028" lon="-2.28847">
        <ele>11</ele>
        <time>2019-12-26T09:37:47.000Z</time>
      </trkpt>
      <trkpt lat="47.33033" lon="-2.28844">
        <ele>0.60000002384186</ele>
        <time>2019-12-26T09:37:48.000Z</time>
      </trkpt>
      <trkpt lat="47.33038" lon="-2.28841">
        <ele>1</ele>
        <time>2019-12-26T09:37:49.000Z</time>
      </trkpt>
      <trkpt lat="47.33064" lon="-2.28826">
        <ele>1</ele>
        <time>2019-12-26T09:37:54.000Z</time>
      </trkpt>
      <trkpt lat="47.33095" lon="-2.28812">
        <ele>1</ele>
        <time>2019-12-26T09:38:00.000Z</time>
      </trkpt>
      <trkpt lat="47.33098" lon="-2.28814">
        <ele>1</ele>
        <time>2019-12-26T09:38:01.000Z</time>
      </trkpt>
      <trkpt lat="47.33104" lon="-2.28828">
        <ele>1</ele>
        <time>2019-12-26T09:38:04.000Z</time>
      </trkpt>
      <trkpt lat="47.33105" lon="-2.2884">
        <ele>1</ele>
        <time>2019-12-26T09:38:06.000Z</time>
      </trkpt>
      <trkpt lat="47.33107" lon="-2.28846">
        <ele>1</ele>
        <time>2019-12-26T09:38:07.000Z</time>
      </trkpt>
      <trkpt lat="47.33109" lon="-2.28851">
        <ele>1</ele>
        <time>2019-12-26T09:38:08.000Z</time>
      </trkpt>
      <trkpt lat="47.33117" lon="-2.28871">
        <ele>1</ele>
        <time>2019-12-26T09:38:12.000Z</time>
      </trkpt>
      <trkpt lat="47.33117" lon="-2.28895">
        <ele>1</ele>
        <time>2019-12-26T09:38:15.000Z</time>
      </trkpt>
      <trkpt lat="47.33117" lon="-2.28925">
        <ele>1</ele>
        <time>2019-12-26T09:38:19.000Z</time>
      </trkpt>
      <trkpt lat="47.33116" lon="-2.28932">
        <ele>1</ele>
        <time>2019-12-26T09:38:20.000Z</time>
      </trkpt>
      <trkpt lat="47.3311" lon="-2.28969">
        <ele>1</ele>
        <time>2019-12-26T09:38:25.000Z</time>
      </trkpt>
      <trkpt lat="47.33103" lon="-2.29012">
        <ele>1</ele>
        <time>2019-12-26T09:38:31.000Z</time>
      </trkpt>
      <trkpt lat="47.33098" lon="-2.29024">
        <ele>1</ele>
        <time>2019-12-26T09:38:33.000Z</time>
      </trkpt>
      <trkpt lat="47.33093" lon="-2.29036">
        <ele>1</ele>
        <time>2019-12-26T09:38:35.000Z</time>
      </trkpt>
      <trkpt lat="47.33093" lon="-2.29053">
        <ele>1</ele>
        <time>2019-12-26T09:38:39.000Z</time>
      </trkpt>
      <trkpt lat="47.33094" lon="-2.29054">
        <ele>1</ele>
        <time>2019-12-26T09:38:40.000Z</time>
      </trkpt>
      <trkpt lat="47.33096" lon="-2.29057">
        <ele>1</ele>
        <time>2019-12-26T09:38:42.000Z</time>
      </trkpt>
      <trkpt lat="47.33104" lon="-2.29057">
        <ele>1</ele>
        <time>2019-12-26T09:38:48.000Z</time>
      </trkpt>
      <trkpt lat="47.33113" lon="-2.29055">
        <ele>1</ele>
        <time>2019-12-26T09:38:55.000Z</time>
      </trkpt>
      <trkpt lat="47.33116" lon="-2.29054">
        <ele>1</ele>
        <time>2019-12-26T09:39:33.000Z</time>
      </trkpt>
      <trkpt lat="47.33121" lon="-2.29053">
        <ele>1</ele>
        <time>2019-12-26T09:39:36.000Z</time>
      </trkpt>
      <trkpt lat="47.33128" lon="-2.29048">
        <ele>1</ele>
        <time>2019-12-26T09:39:41.000Z</time>
      </trkpt>
      <trkpt lat="47.33133" lon="-2.2905">
        <ele>1</ele>
        <time>2019-12-26T09:39:45.000Z</time>
      </trkpt>
      <trkpt lat="47.33135" lon="-2.2905">
        <ele>1</ele>
        <time>2019-12-26T09:39:46.000Z</time>
      </trkpt>
      <trkpt lat="47.33144" lon="-2.29049">
        <ele>1</ele>
        <time>2019-12-26T09:39:52.000Z</time>
      </trkpt>
      <trkpt lat="47.33155" lon="-2.29049">
        <ele>0.60000002384186</ele>
        <time>2019-12-26T09:39:59.000Z</time>
      </trkpt>
      <trkpt lat="47.33157" lon="-2.29049">
        <ele>0.20000000298023</ele>
        <time>2019-12-26T09:40:00.000Z</time>
      </trkpt>
      <trkpt lat="47.33159" lon="-2.29049">
        <ele>-0.20000000298023</ele>
        <time>2019-12-26T09:40:01.000Z</time>
      </trkpt>
      <trkpt lat="47.3316" lon="-2.29049">
        <ele>-0.60000002384186</ele>
        <time>2019-12-26T09:40:02.000Z</time>
      </trkpt>
      <trkpt lat="47.33162" lon="-2.29049">
        <ele>-1</ele>
        <time>2019-12-26T09:40:03.000Z</time>
      </trkpt>
      <trkpt lat="47.33173" lon="-2.29049">
        <ele>-1</ele>
        <time>2019-12-26T09:40:09.000Z</time>
      </trkpt>
      <trkpt lat="47.33175" lon="-2.29049">
        <ele>-1</ele>
        <time>2019-12-26T09:40:11.000Z</time>
      </trkpt>
      <trkpt lat="47.33177" lon="-2.29051">
        <ele>-1</ele>
        <time>2019-12-26T09:40:14.000Z</time>
      </trkpt>
      <trkpt lat="47.33177" lon="-2.29052">
        <ele>-1</ele>
        <time>2019-12-26T09:40:15.000Z</time>
      </trkpt>
      <trkpt lat="47.33179" lon="-2.29053">
        <ele>-1</ele>
        <time>2019-12-26T09:41:32.000Z</time>
      </trkpt>
      <trkpt lat="47.33184" lon="-2.29055">
        <ele>-1</ele>
        <time>2019-12-26T09:41:34.000Z</time>
      </trkpt>
      <trkpt lat="47.33203" lon="-2.29063">
        <ele>-1</ele>
        <time>2019-12-26T09:41:40.000Z</time>
      </trkpt>
      <trkpt lat="47.33232" lon="-2.29069">
        <ele>-1</ele>
        <time>2019-12-26T09:41:47.000Z</time>
      </trkpt>
      <trkpt lat="47.33238" lon="-2.29052">
        <ele>-1</ele>
        <time>2019-12-26T09:41:50.000Z</time>
      </trkpt>
      <trkpt lat="47.33238" lon="-2.2904">
        <ele>-1</ele>
        <time>2019-12-26T09:41:52.000Z</time>
      </trkpt>
      <trkpt lat="47.3324" lon="-2.29015">
        <ele>-1</ele>
        <time>2019-12-26T09:41:56.000Z</time>
      </trkpt>
      <trkpt lat="47.3324" lon="-2.29002">
        <ele>-1</ele>
        <time>2019-12-26T09:41:58.000Z</time>
      </trkpt>
      <trkpt lat="47.33243" lon="-2.28979">
        <ele>-1.3999999761581</ele>
        <time>2019-12-26T09:42:02.000Z</time>
      </trkpt>
      <trkpt lat="47.33244" lon="-2.28973">
        <ele>-1.7999999523163</ele>
        <time>2019-12-26T09:42:03.000Z</time>
      </trkpt>
      <trkpt lat="47.33245" lon="-2.28966">
        <ele>-2.2000000476837</ele>
        <time>2019-12-26T09:42:04.000Z</time>
      </trkpt>
      <trkpt lat="47.33247" lon="-2.28961">
        <ele>-2.5999999046326</ele>
        <time>2019-12-26T09:42:05.000Z</time>
      </trkpt>
      <trkpt lat="47.33249" lon="-2.28956">
        <ele>-3</ele>
        <time>2019-12-26T09:42:06.000Z</time>
      </trkpt>
      <trkpt lat="47.33253" lon="-2.28952">
        <ele>-3</ele>
        <time>2019-12-26T09:42:07.000Z</time>
      </trkpt>
      <trkpt lat="47.33265" lon="-2.28942">
        <ele>-3</ele>
        <time>2019-12-26T09:42:10.000Z</time>
      </trkpt>
      <trkpt lat="47.33269" lon="-2.2894">
        <ele>-3</ele>
        <time>2019-12-26T09:42:11.000Z</time>
      </trkpt>
      <trkpt lat="47.33301" lon="-2.28919">
        <ele>-3</ele>
        <time>2019-12-26T09:42:18.000Z</time>
      </trkpt>
      <trkpt lat="47.33315" lon="-2.28909">
        <ele>-3</ele>
        <time>2019-12-26T09:42:21.000Z</time>
      </trkpt>
      <trkpt lat="47.33331" lon="-2.28901">
        <ele>-3</ele>
        <time>2019-12-26T09:42:24.000Z</time>
      </trkpt>
      <trkpt lat="47.33368" lon="-2.28882">
        <ele>-3</ele>
        <time>2019-12-26T09:42:31.000Z</time>
      </trkpt>
      <trkpt lat="47.33401" lon="-2.28867">
        <ele>-3</ele>
        <time>2019-12-26T09:42:37.000Z</time>
      </trkpt>
      <trkpt lat="47.33406" lon="-2.28864">
        <ele>-3</ele>
        <time>2019-12-26T09:42:38.000Z</time>
      </trkpt>
      <trkpt lat="47.33411" lon="-2.2886">
        <ele>-3</ele>
        <time>2019-12-26T09:42:39.000Z</time>
      </trkpt>
      <trkpt lat="47.33421" lon="-2.28851">
        <ele>-3.4000000953674</ele>
        <time>2019-12-26T09:42:41.000Z</time>
      </trkpt>
      <trkpt lat="47.33426" lon="-2.28847">
        <ele>-3.7999999523163</ele>
        <time>2019-12-26T09:42:42.000Z</time>
      </trkpt>
      <trkpt lat="47.3343" lon="-2.28841">
        <ele>-4.4000000953674</ele>
        <time>2019-12-26T09:42:43.000Z</time>
      </trkpt>
      <trkpt lat="47.33434" lon="-2.28835">
        <ele>-4.8000001907349</ele>
        <time>2019-12-26T09:42:44.000Z</time>
      </trkpt>
      <trkpt lat="47.33438" lon="-2.28829">
        <ele>-5.1999998092651</ele>
        <time>2019-12-26T09:42:45.000Z</time>
      </trkpt>
      <trkpt lat="47.33449" lon="-2.28808">
        <ele>-5.1999998092651</ele>
        <time>2019-12-26T09:42:48.000Z</time>
      </trkpt>
      <trkpt lat="47.33477" lon="-2.28749">
        <ele>-5.1999998092651</ele>
        <time>2019-12-26T09:42:56.000Z</time>
      </trkpt>
      <trkpt lat="47.335" lon="-2.28711">
        <ele>-5.1999998092651</ele>
        <time>2019-12-26T09:43:02.000Z</time>
      </trkpt>
      <trkpt lat="47.33509" lon="-2.287">
        <ele>-5.1999998092651</ele>
        <time>2019-12-26T09:43:04.000Z</time>
      </trkpt>
      <trkpt lat="47.33519" lon="-2.2869">
        <ele>-5.1999998092651</ele>
        <time>2019-12-26T09:43:06.000Z</time>
      </trkpt>
      <trkpt lat="47.33525" lon="-2.28685">
        <ele>-5.1999998092651</ele>
        <time>2019-12-26T09:43:07.000Z</time>
      </trkpt>
      <trkpt lat="47.33543" lon="-2.28677">
        <ele>-5.1999998092651</ele>
        <time>2019-12-26T09:43:10.000Z</time>
      </trkpt>
      <trkpt lat="47.33556" lon="-2.28671">
        <ele>-5.1999998092651</ele>
        <time>2019-12-26T09:43:12.000Z</time>
      </trkpt>
      <trkpt lat="47.3359" lon="-2.28654">
        <ele>-5.1999998092651</ele>
        <time>2019-12-26T09:43:18.000Z</time>
      </trkpt>
      <trkpt lat="47.33619" lon="-2.28639">
        <ele>-5.5999999046326</ele>
        <time>2019-12-26T09:43:23.000Z</time>
      </trkpt>
      <trkpt lat="47.33624" lon="-2.28636">
        <ele>-6</ele>
        <time>2019-12-26T09:43:24.000Z</time>
      </trkpt>
      <trkpt lat="47.3363" lon="-2.28632">
        <ele>-6.4000000953674</ele>
        <time>2019-12-26T09:43:25.000Z</time>
      </trkpt>
      <trkpt lat="47.33636" lon="-2.28628">
        <ele>-6.8000001907349</ele>
        <time>2019-12-26T09:43:26.000Z</time>
      </trkpt>
      <trkpt lat="47.33642" lon="-2.28624">
        <ele>-7.1999998092651</ele>
        <time>2019-12-26T09:43:27.000Z</time>
      </trkpt>
      <trkpt lat="47.33663" lon="-2.28602">
        <ele>-7.1999998092651</ele>
        <time>2019-12-26T09:43:31.000Z</time>
      </trkpt>
      <trkpt lat="47.33693" lon="-2.28566">
        <ele>-7.1999998092651</ele>
        <time>2019-12-26T09:43:37.000Z</time>
      </trkpt>
      <trkpt lat="47.33718" lon="-2.28539">
        <ele>-7.1999998092651</ele>
        <time>2019-12-26T09:43:42.000Z</time>
      </trkpt>
      <trkpt lat="47.33749" lon="-2.28509">
        <ele>-7.1999998092651</ele>
        <time>2019-12-26T09:43:48.000Z</time>
      </trkpt>
      <trkpt lat="47.33783" lon="-2.28483">
        <ele>-7.1999998092651</ele>
        <time>2019-12-26T09:43:54.000Z</time>
      </trkpt>
      <trkpt lat="47.33812" lon="-2.28463">
        <ele>-7.1999998092651</ele>
        <time>2019-12-26T09:43:59.000Z</time>
      </trkpt>
      <trkpt lat="47.33828" lon="-2.28453">
        <ele>-7.1999998092651</ele>
        <time>2019-12-26T09:44:02.000Z</time>
      </trkpt>
      <trkpt lat="47.3384" lon="-2.28456">
        <ele>-7.1999998092651</ele>
        <time>2019-12-26T09:44:04.000Z</time>
      </trkpt>
      <trkpt lat="47.33853" lon="-2.2847">
        <ele>-7.1999998092651</ele>
        <time>2019-12-26T09:44:07.000Z</time>
      </trkpt>
      <trkpt lat="47.33857" lon="-2.28476">
        <ele>-7.1999998092651</ele>
        <time>2019-12-26T09:44:08.000Z</time>
      </trkpt>
      <trkpt lat="47.3388" lon="-2.28507">
        <ele>-7.1999998092651</ele>
        <time>2019-12-26T09:44:13.000Z</time>
      </trkpt>
      <trkpt lat="47.33906" lon="-2.28539">
        <ele>-7.1999998092651</ele>
        <time>2019-12-26T09:44:19.000Z</time>
      </trkpt>
      <trkpt lat="47.33935" lon="-2.28577">
        <ele>-7.1999998092651</ele>
        <time>2019-12-26T09:44:26.000Z</time>
      </trkpt>
      <trkpt lat="47.33962" lon="-2.28611">
        <ele>-7.1999998092651</ele>
        <time>2019-12-26T09:44:33.000Z</time>
      </trkpt>
      <trkpt lat="47.33986" lon="-2.28636">
        <ele>-7.1999998092651</ele>
        <time>2019-12-26T09:44:40.000Z</time>
      </trkpt>
      <trkpt lat="47.33996" lon="-2.28642">
        <ele>-7.1999998092651</ele>
        <time>2019-12-26T09:44:45.000Z</time>
      </trkpt>
      <trkpt lat="47.33996" lon="-2.28641">
        <ele>-7.1999998092651</ele>
        <time>2019-12-26T09:44:46.000Z</time>
      </trkpt>
      <trkpt lat="47.34001" lon="-2.28642">
        <ele>-9.3999996185303</ele>
        <time>2019-12-26T09:44:58.000Z</time>
      </trkpt>
      <trkpt lat="47.34001" lon="-2.28641">
        <ele>-9.3999996185303</ele>
        <time>2019-12-26T09:44:59.000Z</time>
      </trkpt>
      <trkpt lat="47.34001" lon="-2.28636">
        <ele>-9.3999996185303</ele>
        <time>2019-12-26T10:02:19.000Z</time>
      </trkpt>
      <trkpt lat="47.33997" lon="-2.28636">
        <ele>-9.3999996185303</ele>
        <time>2019-12-26T10:02:22.000Z</time>
      </trkpt>
      <trkpt lat="47.33995" lon="-2.28644">
        <ele>-9.3999996185303</ele>
        <time>2019-12-26T10:02:25.000Z</time>
      </trkpt>
      <trkpt lat="47.33994" lon="-2.28647">
        <ele>-9.3999996185303</ele>
        <time>2019-12-26T10:02:26.000Z</time>
      </trkpt>
      <trkpt lat="47.33994" lon="-2.28672">
        <ele>-9.3999996185303</ele>
        <time>2019-12-26T10:02:33.000Z</time>
      </trkpt>
      <trkpt lat="47.34" lon="-2.28697">
        <ele>-9.3999996185303</ele>
        <time>2019-12-26T10:02:39.000Z</time>
      </trkpt>
      <trkpt lat="47.3402" lon="-2.28708">
        <ele>-9.3999996185303</ele>
        <time>2019-12-26T10:02:45.000Z</time>
      </trkpt>
      <trkpt lat="47.34047" lon="-2.28719">
        <ele>-9.3999996185303</ele>
        <time>2019-12-26T10:02:54.000Z</time>
      </trkpt>
      <trkpt lat="47.34064" lon="-2.28726">
        <ele>-9.3999996185303</ele>
        <time>2019-12-26T10:03:00.000Z</time>
      </trkpt>
      <trkpt lat="47.3408" lon="-2.28732">
        <ele>-9.3999996185303</ele>
        <time>2019-12-26T10:03:05.000Z</time>
      </trkpt>
      <trkpt lat="47.34092" lon="-2.28746">
        <ele>-9.3999996185303</ele>
        <time>2019-12-26T10:03:09.000Z</time>
      </trkpt>
      <trkpt lat="47.34099" lon="-2.28761">
        <ele>-9.3999996185303</ele>
        <time>2019-12-26T10:03:12.000Z</time>
      </trkpt>
      <trkpt lat="47.34101" lon="-2.28775">
        <ele>-9.3999996185303</ele>
        <time>2019-12-26T10:03:14.000Z</time>
      </trkpt>
      <trkpt lat="47.34102" lon="-2.2879">
        <ele>-9.3999996185303</ele>
        <time>2019-12-26T10:03:16.000Z</time>
      </trkpt>
      <trkpt lat="47.34101" lon="-2.28819">
        <ele>-9.3999996185303</ele>
        <time>2019-12-26T10:03:20.000Z</time>
      </trkpt>
      <trkpt lat="47.341" lon="-2.28834">
        <ele>-9.3999996185303</ele>
        <time>2019-12-26T10:03:22.000Z</time>
      </trkpt>
      <trkpt lat="47.34101" lon="-2.28855">
        <ele>-9.3999996185303</ele>
        <time>2019-12-26T10:03:25.000Z</time>
      </trkpt>
      <trkpt lat="47.34099" lon="-2.28897">
        <ele>-9.3999996185303</ele>
        <time>2019-12-26T10:03:31.000Z</time>
      </trkpt>
      <trkpt lat="47.34086" lon="-2.28918">
        <ele>-9.3999996185303</ele>
        <time>2019-12-26T10:03:35.000Z</time>
      </trkpt>
      <trkpt lat="47.34078" lon="-2.28926">
        <ele>-9.3999996185303</ele>
        <time>2019-12-26T10:03:37.000Z</time>
      </trkpt>
      <trkpt lat="47.34067" lon="-2.28939">
        <ele>-9.3999996185303</ele>
        <time>2019-12-26T10:03:41.000Z</time>
      </trkpt>
      <trkpt lat="47.34071" lon="-2.28945">
        <ele>-9.3999996185303</ele>
        <time>2019-12-26T10:03:44.000Z</time>
      </trkpt>
      <trkpt lat="47.34086" lon="-2.28939">
        <ele>-9.3999996185303</ele>
        <time>2019-12-26T10:03:48.000Z</time>
      </trkpt>
      <trkpt lat="47.3409" lon="-2.28937">
        <ele>-9.3999996185303</ele>
        <time>2019-12-26T10:03:49.000Z</time>
      </trkpt>
      <trkpt lat="47.34113" lon="-2.28928">
        <ele>-9.3999996185303</ele>
        <time>2019-12-26T10:03:54.000Z</time>
      </trkpt>
      <trkpt lat="47.34143" lon="-2.28909">
        <ele>-9.3999996185303</ele>
        <time>2019-12-26T10:04:00.000Z</time>
      </trkpt>
      <trkpt lat="47.34173" lon="-2.28886">
        <ele>-9.3999996185303</ele>
        <time>2019-12-26T10:04:07.000Z</time>
      </trkpt>
      <trkpt lat="47.34196" lon="-2.28869">
        <ele>-9.3999996185303</ele>
        <time>2019-12-26T10:04:12.000Z</time>
      </trkpt>
      <trkpt lat="47.34221" lon="-2.28853">
        <ele>-9.3999996185303</ele>
        <time>2019-12-26T10:04:17.000Z</time>
      </trkpt>
      <trkpt lat="47.34245" lon="-2.28835">
        <ele>-9.3999996185303</ele>
        <time>2019-12-26T10:04:23.000Z</time>
      </trkpt>
      <trkpt lat="47.34249" lon="-2.28836">
        <ele>-9.3999996185303</ele>
        <time>2019-12-26T10:04:24.000Z</time>
      </trkpt>
      <trkpt lat="47.34256" lon="-2.28843">
        <ele>-9.3999996185303</ele>
        <time>2019-12-26T10:04:26.000Z</time>
      </trkpt>
      <trkpt lat="47.34262" lon="-2.28855">
        <ele>-9.3999996185303</ele>
        <time>2019-12-26T10:04:28.000Z</time>
      </trkpt>
      <trkpt lat="47.34265" lon="-2.28862">
        <ele>-9.3999996185303</ele>
        <time>2019-12-26T10:04:29.000Z</time>
      </trkpt>
      <trkpt lat="47.34267" lon="-2.2887">
        <ele>-9.3999996185303</ele>
        <time>2019-12-26T10:04:30.000Z</time>
      </trkpt>
      <trkpt lat="47.34283" lon="-2.2892">
        <ele>-9.3999996185303</ele>
        <time>2019-12-26T10:04:37.000Z</time>
      </trkpt>
      <trkpt lat="47.34289" lon="-2.28941">
        <ele>-9</ele>
        <time>2019-12-26T10:04:40.000Z</time>
      </trkpt>
      <trkpt lat="47.3429" lon="-2.28948">
        <ele>-8.6000003814697</ele>
        <time>2019-12-26T10:04:41.000Z</time>
      </trkpt>
      <trkpt lat="47.34292" lon="-2.28955">
        <ele>-7.8000001907349</ele>
        <time>2019-12-26T10:04:42.000Z</time>
      </trkpt>
      <trkpt lat="47.34293" lon="-2.28962">
        <ele>-7.1999998092651</ele>
        <time>2019-12-26T10:04:43.000Z</time>
      </trkpt>
      <trkpt lat="47.34299" lon="-2.2899">
        <ele>-7.1999998092651</ele>
        <time>2019-12-26T10:04:47.000Z</time>
      </trkpt>
      <trkpt lat="47.34302" lon="-2.29004">
        <ele>-7.1999998092651</ele>
        <time>2019-12-26T10:04:49.000Z</time>
      </trkpt>
      <trkpt lat="47.34305" lon="-2.29018">
        <ele>-7.1999998092651</ele>
        <time>2019-12-26T10:04:51.000Z</time>
      </trkpt>
      <trkpt lat="47.34309" lon="-2.29037">
        <ele>-7.1999998092651</ele>
        <time>2019-12-26T10:04:54.000Z</time>
      </trkpt>
      <trkpt lat="47.34314" lon="-2.29059">
        <ele>-7.1999998092651</ele>
        <time>2019-12-26T10:04:58.000Z</time>
      </trkpt>
      <trkpt lat="47.34312" lon="-2.29064">
        <ele>-7.1999998092651</ele>
        <time>2019-12-26T10:04:59.000Z</time>
      </trkpt>
      <trkpt lat="47.34301" lon="-2.29069">
        <ele>-7.1999998092651</ele>
        <time>2019-12-26T10:05:02.000Z</time>
      </trkpt>
      <trkpt lat="47.34296" lon="-2.2907">
        <ele>-7.1999998092651</ele>
        <time>2019-12-26T10:05:03.000Z</time>
      </trkpt>
      <trkpt lat="47.34266" lon="-2.29074">
        <ele>-7.1999998092651</ele>
        <time>2019-12-26T10:05:09.000Z</time>
      </trkpt>
      <trkpt lat="47.34219" lon="-2.29082">
        <ele>-7.1999998092651</ele>
        <time>2019-12-26T10:05:18.000Z</time>
      </trkpt>
      <trkpt lat="47.34183" lon="-2.29095">
        <ele>-7.1999998092651</ele>
        <time>2019-12-26T10:05:25.000Z</time>
      </trkpt>
      <trkpt lat="47.34154" lon="-2.29111">
        <ele>-7.1999998092651</ele>
        <time>2019-12-26T10:05:31.000Z</time>
      </trkpt>
      <trkpt lat="47.34125" lon="-2.2913">
        <ele>-7.1999998092651</ele>
        <time>2019-12-26T10:05:37.000Z</time>
      </trkpt>
      <trkpt lat="47.34098" lon="-2.29149">
        <ele>-7.1999998092651</ele>
        <time>2019-12-26T10:05:43.000Z</time>
      </trkpt>
      <trkpt lat="47.34094" lon="-2.29153">
        <ele>-7.1999998092651</ele>
        <time>2019-12-26T10:05:44.000Z</time>
      </trkpt>
      <trkpt lat="47.34067" lon="-2.29178">
        <ele>-7.1999998092651</ele>
        <time>2019-12-26T10:05:50.000Z</time>
      </trkpt>
      <trkpt lat="47.34062" lon="-2.29181">
        <ele>-7.1999998092651</ele>
        <time>2019-12-26T10:05:51.000Z</time>
      </trkpt>
      <trkpt lat="47.3404" lon="-2.29197">
        <ele>-7.1999998092651</ele>
        <time>2019-12-26T10:05:55.000Z</time>
      </trkpt>
      <trkpt lat="47.34034" lon="-2.292">
        <ele>-7.1999998092651</ele>
        <time>2019-12-26T10:05:56.000Z</time>
      </trkpt>
      <trkpt lat="47.34002" lon="-2.29214">
        <ele>-7.1999998092651</ele>
        <time>2019-12-26T10:06:02.000Z</time>
      </trkpt>
      <trkpt lat="47.33958" lon="-2.29226">
        <ele>-7.1999998092651</ele>
        <time>2019-12-26T10:06:10.000Z</time>
      </trkpt>
      <trkpt lat="47.33924" lon="-2.29231">
        <ele>-7.1999998092651</ele>
        <time>2019-12-26T10:06:16.000Z</time>
      </trkpt>
      <trkpt lat="47.33885" lon="-2.29237">
        <ele>-7.1999998092651</ele>
        <time>2019-12-26T10:06:23.000Z</time>
      </trkpt>
      <trkpt lat="47.33857" lon="-2.29246">
        <ele>-7.1999998092651</ele>
        <time>2019-12-26T10:06:28.000Z</time>
      </trkpt>
      <trkpt lat="47.3382" lon="-2.29267">
        <ele>-7.1999998092651</ele>
        <time>2019-12-26T10:06:35.000Z</time>
      </trkpt>
      <trkpt lat="47.33806" lon="-2.29277">
        <ele>-7.1999998092651</ele>
        <time>2019-12-26T10:06:38.000Z</time>
      </trkpt>
      <trkpt lat="47.33802" lon="-2.29288">
        <ele>-7.1999998092651</ele>
        <time>2019-12-26T10:06:40.000Z</time>
      </trkpt>
      <trkpt lat="47.33807" lon="-2.29301">
        <ele>-7.1999998092651</ele>
        <time>2019-12-26T10:06:43.000Z</time>
      </trkpt>
      <trkpt lat="47.33818" lon="-2.2931">
        <ele>-7.1999998092651</ele>
        <time>2019-12-26T10:06:46.000Z</time>
      </trkpt>
      <trkpt lat="47.33826" lon="-2.29316">
        <ele>-7.1999998092651</ele>
        <time>2019-12-26T10:06:48.000Z</time>
      </trkpt>
      <trkpt lat="47.33838" lon="-2.29327">
        <ele>-7.1999998092651</ele>
        <time>2019-12-26T10:06:51.000Z</time>
      </trkpt>
      <trkpt lat="47.3385" lon="-2.29338">
        <ele>-7.1999998092651</ele>
        <time>2019-12-26T10:06:54.000Z</time>
      </trkpt>
      <trkpt lat="47.33854" lon="-2.29342">
        <ele>-6.8000001907349</ele>
        <time>2019-12-26T10:06:55.000Z</time>
      </trkpt>
      <trkpt lat="47.33859" lon="-2.29345">
        <ele>-6.4000000953674</ele>
        <time>2019-12-26T10:06:56.000Z</time>
      </trkpt>
      <trkpt lat="47.33863" lon="-2.29349">
        <ele>-6</ele>
        <time>2019-12-26T10:06:57.000Z</time>
      </trkpt>
      <trkpt lat="47.33867" lon="-2.29352">
        <ele>-5.5999999046326</ele>
        <time>2019-12-26T10:06:58.000Z</time>
      </trkpt>
      <trkpt lat="47.33872" lon="-2.29357">
        <ele>-5.1999998092651</ele>
        <time>2019-12-26T10:06:59.000Z</time>
      </trkpt>
      <trkpt lat="47.33876" lon="-2.29361">
        <ele>-5.1999998092651</ele>
        <time>2019-12-26T10:07:00.000Z</time>
      </trkpt>
      <trkpt lat="47.33908" lon="-2.29392">
        <ele>-5.1999998092651</ele>
        <time>2019-12-26T10:07:07.000Z</time>
      </trkpt>
      <trkpt lat="47.33911" lon="-2.29398">
        <ele>-5.1999998092651</ele>
        <time>2019-12-26T10:07:08.000Z</time>
      </trkpt>
      <trkpt lat="47.33929" lon="-2.29417">
        <ele>-5.1999998092651</ele>
        <time>2019-12-26T10:07:12.000Z</time>
      </trkpt>
      <trkpt lat="47.33936" lon="-2.29427">
        <ele>-5.1999998092651</ele>
        <time>2019-12-26T10:07:14.000Z</time>
      </trkpt>
      <trkpt lat="47.33944" lon="-2.29447">
        <ele>-5.5999999046326</ele>
        <time>2019-12-26T10:07:17.000Z</time>
      </trkpt>
      <trkpt lat="47.33945" lon="-2.29454">
        <ele>-6</ele>
        <time>2019-12-26T10:07:18.000Z</time>
      </trkpt>
      <trkpt lat="47.33943" lon="-2.2946">
        <ele>-6.4000000953674</ele>
        <time>2019-12-26T10:07:19.000Z</time>
      </trkpt>
      <trkpt lat="47.33941" lon="-2.29465">
        <ele>-6.8000001907349</ele>
        <time>2019-12-26T10:07:20.000Z</time>
      </trkpt>
      <trkpt lat="47.33938" lon="-2.2947">
        <ele>-7.1999998092651</ele>
        <time>2019-12-26T10:07:21.000Z</time>
      </trkpt>
      <trkpt lat="47.33934" lon="-2.29474">
        <ele>-7.1999998092651</ele>
        <time>2019-12-26T10:07:22.000Z</time>
      </trkpt>
      <trkpt lat="47.33931" lon="-2.29479">
        <ele>-7.1999998092651</ele>
        <time>2019-12-26T10:07:23.000Z</time>
      </trkpt>
      <trkpt lat="47.33905" lon="-2.29505">
        <ele>-7.1999998092651</ele>
        <time>2019-12-26T10:07:29.000Z</time>
      </trkpt>
      <trkpt lat="47.33896" lon="-2.29511">
        <ele>-7.1999998092651</ele>
        <time>2019-12-26T10:07:31.000Z</time>
      </trkpt>
      <trkpt lat="47.33882" lon="-2.29517">
        <ele>-7.1999998092651</ele>
        <time>2019-12-26T10:07:34.000Z</time>
      </trkpt>
      <trkpt lat="47.3384" lon="-2.29534">
        <ele>-7.1999998092651</ele>
        <time>2019-12-26T10:07:43.000Z</time>
      </trkpt>
      <trkpt lat="47.33807" lon="-2.29542">
        <ele>-7.1999998092651</ele>
        <time>2019-12-26T10:07:50.000Z</time>
      </trkpt>
      <trkpt lat="47.33774" lon="-2.29548">
        <ele>-7.1999998092651</ele>
        <time>2019-12-26T10:07:57.000Z</time>
      </trkpt>
      <trkpt lat="47.33744" lon="-2.29553">
        <ele>-7.1999998092651</ele>
        <time>2019-12-26T10:08:03.000Z</time>
      </trkpt>
      <trkpt lat="47.33712" lon="-2.29557">
        <ele>-7.1999998092651</ele>
        <time>2019-12-26T10:08:09.000Z</time>
      </trkpt>
      <trkpt lat="47.33662" lon="-2.29564">
        <ele>-7.1999998092651</ele>
        <time>2019-12-26T10:08:18.000Z</time>
      </trkpt>
      <trkpt lat="47.33612" lon="-2.29561">
        <ele>-7.1999998092651</ele>
        <time>2019-12-26T10:08:27.000Z</time>
      </trkpt>
      <trkpt lat="47.33556" lon="-2.29556">
        <ele>-7.1999998092651</ele>
        <time>2019-12-26T10:08:37.000Z</time>
      </trkpt>
      <trkpt lat="47.33545" lon="-2.29555">
        <ele>-7.1999998092651</ele>
        <time>2019-12-26T10:08:39.000Z</time>
      </trkpt>
      <trkpt lat="47.33535" lon="-2.29554">
        <ele>-7.8000001907349</ele>
        <time>2019-12-26T10:08:41.000Z</time>
      </trkpt>
      <trkpt lat="47.33531" lon="-2.29554">
        <ele>-8.1999998092651</ele>
        <time>2019-12-26T10:08:42.000Z</time>
      </trkpt>
      <trkpt lat="47.33526" lon="-2.29553">
        <ele>-8.6000003814697</ele>
        <time>2019-12-26T10:08:43.000Z</time>
      </trkpt>
      <trkpt lat="47.33521" lon="-2.29552">
        <ele>-9</ele>
        <time>2019-12-26T10:08:44.000Z</time>
      </trkpt>
      <trkpt lat="47.33515" lon="-2.29552">
        <ele>-9.3999996185303</ele>
        <time>2019-12-26T10:08:45.000Z</time>
      </trkpt>
      <trkpt lat="47.33484" lon="-2.29548">
        <ele>-9.3999996185303</ele>
        <time>2019-12-26T10:08:51.000Z</time>
      </trkpt>
      <trkpt lat="47.33441" lon="-2.29545">
        <ele>-9.3999996185303</ele>
        <time>2019-12-26T10:08:59.000Z</time>
      </trkpt>
      <trkpt lat="47.33431" lon="-2.29544">
        <ele>-9.3999996185303</ele>
        <time>2019-12-26T10:09:01.000Z</time>
      </trkpt>
      <trkpt lat="47.33411" lon="-2.29538">
        <ele>-9.3999996185303</ele>
        <time>2019-12-26T10:09:05.000Z</time>
      </trkpt>
      <trkpt lat="47.33379" lon="-2.29529">
        <ele>-9.3999996185303</ele>
        <time>2019-12-26T10:09:11.000Z</time>
      </trkpt>
      <trkpt lat="47.33374" lon="-2.29528">
        <ele>-9</ele>
        <time>2019-12-26T10:09:12.000Z</time>
      </trkpt>
      <trkpt lat="47.33369" lon="-2.29527">
        <ele>-8.3999996185303</ele>
        <time>2019-12-26T10:09:13.000Z</time>
      </trkpt>
      <trkpt lat="47.33364" lon="-2.29527">
        <ele>-8</ele>
        <time>2019-12-26T10:09:14.000Z</time>
      </trkpt>
      <trkpt lat="47.33359" lon="-2.29528">
        <ele>-7.5999999046326</ele>
        <time>2019-12-26T10:09:15.000Z</time>
      </trkpt>
      <trkpt lat="47.33354" lon="-2.29528">
        <ele>-7.1999998092651</ele>
        <time>2019-12-26T10:09:16.000Z</time>
      </trkpt>
      <trkpt lat="47.33349" lon="-2.29529">
        <ele>-7.1999998092651</ele>
        <time>2019-12-26T10:09:17.000Z</time>
      </trkpt>
      <trkpt lat="47.33321" lon="-2.29542">
        <ele>-7.1999998092651</ele>
        <time>2019-12-26T10:09:23.000Z</time>
      </trkpt>
      <trkpt lat="47.33298" lon="-2.29555">
        <ele>-7.1999998092651</ele>
        <time>2019-12-26T10:09:28.000Z</time>
      </trkpt>
      <trkpt lat="47.33293" lon="-2.29558">
        <ele>-6.8000001907349</ele>
        <time>2019-12-26T10:09:29.000Z</time>
      </trkpt>
      <trkpt lat="47.33289" lon="-2.29561">
        <ele>-6.4000000953674</ele>
        <time>2019-12-26T10:09:30.000Z</time>
      </trkpt>
      <trkpt lat="47.33284" lon="-2.29564">
        <ele>-6</ele>
        <time>2019-12-26T10:09:31.000Z</time>
      </trkpt>
      <trkpt lat="47.33279" lon="-2.29567">
        <ele>-5.5999999046326</ele>
        <time>2019-12-26T10:09:32.000Z</time>
      </trkpt>
      <trkpt lat="47.33274" lon="-2.29569">
        <ele>-5.1999998092651</ele>
        <time>2019-12-26T10:09:33.000Z</time>
      </trkpt>
      <trkpt lat="47.33261" lon="-2.29578">
        <ele>-5.1999998092651</ele>
        <time>2019-12-26T10:09:36.000Z</time>
      </trkpt>
      <trkpt lat="47.33247" lon="-2.29593">
        <ele>-5.1999998092651</ele>
        <time>2019-12-26T10:09:39.000Z</time>
      </trkpt>
      <trkpt lat="47.33243" lon="-2.29599">
        <ele>-5.1999998092651</ele>
        <time>2019-12-26T10:09:40.000Z</time>
      </trkpt>
      <trkpt lat="47.33232" lon="-2.29628">
        <ele>-5.1999998092651</ele>
        <time>2019-12-26T10:09:44.000Z</time>
      </trkpt>
      <trkpt lat="47.33224" lon="-2.29641">
        <ele>-5.1999998092651</ele>
        <time>2019-12-26T10:09:46.000Z</time>
      </trkpt>
      <trkpt lat="47.33216" lon="-2.29651">
        <ele>-5.1999998092651</ele>
        <time>2019-12-26T10:09:49.000Z</time>
      </trkpt>
      <trkpt lat="47.33195" lon="-2.29668">
        <ele>-5.1999998092651</ele>
        <time>2019-12-26T10:09:53.000Z</time>
      </trkpt>
      <trkpt lat="47.3319" lon="-2.29672">
        <ele>-5.1999998092651</ele>
        <time>2019-12-26T10:09:54.000Z</time>
      </trkpt>
      <trkpt lat="47.33166" lon="-2.29681">
        <ele>-5.1999998092651</ele>
        <time>2019-12-26T10:09:58.000Z</time>
      </trkpt>
      <trkpt lat="47.33124" lon="-2.29694">
        <ele>-5.1999998092651</ele>
        <time>2019-12-26T10:10:06.000Z</time>
      </trkpt>
      <trkpt lat="47.33076" lon="-2.29706">
        <ele>-5.1999998092651</ele>
        <time>2019-12-26T10:10:15.000Z</time>
      </trkpt>
      <trkpt lat="47.33038" lon="-2.29714">
        <ele>-5.1999998092651</ele>
        <time>2019-12-26T10:10:23.000Z</time>
      </trkpt>
      <trkpt lat="47.33027" lon="-2.29717">
        <ele>-4.8000001907349</ele>
        <time>2019-12-26T10:10:26.000Z</time>
      </trkpt>
      <trkpt lat="47.33023" lon="-2.29719">
        <ele>-4.4000000953674</ele>
        <time>2019-12-26T10:10:27.000Z</time>
      </trkpt>
      <trkpt lat="47.3302" lon="-2.29722">
        <ele>-3.4000000953674</ele>
        <time>2019-12-26T10:10:28.000Z</time>
      </trkpt>
      <trkpt lat="47.33018" lon="-2.29727">
        <ele>-3</ele>
        <time>2019-12-26T10:10:29.000Z</time>
      </trkpt>
      <trkpt lat="47.33018" lon="-2.29754">
        <ele>-3</ele>
        <time>2019-12-26T10:10:33.000Z</time>
      </trkpt>
      <trkpt lat="47.33015" lon="-2.29804">
        <ele>-3</ele>
        <time>2019-12-26T10:10:39.000Z</time>
      </trkpt>
      <trkpt lat="47.33" lon="-2.2986">
        <ele>-3</ele>
        <time>2019-12-26T10:10:46.000Z</time>
      </trkpt>
      <trkpt lat="47.32986" lon="-2.29912">
        <ele>-3</ele>
        <time>2019-12-26T10:10:53.000Z</time>
      </trkpt>
      <trkpt lat="47.32971" lon="-2.29964">
        <ele>-3</ele>
        <time>2019-12-26T10:11:00.000Z</time>
      </trkpt>
      <trkpt lat="47.32967" lon="-2.29987">
        <ele>-3</ele>
        <time>2019-12-26T10:11:03.000Z</time>
      </trkpt>
      <trkpt lat="47.32966" lon="-2.3001">
        <ele>-3</ele>
        <time>2019-12-26T10:11:06.000Z</time>
      </trkpt>
      <trkpt lat="47.3297" lon="-2.30055">
        <ele>-3</ele>
        <time>2019-12-26T10:11:12.000Z</time>
      </trkpt>
      <trkpt lat="47.32978" lon="-2.30111">
        <ele>-3</ele>
        <time>2019-12-26T10:11:19.000Z</time>
      </trkpt>
      <trkpt lat="47.32989" lon="-2.3017">
        <ele>-3</ele>
        <time>2019-12-26T10:11:26.000Z</time>
      </trkpt>
      <trkpt lat="47.32992" lon="-2.30223">
        <ele>-3</ele>
        <time>2019-12-26T10:11:32.000Z</time>
      </trkpt>
      <trkpt lat="47.32991" lon="-2.30232">
        <ele>-3</ele>
        <time>2019-12-26T10:11:33.000Z</time>
      </trkpt>
      <trkpt lat="47.32983" lon="-2.30269">
        <ele>-3</ele>
        <time>2019-12-26T10:11:37.000Z</time>
      </trkpt>
      <trkpt lat="47.32976" lon="-2.30284">
        <ele>-3</ele>
        <time>2019-12-26T10:11:39.000Z</time>
      </trkpt>
      <trkpt lat="47.32966" lon="-2.30308">
        <ele>-3.4000000953674</ele>
        <time>2019-12-26T10:11:42.000Z</time>
      </trkpt>
      <trkpt lat="47.32963" lon="-2.30316">
        <ele>-4</ele>
        <time>2019-12-26T10:11:43.000Z</time>
      </trkpt>
      <trkpt lat="47.3296" lon="-2.30324">
        <ele>-4.4000000953674</ele>
        <time>2019-12-26T10:11:44.000Z</time>
      </trkpt>
      <trkpt lat="47.32957" lon="-2.30332">
        <ele>-4.8000001907349</ele>
        <time>2019-12-26T10:11:45.000Z</time>
      </trkpt>
      <trkpt lat="47.32954" lon="-2.3034">
        <ele>-5.1999998092651</ele>
        <time>2019-12-26T10:11:46.000Z</time>
      </trkpt>
      <trkpt lat="47.32949" lon="-2.30356">
        <ele>-5.1999998092651</ele>
        <time>2019-12-26T10:11:48.000Z</time>
      </trkpt>
      <trkpt lat="47.32943" lon="-2.3038">
        <ele>-5.1999998092651</ele>
        <time>2019-12-26T10:11:51.000Z</time>
      </trkpt>
      <trkpt lat="47.32942" lon="-2.30388">
        <ele>-5.5999999046326</ele>
        <time>2019-12-26T10:11:52.000Z</time>
      </trkpt>
      <trkpt lat="47.32941" lon="-2.30396">
        <ele>-6</ele>
        <time>2019-12-26T10:11:53.000Z</time>
      </trkpt>
      <trkpt lat="47.32941" lon="-2.30404">
        <ele>-6.4000000953674</ele>
        <time>2019-12-26T10:11:54.000Z</time>
      </trkpt>
      <trkpt lat="47.32939" lon="-2.30413">
        <ele>-6.8000001907349</ele>
        <time>2019-12-26T10:11:55.000Z</time>
      </trkpt>
      <trkpt lat="47.32938" lon="-2.30422">
        <ele>-7.1999998092651</ele>
        <time>2019-12-26T10:11:56.000Z</time>
      </trkpt>
      <trkpt lat="47.32937" lon="-2.30431">
        <ele>-7.1999998092651</ele>
        <time>2019-12-26T10:11:57.000Z</time>
      </trkpt>
      <trkpt lat="47.32932" lon="-2.30472">
        <ele>-7.1999998092651</ele>
        <time>2019-12-26T10:12:02.000Z</time>
      </trkpt>
      <trkpt lat="47.3293" lon="-2.30488">
        <ele>-7.1999998092651</ele>
        <time>2019-12-26T10:12:04.000Z</time>
      </trkpt>
      <trkpt lat="47.32927" lon="-2.30505">
        <ele>-7.1999998092651</ele>
        <time>2019-12-26T10:12:06.000Z</time>
      </trkpt>
      <trkpt lat="47.32926" lon="-2.30514">
        <ele>-7.1999998092651</ele>
        <time>2019-12-26T10:12:07.000Z</time>
      </trkpt>
      <trkpt lat="47.32923" lon="-2.30536">
        <ele>-7.1999998092651</ele>
        <time>2019-12-26T10:12:10.000Z</time>
      </trkpt>
      <trkpt lat="47.32919" lon="-2.30586">
        <ele>-7.1999998092651</ele>
        <time>2019-12-26T10:12:16.000Z</time>
      </trkpt>
      <trkpt lat="47.3292" lon="-2.30617">
        <ele>-7.1999998092651</ele>
        <time>2019-12-26T10:12:20.000Z</time>
      </trkpt>
      <trkpt lat="47.3292" lon="-2.30625">
        <ele>-7.1999998092651</ele>
        <time>2019-12-26T10:12:21.000Z</time>
      </trkpt>
      <trkpt lat="47.32921" lon="-2.30672">
        <ele>-7.1999998092651</ele>
        <time>2019-12-26T10:12:27.000Z</time>
      </trkpt>
      <trkpt lat="47.32919" lon="-2.30735">
        <ele>-7.1999998092651</ele>
        <time>2019-12-26T10:12:35.000Z</time>
      </trkpt>
      <trkpt lat="47.32913" lon="-2.30787">
        <ele>-7.1999998092651</ele>
        <time>2019-12-26T10:12:42.000Z</time>
      </trkpt>
      <trkpt lat="47.32909" lon="-2.30842">
        <ele>-7.1999998092651</ele>
        <time>2019-12-26T10:12:49.000Z</time>
      </trkpt>
      <trkpt lat="47.32906" lon="-2.30885">
        <ele>-7.1999998092651</ele>
        <time>2019-12-26T10:12:55.000Z</time>
      </trkpt>
      <trkpt lat="47.32906" lon="-2.30892">
        <ele>-7.1999998092651</ele>
        <time>2019-12-26T10:12:56.000Z</time>
      </trkpt>
      <trkpt lat="47.32904" lon="-2.30912">
        <ele>-7.1999998092651</ele>
        <time>2019-12-26T10:12:59.000Z</time>
      </trkpt>
      <trkpt lat="47.32903" lon="-2.3092">
        <ele>-7.1999998092651</ele>
        <time>2019-12-26T10:13:00.000Z</time>
      </trkpt>
      <trkpt lat="47.32897" lon="-2.30975">
        <ele>-7.1999998092651</ele>
        <time>2019-12-26T10:13:07.000Z</time>
      </trkpt>
      <trkpt lat="47.32893" lon="-2.31045">
        <ele>-7.1999998092651</ele>
        <time>2019-12-26T10:13:15.000Z</time>
      </trkpt>
      <trkpt lat="47.32897" lon="-2.31095">
        <ele>-7.1999998092651</ele>
        <time>2019-12-26T10:13:21.000Z</time>
      </trkpt>
      <trkpt lat="47.32899" lon="-2.31102">
        <ele>-7.1999998092651</ele>
        <time>2019-12-26T10:13:22.000Z</time>
      </trkpt>
      <trkpt lat="47.32904" lon="-2.31125">
        <ele>-7.1999998092651</ele>
        <time>2019-12-26T10:13:25.000Z</time>
      </trkpt>
      <trkpt lat="47.3291" lon="-2.31148">
        <ele>-7.1999998092651</ele>
        <time>2019-12-26T10:13:28.000Z</time>
      </trkpt>
      <trkpt lat="47.32923" lon="-2.31196">
        <ele>-7.1999998092651</ele>
        <time>2019-12-26T10:13:35.000Z</time>
      </trkpt>
      <trkpt lat="47.32933" lon="-2.31233">
        <ele>-7.1999998092651</ele>
        <time>2019-12-26T10:13:41.000Z</time>
      </trkpt>
      <trkpt lat="47.32941" lon="-2.31252">
        <ele>-7.1999998092651</ele>
        <time>2019-12-26T10:13:46.000Z</time>
      </trkpt>
      <trkpt lat="47.32953" lon="-2.31242">
        <ele>-7.1999998092651</ele>
        <time>2019-12-26T10:13:50.000Z</time>
      </trkpt>
      <trkpt lat="47.32972" lon="-2.31217">
        <ele>-7.1999998092651</ele>
        <time>2019-12-26T10:13:55.000Z</time>
      </trkpt>
      <trkpt lat="47.3298" lon="-2.31206">
        <ele>-7.1999998092651</ele>
        <time>2019-12-26T10:13:57.000Z</time>
      </trkpt>
      <trkpt lat="47.32997" lon="-2.31183">
        <ele>-7.1999998092651</ele>
        <time>2019-12-26T10:14:01.000Z</time>
      </trkpt>
      <trkpt lat="47.33015" lon="-2.31159">
        <ele>-7.5999999046326</ele>
        <time>2019-12-26T10:14:05.000Z</time>
      </trkpt>
      <trkpt lat="47.33019" lon="-2.31152">
        <ele>-8</ele>
        <time>2019-12-26T10:14:06.000Z</time>
      </trkpt>
      <trkpt lat="47.33023" lon="-2.31147">
        <ele>-8.3999996185303</ele>
        <time>2019-12-26T10:14:07.000Z</time>
      </trkpt>
      <trkpt lat="47.33027" lon="-2.31141">
        <ele>-8.8000001907349</ele>
        <time>2019-12-26T10:14:08.000Z</time>
      </trkpt>
      <trkpt lat="47.33031" lon="-2.31134">
        <ele>-9.3999996185303</ele>
        <time>2019-12-26T10:14:09.000Z</time>
      </trkpt>
      <trkpt lat="47.33047" lon="-2.31104">
        <ele>-9.3999996185303</ele>
        <time>2019-12-26T10:14:14.000Z</time>
      </trkpt>
      <trkpt lat="47.33054" lon="-2.31093">
        <ele>-9.3999996185303</ele>
        <time>2019-12-26T10:14:16.000Z</time>
      </trkpt>
      <trkpt lat="47.33062" lon="-2.31085">
        <ele>-9.3999996185303</ele>
        <time>2019-12-26T10:14:18.000Z</time>
      </trkpt>
      <trkpt lat="47.33081" lon="-2.31073">
        <ele>-9.3999996185303</ele>
        <time>2019-12-26T10:14:22.000Z</time>
      </trkpt>
      <trkpt lat="47.33109" lon="-2.31077">
        <ele>-9.3999996185303</ele>
        <time>2019-12-26T10:14:27.000Z</time>
      </trkpt>
      <trkpt lat="47.33118" lon="-2.31086">
        <ele>-9.3999996185303</ele>
        <time>2019-12-26T10:14:29.000Z</time>
      </trkpt>
      <trkpt lat="47.33123" lon="-2.31091">
        <ele>-9.3999996185303</ele>
        <time>2019-12-26T10:14:30.000Z</time>
      </trkpt>
      <trkpt lat="47.33126" lon="-2.31097">
        <ele>-9.3999996185303</ele>
        <time>2019-12-26T10:14:31.000Z</time>
      </trkpt>
      <trkpt lat="47.33139" lon="-2.31124">
        <ele>-9.3999996185303</ele>
        <time>2019-12-26T10:14:35.000Z</time>
      </trkpt>
      <trkpt lat="47.33142" lon="-2.31131">
        <ele>-9.3999996185303</ele>
        <time>2019-12-26T10:14:36.000Z</time>
      </trkpt>
      <trkpt lat="47.33162" lon="-2.31181">
        <ele>-9.3999996185303</ele>
        <time>2019-12-26T10:14:43.000Z</time>
      </trkpt>
      <trkpt lat="47.33179" lon="-2.31222">
        <ele>-9.3999996185303</ele>
        <time>2019-12-26T10:14:49.000Z</time>
      </trkpt>
      <trkpt lat="47.33194" lon="-2.31263">
        <ele>-9.3999996185303</ele>
        <time>2019-12-26T10:14:55.000Z</time>
      </trkpt>
      <trkpt lat="47.33213" lon="-2.31312">
        <ele>-9.3999996185303</ele>
        <time>2019-12-26T10:15:02.000Z</time>
      </trkpt>
      <trkpt lat="47.3324" lon="-2.31378">
        <ele>-9.3999996185303</ele>
        <time>2019-12-26T10:15:11.000Z</time>
      </trkpt>
      <trkpt lat="47.33252" lon="-2.31425">
        <ele>-9.3999996185303</ele>
        <time>2019-12-26T10:15:17.000Z</time>
      </trkpt>
      <trkpt lat="47.33249" lon="-2.31457">
        <ele>-9.3999996185303</ele>
        <time>2019-12-26T10:15:21.000Z</time>
      </trkpt>
      <trkpt lat="47.33237" lon="-2.31487">
        <ele>-9.3999996185303</ele>
        <time>2019-12-26T10:15:25.000Z</time>
      </trkpt>
      <trkpt lat="47.33216" lon="-2.31534">
        <ele>-9.3999996185303</ele>
        <time>2019-12-26T10:15:32.000Z</time>
      </trkpt>
      <trkpt lat="47.33201" lon="-2.31568">
        <ele>-9.3999996185303</ele>
        <time>2019-12-26T10:15:37.000Z</time>
      </trkpt>
      <trkpt lat="47.3319" lon="-2.31588">
        <ele>-9.3999996185303</ele>
        <time>2019-12-26T10:15:40.000Z</time>
      </trkpt>
      <trkpt lat="47.33175" lon="-2.31604">
        <ele>-9.3999996185303</ele>
        <time>2019-12-26T10:15:43.000Z</time>
      </trkpt>
      <trkpt lat="47.33171" lon="-2.31607">
        <ele>-9.3999996185303</ele>
        <time>2019-12-26T10:15:44.000Z</time>
      </trkpt>
      <trkpt lat="47.33154" lon="-2.31616">
        <ele>-9.3999996185303</ele>
        <time>2019-12-26T10:15:47.000Z</time>
      </trkpt>
      <trkpt lat="47.3312" lon="-2.31628">
        <ele>-9.3999996185303</ele>
        <time>2019-12-26T10:15:53.000Z</time>
      </trkpt>
      <trkpt lat="47.33072" lon="-2.31646">
        <ele>-9.3999996185303</ele>
        <time>2019-12-26T10:16:02.000Z</time>
      </trkpt>
      <trkpt lat="47.33067" lon="-2.3165">
        <ele>-9.3999996185303</ele>
        <time>2019-12-26T10:16:03.000Z</time>
      </trkpt>
      <trkpt lat="47.33053" lon="-2.31674">
        <ele>-9.3999996185303</ele>
        <time>2019-12-26T10:16:07.000Z</time>
      </trkpt>
      <trkpt lat="47.33051" lon="-2.31706">
        <ele>-9.3999996185303</ele>
        <time>2019-12-26T10:16:11.000Z</time>
      </trkpt>
      <trkpt lat="47.33057" lon="-2.31736">
        <ele>-9.3999996185303</ele>
        <time>2019-12-26T10:16:15.000Z</time>
      </trkpt>
      <trkpt lat="47.33061" lon="-2.31761">
        <ele>-8.8000001907349</ele>
        <time>2019-12-26T10:16:18.000Z</time>
      </trkpt>
      <trkpt lat="47.33062" lon="-2.31769">
        <ele>-8.3999996185303</ele>
        <time>2019-12-26T10:16:19.000Z</time>
      </trkpt>
      <trkpt lat="47.33062" lon="-2.31777">
        <ele>-8</ele>
        <time>2019-12-26T10:16:20.000Z</time>
      </trkpt>
      <trkpt lat="47.33061" lon="-2.31785">
        <ele>-7.5999999046326</ele>
        <time>2019-12-26T10:16:21.000Z</time>
      </trkpt>
      <trkpt lat="47.33061" lon="-2.31793">
        <ele>-7</ele>
        <time>2019-12-26T10:16:22.000Z</time>
      </trkpt>
      <trkpt lat="47.33059" lon="-2.318">
        <ele>-7</ele>
        <time>2019-12-26T10:16:23.000Z</time>
      </trkpt>
      <trkpt lat="47.33053" lon="-2.31813">
        <ele>-7</ele>
        <time>2019-12-26T10:16:25.000Z</time>
      </trkpt>
      <trkpt lat="47.33037" lon="-2.31831">
        <ele>-7</ele>
        <time>2019-12-26T10:16:29.000Z</time>
      </trkpt>
      <trkpt lat="47.33032" lon="-2.31836">
        <ele>-7</ele>
        <time>2019-12-26T10:16:30.000Z</time>
      </trkpt>
      <trkpt lat="47.33002" lon="-2.31861">
        <ele>-7</ele>
        <time>2019-12-26T10:16:36.000Z</time>
      </trkpt>
      <trkpt lat="47.32997" lon="-2.31865">
        <ele>-6.5999999046326</ele>
        <time>2019-12-26T10:16:37.000Z</time>
      </trkpt>
      <trkpt lat="47.32992" lon="-2.31869">
        <ele>-6.1999998092651</ele>
        <time>2019-12-26T10:16:38.000Z</time>
      </trkpt>
      <trkpt lat="47.32987" lon="-2.31873">
        <ele>-5.1999998092651</ele>
        <time>2019-12-26T10:16:39.000Z</time>
      </trkpt>
      <trkpt lat="47.32982" lon="-2.31878">
        <ele>-4.8000001907349</ele>
        <time>2019-12-26T10:16:40.000Z</time>
      </trkpt>
      <trkpt lat="47.32967" lon="-2.31892">
        <ele>-4.8000001907349</ele>
        <time>2019-12-26T10:16:43.000Z</time>
      </trkpt>
      <trkpt lat="47.32943" lon="-2.31914">
        <ele>-4.8000001907349</ele>
        <time>2019-12-26T10:16:48.000Z</time>
      </trkpt>
      <trkpt lat="47.32934" lon="-2.31921">
        <ele>-4.8000001907349</ele>
        <time>2019-12-26T10:16:50.000Z</time>
      </trkpt>
      <trkpt lat="47.32925" lon="-2.3193">
        <ele>-4.8000001907349</ele>
        <time>2019-12-26T10:16:52.000Z</time>
      </trkpt>
      <trkpt lat="47.32912" lon="-2.31943">
        <ele>-4.8000001907349</ele>
        <time>2019-12-26T10:16:55.000Z</time>
      </trkpt>
      <trkpt lat="47.329" lon="-2.31955">
        <ele>-4.8000001907349</ele>
        <time>2019-12-26T10:16:58.000Z</time>
      </trkpt>
      <trkpt lat="47.32887" lon="-2.31967">
        <ele>-4.8000001907349</ele>
        <time>2019-12-26T10:17:01.000Z</time>
      </trkpt>
      <trkpt lat="47.32856" lon="-2.31993">
        <ele>-4.8000001907349</ele>
        <time>2019-12-26T10:17:07.000Z</time>
      </trkpt>
      <trkpt lat="47.32817" lon="-2.32019">
        <ele>-4.8000001907349</ele>
        <time>2019-12-26T10:17:14.000Z</time>
      </trkpt>
      <trkpt lat="47.3278" lon="-2.32037">
        <ele>-4.8000001907349</ele>
        <time>2019-12-26T10:17:20.000Z</time>
      </trkpt>
      <trkpt lat="47.32736" lon="-2.32059">
        <ele>-4.8000001907349</ele>
        <time>2019-12-26T10:17:28.000Z</time>
      </trkpt>
      <trkpt lat="47.32709" lon="-2.3207">
        <ele>-4.8000001907349</ele>
        <time>2019-12-26T10:17:33.000Z</time>
      </trkpt>
      <trkpt lat="47.32668" lon="-2.32087">
        <ele>-4.8000001907349</ele>
        <time>2019-12-26T10:17:40.000Z</time>
      </trkpt>
      <trkpt lat="47.32635" lon="-2.32095">
        <ele>-4.8000001907349</ele>
        <time>2019-12-26T10:17:46.000Z</time>
      </trkpt>
      <trkpt lat="47.32629" lon="-2.32095">
        <ele>-4.8000001907349</ele>
        <time>2019-12-26T10:17:47.000Z</time>
      </trkpt>
      <trkpt lat="47.32602" lon="-2.32099">
        <ele>-4.8000001907349</ele>
        <time>2019-12-26T10:17:53.000Z</time>
      </trkpt>
      <trkpt lat="47.32598" lon="-2.32103">
        <ele>-4.8000001907349</ele>
        <time>2019-12-26T10:17:54.000Z</time>
      </trkpt>
      <trkpt lat="47.32592" lon="-2.32115">
        <ele>-4.8000001907349</ele>
        <time>2019-12-26T10:17:56.000Z</time>
      </trkpt>
      <trkpt lat="47.32576" lon="-2.32167">
        <ele>-4.8000001907349</ele>
        <time>2019-12-26T10:18:02.000Z</time>
      </trkpt>
      <trkpt lat="47.32555" lon="-2.32231">
        <ele>-4.8000001907349</ele>
        <time>2019-12-26T10:18:09.000Z</time>
      </trkpt>
      <trkpt lat="47.32544" lon="-2.32264">
        <ele>-4.8000001907349</ele>
        <time>2019-12-26T10:18:14.000Z</time>
      </trkpt>
      <trkpt lat="47.32534" lon="-2.32297">
        <ele>-4.8000001907349</ele>
        <time>2019-12-26T10:18:20.000Z</time>
      </trkpt>
      <trkpt lat="47.32527" lon="-2.32333">
        <ele>-4.4000000953674</ele>
        <time>2019-12-26T10:18:26.000Z</time>
      </trkpt>
      <trkpt lat="47.32525" lon="-2.32339">
        <ele>-4</ele>
        <time>2019-12-26T10:18:27.000Z</time>
      </trkpt>
      <trkpt lat="47.32522" lon="-2.32346">
        <ele>-3.4000000953674</ele>
        <time>2019-12-26T10:18:28.000Z</time>
      </trkpt>
      <trkpt lat="47.3252" lon="-2.32353">
        <ele>-2.5999999046326</ele>
        <time>2019-12-26T10:18:29.000Z</time>
      </trkpt>
      <trkpt lat="47.32514" lon="-2.32375">
        <ele>-2.5999999046326</ele>
        <time>2019-12-26T10:18:32.000Z</time>
      </trkpt>
      <trkpt lat="47.32501" lon="-2.32428">
        <ele>-2.5999999046326</ele>
        <time>2019-12-26T10:18:39.000Z</time>
      </trkpt>
      <trkpt lat="47.32488" lon="-2.32487">
        <ele>-2.5999999046326</ele>
        <time>2019-12-26T10:18:47.000Z</time>
      </trkpt>
      <trkpt lat="47.32481" lon="-2.32522">
        <ele>-3</ele>
        <time>2019-12-26T10:18:51.000Z</time>
      </trkpt>
      <trkpt lat="47.32479" lon="-2.32532">
        <ele>-3.4000000953674</ele>
        <time>2019-12-26T10:18:52.000Z</time>
      </trkpt>
      <trkpt lat="47.32478" lon="-2.32541">
        <ele>-3.7999999523163</ele>
        <time>2019-12-26T10:18:53.000Z</time>
      </trkpt>
      <trkpt lat="47.32476" lon="-2.3255">
        <ele>-4.5999999046326</ele>
        <time>2019-12-26T10:18:54.000Z</time>
      </trkpt>
      <trkpt lat="47.3247" lon="-2.32575">
        <ele>-4.5999999046326</ele>
        <time>2019-12-26T10:18:57.000Z</time>
      </trkpt>
      <trkpt lat="47.32464" lon="-2.32588">
        <ele>-4.5999999046326</ele>
        <time>2019-12-26T10:18:59.000Z</time>
      </trkpt>
      <trkpt lat="47.32451" lon="-2.32605">
        <ele>-4.5999999046326</ele>
        <time>2019-12-26T10:19:03.000Z</time>
      </trkpt>
      <trkpt lat="47.32448" lon="-2.32608">
        <ele>-4.5999999046326</ele>
        <time>2019-12-26T10:19:04.000Z</time>
      </trkpt>
      <trkpt lat="47.32439" lon="-2.32624">
        <ele>-4.5999999046326</ele>
        <time>2019-12-26T10:19:08.000Z</time>
      </trkpt>
      <trkpt lat="47.3244" lon="-2.3263">
        <ele>-4.5999999046326</ele>
        <time>2019-12-26T10:19:09.000Z</time>
      </trkpt>
      <trkpt lat="47.32444" lon="-2.32647">
        <ele>-4.1999998092651</ele>
        <time>2019-12-26T10:19:12.000Z</time>
      </trkpt>
      <trkpt lat="47.32446" lon="-2.32653">
        <ele>-3.7999999523163</ele>
        <time>2019-12-26T10:19:13.000Z</time>
      </trkpt>
      <trkpt lat="47.32447" lon="-2.32659">
        <ele>-3.4000000953674</ele>
        <time>2019-12-26T10:19:14.000Z</time>
      </trkpt>
      <trkpt lat="47.32449" lon="-2.32664">
        <ele>-3</ele>
        <time>2019-12-26T10:19:15.000Z</time>
      </trkpt>
      <trkpt lat="47.3245" lon="-2.3267">
        <ele>-2.5999999046326</ele>
        <time>2019-12-26T10:19:16.000Z</time>
      </trkpt>
      <trkpt lat="47.32455" lon="-2.32687">
        <ele>-2.2000000476837</ele>
        <time>2019-12-26T10:19:19.000Z</time>
      </trkpt>
      <trkpt lat="47.32456" lon="-2.32692">
        <ele>-1.7999999523163</ele>
        <time>2019-12-26T10:19:20.000Z</time>
      </trkpt>
      <trkpt lat="47.32457" lon="-2.32698">
        <ele>-1.3999999761581</ele>
        <time>2019-12-26T10:19:21.000Z</time>
      </trkpt>
      <trkpt lat="47.32459" lon="-2.32704">
        <ele>-1</ele>
        <time>2019-12-26T10:19:22.000Z</time>
      </trkpt>
      <trkpt lat="47.3246" lon="-2.3271">
        <ele>-0.40000000596046</ele>
        <time>2019-12-26T10:19:23.000Z</time>
      </trkpt>
      <trkpt lat="47.32461" lon="-2.32716">
        <ele>-0.40000000596046</ele>
        <time>2019-12-26T10:19:24.000Z</time>
      </trkpt>
      <trkpt lat="47.32466" lon="-2.32733">
        <ele>-0.40000000596046</ele>
        <time>2019-12-26T10:19:27.000Z</time>
      </trkpt>
      <trkpt lat="47.32469" lon="-2.32745">
        <ele>-0.40000000596046</ele>
        <time>2019-12-26T10:19:29.000Z</time>
      </trkpt>
      <trkpt lat="47.32472" lon="-2.32756">
        <ele>-0.40000000596046</ele>
        <time>2019-12-26T10:19:31.000Z</time>
      </trkpt>
      <trkpt lat="47.32475" lon="-2.32768">
        <ele>14.7</ele>
        <time>2019-12-26T10:19:33.000Z</time>
      </trkpt>
      <trkpt lat="47.32476" lon="-2.32774">
        <ele>0.40000000596046</ele>
        <time>2019-12-26T10:19:34.000Z</time>
      </trkpt>
      <trkpt lat="47.32477" lon="-2.3278">
        <ele>0.80000001192093</ele>
        <time>2019-12-26T10:19:35.000Z</time>
      </trkpt>
      <trkpt lat="47.32478" lon="-2.32786">
        <ele>1.3999999761581</ele>
        <time>2019-12-26T10:19:36.000Z</time>
      </trkpt>
      <trkpt lat="47.3248" lon="-2.32792">
        <ele>1.7999999523163</ele>
        <time>2019-12-26T10:19:37.000Z</time>
      </trkpt>
      <trkpt lat="47.32486" lon="-2.32817">
        <ele>1.7999999523163</ele>
        <time>2019-12-26T10:19:41.000Z</time>
      </trkpt>
      <trkpt lat="47.32491" lon="-2.32843">
        <ele>2.2000000476837</ele>
        <time>2019-12-26T10:19:45.000Z</time>
      </trkpt>
      <trkpt lat="47.32492" lon="-2.32849">
        <ele>2.7999999523163</ele>
        <time>2019-12-26T10:19:46.000Z</time>
      </trkpt>
      <trkpt lat="47.32493" lon="-2.32856">
        <ele>3.2000000476837</ele>
        <time>2019-12-26T10:19:47.000Z</time>
      </trkpt>
      <trkpt lat="47.32494" lon="-2.32862">
        <ele>3.7999999523163</ele>
        <time>2019-12-26T10:19:48.000Z</time>
      </trkpt>
      <trkpt lat="47.32496" lon="-2.32869">
        <ele>4.1999998092651</ele>
        <time>2019-12-26T10:19:49.000Z</time>
      </trkpt>
      <trkpt lat="47.32505" lon="-2.3292">
        <ele>4.1999998092651</ele>
        <time>2019-12-26T10:19:56.000Z</time>
      </trkpt>
      <trkpt lat="47.32507" lon="-2.32928">
        <ele>3.7999999523163</ele>
        <time>2019-12-26T10:19:57.000Z</time>
      </trkpt>
      <trkpt lat="47.32508" lon="-2.32936">
        <ele>3.4000000953674</ele>
        <time>2019-12-26T10:19:58.000Z</time>
      </trkpt>
      <trkpt lat="47.32509" lon="-2.32945">
        <ele>3</ele>
        <time>2019-12-26T10:19:59.000Z</time>
      </trkpt>
      <trkpt lat="47.32511" lon="-2.32954">
        <ele>2.5999999046326</ele>
        <time>2019-12-26T10:20:00.000Z</time>
      </trkpt>
      <trkpt lat="47.32512" lon="-2.32964">
        <ele>2.2000000476837</ele>
        <time>2019-12-26T10:20:01.000Z</time>
      </trkpt>
      <trkpt lat="47.32513" lon="-2.32973">
        <ele>2.2000000476837</ele>
        <time>2019-12-26T10:20:02.000Z</time>
      </trkpt>
      <trkpt lat="47.32515" lon="-2.33019">
        <ele>2.2000000476837</ele>
        <time>2019-12-26T10:20:07.000Z</time>
      </trkpt>
      <trkpt lat="47.32514" lon="-2.33082">
        <ele>2.2000000476837</ele>
        <time>2019-12-26T10:20:14.000Z</time>
      </trkpt>
      <trkpt lat="47.32512" lon="-2.33149">
        <ele>2.2000000476837</ele>
        <time>2019-12-26T10:20:22.000Z</time>
      </trkpt>
      <trkpt lat="47.32512" lon="-2.33158">
        <ele>2.2000000476837</ele>
        <time>2019-12-26T10:20:23.000Z</time>
      </trkpt>
      <trkpt lat="47.32512" lon="-2.33188">
        <ele>2.2000000476837</ele>
        <time>2019-12-26T10:20:27.000Z</time>
      </trkpt>
      <trkpt lat="47.32512" lon="-2.33194">
        <ele>2.2000000476837</ele>
        <time>2019-12-26T10:20:28.000Z</time>
      </trkpt>
      <trkpt lat="47.32507" lon="-2.33204">
        <ele>2.2000000476837</ele>
        <time>2019-12-26T10:20:30.000Z</time>
      </trkpt>
      <trkpt lat="47.32502" lon="-2.33206">
        <ele>1.6000000238419</ele>
        <time>2019-12-26T10:20:31.000Z</time>
      </trkpt>
      <trkpt lat="47.32498" lon="-2.33207">
        <ele>1.2000000476837</ele>
        <time>2019-12-26T10:20:32.000Z</time>
      </trkpt>
      <trkpt lat="47.32492" lon="-2.33207">
        <ele>0.40000000596046</ele>
        <time>2019-12-26T10:20:34.000Z</time>
      </trkpt>
      <trkpt lat="47.32487" lon="-2.33207">
        <ele>13.2</ele>
        <time>2019-12-26T10:20:35.000Z</time>
      </trkpt>
      <trkpt lat="47.32469" lon="-2.33207">
        <ele>13.6</ele>
        <time>2019-12-26T10:20:39.000Z</time>
      </trkpt>
      <trkpt lat="47.3246" lon="-2.33206">
        <ele>13.9</ele>
        <time>2019-12-26T10:20:41.000Z</time>
      </trkpt>
      <trkpt lat="47.32438" lon="-2.33205">
        <ele>14.8</ele>
        <time>2019-12-26T10:20:47.000Z</time>
      </trkpt>
      <trkpt lat="47.32424" lon="-2.33206">
        <ele>0.40000000596046</ele>
        <time>2019-12-26T10:20:51.000Z</time>
      </trkpt>
      <trkpt lat="47.3242" lon="-2.33206">
        <ele>0.80000001192093</ele>
        <time>2019-12-26T10:20:52.000Z</time>
      </trkpt>
      <trkpt lat="47.32416" lon="-2.33206">
        <ele>1.6000000238419</ele>
        <time>2019-12-26T10:20:53.000Z</time>
      </trkpt>
      <trkpt lat="47.32413" lon="-2.33205">
        <ele>2</ele>
        <time>2019-12-26T10:20:54.000Z</time>
      </trkpt>
      <trkpt lat="47.3239" lon="-2.33205">
        <ele>2</ele>
        <time>2019-12-26T10:21:00.000Z</time>
      </trkpt>
      <trkpt lat="47.32366" lon="-2.33206">
        <ele>2</ele>
        <time>2019-12-26T10:21:06.000Z</time>
      </trkpt>
      <trkpt lat="47.32362" lon="-2.33206">
        <ele>2.4000000953674</ele>
        <time>2019-12-26T10:21:07.000Z</time>
      </trkpt>
      <trkpt lat="47.32358" lon="-2.33207">
        <ele>2.7999999523163</ele>
        <time>2019-12-26T10:21:08.000Z</time>
      </trkpt>
      <trkpt lat="47.32354" lon="-2.33207">
        <ele>3.4000000953674</ele>
        <time>2019-12-26T10:21:09.000Z</time>
      </trkpt>
      <trkpt lat="47.3235" lon="-2.33208">
        <ele>3.7999999523163</ele>
        <time>2019-12-26T10:21:10.000Z</time>
      </trkpt>
      <trkpt lat="47.32347" lon="-2.33208">
        <ele>4.1999998092651</ele>
        <time>2019-12-26T10:21:11.000Z</time>
      </trkpt>
      <trkpt lat="47.32341" lon="-2.33208">
        <ele>4.1999998092651</ele>
        <time>2019-12-26T10:21:13.000Z</time>
      </trkpt>
      <trkpt lat="47.32327" lon="-2.33207">
        <ele>4.1999998092651</ele>
        <time>2019-12-26T10:21:19.000Z</time>
      </trkpt>
      <trkpt lat="47.32311" lon="-2.33206">
        <ele>4.1999998092651</ele>
        <time>2019-12-26T10:21:25.000Z</time>
      </trkpt>
      <trkpt lat="47.32296" lon="-2.33201">
        <ele>4.1999998092651</ele>
        <time>2019-12-26T10:21:31.000Z</time>
      </trkpt>
      <trkpt lat="47.32278" lon="-2.33189">
        <ele>4.1999998092651</ele>
        <time>2019-12-26T10:21:35.000Z</time>
      </trkpt>
      <trkpt lat="47.32258" lon="-2.33171">
        <ele>4.1999998092651</ele>
        <time>2019-12-26T10:21:39.000Z</time>
      </trkpt>
      <trkpt lat="47.32252" lon="-2.33164">
        <ele>4.1999998092651</ele>
        <time>2019-12-26T10:21:40.000Z</time>
      </trkpt>
      <trkpt lat="47.32242" lon="-2.3315">
        <ele>3.2000000476837</ele>
        <time>2019-12-26T10:21:42.000Z</time>
      </trkpt>
      <trkpt lat="47.32236" lon="-2.33142">
        <ele>2.7999999523163</ele>
        <time>2019-12-26T10:21:43.000Z</time>
      </trkpt>
      <trkpt lat="47.32231" lon="-2.33133">
        <ele>2.4000000953674</ele>
        <time>2019-12-26T10:21:44.000Z</time>
      </trkpt>
      <trkpt lat="47.32225" lon="-2.33126">
        <ele>2</ele>
        <time>2019-12-26T10:21:45.000Z</time>
      </trkpt>
      <trkpt lat="47.32189" lon="-2.3308">
        <ele>2</ele>
        <time>2019-12-26T10:21:51.000Z</time>
      </trkpt>
      <trkpt lat="47.32168" lon="-2.33063">
        <ele>2</ele>
        <time>2019-12-26T10:21:54.000Z</time>
      </trkpt>
      <trkpt lat="47.32161" lon="-2.33058">
        <ele>1.3999999761581</ele>
        <time>2019-12-26T10:21:55.000Z</time>
      </trkpt>
      <trkpt lat="47.32152" lon="-2.33055">
        <ele>0.80000001192093</ele>
        <time>2019-12-26T10:21:56.000Z</time>
      </trkpt>
      <trkpt lat="47.32144" lon="-2.33052">
        <ele>9.1</ele>
        <time>2019-12-26T10:21:57.000Z</time>
      </trkpt>
      <trkpt lat="47.32135" lon="-2.3305">
        <ele>-0.80000001192093</ele>
        <time>2019-12-26T10:21:58.000Z</time>
      </trkpt>
      <trkpt lat="47.32126" lon="-2.33047">
        <ele>-1.6000000238419</ele>
        <time>2019-12-26T10:21:59.000Z</time>
      </trkpt>
      <trkpt lat="47.32118" lon="-2.33046">
        <ele>-2.4000000953674</ele>
        <time>2019-12-26T10:22:00.000Z</time>
      </trkpt>
      <trkpt lat="47.32109" lon="-2.33045">
        <ele>-3.2000000476837</ele>
        <time>2019-12-26T10:22:01.000Z</time>
      </trkpt>
      <trkpt lat="47.32079" lon="-2.33041">
        <ele>-3.2000000476837</ele>
        <time>2019-12-26T10:22:05.000Z</time>
      </trkpt>
      <trkpt lat="47.3203" lon="-2.33036">
        <ele>-3.2000000476837</ele>
        <time>2019-12-26T10:22:12.000Z</time>
      </trkpt>
      <trkpt lat="47.31995" lon="-2.33033">
        <ele>-3.2000000476837</ele>
        <time>2019-12-26T10:22:18.000Z</time>
      </trkpt>
      <trkpt lat="47.31956" lon="-2.33028">
        <ele>-3.2000000476837</ele>
        <time>2019-12-26T10:22:25.000Z</time>
      </trkpt>
      <trkpt lat="47.31947" lon="-2.33027">
        <ele>-2.7999999523163</ele>
        <time>2019-12-26T10:22:27.000Z</time>
      </trkpt>
      <trkpt lat="47.31942" lon="-2.33026">
        <ele>-2.4000000953674</ele>
        <time>2019-12-26T10:22:28.000Z</time>
      </trkpt>
      <trkpt lat="47.31937" lon="-2.33026">
        <ele>-2</ele>
        <time>2019-12-26T10:22:29.000Z</time>
      </trkpt>
      <trkpt lat="47.31932" lon="-2.33025">
        <ele>-1.6000000238419</ele>
        <time>2019-12-26T10:22:30.000Z</time>
      </trkpt>
      <trkpt lat="47.31927" lon="-2.33025">
        <ele>-1.2000000476837</ele>
        <time>2019-12-26T10:22:31.000Z</time>
      </trkpt>
      <trkpt lat="47.31913" lon="-2.33025">
        <ele>-1.2000000476837</ele>
        <time>2019-12-26T10:22:34.000Z</time>
      </trkpt>
      <trkpt lat="47.31904" lon="-2.33025">
        <ele>-1.2000000476837</ele>
        <time>2019-12-26T10:22:36.000Z</time>
      </trkpt>
      <trkpt lat="47.31884" lon="-2.33026">
        <ele>-1.2000000476837</ele>
        <time>2019-12-26T10:22:41.000Z</time>
      </trkpt>
      <trkpt lat="47.31881" lon="-2.33031">
        <ele>-1.2000000476837</ele>
        <time>2019-12-26T10:22:42.000Z</time>
      </trkpt>
      <trkpt lat="47.31879" lon="-2.33045">
        <ele>-1.2000000476837</ele>
        <time>2019-12-26T10:22:45.000Z</time>
      </trkpt>
      <trkpt lat="47.3188" lon="-2.33049">
        <ele>-0.80000001192093</ele>
        <time>2019-12-26T10:22:46.000Z</time>
      </trkpt>
      <trkpt lat="47.3188" lon="-2.33054">
        <ele>-0.40000000596046</ele>
        <time>2019-12-26T10:22:47.000Z</time>
      </trkpt>
      <trkpt lat="47.3188" lon="-2.33059">
        <ele>0.20000000298023</ele>
        <time>2019-12-26T10:22:48.000Z</time>
      </trkpt>
      <trkpt lat="47.31881" lon="-2.33064">
        <ele>0.60000002384186</ele>
        <time>2019-12-26T10:22:49.000Z</time>
      </trkpt>
      <trkpt lat="47.31881" lon="-2.33068">
        <ele>1</ele>
        <time>2019-12-26T10:22:50.000Z</time>
      </trkpt>
      <trkpt lat="47.31882" lon="-2.33076">
        <ele>1</ele>
        <time>2019-12-26T10:22:52.000Z</time>
      </trkpt>
      <trkpt lat="47.3188" lon="-2.33099">
        <ele>1</ele>
        <time>2019-12-26T10:22:58.000Z</time>
      </trkpt>
      <trkpt lat="47.31881" lon="-2.33112">
        <ele>1</ele>
        <time>2019-12-26T10:23:02.000Z</time>
      </trkpt>
      <trkpt lat="47.31881" lon="-2.33119">
        <ele>1.3999999761581</ele>
        <time>2019-12-26T10:23:04.000Z</time>
      </trkpt>
      <trkpt lat="47.31879" lon="-2.33122">
        <ele>1.7999999523163</ele>
        <time>2019-12-26T10:23:05.000Z</time>
      </trkpt>
      <trkpt lat="47.31879" lon="-2.33125">
        <ele>2.2000000476837</ele>
        <time>2019-12-26T10:23:06.000Z</time>
      </trkpt>
      <trkpt lat="47.31878" lon="-2.33128">
        <ele>2.5999999046326</ele>
        <time>2019-12-26T10:23:07.000Z</time>
      </trkpt>
      <trkpt lat="47.31877" lon="-2.33132">
        <ele>3</ele>
        <time>2019-12-26T10:23:08.000Z</time>
      </trkpt>
      <trkpt lat="47.31872" lon="-2.33156">
        <ele>3</ele>
        <time>2019-12-26T10:23:13.000Z</time>
      </trkpt>
      <trkpt lat="47.31871" lon="-2.33176">
        <ele>3.4000000953674</ele>
        <time>2019-12-26T10:23:17.000Z</time>
      </trkpt>
      <trkpt lat="47.31871" lon="-2.33183">
        <ele>3.7999999523163</ele>
        <time>2019-12-26T10:23:18.000Z</time>
      </trkpt>
      <trkpt lat="47.3187" lon="-2.33189">
        <ele>4.1999998092651</ele>
        <time>2019-12-26T10:23:19.000Z</time>
      </trkpt>
      <trkpt lat="47.3187" lon="-2.33194">
        <ele>4.8000001907349</ele>
        <time>2019-12-26T10:23:20.000Z</time>
      </trkpt>
      <trkpt lat="47.3187" lon="-2.33199">
        <ele>5.1999998092651</ele>
        <time>2019-12-26T10:23:21.000Z</time>
      </trkpt>
      <trkpt lat="47.31865" lon="-2.33224">
        <ele>5.1999998092651</ele>
        <time>2019-12-26T10:23:26.000Z</time>
      </trkpt>
      <trkpt lat="47.31859" lon="-2.33247">
        <ele>5.1999998092651</ele>
        <time>2019-12-26T10:23:31.000Z</time>
      </trkpt>
      <trkpt lat="47.31851" lon="-2.33267">
        <ele>5.5999999046326</ele>
        <time>2019-12-26T10:23:36.000Z</time>
      </trkpt>
      <trkpt lat="47.31849" lon="-2.3327">
        <ele>6</ele>
        <time>2019-12-26T10:23:37.000Z</time>
      </trkpt>
      <trkpt lat="47.31848" lon="-2.33273">
        <ele>6.4000000953674</ele>
        <time>2019-12-26T10:23:38.000Z</time>
      </trkpt>
      <trkpt lat="47.31846" lon="-2.33276">
        <ele>6.8000001907349</ele>
        <time>2019-12-26T10:23:39.000Z</time>
      </trkpt>
      <trkpt lat="47.31844" lon="-2.33279">
        <ele>7.1999998092651</ele>
        <time>2019-12-26T10:23:40.000Z</time>
      </trkpt>
      <trkpt lat="47.31835" lon="-2.33288">
        <ele>7.1999998092651</ele>
        <time>2019-12-26T10:23:44.000Z</time>
      </trkpt>
      <trkpt lat="47.3182" lon="-2.33297">
        <ele>7.1999998092651</ele>
        <time>2019-12-26T10:23:50.000Z</time>
      </trkpt>
      <trkpt lat="47.31811" lon="-2.33308">
        <ele>7.5999999046326</ele>
        <time>2019-12-26T10:23:55.000Z</time>
      </trkpt>
      <trkpt lat="47.31807" lon="-2.33311">
        <ele>8</ele>
        <time>2019-12-26T10:23:56.000Z</time>
      </trkpt>
      <trkpt lat="47.31804" lon="-2.33313">
        <ele>8.3999996185303</ele>
        <time>2019-12-26T10:23:57.000Z</time>
      </trkpt>
      <trkpt lat="47.31802" lon="-2.33315">
        <ele>8.8000001907349</ele>
        <time>2019-12-26T10:23:58.000Z</time>
      </trkpt>
      <trkpt lat="47.318" lon="-2.33317">
        <ele>9.1999998092651</ele>
        <time>2019-12-26T10:23:59.000Z</time>
      </trkpt>
      <trkpt lat="47.31797" lon="-2.33318">
        <ele>9.1999998092651</ele>
        <time>2019-12-26T10:24:00.000Z</time>
      </trkpt>
      <trkpt lat="47.31791" lon="-2.33324">
        <ele>9.6000003814697</ele>
        <time>2019-12-26T10:24:04.000Z</time>
      </trkpt>
      <trkpt lat="47.31789" lon="-2.33325">
        <ele>10.199999809265</ele>
        <time>2019-12-26T10:24:05.000Z</time>
      </trkpt>
      <trkpt lat="47.31786" lon="-2.33326">
        <ele>10.60000038147</ele>
        <time>2019-12-26T10:24:06.000Z</time>
      </trkpt>
      <trkpt lat="47.31784" lon="-2.33327">
        <ele>11</ele>
        <time>2019-12-26T10:24:07.000Z</time>
      </trkpt>
      <trkpt lat="47.31782" lon="-2.33328">
        <ele>11.39999961853</ele>
        <time>2019-12-26T10:24:08.000Z</time>
      </trkpt>
      <trkpt lat="47.31777" lon="-2.33328">
        <ele>11.39999961853</ele>
        <time>2019-12-26T10:24:10.000Z</time>
      </trkpt>
      <trkpt lat="47.31767" lon="-2.33324">
        <ele>11.39999961853</ele>
        <time>2019-12-26T10:24:15.000Z</time>
      </trkpt>
      <trkpt lat="47.31764" lon="-2.33318">
        <ele>11.800000190735</ele>
        <time>2019-12-26T10:24:18.000Z</time>
      </trkpt>
      <trkpt lat="47.31762" lon="-2.33315">
        <ele>12.199999809265</ele>
        <time>2019-12-26T10:24:19.000Z</time>
      </trkpt>
      <trkpt lat="47.3176" lon="-2.33313">
        <ele>12.60000038147</ele>
        <time>2019-12-26T10:24:20.000Z</time>
      </trkpt>
      <trkpt lat="47.31758" lon="-2.3331">
        <ele>13</ele>
        <time>2019-12-26T10:24:21.000Z</time>
      </trkpt>
      <trkpt lat="47.31757" lon="-2.33307">
        <ele>13.39999961853</ele>
        <time>2019-12-26T10:24:22.000Z</time>
      </trkpt>
      <trkpt lat="47.31755" lon="-2.33297">
        <ele>13.39999961853</ele>
        <time>2019-12-26T10:24:25.000Z</time>
      </trkpt>
      <trkpt lat="47.31751" lon="-2.33278">
        <ele>13.39999961853</ele>
        <time>2019-12-26T10:24:31.000Z</time>
      </trkpt>
      <trkpt lat="47.31749" lon="-2.33263">
        <ele>13.39999961853</ele>
        <time>2019-12-26T10:24:35.000Z</time>
      </trkpt>
      <trkpt lat="47.31747" lon="-2.33261">
        <ele>13.39999961853</ele>
        <time>2019-12-26T10:24:36.000Z</time>
      </trkpt>
      <trkpt lat="47.31739" lon="-2.33259">
        <ele>13.800000190735</ele>
        <time>2019-12-26T10:24:39.000Z</time>
      </trkpt>
      <trkpt lat="47.31737" lon="-2.33259">
        <ele>14.199999809265</ele>
        <time>2019-12-26T10:24:40.000Z</time>
      </trkpt>
      <trkpt lat="47.31734" lon="-2.33259">
        <ele>14.800000190735</ele>
        <time>2019-12-26T10:24:41.000Z</time>
      </trkpt>
      <trkpt lat="47.31731" lon="-2.3326">
        <ele>15.199999809265</ele>
        <time>2019-12-26T10:24:42.000Z</time>
      </trkpt>
      <trkpt lat="47.31728" lon="-2.3326">
        <ele>15.60000038147</ele>
        <time>2019-12-26T10:24:43.000Z</time>
      </trkpt>
      <trkpt lat="47.31719" lon="-2.3326">
        <ele>15.60000038147</ele>
        <time>2019-12-26T10:24:46.000Z</time>
      </trkpt>
      <trkpt lat="47.31716" lon="-2.33261">
        <ele>15.60000038147</ele>
        <time>2019-12-26T10:24:47.000Z</time>
      </trkpt>
      <trkpt lat="47.31701" lon="-2.33264">
        <ele>15.60000038147</ele>
        <time>2019-12-26T10:24:52.000Z</time>
      </trkpt>
      <trkpt lat="47.31687" lon="-2.33269">
        <ele>16</ele>
        <time>2019-12-26T10:24:56.000Z</time>
      </trkpt>
      <trkpt lat="47.31683" lon="-2.3327">
        <ele>16.39999961853</ele>
        <time>2019-12-26T10:24:57.000Z</time>
      </trkpt>
      <trkpt lat="47.31679" lon="-2.33272">
        <ele>16.799999237061</ele>
        <time>2019-12-26T10:24:58.000Z</time>
      </trkpt>
      <trkpt lat="47.31675" lon="-2.33274">
        <ele>17.200000762939</ele>
        <time>2019-12-26T10:24:59.000Z</time>
      </trkpt>
      <trkpt lat="47.31671" lon="-2.33276">
        <ele>17.60000038147</ele>
        <time>2019-12-26T10:25:00.000Z</time>
      </trkpt>
      <trkpt lat="47.31659" lon="-2.33281">
        <ele>17.60000038147</ele>
        <time>2019-12-26T10:25:03.000Z</time>
      </trkpt>
      <trkpt lat="47.31632" lon="-2.33295">
        <ele>18</ele>
        <time>2019-12-26T10:25:10.000Z</time>
      </trkpt>
      <trkpt lat="47.31629" lon="-2.33297">
        <ele>18.39999961853</ele>
        <time>2019-12-26T10:25:11.000Z</time>
      </trkpt>
      <trkpt lat="47.31624" lon="-2.33298">
        <ele>18.799999237061</ele>
        <time>2019-12-26T10:25:12.000Z</time>
      </trkpt>
      <trkpt lat="47.3162" lon="-2.333">
        <ele>19.200000762939</ele>
        <time>2019-12-26T10:25:13.000Z</time>
      </trkpt>
      <trkpt lat="47.31616" lon="-2.33302">
        <ele>19.60000038147</ele>
        <time>2019-12-26T10:25:14.000Z</time>
      </trkpt>
      <trkpt lat="47.316" lon="-2.33312">
        <ele>19.60000038147</ele>
        <time>2019-12-26T10:25:18.000Z</time>
      </trkpt>
      <trkpt lat="47.31573" lon="-2.33328">
        <ele>19.60000038147</ele>
        <time>2019-12-26T10:25:25.000Z</time>
      </trkpt>
      <trkpt lat="47.31541" lon="-2.33343">
        <ele>19.60000038147</ele>
        <time>2019-12-26T10:25:33.000Z</time>
      </trkpt>
      <trkpt lat="47.31514" lon="-2.33357">
        <ele>19.60000038147</ele>
        <time>2019-12-26T10:25:40.000Z</time>
      </trkpt>
      <trkpt lat="47.31483" lon="-2.33375">
        <ele>19.60000038147</ele>
        <time>2019-12-26T10:25:49.000Z</time>
      </trkpt>
      <trkpt lat="47.31482" lon="-2.33373">
        <ele>19.60000038147</ele>
        <time>2019-12-26T10:25:50.000Z</time>
      </trkpt>
      <trkpt lat="47.31479" lon="-2.33368">
        <ele>19.60000038147</ele>
        <time>2019-12-26T10:25:52.000Z</time>
      </trkpt>
      <trkpt lat="47.31469" lon="-2.33348">
        <ele>19.60000038147</ele>
        <time>2019-12-26T10:25:57.000Z</time>
      </trkpt>
      <trkpt lat="47.31459" lon="-2.33328">
        <ele>19.60000038147</ele>
        <time>2019-12-26T10:26:01.000Z</time>
      </trkpt>
      <trkpt lat="47.31453" lon="-2.33318">
        <ele>19.60000038147</ele>
        <time>2019-12-26T10:26:03.000Z</time>
      </trkpt>
      <trkpt lat="47.31431" lon="-2.33287">
        <ele>19.60000038147</ele>
        <time>2019-12-26T10:26:10.000Z</time>
      </trkpt>
      <trkpt lat="47.31399" lon="-2.3326">
        <ele>19.60000038147</ele>
        <time>2019-12-26T10:26:18.000Z</time>
      </trkpt>
      <trkpt lat="47.3138" lon="-2.33246">
        <ele>19.60000038147</ele>
        <time>2019-12-26T10:26:23.000Z</time>
      </trkpt>
      <trkpt lat="47.31355" lon="-2.33229">
        <ele>19.60000038147</ele>
        <time>2019-12-26T10:26:29.000Z</time>
      </trkpt>
      <trkpt lat="47.31324" lon="-2.33199">
        <ele>19.60000038147</ele>
        <time>2019-12-26T10:26:36.000Z</time>
      </trkpt>
      <trkpt lat="47.31303" lon="-2.33181">
        <ele>19.200000762939</ele>
        <time>2019-12-26T10:26:41.000Z</time>
      </trkpt>
      <trkpt lat="47.31299" lon="-2.33177">
        <ele>18.799999237061</ele>
        <time>2019-12-26T10:26:42.000Z</time>
      </trkpt>
      <trkpt lat="47.31294" lon="-2.33174">
        <ele>18.39999961853</ele>
        <time>2019-12-26T10:26:43.000Z</time>
      </trkpt>
      <trkpt lat="47.31289" lon="-2.3317">
        <ele>17.799999237061</ele>
        <time>2019-12-26T10:26:44.000Z</time>
      </trkpt>
      <trkpt lat="47.31285" lon="-2.33168">
        <ele>17.39999961853</ele>
        <time>2019-12-26T10:26:45.000Z</time>
      </trkpt>
      <trkpt lat="47.31271" lon="-2.33161">
        <ele>17.39999961853</ele>
        <time>2019-12-26T10:26:48.000Z</time>
      </trkpt>
      <trkpt lat="47.31254" lon="-2.33155">
        <ele>17.39999961853</ele>
        <time>2019-12-26T10:26:52.000Z</time>
      </trkpt>
      <trkpt lat="47.31245" lon="-2.33153">
        <ele>17.39999961853</ele>
        <time>2019-12-26T10:26:54.000Z</time>
      </trkpt>
      <trkpt lat="47.31217" lon="-2.33153">
        <ele>17.39999961853</ele>
        <time>2019-12-26T10:27:01.000Z</time>
      </trkpt>
      <trkpt lat="47.31193" lon="-2.33162">
        <ele>17.39999961853</ele>
        <time>2019-12-26T10:27:07.000Z</time>
      </trkpt>
      <trkpt lat="47.31176" lon="-2.3317">
        <ele>17.39999961853</ele>
        <time>2019-12-26T10:27:12.000Z</time>
      </trkpt>
      <trkpt lat="47.31156" lon="-2.33182">
        <ele>17.39999961853</ele>
        <time>2019-12-26T10:27:18.000Z</time>
      </trkpt>
      <trkpt lat="47.31141" lon="-2.33194">
        <ele>17.39999961853</ele>
        <time>2019-12-26T10:27:23.000Z</time>
      </trkpt>
      <trkpt lat="47.3112" lon="-2.33207">
        <ele>17.39999961853</ele>
        <time>2019-12-26T10:27:30.000Z</time>
      </trkpt>
      <trkpt lat="47.31111" lon="-2.33216">
        <ele>17.39999961853</ele>
        <time>2019-12-26T10:27:35.000Z</time>
      </trkpt>
      <trkpt lat="47.31111" lon="-2.33216">
        <ele>17.39999961853</ele>
        <time>2019-12-26T10:27:36.000Z</time>
      </trkpt>
      <trkpt lat="47.31109" lon="-2.33222">
        <ele>17.39999961853</ele>
        <time>2019-12-26T10:27:53.000Z</time>
      </trkpt>
      <trkpt lat="47.31108" lon="-2.33226">
        <ele>17.39999961853</ele>
        <time>2019-12-26T10:27:54.000Z</time>
      </trkpt>
      <trkpt lat="47.31107" lon="-2.33247">
        <ele>17.39999961853</ele>
        <time>2019-12-26T10:27:58.000Z</time>
      </trkpt>
      <trkpt lat="47.31106" lon="-2.33267">
        <ele>17.39999961853</ele>
        <time>2019-12-26T10:28:00.000Z</time>
      </trkpt>
      <trkpt lat="47.31106" lon="-2.33274">
        <ele>17.799999237061</ele>
        <time>2019-12-26T10:28:02.000Z</time>
      </trkpt>
      <trkpt lat="47.31106" lon="-2.33282">
        <ele>18.200000762939</ele>
        <time>2019-12-26T10:28:03.000Z</time>
      </trkpt>
      <trkpt lat="47.31106" lon="-2.33289">
        <ele>18.60000038147</ele>
        <time>2019-12-26T10:28:04.000Z</time>
      </trkpt>
      <trkpt lat="47.31105" lon="-2.33297">
        <ele>19.200000762939</ele>
        <time>2019-12-26T10:28:05.000Z</time>
      </trkpt>
      <trkpt lat="47.31105" lon="-2.33304">
        <ele>19.60000038147</ele>
        <time>2019-12-26T10:28:06.000Z</time>
      </trkpt>
      <trkpt lat="47.31104" lon="-2.33325">
        <ele>19.60000038147</ele>
        <time>2019-12-26T10:28:09.000Z</time>
      </trkpt>
      <trkpt lat="47.31101" lon="-2.33374">
        <ele>19.60000038147</ele>
        <time>2019-12-26T10:28:16.000Z</time>
      </trkpt>
      <trkpt lat="47.311" lon="-2.3342">
        <ele>19.60000038147</ele>
        <time>2019-12-26T10:28:23.000Z</time>
      </trkpt>
      <trkpt lat="47.31102" lon="-2.33447">
        <ele>19.60000038147</ele>
        <time>2019-12-26T10:28:28.000Z</time>
      </trkpt>
      <trkpt lat="47.31104" lon="-2.3348">
        <ele>19.60000038147</ele>
        <time>2019-12-26T10:28:34.000Z</time>
      </trkpt>
      <trkpt lat="47.31105" lon="-2.33496">
        <ele>20</ele>
        <time>2019-12-26T10:28:37.000Z</time>
      </trkpt>
      <trkpt lat="47.31106" lon="-2.33501">
        <ele>20.39999961853</ele>
        <time>2019-12-26T10:28:38.000Z</time>
      </trkpt>
      <trkpt lat="47.31107" lon="-2.33506">
        <ele>20.799999237061</ele>
        <time>2019-12-26T10:28:39.000Z</time>
      </trkpt>
      <trkpt lat="47.31109" lon="-2.33512">
        <ele>21.200000762939</ele>
        <time>2019-12-26T10:28:40.000Z</time>
      </trkpt>
      <trkpt lat="47.3111" lon="-2.33518">
        <ele>21.60000038147</ele>
        <time>2019-12-26T10:28:41.000Z</time>
      </trkpt>
      <trkpt lat="47.31113" lon="-2.33541">
        <ele>21.60000038147</ele>
        <time>2019-12-26T10:28:45.000Z</time>
      </trkpt>
      <trkpt lat="47.31114" lon="-2.3357">
        <ele>21.60000038147</ele>
        <time>2019-12-26T10:28:50.000Z</time>
      </trkpt>
      <trkpt lat="47.31115" lon="-2.33612">
        <ele>21.60000038147</ele>
        <time>2019-12-26T10:28:56.000Z</time>
      </trkpt>
      <trkpt lat="47.31113" lon="-2.33652">
        <ele>21.60000038147</ele>
        <time>2019-12-26T10:29:02.000Z</time>
      </trkpt>
      <trkpt lat="47.31105" lon="-2.33708">
        <ele>21.60000038147</ele>
        <time>2019-12-26T10:29:10.000Z</time>
      </trkpt>
      <trkpt lat="47.31093" lon="-2.33755">
        <ele>21.60000038147</ele>
        <time>2019-12-26T10:29:16.000Z</time>
      </trkpt>
      <trkpt lat="47.3109" lon="-2.33763">
        <ele>21.60000038147</ele>
        <time>2019-12-26T10:29:17.000Z</time>
      </trkpt>
      <trkpt lat="47.31071" lon="-2.33804">
        <ele>21.60000038147</ele>
        <time>2019-12-26T10:29:23.000Z</time>
      </trkpt>
      <trkpt lat="47.31067" lon="-2.33835">
        <ele>21.60000038147</ele>
        <time>2019-12-26T10:29:27.000Z</time>
      </trkpt>
      <trkpt lat="47.31067" lon="-2.33843">
        <ele>21.60000038147</ele>
        <time>2019-12-26T10:29:28.000Z</time>
      </trkpt>
      <trkpt lat="47.31064" lon="-2.33887">
        <ele>21.60000038147</ele>
        <time>2019-12-26T10:29:34.000Z</time>
      </trkpt>
      <trkpt lat="47.31065" lon="-2.33934">
        <ele>21.60000038147</ele>
        <time>2019-12-26T10:29:40.000Z</time>
      </trkpt>
      <trkpt lat="47.31065" lon="-2.33981">
        <ele>21.60000038147</ele>
        <time>2019-12-26T10:29:46.000Z</time>
      </trkpt>
      <trkpt lat="47.31068" lon="-2.3404">
        <ele>21.60000038147</ele>
        <time>2019-12-26T10:29:53.000Z</time>
      </trkpt>
      <trkpt lat="47.31076" lon="-2.34081">
        <ele>21.60000038147</ele>
        <time>2019-12-26T10:29:58.000Z</time>
      </trkpt>
      <trkpt lat="47.31079" lon="-2.34089">
        <ele>21.60000038147</ele>
        <time>2019-12-26T10:29:59.000Z</time>
      </trkpt>
      <trkpt lat="47.311" lon="-2.34135">
        <ele>21.60000038147</ele>
        <time>2019-12-26T10:30:05.000Z</time>
      </trkpt>
      <trkpt lat="47.31112" lon="-2.34159">
        <ele>21.200000762939</ele>
        <time>2019-12-26T10:30:08.000Z</time>
      </trkpt>
      <trkpt lat="47.31116" lon="-2.34168">
        <ele>20.799999237061</ele>
        <time>2019-12-26T10:30:09.000Z</time>
      </trkpt>
      <trkpt lat="47.31121" lon="-2.34176">
        <ele>20.39999961853</ele>
        <time>2019-12-26T10:30:10.000Z</time>
      </trkpt>
      <trkpt lat="47.31125" lon="-2.34185">
        <ele>20</ele>
        <time>2019-12-26T10:30:11.000Z</time>
      </trkpt>
      <trkpt lat="47.31129" lon="-2.34194">
        <ele>19.60000038147</ele>
        <time>2019-12-26T10:30:12.000Z</time>
      </trkpt>
      <trkpt lat="47.31135" lon="-2.34203">
        <ele>19.60000038147</ele>
        <time>2019-12-26T10:30:13.000Z</time>
      </trkpt>
      <trkpt lat="47.3114" lon="-2.34212">
        <ele>19</ele>
        <time>2019-12-26T10:30:14.000Z</time>
      </trkpt>
      <trkpt lat="47.31145" lon="-2.34222">
        <ele>18.60000038147</ele>
        <time>2019-12-26T10:30:15.000Z</time>
      </trkpt>
      <trkpt lat="47.31149" lon="-2.34231">
        <ele>18.200000762939</ele>
        <time>2019-12-26T10:30:16.000Z</time>
      </trkpt>
      <trkpt lat="47.31155" lon="-2.34242">
        <ele>17.60000038147</ele>
        <time>2019-12-26T10:30:17.000Z</time>
      </trkpt>
      <trkpt lat="47.3116" lon="-2.34252">
        <ele>17.200000762939</ele>
        <time>2019-12-26T10:30:18.000Z</time>
      </trkpt>
      <trkpt lat="47.31165" lon="-2.34262">
        <ele>17.200000762939</ele>
        <time>2019-12-26T10:30:19.000Z</time>
      </trkpt>
      <trkpt lat="47.31188" lon="-2.34312">
        <ele>17.200000762939</ele>
        <time>2019-12-26T10:30:24.000Z</time>
      </trkpt>
      <trkpt lat="47.31199" lon="-2.3433">
        <ele>16.799999237061</ele>
        <time>2019-12-26T10:30:26.000Z</time>
      </trkpt>
      <trkpt lat="47.31205" lon="-2.34337">
        <ele>16.39999961853</ele>
        <time>2019-12-26T10:30:27.000Z</time>
      </trkpt>
      <trkpt lat="47.31211" lon="-2.34342">
        <ele>16</ele>
        <time>2019-12-26T10:30:28.000Z</time>
      </trkpt>
      <trkpt lat="47.31217" lon="-2.34347">
        <ele>15.39999961853</ele>
        <time>2019-12-26T10:30:29.000Z</time>
      </trkpt>
      <trkpt lat="47.31224" lon="-2.3435">
        <ele>15</ele>
        <time>2019-12-26T10:30:30.000Z</time>
      </trkpt>
      <trkpt lat="47.31237" lon="-2.34356">
        <ele>15</ele>
        <time>2019-12-26T10:30:32.000Z</time>
      </trkpt>
      <trkpt lat="47.31243" lon="-2.3436">
        <ele>15</ele>
        <time>2019-12-26T10:30:33.000Z</time>
      </trkpt>
      <trkpt lat="47.31254" lon="-2.34369">
        <ele>15</ele>
        <time>2019-12-26T10:30:35.000Z</time>
      </trkpt>
      <trkpt lat="47.31262" lon="-2.34384">
        <ele>15</ele>
        <time>2019-12-26T10:30:37.000Z</time>
      </trkpt>
      <trkpt lat="47.31269" lon="-2.34418">
        <ele>15</ele>
        <time>2019-12-26T10:30:41.000Z</time>
      </trkpt>
      <trkpt lat="47.31269" lon="-2.34434">
        <ele>15</ele>
        <time>2019-12-26T10:30:43.000Z</time>
      </trkpt>
      <trkpt lat="47.31272" lon="-2.34459">
        <ele>15.60000038147</ele>
        <time>2019-12-26T10:30:46.000Z</time>
      </trkpt>
      <trkpt lat="47.31273" lon="-2.34467">
        <ele>16</ele>
        <time>2019-12-26T10:30:47.000Z</time>
      </trkpt>
      <trkpt lat="47.31275" lon="-2.34475">
        <ele>16.60000038147</ele>
        <time>2019-12-26T10:30:48.000Z</time>
      </trkpt>
      <trkpt lat="47.31276" lon="-2.34483">
        <ele>17</ele>
        <time>2019-12-26T10:30:49.000Z</time>
      </trkpt>
      <trkpt lat="47.31277" lon="-2.34491">
        <ele>17.39999961853</ele>
        <time>2019-12-26T10:30:50.000Z</time>
      </trkpt>
      <trkpt lat="47.3128" lon="-2.34507">
        <ele>17.39999961853</ele>
        <time>2019-12-26T10:30:52.000Z</time>
      </trkpt>
      <trkpt lat="47.31281" lon="-2.34522">
        <ele>17.39999961853</ele>
        <time>2019-12-26T10:30:54.000Z</time>
      </trkpt>
      <trkpt lat="47.31284" lon="-2.34546">
        <ele>17.799999237061</ele>
        <time>2019-12-26T10:30:57.000Z</time>
      </trkpt>
      <trkpt lat="47.31284" lon="-2.34554">
        <ele>18.39999961853</ele>
        <time>2019-12-26T10:30:58.000Z</time>
      </trkpt>
      <trkpt lat="47.31285" lon="-2.34562">
        <ele>18.799999237061</ele>
        <time>2019-12-26T10:30:59.000Z</time>
      </trkpt>
      <trkpt lat="47.31286" lon="-2.3457">
        <ele>19.200000762939</ele>
        <time>2019-12-26T10:31:00.000Z</time>
      </trkpt>
      <trkpt lat="47.31287" lon="-2.34577">
        <ele>19.60000038147</ele>
        <time>2019-12-26T10:31:01.000Z</time>
      </trkpt>
      <trkpt lat="47.3129" lon="-2.346">
        <ele>19.60000038147</ele>
        <time>2019-12-26T10:31:04.000Z</time>
      </trkpt>
      <trkpt lat="47.31294" lon="-2.34628">
        <ele>19.60000038147</ele>
        <time>2019-12-26T10:31:08.000Z</time>
      </trkpt>
      <trkpt lat="47.31295" lon="-2.3464">
        <ele>20</ele>
        <time>2019-12-26T10:31:10.000Z</time>
      </trkpt>
      <trkpt lat="47.31295" lon="-2.34647">
        <ele>20.39999961853</ele>
        <time>2019-12-26T10:31:11.000Z</time>
      </trkpt>
      <trkpt lat="47.31296" lon="-2.34652">
        <ele>20.799999237061</ele>
        <time>2019-12-26T10:31:12.000Z</time>
      </trkpt>
      <trkpt lat="47.31296" lon="-2.34659">
        <ele>21.200000762939</ele>
        <time>2019-12-26T10:31:13.000Z</time>
      </trkpt>
      <trkpt lat="47.31295" lon="-2.34664">
        <ele>21.799999237061</ele>
        <time>2019-12-26T10:31:14.000Z</time>
      </trkpt>
      <trkpt lat="47.31293" lon="-2.34676">
        <ele>21.799999237061</ele>
        <time>2019-12-26T10:31:16.000Z</time>
      </trkpt>
      <trkpt lat="47.31291" lon="-2.34683">
        <ele>22.200000762939</ele>
        <time>2019-12-26T10:31:17.000Z</time>
      </trkpt>
      <trkpt lat="47.31288" lon="-2.34687">
        <ele>22.60000038147</ele>
        <time>2019-12-26T10:31:18.000Z</time>
      </trkpt>
      <trkpt lat="47.31285" lon="-2.34692">
        <ele>23.200000762939</ele>
        <time>2019-12-26T10:31:19.000Z</time>
      </trkpt>
      <trkpt lat="47.31282" lon="-2.34697">
        <ele>23.60000038147</ele>
        <time>2019-12-26T10:31:20.000Z</time>
      </trkpt>
      <trkpt lat="47.3128" lon="-2.34702">
        <ele>24</ele>
        <time>2019-12-26T10:31:21.000Z</time>
      </trkpt>
      <trkpt lat="47.3128" lon="-2.34708">
        <ele>24</ele>
        <time>2019-12-26T10:31:22.000Z</time>
      </trkpt>
      <trkpt lat="47.3128" lon="-2.34722">
        <ele>24</ele>
        <time>2019-12-26T10:31:24.000Z</time>
      </trkpt>
      <trkpt lat="47.31282" lon="-2.34736">
        <ele>24</ele>
        <time>2019-12-26T10:31:26.000Z</time>
      </trkpt>
      <trkpt lat="47.31286" lon="-2.34762">
        <ele>24</ele>
        <time>2019-12-26T10:31:30.000Z</time>
      </trkpt>
      <trkpt lat="47.31297" lon="-2.34825">
        <ele>24</ele>
        <time>2019-12-26T10:31:39.000Z</time>
      </trkpt>
      <trkpt lat="47.31311" lon="-2.34884">
        <ele>24</ele>
        <time>2019-12-26T10:31:47.000Z</time>
      </trkpt>
      <trkpt lat="47.31328" lon="-2.34937">
        <ele>24</ele>
        <time>2019-12-26T10:31:54.000Z</time>
      </trkpt>
      <trkpt lat="47.31346" lon="-2.34999">
        <ele>24</ele>
        <time>2019-12-26T10:32:02.000Z</time>
      </trkpt>
      <trkpt lat="47.31357" lon="-2.35001">
        <ele>24</ele>
        <time>2019-12-26T10:32:04.000Z</time>
      </trkpt>
      <trkpt lat="47.31368" lon="-2.35">
        <ele>24</ele>
        <time>2019-12-26T10:32:06.000Z</time>
      </trkpt>
      <trkpt lat="47.31386" lon="-2.34999">
        <ele>24</ele>
        <time>2019-12-26T10:32:09.000Z</time>
      </trkpt>
      <trkpt lat="47.31414" lon="-2.35008">
        <ele>24</ele>
        <time>2019-12-26T10:32:14.000Z</time>
      </trkpt>
      <trkpt lat="47.31458" lon="-2.35013">
        <ele>24</ele>
        <time>2019-12-26T10:32:21.000Z</time>
      </trkpt>
      <trkpt lat="47.31477" lon="-2.35013">
        <ele>23.60000038147</ele>
        <time>2019-12-26T10:32:24.000Z</time>
      </trkpt>
      <trkpt lat="47.31484" lon="-2.35013">
        <ele>23.200000762939</ele>
        <time>2019-12-26T10:32:25.000Z</time>
      </trkpt>
      <trkpt lat="47.31491" lon="-2.35013">
        <ele>22.799999237061</ele>
        <time>2019-12-26T10:32:26.000Z</time>
      </trkpt>
      <trkpt lat="47.31498" lon="-2.35012">
        <ele>22.39999961853</ele>
        <time>2019-12-26T10:32:27.000Z</time>
      </trkpt>
      <trkpt lat="47.31504" lon="-2.35012">
        <ele>22</ele>
        <time>2019-12-26T10:32:28.000Z</time>
      </trkpt>
      <trkpt lat="47.31543" lon="-2.35012">
        <ele>22</ele>
        <time>2019-12-26T10:32:34.000Z</time>
      </trkpt>
      <trkpt lat="47.31549" lon="-2.35011">
        <ele>21.60000038147</ele>
        <time>2019-12-26T10:32:35.000Z</time>
      </trkpt>
      <trkpt lat="47.31555" lon="-2.35011">
        <ele>21.200000762939</ele>
        <time>2019-12-26T10:32:36.000Z</time>
      </trkpt>
      <trkpt lat="47.31561" lon="-2.3501">
        <ele>20.799999237061</ele>
        <time>2019-12-26T10:32:37.000Z</time>
      </trkpt>
      <trkpt lat="47.31567" lon="-2.3501">
        <ele>20.39999961853</ele>
        <time>2019-12-26T10:32:38.000Z</time>
      </trkpt>
      <trkpt lat="47.31573" lon="-2.35009">
        <ele>20</ele>
        <time>2019-12-26T10:32:39.000Z</time>
      </trkpt>
      <trkpt lat="47.3158" lon="-2.35009">
        <ele>20</ele>
        <time>2019-12-26T10:32:40.000Z</time>
      </trkpt>
      <trkpt lat="47.31599" lon="-2.35003">
        <ele>20</ele>
        <time>2019-12-26T10:32:43.000Z</time>
      </trkpt>
      <trkpt lat="47.31619" lon="-2.34995">
        <ele>20</ele>
        <time>2019-12-26T10:32:46.000Z</time>
      </trkpt>
      <trkpt lat="47.31633" lon="-2.34989">
        <ele>19.60000038147</ele>
        <time>2019-12-26T10:32:48.000Z</time>
      </trkpt>
      <trkpt lat="47.31639" lon="-2.34986">
        <ele>19.200000762939</ele>
        <time>2019-12-26T10:32:49.000Z</time>
      </trkpt>
      <trkpt lat="47.31646" lon="-2.34983">
        <ele>18.799999237061</ele>
        <time>2019-12-26T10:32:50.000Z</time>
      </trkpt>
      <trkpt lat="47.31652" lon="-2.34979">
        <ele>18.39999961853</ele>
        <time>2019-12-26T10:32:51.000Z</time>
      </trkpt>
      <trkpt lat="47.31659" lon="-2.34976">
        <ele>18</ele>
        <time>2019-12-26T10:32:52.000Z</time>
      </trkpt>
      <trkpt lat="47.31672" lon="-2.3497">
        <ele>18</ele>
        <time>2019-12-26T10:32:54.000Z</time>
      </trkpt>
      <trkpt lat="47.31679" lon="-2.34969">
        <ele>18</ele>
        <time>2019-12-26T10:32:55.000Z</time>
      </trkpt>
      <trkpt lat="47.31702" lon="-2.34974">
        <ele>18</ele>
        <time>2019-12-26T10:32:58.000Z</time>
      </trkpt>
      <trkpt lat="47.31724" lon="-2.34967">
        <ele>18</ele>
        <time>2019-12-26T10:33:01.000Z</time>
      </trkpt>
      <trkpt lat="47.31762" lon="-2.34955">
        <ele>18</ele>
        <time>2019-12-26T10:33:07.000Z</time>
      </trkpt>
      <trkpt lat="47.31801" lon="-2.34952">
        <ele>18</ele>
        <time>2019-12-26T10:33:13.000Z</time>
      </trkpt>
      <trkpt lat="47.31807" lon="-2.34956">
        <ele>18</ele>
        <time>2019-12-26T10:33:14.000Z</time>
      </trkpt>
      <trkpt lat="47.31826" lon="-2.34967">
        <ele>18</ele>
        <time>2019-12-26T10:33:17.000Z</time>
      </trkpt>
      <trkpt lat="47.31862" lon="-2.34984">
        <ele>18</ele>
        <time>2019-12-26T10:33:23.000Z</time>
      </trkpt>
      <trkpt lat="47.31895" lon="-2.35004">
        <ele>17.39999961853</ele>
        <time>2019-12-26T10:33:28.000Z</time>
      </trkpt>
      <trkpt lat="47.31902" lon="-2.35009">
        <ele>17</ele>
        <time>2019-12-26T10:33:29.000Z</time>
      </trkpt>
      <trkpt lat="47.31908" lon="-2.35013">
        <ele>16.60000038147</ele>
        <time>2019-12-26T10:33:30.000Z</time>
      </trkpt>
      <trkpt lat="47.31915" lon="-2.35017">
        <ele>16.200000762939</ele>
        <time>2019-12-26T10:33:31.000Z</time>
      </trkpt>
      <trkpt lat="47.31921" lon="-2.3502">
        <ele>15.800000190735</ele>
        <time>2019-12-26T10:33:32.000Z</time>
      </trkpt>
      <trkpt lat="47.3194" lon="-2.35031">
        <ele>15.800000190735</ele>
        <time>2019-12-26T10:33:35.000Z</time>
      </trkpt>
      <trkpt lat="47.31978" lon="-2.35049">
        <ele>15.39999961853</ele>
        <time>2019-12-26T10:33:41.000Z</time>
      </trkpt>
      <trkpt lat="47.31985" lon="-2.35051">
        <ele>15</ele>
        <time>2019-12-26T10:33:42.000Z</time>
      </trkpt>
      <trkpt lat="47.31991" lon="-2.35052">
        <ele>14.39999961853</ele>
        <time>2019-12-26T10:33:43.000Z</time>
      </trkpt>
      <trkpt lat="47.31997" lon="-2.35054">
        <ele>14</ele>
        <time>2019-12-26T10:33:44.000Z</time>
      </trkpt>
      <trkpt lat="47.32002" lon="-2.35054">
        <ele>13.60000038147</ele>
        <time>2019-12-26T10:33:45.000Z</time>
      </trkpt>
      <trkpt lat="47.32013" lon="-2.35055">
        <ele>13.60000038147</ele>
        <time>2019-12-26T10:33:47.000Z</time>
      </trkpt>
      <trkpt lat="47.32023" lon="-2.35057">
        <ele>13.60000038147</ele>
        <time>2019-12-26T10:33:49.000Z</time>
      </trkpt>
      <trkpt lat="47.3203" lon="-2.35064">
        <ele>13.60000038147</ele>
        <time>2019-12-26T10:33:51.000Z</time>
      </trkpt>
      <trkpt lat="47.32037" lon="-2.35081">
        <ele>13.60000038147</ele>
        <time>2019-12-26T10:33:54.000Z</time>
      </trkpt>
      <trkpt lat="47.32039" lon="-2.35087">
        <ele>13.60000038147</ele>
        <time>2019-12-26T10:33:55.000Z</time>
      </trkpt>
      <trkpt lat="47.32041" lon="-2.35099">
        <ele>13.60000038147</ele>
        <time>2019-12-26T10:33:57.000Z</time>
      </trkpt>
      <trkpt lat="47.32038" lon="-2.35117">
        <ele>13.60000038147</ele>
        <time>2019-12-26T10:34:00.000Z</time>
      </trkpt>
      <trkpt lat="47.32026" lon="-2.35134">
        <ele>13.60000038147</ele>
        <time>2019-12-26T10:34:04.000Z</time>
      </trkpt>
      <trkpt lat="47.32017" lon="-2.35142">
        <ele>13.60000038147</ele>
        <time>2019-12-26T10:34:06.000Z</time>
      </trkpt>
      <trkpt lat="47.32013" lon="-2.35147">
        <ele>13.60000038147</ele>
        <time>2019-12-26T10:34:07.000Z</time>
      </trkpt>
      <trkpt lat="47.32005" lon="-2.35155">
        <ele>13.60000038147</ele>
        <time>2019-12-26T10:34:09.000Z</time>
      </trkpt>
      <trkpt lat="47.31996" lon="-2.35164">
        <ele>13.199999809265</ele>
        <time>2019-12-26T10:34:11.000Z</time>
      </trkpt>
      <trkpt lat="47.31992" lon="-2.35169">
        <ele>12.800000190735</ele>
        <time>2019-12-26T10:34:12.000Z</time>
      </trkpt>
      <trkpt lat="47.31988" lon="-2.35172">
        <ele>12.39999961853</ele>
        <time>2019-12-26T10:34:13.000Z</time>
      </trkpt>
      <trkpt lat="47.31984" lon="-2.35176">
        <ele>11.800000190735</ele>
        <time>2019-12-26T10:34:14.000Z</time>
      </trkpt>
      <trkpt lat="47.3198" lon="-2.3518">
        <ele>11.39999961853</ele>
        <time>2019-12-26T10:34:15.000Z</time>
      </trkpt>
      <trkpt lat="47.31969" lon="-2.35191">
        <ele>11.39999961853</ele>
        <time>2019-12-26T10:34:19.000Z</time>
      </trkpt>
      <trkpt lat="47.31962" lon="-2.352">
        <ele>11.39999961853</ele>
        <time>2019-12-26T10:34:23.000Z</time>
      </trkpt>
      <trkpt lat="47.31948" lon="-2.3521">
        <ele>11.39999961853</ele>
        <time>2019-12-26T10:34:29.000Z</time>
      </trkpt>
      <trkpt lat="47.31931" lon="-2.35225">
        <ele>11.39999961853</ele>
        <time>2019-12-26T10:34:34.000Z</time>
      </trkpt>
      <trkpt lat="47.31923" lon="-2.35233">
        <ele>11.800000190735</ele>
        <time>2019-12-26T10:34:36.000Z</time>
      </trkpt>
      <trkpt lat="47.31919" lon="-2.35237">
        <ele>12.199999809265</ele>
        <time>2019-12-26T10:34:37.000Z</time>
      </trkpt>
      <trkpt lat="47.31914" lon="-2.35242">
        <ele>12.60000038147</ele>
        <time>2019-12-26T10:34:38.000Z</time>
      </trkpt>
      <trkpt lat="47.3191" lon="-2.35246">
        <ele>13.199999809265</ele>
        <time>2019-12-26T10:34:39.000Z</time>
      </trkpt>
      <trkpt lat="47.31906" lon="-2.3525">
        <ele>13.60000038147</ele>
        <time>2019-12-26T10:34:40.000Z</time>
      </trkpt>
      <trkpt lat="47.31897" lon="-2.35257">
        <ele>13.60000038147</ele>
        <time>2019-12-26T10:34:42.000Z</time>
      </trkpt>
      <trkpt lat="47.31892" lon="-2.35261">
        <ele>13.60000038147</ele>
        <time>2019-12-26T10:34:43.000Z</time>
      </trkpt>
      <trkpt lat="47.3188" lon="-2.35271">
        <ele>13.60000038147</ele>
        <time>2019-12-26T10:34:46.000Z</time>
      </trkpt>
      <trkpt lat="47.31873" lon="-2.35277">
        <ele>13.60000038147</ele>
        <time>2019-12-26T10:34:48.000Z</time>
      </trkpt>
      <trkpt lat="47.31863" lon="-2.35284">
        <ele>13.60000038147</ele>
        <time>2019-12-26T10:34:53.000Z</time>
      </trkpt>
      <trkpt lat="47.31848" lon="-2.35292">
        <ele>13.60000038147</ele>
        <time>2019-12-26T10:34:57.000Z</time>
      </trkpt>
      <trkpt lat="47.31843" lon="-2.35296">
        <ele>14</ele>
        <time>2019-12-26T10:34:58.000Z</time>
      </trkpt>
      <trkpt lat="47.3184" lon="-2.35298">
        <ele>14.39999961853</ele>
        <time>2019-12-26T10:34:59.000Z</time>
      </trkpt>
      <trkpt lat="47.31836" lon="-2.35301">
        <ele>14.800000190735</ele>
        <time>2019-12-26T10:35:00.000Z</time>
      </trkpt>
      <trkpt lat="47.31832" lon="-2.35305">
        <ele>15.199999809265</ele>
        <time>2019-12-26T10:35:01.000Z</time>
      </trkpt>
      <trkpt lat="47.31827" lon="-2.35308">
        <ele>15.60000038147</ele>
        <time>2019-12-26T10:35:02.000Z</time>
      </trkpt>
      <trkpt lat="47.31818" lon="-2.35313">
        <ele>15.60000038147</ele>
        <time>2019-12-26T10:35:04.000Z</time>
      </trkpt>
      <trkpt lat="47.31804" lon="-2.3532">
        <ele>15.60000038147</ele>
        <time>2019-12-26T10:35:07.000Z</time>
      </trkpt>
      <trkpt lat="47.31796" lon="-2.35324">
        <ele>15.60000038147</ele>
        <time>2019-12-26T10:35:11.000Z</time>
      </trkpt>
      <trkpt lat="47.31786" lon="-2.35332">
        <ele>16.39999961853</ele>
        <time>2019-12-26T10:35:16.000Z</time>
      </trkpt>
      <trkpt lat="47.31783" lon="-2.35334">
        <ele>16.799999237061</ele>
        <time>2019-12-26T10:35:17.000Z</time>
      </trkpt>
      <trkpt lat="47.31781" lon="-2.35336">
        <ele>17.200000762939</ele>
        <time>2019-12-26T10:35:18.000Z</time>
      </trkpt>
      <trkpt lat="47.31777" lon="-2.35338">
        <ele>17.60000038147</ele>
        <time>2019-12-26T10:35:19.000Z</time>
      </trkpt>
      <trkpt lat="47.31765" lon="-2.35344">
        <ele>17.60000038147</ele>
        <time>2019-12-26T10:35:23.000Z</time>
      </trkpt>
      <trkpt lat="47.31761" lon="-2.35352">
        <ele>17.60000038147</ele>
        <time>2019-12-26T10:35:27.000Z</time>
      </trkpt>
      <trkpt lat="47.31758" lon="-2.35364">
        <ele>17.60000038147</ele>
        <time>2019-12-26T10:35:32.000Z</time>
      </trkpt>
      <trkpt lat="47.31757" lon="-2.35366">
        <ele>17.60000038147</ele>
        <time>2019-12-26T10:35:33.000Z</time>
      </trkpt>
      <trkpt lat="47.31761" lon="-2.35374">
        <ele>17.60000038147</ele>
        <time>2019-12-26T10:35:37.000Z</time>
      </trkpt>
      <trkpt lat="47.3177" lon="-2.35393">
        <ele>17.60000038147</ele>
        <time>2019-12-26T10:35:42.000Z</time>
      </trkpt>
      <trkpt lat="47.31782" lon="-2.35417">
        <ele>17.60000038147</ele>
        <time>2019-12-26T10:35:47.000Z</time>
      </trkpt>
      <trkpt lat="47.31794" lon="-2.35438">
        <ele>17.60000038147</ele>
        <time>2019-12-26T10:35:52.000Z</time>
      </trkpt>
      <trkpt lat="47.31804" lon="-2.35453">
        <ele>17.60000038147</ele>
        <time>2019-12-26T10:35:56.000Z</time>
      </trkpt>
      <trkpt lat="47.31806" lon="-2.3546">
        <ele>17</ele>
        <time>2019-12-26T10:35:58.000Z</time>
      </trkpt>
      <trkpt lat="47.31807" lon="-2.35462">
        <ele>16.60000038147</ele>
        <time>2019-12-26T10:35:59.000Z</time>
      </trkpt>
      <trkpt lat="47.31808" lon="-2.35464">
        <ele>16.200000762939</ele>
        <time>2019-12-26T10:36:00.000Z</time>
      </trkpt>
      <trkpt lat="47.31808" lon="-2.35466">
        <ele>15.800000190735</ele>
        <time>2019-12-26T10:36:01.000Z</time>
      </trkpt>
      <trkpt lat="47.31809" lon="-2.35468">
        <ele>15.199999809265</ele>
        <time>2019-12-26T10:36:02.000Z</time>
      </trkpt>
      <trkpt lat="47.31812" lon="-2.35476">
        <ele>15.199999809265</ele>
        <time>2019-12-26T10:36:06.000Z</time>
      </trkpt>
      <trkpt lat="47.31821" lon="-2.35493">
        <ele>15.199999809265</ele>
        <time>2019-12-26T10:36:12.000Z</time>
      </trkpt>
      <trkpt lat="47.31825" lon="-2.35505">
        <ele>15.199999809265</ele>
        <time>2019-12-26T10:36:17.000Z</time>
      </trkpt>
      <trkpt lat="47.31826" lon="-2.35507">
        <ele>15.199999809265</ele>
        <time>2019-12-26T10:36:18.000Z</time>
      </trkpt>
      <trkpt lat="47.3183" lon="-2.35517">
        <ele>15.199999809265</ele>
        <time>2019-12-26T10:36:22.000Z</time>
      </trkpt>
      <trkpt lat="47.31834" lon="-2.35531">
        <ele>15.199999809265</ele>
        <time>2019-12-26T10:36:28.000Z</time>
      </trkpt>
      <trkpt lat="47.31835" lon="-2.35537">
        <ele>15.199999809265</ele>
        <time>2019-12-26T10:36:30.000Z</time>
      </trkpt>
      <trkpt lat="47.31834" lon="-2.35545">
        <ele>15.199999809265</ele>
        <time>2019-12-26T10:36:32.000Z</time>
      </trkpt>
      <trkpt lat="47.31833" lon="-2.35548">
        <ele>15.199999809265</ele>
        <time>2019-12-26T10:36:33.000Z</time>
      </trkpt>
      <trkpt lat="47.31829" lon="-2.35552">
        <ele>15.199999809265</ele>
        <time>2019-12-26T10:36:35.000Z</time>
      </trkpt>
      <trkpt lat="47.31827" lon="-2.35555">
        <ele>15.199999809265</ele>
        <time>2019-12-26T10:36:37.000Z</time>
      </trkpt>
      <trkpt lat="47.31823" lon="-2.35561">
        <ele>15.199999809265</ele>
        <time>2019-12-26T10:36:40.000Z</time>
      </trkpt>
      <trkpt lat="47.31819" lon="-2.35565">
        <ele>15.199999809265</ele>
        <time>2019-12-26T10:36:42.000Z</time>
      </trkpt>
      <trkpt lat="47.31811" lon="-2.35576">
        <ele>15.199999809265</ele>
        <time>2019-12-26T10:36:47.000Z</time>
      </trkpt>
      <trkpt lat="47.3181" lon="-2.3558">
        <ele>15.199999809265</ele>
        <time>2019-12-26T10:36:49.000Z</time>
      </trkpt>
      <trkpt lat="47.3181" lon="-2.3558">
        <ele>15.199999809265</ele>
        <time>2019-12-26T10:36:50.000Z</time>
      </trkpt>
      <trkpt lat="47.31801" lon="-2.35596">
        <ele>15.199999809265</ele>
        <time>2019-12-26T10:37:00.000Z</time>
      </trkpt>
      <trkpt lat="47.31792" lon="-2.35617">
        <ele>15.199999809265</ele>
        <time>2019-12-26T10:37:08.000Z</time>
      </trkpt>
      <trkpt lat="47.31789" lon="-2.35632">
        <ele>15.199999809265</ele>
        <time>2019-12-26T10:37:13.000Z</time>
      </trkpt>
      <trkpt lat="47.31787" lon="-2.35645">
        <ele>15.60000038147</ele>
        <time>2019-12-26T10:37:18.000Z</time>
      </trkpt>
      <trkpt lat="47.31786" lon="-2.35649">
        <ele>16</ele>
        <time>2019-12-26T10:37:19.000Z</time>
      </trkpt>
      <trkpt lat="47.31787" lon="-2.35652">
        <ele>16.60000038147</ele>
        <time>2019-12-26T10:37:20.000Z</time>
      </trkpt>
      <trkpt lat="47.31786" lon="-2.35655">
        <ele>17</ele>
        <time>2019-12-26T10:37:21.000Z</time>
      </trkpt>
      <trkpt lat="47.31786" lon="-2.35658">
        <ele>17.39999961853</ele>
        <time>2019-12-26T10:37:22.000Z</time>
      </trkpt>
      <trkpt lat="47.31785" lon="-2.35678">
        <ele>17.39999961853</ele>
        <time>2019-12-26T10:37:28.000Z</time>
      </trkpt>
      <trkpt lat="47.31785" lon="-2.35702">
        <ele>17.39999961853</ele>
        <time>2019-12-26T10:37:34.000Z</time>
      </trkpt>
      <trkpt lat="47.31784" lon="-2.35706">
        <ele>17.39999961853</ele>
        <time>2019-12-26T10:37:35.000Z</time>
      </trkpt>
      <trkpt lat="47.31784" lon="-2.35717">
        <ele>17.39999961853</ele>
        <time>2019-12-26T10:37:38.000Z</time>
      </trkpt>
      <trkpt lat="47.31784" lon="-2.3572">
        <ele>17.799999237061</ele>
        <time>2019-12-26T10:37:39.000Z</time>
      </trkpt>
      <trkpt lat="47.31784" lon="-2.35722">
        <ele>18.200000762939</ele>
        <time>2019-12-26T10:37:40.000Z</time>
      </trkpt>
      <trkpt lat="47.31784" lon="-2.35726">
        <ele>18.60000038147</ele>
        <time>2019-12-26T10:37:41.000Z</time>
      </trkpt>
      <trkpt lat="47.31784" lon="-2.35729">
        <ele>19</ele>
        <time>2019-12-26T10:37:42.000Z</time>
      </trkpt>
      <trkpt lat="47.31785" lon="-2.35732">
        <ele>19.39999961853</ele>
        <time>2019-12-26T10:37:43.000Z</time>
      </trkpt>
      <trkpt lat="47.31786" lon="-2.35743">
        <ele>19.39999961853</ele>
        <time>2019-12-26T10:37:46.000Z</time>
      </trkpt>
      <trkpt lat="47.31786" lon="-2.35746">
        <ele>19.39999961853</ele>
        <time>2019-12-26T10:37:47.000Z</time>
      </trkpt>
      <trkpt lat="47.31785" lon="-2.35761">
        <ele>19.39999961853</ele>
        <time>2019-12-26T10:37:51.000Z</time>
      </trkpt>
      <trkpt lat="47.31787" lon="-2.35783">
        <ele>19.39999961853</ele>
        <time>2019-12-26T10:37:56.000Z</time>
      </trkpt>
      <trkpt lat="47.31796" lon="-2.35803">
        <ele>19.39999961853</ele>
        <time>2019-12-26T10:38:01.000Z</time>
      </trkpt>
      <trkpt lat="47.31809" lon="-2.35818">
        <ele>19.39999961853</ele>
        <time>2019-12-26T10:38:07.000Z</time>
      </trkpt>
      <trkpt lat="47.31815" lon="-2.35829">
        <ele>19.39999961853</ele>
        <time>2019-12-26T10:38:11.000Z</time>
      </trkpt>
      <trkpt lat="47.31818" lon="-2.35833">
        <ele>19.39999961853</ele>
        <time>2019-12-26T10:38:13.000Z</time>
      </trkpt>
      <trkpt lat="47.31819" lon="-2.3584">
        <ele>19.39999961853</ele>
        <time>2019-12-26T10:38:15.000Z</time>
      </trkpt>
      <trkpt lat="47.3182" lon="-2.35843">
        <ele>19.39999961853</ele>
        <time>2019-12-26T10:38:17.000Z</time>
      </trkpt>
      <trkpt lat="47.3182" lon="-2.35845">
        <ele>19.39999961853</ele>
        <time>2019-12-26T10:38:19.000Z</time>
      </trkpt>
      <trkpt lat="47.31822" lon="-2.35857">
        <ele>19.39999961853</ele>
        <time>2019-12-26T10:38:33.000Z</time>
      </trkpt>
      <trkpt lat="47.31823" lon="-2.35859">
        <ele>19.39999961853</ele>
        <time>2019-12-26T10:38:34.000Z</time>
      </trkpt>
      <trkpt lat="47.31824" lon="-2.35866">
        <ele>19.39999961853</ele>
        <time>2019-12-26T10:38:38.000Z</time>
      </trkpt>
      <trkpt lat="47.31824" lon="-2.3587">
        <ele>19.39999961853</ele>
        <time>2019-12-26T10:38:40.000Z</time>
      </trkpt>
      <trkpt lat="47.31824" lon="-2.35874">
        <ele>19.39999961853</ele>
        <time>2019-12-26T10:38:44.000Z</time>
      </trkpt>
      <trkpt lat="47.31815" lon="-2.35883">
        <ele>19.39999961853</ele>
        <time>2019-12-26T10:39:51.000Z</time>
      </trkpt>
      <trkpt lat="47.31814" lon="-2.35884">
        <ele>19.39999961853</ele>
        <time>2019-12-26T10:39:52.000Z</time>
      </trkpt>
      <trkpt lat="47.31809" lon="-2.35886">
        <ele>19.39999961853</ele>
        <time>2019-12-26T10:39:55.000Z</time>
      </trkpt>
      <trkpt lat="47.31804" lon="-2.35889">
        <ele>19.39999961853</ele>
        <time>2019-12-26T10:39:58.000Z</time>
      </trkpt>
      <trkpt lat="47.31791" lon="-2.35896">
        <ele>19.39999961853</ele>
        <time>2019-12-26T10:40:05.000Z</time>
      </trkpt>
      <trkpt lat="47.31779" lon="-2.35903">
        <ele>19.799999237061</ele>
        <time>2019-12-26T10:40:11.000Z</time>
      </trkpt>
      <trkpt lat="47.31776" lon="-2.35904">
        <ele>20.60000038147</ele>
        <time>2019-12-26T10:40:12.000Z</time>
      </trkpt>
      <trkpt lat="47.31774" lon="-2.35905">
        <ele>21</ele>
        <time>2019-12-26T10:40:13.000Z</time>
      </trkpt>
      <trkpt lat="47.31772" lon="-2.35907">
        <ele>21.39999961853</ele>
        <time>2019-12-26T10:40:14.000Z</time>
      </trkpt>
      <trkpt lat="47.3176" lon="-2.35912">
        <ele>21.39999961853</ele>
        <time>2019-12-26T10:40:19.000Z</time>
      </trkpt>
      <trkpt lat="47.31741" lon="-2.35924">
        <ele>21.39999961853</ele>
        <time>2019-12-26T10:40:26.000Z</time>
      </trkpt>
      <trkpt lat="47.31721" lon="-2.35936">
        <ele>21.39999961853</ele>
        <time>2019-12-26T10:40:33.000Z</time>
      </trkpt>
      <trkpt lat="47.31719" lon="-2.35938">
        <ele>21.799999237061</ele>
        <time>2019-12-26T10:40:34.000Z</time>
      </trkpt>
      <trkpt lat="47.31716" lon="-2.35939">
        <ele>22.200000762939</ele>
        <time>2019-12-26T10:40:35.000Z</time>
      </trkpt>
      <trkpt lat="47.31713" lon="-2.3594">
        <ele>23</ele>
        <time>2019-12-26T10:40:36.000Z</time>
      </trkpt>
      <trkpt lat="47.3171" lon="-2.35942">
        <ele>23.39999961853</ele>
        <time>2019-12-26T10:40:37.000Z</time>
      </trkpt>
      <trkpt lat="47.31703" lon="-2.35944">
        <ele>23.39999961853</ele>
        <time>2019-12-26T10:40:40.000Z</time>
      </trkpt>
      <trkpt lat="47.31693" lon="-2.3595">
        <ele>23.39999961853</ele>
        <time>2019-12-26T10:40:44.000Z</time>
      </trkpt>
      <trkpt lat="47.31675" lon="-2.35962">
        <ele>23.39999961853</ele>
        <time>2019-12-26T10:40:51.000Z</time>
      </trkpt>
      <trkpt lat="47.31665" lon="-2.35968">
        <ele>23.39999961853</ele>
        <time>2019-12-26T10:40:55.000Z</time>
      </trkpt>
      <trkpt lat="47.31662" lon="-2.35971">
        <ele>23.39999961853</ele>
        <time>2019-12-26T10:40:56.000Z</time>
      </trkpt>
      <trkpt lat="47.31655" lon="-2.35976">
        <ele>23.39999961853</ele>
        <time>2019-12-26T10:40:59.000Z</time>
      </trkpt>
      <trkpt lat="47.31651" lon="-2.35979">
        <ele>23.39999961853</ele>
        <time>2019-12-26T10:41:01.000Z</time>
      </trkpt>
      <trkpt lat="47.31641" lon="-2.3599">
        <ele>23.39999961853</ele>
        <time>2019-12-26T10:41:06.000Z</time>
      </trkpt>
      <trkpt lat="47.31628" lon="-2.36003">
        <ele>23.39999961853</ele>
        <time>2019-12-26T10:41:12.000Z</time>
      </trkpt>
      <trkpt lat="47.31614" lon="-2.3602">
        <ele>23.799999237061</ele>
        <time>2019-12-26T10:41:19.000Z</time>
      </trkpt>
      <trkpt lat="47.31612" lon="-2.36022">
        <ele>24.200000762939</ele>
        <time>2019-12-26T10:41:20.000Z</time>
      </trkpt>
      <trkpt lat="47.3161" lon="-2.36024">
        <ele>24.60000038147</ele>
        <time>2019-12-26T10:41:21.000Z</time>
      </trkpt>
      <trkpt lat="47.31608" lon="-2.36026">
        <ele>25</ele>
        <time>2019-12-26T10:41:22.000Z</time>
      </trkpt>
      <trkpt lat="47.31606" lon="-2.36028">
        <ele>25.39999961853</ele>
        <time>2019-12-26T10:41:23.000Z</time>
      </trkpt>
      <trkpt lat="47.31601" lon="-2.36032">
        <ele>25.39999961853</ele>
        <time>2019-12-26T10:41:25.000Z</time>
      </trkpt>
      <trkpt lat="47.31589" lon="-2.36044">
        <ele>25.39999961853</ele>
        <time>2019-12-26T10:41:30.000Z</time>
      </trkpt>
      <trkpt lat="47.31573" lon="-2.36057">
        <ele>25.39999961853</ele>
        <time>2019-12-26T10:41:36.000Z</time>
      </trkpt>
      <trkpt lat="47.31559" lon="-2.3607">
        <ele>25.39999961853</ele>
        <time>2019-12-26T10:41:42.000Z</time>
      </trkpt>
      <trkpt lat="47.31542" lon="-2.36089">
        <ele>25.39999961853</ele>
        <time>2019-12-26T10:41:49.000Z</time>
      </trkpt>
      <trkpt lat="47.31539" lon="-2.36092">
        <ele>25.799999237061</ele>
        <time>2019-12-26T10:41:50.000Z</time>
      </trkpt>
      <trkpt lat="47.31537" lon="-2.36095">
        <ele>26.200000762939</ele>
        <time>2019-12-26T10:41:51.000Z</time>
      </trkpt>
      <trkpt lat="47.31535" lon="-2.36098">
        <ele>26.60000038147</ele>
        <time>2019-12-26T10:41:52.000Z</time>
      </trkpt>
      <trkpt lat="47.31533" lon="-2.361">
        <ele>27</ele>
        <time>2019-12-26T10:41:53.000Z</time>
      </trkpt>
      <trkpt lat="47.31531" lon="-2.36102">
        <ele>27.39999961853</ele>
        <time>2019-12-26T10:41:54.000Z</time>
      </trkpt>
      <trkpt lat="47.31527" lon="-2.36107">
        <ele>27.39999961853</ele>
        <time>2019-12-26T10:41:56.000Z</time>
      </trkpt>
      <trkpt lat="47.31515" lon="-2.36123">
        <ele>27.39999961853</ele>
        <time>2019-12-26T10:42:01.000Z</time>
      </trkpt>
      <trkpt lat="47.31498" lon="-2.36143">
        <ele>27.39999961853</ele>
        <time>2019-12-26T10:42:07.000Z</time>
      </trkpt>
      <trkpt lat="47.31481" lon="-2.3616">
        <ele>27.39999961853</ele>
        <time>2019-12-26T10:42:14.000Z</time>
      </trkpt>
      <trkpt lat="47.31466" lon="-2.36174">
        <ele>27.39999961853</ele>
        <time>2019-12-26T10:42:20.000Z</time>
      </trkpt>
      <trkpt lat="47.31465" lon="-2.36176">
        <ele>27.39999961853</ele>
        <time>2019-12-26T10:42:21.000Z</time>
      </trkpt>
      <trkpt lat="47.31463" lon="-2.36176">
        <ele>27.39999961853</ele>
        <time>2019-12-26T10:42:24.000Z</time>
      </trkpt>
      <trkpt lat="47.31457" lon="-2.36177">
        <ele>27.39999961853</ele>
        <time>2019-12-26T10:43:19.000Z</time>
      </trkpt>
      <trkpt lat="47.31453" lon="-2.36179">
        <ele>27.39999961853</ele>
        <time>2019-12-26T10:43:22.000Z</time>
      </trkpt>
      <trkpt lat="47.3144" lon="-2.36188">
        <ele>27.39999961853</ele>
        <time>2019-12-26T10:43:28.000Z</time>
      </trkpt>
      <trkpt lat="47.31426" lon="-2.36197">
        <ele>27.39999961853</ele>
        <time>2019-12-26T10:43:34.000Z</time>
      </trkpt>
      <trkpt lat="47.31413" lon="-2.36204">
        <ele>27.39999961853</ele>
        <time>2019-12-26T10:43:41.000Z</time>
      </trkpt>
      <trkpt lat="47.31409" lon="-2.36206">
        <ele>27.799999237061</ele>
        <time>2019-12-26T10:43:43.000Z</time>
      </trkpt>
      <trkpt lat="47.31408" lon="-2.36207">
        <ele>28.200000762939</ele>
        <time>2019-12-26T10:43:44.000Z</time>
      </trkpt>
      <trkpt lat="47.31406" lon="-2.36207">
        <ele>28.60000038147</ele>
        <time>2019-12-26T10:43:45.000Z</time>
      </trkpt>
      <trkpt lat="47.31405" lon="-2.36208">
        <ele>29</ele>
        <time>2019-12-26T10:43:46.000Z</time>
      </trkpt>
      <trkpt lat="47.31405" lon="-2.36207">
        <ele>29.39999961853</ele>
        <time>2019-12-26T10:43:47.000Z</time>
      </trkpt>
      <trkpt lat="47.31402" lon="-2.36209">
        <ele>29.39999961853</ele>
        <time>2019-12-26T10:43:51.000Z</time>
      </trkpt>
      <trkpt lat="47.31398" lon="-2.3621">
        <ele>29.39999961853</ele>
        <time>2019-12-26T10:43:54.000Z</time>
      </trkpt>
      <trkpt lat="47.31396" lon="-2.36211">
        <ele>29.39999961853</ele>
        <time>2019-12-26T10:43:56.000Z</time>
      </trkpt>
      <trkpt lat="47.31394" lon="-2.36211">
        <ele>29.39999961853</ele>
        <time>2019-12-26T10:43:58.000Z</time>
      </trkpt>
      <trkpt lat="47.31392" lon="-2.36211">
        <ele>29.39999961853</ele>
        <time>2019-12-26T10:44:00.000Z</time>
      </trkpt>
      <trkpt lat="47.31387" lon="-2.36213">
        <ele>29.39999961853</ele>
        <time>2019-12-26T10:44:02.000Z</time>
      </trkpt>
      <trkpt lat="47.31382" lon="-2.36216">
        <ele>29.39999961853</ele>
        <time>2019-12-26T10:44:04.000Z</time>
      </trkpt>
      <trkpt lat="47.31365" lon="-2.3623">
        <ele>29.39999961853</ele>
        <time>2019-12-26T10:44:10.000Z</time>
      </trkpt>
      <trkpt lat="47.31353" lon="-2.36248">
        <ele>29.39999961853</ele>
        <time>2019-12-26T10:44:16.000Z</time>
      </trkpt>
      <trkpt lat="47.31341" lon="-2.36261">
        <ele>29.39999961853</ele>
        <time>2019-12-26T10:44:21.000Z</time>
      </trkpt>
      <trkpt lat="47.31327" lon="-2.36277">
        <ele>29.39999961853</ele>
        <time>2019-12-26T10:44:27.000Z</time>
      </trkpt>
      <trkpt lat="47.31311" lon="-2.3629">
        <ele>29.39999961853</ele>
        <time>2019-12-26T10:44:32.000Z</time>
      </trkpt>
      <trkpt lat="47.31307" lon="-2.36293">
        <ele>29.39999961853</ele>
        <time>2019-12-26T10:44:33.000Z</time>
      </trkpt>
      <trkpt lat="47.31298" lon="-2.36298">
        <ele>29.39999961853</ele>
        <time>2019-12-26T10:44:35.000Z</time>
      </trkpt>
      <trkpt lat="47.31276" lon="-2.36308">
        <ele>29.39999961853</ele>
        <time>2019-12-26T10:44:40.000Z</time>
      </trkpt>
      <trkpt lat="47.31256" lon="-2.36316">
        <ele>29.39999961853</ele>
        <time>2019-12-26T10:44:44.000Z</time>
      </trkpt>
      <trkpt lat="47.31247" lon="-2.36322">
        <ele>29.39999961853</ele>
        <time>2019-12-26T10:44:46.000Z</time>
      </trkpt>
      <trkpt lat="47.3123" lon="-2.36336">
        <ele>29</ele>
        <time>2019-12-26T10:44:50.000Z</time>
      </trkpt>
      <trkpt lat="47.31225" lon="-2.36339">
        <ele>28.60000038147</ele>
        <time>2019-12-26T10:44:51.000Z</time>
      </trkpt>
      <trkpt lat="47.3122" lon="-2.36342">
        <ele>28.200000762939</ele>
        <time>2019-12-26T10:44:52.000Z</time>
      </trkpt>
      <trkpt lat="47.31215" lon="-2.36345">
        <ele>27.799999237061</ele>
        <time>2019-12-26T10:44:53.000Z</time>
      </trkpt>
      <trkpt lat="47.31211" lon="-2.36347">
        <ele>27.39999961853</ele>
        <time>2019-12-26T10:44:54.000Z</time>
      </trkpt>
      <trkpt lat="47.31196" lon="-2.36355">
        <ele>27.39999961853</ele>
        <time>2019-12-26T10:44:57.000Z</time>
      </trkpt>
      <trkpt lat="47.31187" lon="-2.36361">
        <ele>27.39999961853</ele>
        <time>2019-12-26T10:44:59.000Z</time>
      </trkpt>
      <trkpt lat="47.31177" lon="-2.36367">
        <ele>27.39999961853</ele>
        <time>2019-12-26T10:45:01.000Z</time>
      </trkpt>
      <trkpt lat="47.31162" lon="-2.36379">
        <ele>27.39999961853</ele>
        <time>2019-12-26T10:45:04.000Z</time>
      </trkpt>
      <trkpt lat="47.31152" lon="-2.36386">
        <ele>27.39999961853</ele>
        <time>2019-12-26T10:45:06.000Z</time>
      </trkpt>
      <trkpt lat="47.31138" lon="-2.36396">
        <ele>27.39999961853</ele>
        <time>2019-12-26T10:45:09.000Z</time>
      </trkpt>
      <trkpt lat="47.3112" lon="-2.36407">
        <ele>27.39999961853</ele>
        <time>2019-12-26T10:45:13.000Z</time>
      </trkpt>
      <trkpt lat="47.31113" lon="-2.36412">
        <ele>27.39999961853</ele>
        <time>2019-12-26T10:45:15.000Z</time>
      </trkpt>
      <trkpt lat="47.31095" lon="-2.3642">
        <ele>27.39999961853</ele>
        <time>2019-12-26T10:45:20.000Z</time>
      </trkpt>
      <trkpt lat="47.31084" lon="-2.36419">
        <ele>27.39999961853</ele>
        <time>2019-12-26T10:45:24.000Z</time>
      </trkpt>
      <trkpt lat="47.31081" lon="-2.36418">
        <ele>27.39999961853</ele>
        <time>2019-12-26T10:45:25.000Z</time>
      </trkpt>
      <trkpt lat="47.31065" lon="-2.36419">
        <ele>27.39999961853</ele>
        <time>2019-12-26T10:45:29.000Z</time>
      </trkpt>
      <trkpt lat="47.31038" lon="-2.36421">
        <ele>27.39999961853</ele>
        <time>2019-12-26T10:45:35.000Z</time>
      </trkpt>
      <trkpt lat="47.31033" lon="-2.36422">
        <ele>27.39999961853</ele>
        <time>2019-12-26T10:45:36.000Z</time>
      </trkpt>
      <trkpt lat="47.31016" lon="-2.36428">
        <ele>27.39999961853</ele>
        <time>2019-12-26T10:45:40.000Z</time>
      </trkpt>
      <trkpt lat="47.30991" lon="-2.36436">
        <ele>27.39999961853</ele>
        <time>2019-12-26T10:45:46.000Z</time>
      </trkpt>
      <trkpt lat="47.30973" lon="-2.36446">
        <ele>27.39999961853</ele>
        <time>2019-12-26T10:45:51.000Z</time>
      </trkpt>
      <trkpt lat="47.30961" lon="-2.36451">
        <ele>27.39999961853</ele>
        <time>2019-12-26T10:45:56.000Z</time>
      </trkpt>
      <trkpt lat="47.3095" lon="-2.36456">
        <ele>27.39999961853</ele>
        <time>2019-12-26T10:46:02.000Z</time>
      </trkpt>
      <trkpt lat="47.30935" lon="-2.3646">
        <ele>27.39999961853</ele>
        <time>2019-12-26T10:46:06.000Z</time>
      </trkpt>
      <trkpt lat="47.30912" lon="-2.36468">
        <ele>27.39999961853</ele>
        <time>2019-12-26T10:46:12.000Z</time>
      </trkpt>
      <trkpt lat="47.30889" lon="-2.36475">
        <ele>27.39999961853</ele>
        <time>2019-12-26T10:46:18.000Z</time>
      </trkpt>
      <trkpt lat="47.30872" lon="-2.3648">
        <ele>27.39999961853</ele>
        <time>2019-12-26T10:46:23.000Z</time>
      </trkpt>
      <trkpt lat="47.3086" lon="-2.36482">
        <ele>27.39999961853</ele>
        <time>2019-12-26T10:46:26.000Z</time>
      </trkpt>
      <trkpt lat="47.30848" lon="-2.36485">
        <ele>27.39999961853</ele>
        <time>2019-12-26T10:46:29.000Z</time>
      </trkpt>
      <trkpt lat="47.30829" lon="-2.36485">
        <ele>27.39999961853</ele>
        <time>2019-12-26T10:46:34.000Z</time>
      </trkpt>
      <trkpt lat="47.3081" lon="-2.36471">
        <ele>27.39999961853</ele>
        <time>2019-12-26T10:46:39.000Z</time>
      </trkpt>
      <trkpt lat="47.30792" lon="-2.36476">
        <ele>27.39999961853</ele>
        <time>2019-12-26T10:46:43.000Z</time>
      </trkpt>
      <trkpt lat="47.3077" lon="-2.36486">
        <ele>28.200000762939</ele>
        <time>2019-12-26T10:46:48.000Z</time>
      </trkpt>
      <trkpt lat="47.30766" lon="-2.36487">
        <ele>28.60000038147</ele>
        <time>2019-12-26T10:46:49.000Z</time>
      </trkpt>
      <trkpt lat="47.30761" lon="-2.36489">
        <ele>29</ele>
        <time>2019-12-26T10:46:50.000Z</time>
      </trkpt>
      <trkpt lat="47.30757" lon="-2.36491">
        <ele>29.39999961853</ele>
        <time>2019-12-26T10:46:51.000Z</time>
      </trkpt>
      <trkpt lat="47.30721" lon="-2.36506">
        <ele>29.39999961853</ele>
        <time>2019-12-26T10:47:00.000Z</time>
      </trkpt>
      <trkpt lat="47.30711" lon="-2.36514">
        <ele>29.799999237061</ele>
        <time>2019-12-26T10:47:03.000Z</time>
      </trkpt>
      <trkpt lat="47.30708" lon="-2.36517">
        <ele>30.200000762939</ele>
        <time>2019-12-26T10:47:04.000Z</time>
      </trkpt>
      <trkpt lat="47.30705" lon="-2.36519">
        <ele>30.60000038147</ele>
        <time>2019-12-26T10:47:05.000Z</time>
      </trkpt>
      <trkpt lat="47.30702" lon="-2.3652">
        <ele>31</ele>
        <time>2019-12-26T10:47:06.000Z</time>
      </trkpt>
      <trkpt lat="47.30699" lon="-2.36519">
        <ele>31.39999961853</ele>
        <time>2019-12-26T10:47:07.000Z</time>
      </trkpt>
      <trkpt lat="47.30698" lon="-2.36517">
        <ele>31.39999961853</ele>
        <time>2019-12-26T10:47:08.000Z</time>
      </trkpt>
      <trkpt lat="47.30686" lon="-2.36515">
        <ele>31.39999961853</ele>
        <time>2019-12-26T10:47:13.000Z</time>
      </trkpt>
      <trkpt lat="47.30684" lon="-2.36517">
        <ele>31.39999961853</ele>
        <time>2019-12-26T10:47:14.000Z</time>
      </trkpt>
      <trkpt lat="47.30668" lon="-2.36523">
        <ele>31.39999961853</ele>
        <time>2019-12-26T10:47:19.000Z</time>
      </trkpt>
      <trkpt lat="47.30648" lon="-2.36534">
        <ele>31.39999961853</ele>
        <time>2019-12-26T10:47:25.000Z</time>
      </trkpt>
      <trkpt lat="47.30624" lon="-2.36544">
        <ele>31.39999961853</ele>
        <time>2019-12-26T10:47:32.000Z</time>
      </trkpt>
      <trkpt lat="47.30613" lon="-2.36545">
        <ele>31.799999237061</ele>
        <time>2019-12-26T10:47:35.000Z</time>
      </trkpt>
      <trkpt lat="47.30609" lon="-2.36546">
        <ele>32.200000762939</ele>
        <time>2019-12-26T10:47:36.000Z</time>
      </trkpt>
      <trkpt lat="47.30604" lon="-2.36546">
        <ele>32.599998474121</ele>
        <time>2019-12-26T10:47:37.000Z</time>
      </trkpt>
      <trkpt lat="47.306" lon="-2.36547">
        <ele>33.599998474121</ele>
        <time>2019-12-26T10:47:38.000Z</time>
      </trkpt>
      <trkpt lat="47.30584" lon="-2.3655">
        <ele>33.599998474121</ele>
        <time>2019-12-26T10:47:42.000Z</time>
      </trkpt>
      <trkpt lat="47.30563" lon="-2.36561">
        <ele>33.599998474121</ele>
        <time>2019-12-26T10:47:48.000Z</time>
      </trkpt>
      <trkpt lat="47.30547" lon="-2.36576">
        <ele>33.599998474121</ele>
        <time>2019-12-26T10:47:54.000Z</time>
      </trkpt>
      <trkpt lat="47.30535" lon="-2.36585">
        <ele>33.599998474121</ele>
        <time>2019-12-26T10:47:59.000Z</time>
      </trkpt>
      <trkpt lat="47.3052" lon="-2.36594">
        <ele>33.599998474121</ele>
        <time>2019-12-26T10:48:05.000Z</time>
      </trkpt>
      <trkpt lat="47.30504" lon="-2.36599">
        <ele>33.599998474121</ele>
        <time>2019-12-26T10:48:11.000Z</time>
      </trkpt>
      <trkpt lat="47.30487" lon="-2.36605">
        <ele>33.599998474121</ele>
        <time>2019-12-26T10:48:18.000Z</time>
      </trkpt>
      <trkpt lat="47.30479" lon="-2.36608">
        <ele>33.599998474121</ele>
        <time>2019-12-26T10:48:22.000Z</time>
      </trkpt>
      <trkpt lat="47.30465" lon="-2.36616">
        <ele>33.599998474121</ele>
        <time>2019-12-26T10:48:28.000Z</time>
      </trkpt>
      <trkpt lat="47.30451" lon="-2.36627">
        <ele>33.599998474121</ele>
        <time>2019-12-26T10:48:33.000Z</time>
      </trkpt>
      <trkpt lat="47.30434" lon="-2.36643">
        <ele>33.599998474121</ele>
        <time>2019-12-26T10:48:39.000Z</time>
      </trkpt>
      <trkpt lat="47.30411" lon="-2.36656">
        <ele>33.599998474121</ele>
        <time>2019-12-26T10:48:46.000Z</time>
      </trkpt>
      <trkpt lat="47.30391" lon="-2.36659">
        <ele>33.599998474121</ele>
        <time>2019-12-26T10:48:51.000Z</time>
      </trkpt>
      <trkpt lat="47.3036" lon="-2.36657">
        <ele>33.200000762939</ele>
        <time>2019-12-26T10:48:58.000Z</time>
      </trkpt>
      <trkpt lat="47.30356" lon="-2.36656">
        <ele>32.799999237061</ele>
        <time>2019-12-26T10:48:59.000Z</time>
      </trkpt>
      <trkpt lat="47.30352" lon="-2.36656">
        <ele>32.400001525879</ele>
        <time>2019-12-26T10:49:00.000Z</time>
      </trkpt>
      <trkpt lat="47.30348" lon="-2.36655">
        <ele>32</ele>
        <time>2019-12-26T10:49:01.000Z</time>
      </trkpt>
      <trkpt lat="47.30344" lon="-2.36654">
        <ele>31.60000038147</ele>
        <time>2019-12-26T10:49:02.000Z</time>
      </trkpt>
      <trkpt lat="47.30331" lon="-2.3665">
        <ele>31.60000038147</ele>
        <time>2019-12-26T10:49:05.000Z</time>
      </trkpt>
      <trkpt lat="47.30322" lon="-2.36648">
        <ele>31.60000038147</ele>
        <time>2019-12-26T10:49:07.000Z</time>
      </trkpt>
      <trkpt lat="47.30311" lon="-2.36647">
        <ele>31.60000038147</ele>
        <time>2019-12-26T10:49:10.000Z</time>
      </trkpt>
      <trkpt lat="47.30294" lon="-2.36652">
        <ele>31.60000038147</ele>
        <time>2019-12-26T10:49:15.000Z</time>
      </trkpt>
      <trkpt lat="47.30269" lon="-2.36661">
        <ele>31.60000038147</ele>
        <time>2019-12-26T10:49:22.000Z</time>
      </trkpt>
      <trkpt lat="47.30248" lon="-2.36667">
        <ele>31.60000038147</ele>
        <time>2019-12-26T10:49:27.000Z</time>
      </trkpt>
      <trkpt lat="47.30216" lon="-2.36671">
        <ele>31.60000038147</ele>
        <time>2019-12-26T10:49:35.000Z</time>
      </trkpt>
      <trkpt lat="47.30192" lon="-2.36675">
        <ele>31.60000038147</ele>
        <time>2019-12-26T10:49:42.000Z</time>
      </trkpt>
      <trkpt lat="47.30188" lon="-2.36676">
        <ele>31.60000038147</ele>
        <time>2019-12-26T10:49:44.000Z</time>
      </trkpt>
      <trkpt lat="47.30187" lon="-2.36676">
        <ele>31.60000038147</ele>
        <time>2019-12-26T10:49:45.000Z</time>
      </trkpt>
      <trkpt lat="47.30178" lon="-2.3668">
        <ele>29.60000038147</ele>
        <time>2019-12-26T10:50:02.000Z</time>
      </trkpt>
      <trkpt lat="47.30175" lon="-2.36678">
        <ele>29.60000038147</ele>
        <time>2019-12-26T10:50:05.000Z</time>
      </trkpt>
      <trkpt lat="47.30173" lon="-2.3668">
        <ele>29.60000038147</ele>
        <time>2019-12-26T10:51:58.000Z</time>
      </trkpt>
      <trkpt lat="47.30169" lon="-2.36683">
        <ele>29.60000038147</ele>
        <time>2019-12-26T10:52:01.000Z</time>
      </trkpt>
      <trkpt lat="47.30156" lon="-2.36684">
        <ele>29.60000038147</ele>
        <time>2019-12-26T10:52:06.000Z</time>
      </trkpt>
      <trkpt lat="47.30152" lon="-2.36685">
        <ele>29.60000038147</ele>
        <time>2019-12-26T10:52:07.000Z</time>
      </trkpt>
      <trkpt lat="47.30143" lon="-2.36691">
        <ele>29</ele>
        <time>2019-12-26T10:52:09.000Z</time>
      </trkpt>
      <trkpt lat="47.3014" lon="-2.36693">
        <ele>28.60000038147</ele>
        <time>2019-12-26T10:52:10.000Z</time>
      </trkpt>
      <trkpt lat="47.30137" lon="-2.36696">
        <ele>28.200000762939</ele>
        <time>2019-12-26T10:52:11.000Z</time>
      </trkpt>
      <trkpt lat="47.30132" lon="-2.36699">
        <ele>27.799999237061</ele>
        <time>2019-12-26T10:52:12.000Z</time>
      </trkpt>
      <trkpt lat="47.30126" lon="-2.36702">
        <ele>27.39999961853</ele>
        <time>2019-12-26T10:52:13.000Z</time>
      </trkpt>
      <trkpt lat="47.30121" lon="-2.36707">
        <ele>27.39999961853</ele>
        <time>2019-12-26T10:52:14.000Z</time>
      </trkpt>
      <trkpt lat="47.30097" lon="-2.36726">
        <ele>27.39999961853</ele>
        <time>2019-12-26T10:52:19.000Z</time>
      </trkpt>
      <trkpt lat="47.30085" lon="-2.36739">
        <ele>27.799999237061</ele>
        <time>2019-12-26T10:52:22.000Z</time>
      </trkpt>
      <trkpt lat="47.30081" lon="-2.36743">
        <ele>28.200000762939</ele>
        <time>2019-12-26T10:52:23.000Z</time>
      </trkpt>
      <trkpt lat="47.30077" lon="-2.36747">
        <ele>28.799999237061</ele>
        <time>2019-12-26T10:52:24.000Z</time>
      </trkpt>
      <trkpt lat="47.30073" lon="-2.36751">
        <ele>29.200000762939</ele>
        <time>2019-12-26T10:52:25.000Z</time>
      </trkpt>
      <trkpt lat="47.3007" lon="-2.36756">
        <ele>29.60000038147</ele>
        <time>2019-12-26T10:52:26.000Z</time>
      </trkpt>
      <trkpt lat="47.30045" lon="-2.36785">
        <ele>29.60000038147</ele>
        <time>2019-12-26T10:52:33.000Z</time>
      </trkpt>
      <trkpt lat="47.30032" lon="-2.36802">
        <ele>29.60000038147</ele>
        <time>2019-12-26T10:52:37.000Z</time>
      </trkpt>
      <trkpt lat="47.30025" lon="-2.3681">
        <ele>29.60000038147</ele>
        <time>2019-12-26T10:52:39.000Z</time>
      </trkpt>
      <trkpt lat="47.30001" lon="-2.36839">
        <ele>29.60000038147</ele>
        <time>2019-12-26T10:52:46.000Z</time>
      </trkpt>
      <trkpt lat="47.29975" lon="-2.36869">
        <ele>29.60000038147</ele>
        <time>2019-12-26T10:52:53.000Z</time>
      </trkpt>
      <trkpt lat="47.29947" lon="-2.36903">
        <ele>29.60000038147</ele>
        <time>2019-12-26T10:53:01.000Z</time>
      </trkpt>
      <trkpt lat="47.29926" lon="-2.36928">
        <ele>29.60000038147</ele>
        <time>2019-12-26T10:53:08.000Z</time>
      </trkpt>
      <trkpt lat="47.2991" lon="-2.36951">
        <ele>29.60000038147</ele>
        <time>2019-12-26T10:53:15.000Z</time>
      </trkpt>
      <trkpt lat="47.29897" lon="-2.36971">
        <ele>29.60000038147</ele>
        <time>2019-12-26T10:53:20.000Z</time>
      </trkpt>
      <trkpt lat="47.29878" lon="-2.36976">
        <ele>29.60000038147</ele>
        <time>2019-12-26T10:53:24.000Z</time>
      </trkpt>
      <trkpt lat="47.29869" lon="-2.36983">
        <ele>29.60000038147</ele>
        <time>2019-12-26T10:53:26.000Z</time>
      </trkpt>
      <trkpt lat="47.29865" lon="-2.36988">
        <ele>29.60000038147</ele>
        <time>2019-12-26T10:53:27.000Z</time>
      </trkpt>
      <trkpt lat="47.29861" lon="-2.36992">
        <ele>29.60000038147</ele>
        <time>2019-12-26T10:53:28.000Z</time>
      </trkpt>
      <trkpt lat="47.29836" lon="-2.37023">
        <ele>29.60000038147</ele>
        <time>2019-12-26T10:53:35.000Z</time>
      </trkpt>
      <trkpt lat="47.2982" lon="-2.37048">
        <ele>30</ele>
        <time>2019-12-26T10:53:40.000Z</time>
      </trkpt>
      <trkpt lat="47.29818" lon="-2.37053">
        <ele>30.39999961853</ele>
        <time>2019-12-26T10:53:41.000Z</time>
      </trkpt>
      <trkpt lat="47.29815" lon="-2.37059">
        <ele>30.799999237061</ele>
        <time>2019-12-26T10:53:42.000Z</time>
      </trkpt>
      <trkpt lat="47.29813" lon="-2.37064">
        <ele>31.200000762939</ele>
        <time>2019-12-26T10:53:43.000Z</time>
      </trkpt>
      <trkpt lat="47.29811" lon="-2.3707">
        <ele>31.60000038147</ele>
        <time>2019-12-26T10:53:44.000Z</time>
      </trkpt>
      <trkpt lat="47.2981" lon="-2.37076">
        <ele>31.60000038147</ele>
        <time>2019-12-26T10:53:45.000Z</time>
      </trkpt>
      <trkpt lat="47.29808" lon="-2.37088">
        <ele>31.60000038147</ele>
        <time>2019-12-26T10:53:47.000Z</time>
      </trkpt>
      <trkpt lat="47.29806" lon="-2.37101">
        <ele>31.60000038147</ele>
        <time>2019-12-26T10:53:49.000Z</time>
      </trkpt>
      <trkpt lat="47.29801" lon="-2.37134">
        <ele>31.60000038147</ele>
        <time>2019-12-26T10:53:54.000Z</time>
      </trkpt>
      <trkpt lat="47.29788" lon="-2.37157">
        <ele>31.60000038147</ele>
        <time>2019-12-26T10:53:58.000Z</time>
      </trkpt>
      <trkpt lat="47.2978" lon="-2.37167">
        <ele>31.60000038147</ele>
        <time>2019-12-26T10:54:00.000Z</time>
      </trkpt>
      <trkpt lat="47.29767" lon="-2.37177">
        <ele>31.60000038147</ele>
        <time>2019-12-26T10:54:03.000Z</time>
      </trkpt>
      <trkpt lat="47.29748" lon="-2.37185">
        <ele>31.60000038147</ele>
        <time>2019-12-26T10:54:07.000Z</time>
      </trkpt>
      <trkpt lat="47.29743" lon="-2.37185">
        <ele>31.60000038147</ele>
        <time>2019-12-26T10:54:08.000Z</time>
      </trkpt>
      <trkpt lat="47.29716" lon="-2.37188">
        <ele>31.60000038147</ele>
        <time>2019-12-26T10:54:13.000Z</time>
      </trkpt>
      <trkpt lat="47.29706" lon="-2.37193">
        <ele>31.60000038147</ele>
        <time>2019-12-26T10:54:15.000Z</time>
      </trkpt>
      <trkpt lat="47.29675" lon="-2.37206">
        <ele>31.200000762939</ele>
        <time>2019-12-26T10:54:21.000Z</time>
      </trkpt>
      <trkpt lat="47.2967" lon="-2.37208">
        <ele>30.799999237061</ele>
        <time>2019-12-26T10:54:22.000Z</time>
      </trkpt>
      <trkpt lat="47.29665" lon="-2.37209">
        <ele>30.39999961853</ele>
        <time>2019-12-26T10:54:23.000Z</time>
      </trkpt>
      <trkpt lat="47.2966" lon="-2.37211">
        <ele>30</ele>
        <time>2019-12-26T10:54:24.000Z</time>
      </trkpt>
      <trkpt lat="47.29656" lon="-2.37213">
        <ele>29.60000038147</ele>
        <time>2019-12-26T10:54:25.000Z</time>
      </trkpt>
      <trkpt lat="47.29641" lon="-2.37219">
        <ele>29.60000038147</ele>
        <time>2019-12-26T10:54:28.000Z</time>
      </trkpt>
      <trkpt lat="47.29601" lon="-2.37239">
        <ele>29.60000038147</ele>
        <time>2019-12-26T10:54:35.000Z</time>
      </trkpt>
      <trkpt lat="47.2959" lon="-2.37246">
        <ele>29.200000762939</ele>
        <time>2019-12-26T10:54:37.000Z</time>
      </trkpt>
      <trkpt lat="47.29584" lon="-2.37249">
        <ele>28.60000038147</ele>
        <time>2019-12-26T10:54:38.000Z</time>
      </trkpt>
      <trkpt lat="47.29578" lon="-2.37252">
        <ele>28.200000762939</ele>
        <time>2019-12-26T10:54:39.000Z</time>
      </trkpt>
      <trkpt lat="47.29573" lon="-2.37255">
        <ele>27.799999237061</ele>
        <time>2019-12-26T10:54:40.000Z</time>
      </trkpt>
      <trkpt lat="47.29568" lon="-2.37258">
        <ele>27.39999961853</ele>
        <time>2019-12-26T10:54:41.000Z</time>
      </trkpt>
      <trkpt lat="47.29562" lon="-2.37261">
        <ele>27.39999961853</ele>
        <time>2019-12-26T10:54:42.000Z</time>
      </trkpt>
      <trkpt lat="47.29525" lon="-2.37282">
        <ele>27</ele>
        <time>2019-12-26T10:54:49.000Z</time>
      </trkpt>
      <trkpt lat="47.29519" lon="-2.37284">
        <ele>26.39999961853</ele>
        <time>2019-12-26T10:54:51.000Z</time>
      </trkpt>
      <trkpt lat="47.29512" lon="-2.37286">
        <ele>26</ele>
        <time>2019-12-26T10:54:52.000Z</time>
      </trkpt>
      <trkpt lat="47.29505" lon="-2.37286">
        <ele>25.39999961853</ele>
        <time>2019-12-26T10:54:53.000Z</time>
      </trkpt>
      <trkpt lat="47.29498" lon="-2.37286">
        <ele>25</ele>
        <time>2019-12-26T10:54:54.000Z</time>
      </trkpt>
      <trkpt lat="47.29492" lon="-2.37285">
        <ele>25</ele>
        <time>2019-12-26T10:54:55.000Z</time>
      </trkpt>
      <trkpt lat="47.2948" lon="-2.37287">
        <ele>25</ele>
        <time>2019-12-26T10:54:57.000Z</time>
      </trkpt>
      <trkpt lat="47.29476" lon="-2.37291">
        <ele>25</ele>
        <time>2019-12-26T10:54:58.000Z</time>
      </trkpt>
      <trkpt lat="47.29474" lon="-2.37302">
        <ele>24.39999961853</ele>
        <time>2019-12-26T10:55:00.000Z</time>
      </trkpt>
      <trkpt lat="47.29477" lon="-2.37306">
        <ele>24</ele>
        <time>2019-12-26T10:55:01.000Z</time>
      </trkpt>
      <trkpt lat="47.2948" lon="-2.37309">
        <ele>23</ele>
        <time>2019-12-26T10:55:02.000Z</time>
      </trkpt>
      <trkpt lat="47.29485" lon="-2.37313">
        <ele>22.60000038147</ele>
        <time>2019-12-26T10:55:03.000Z</time>
      </trkpt>
      <trkpt lat="47.29495" lon="-2.37322">
        <ele>22.60000038147</ele>
        <time>2019-12-26T10:55:05.000Z</time>
      </trkpt>
      <trkpt lat="47.29509" lon="-2.37338">
        <ele>22.60000038147</ele>
        <time>2019-12-26T10:55:08.000Z</time>
      </trkpt>
      <trkpt lat="47.29536" lon="-2.37369">
        <ele>22.60000038147</ele>
        <time>2019-12-26T10:55:14.000Z</time>
      </trkpt>
      <trkpt lat="47.29552" lon="-2.37389">
        <ele>22.60000038147</ele>
        <time>2019-12-26T10:55:19.000Z</time>
      </trkpt>
      <trkpt lat="47.29569" lon="-2.37412">
        <ele>22.60000038147</ele>
        <time>2019-12-26T10:55:25.000Z</time>
      </trkpt>
      <trkpt lat="47.29572" lon="-2.37418">
        <ele>22.60000038147</ele>
        <time>2019-12-26T10:55:26.000Z</time>
      </trkpt>
      <trkpt lat="47.29582" lon="-2.37437">
        <ele>22.60000038147</ele>
        <time>2019-12-26T10:55:29.000Z</time>
      </trkpt>
      <trkpt lat="47.29586" lon="-2.37443">
        <ele>22.60000038147</ele>
        <time>2019-12-26T10:55:30.000Z</time>
      </trkpt>
      <trkpt lat="47.29607" lon="-2.37481">
        <ele>22.60000038147</ele>
        <time>2019-12-26T10:55:36.000Z</time>
      </trkpt>
      <trkpt lat="47.29617" lon="-2.37491">
        <ele>22.60000038147</ele>
        <time>2019-12-26T10:55:38.000Z</time>
      </trkpt>
      <trkpt lat="47.29659" lon="-2.37524">
        <ele>22.60000038147</ele>
        <time>2019-12-26T10:55:45.000Z</time>
      </trkpt>
      <trkpt lat="47.29671" lon="-2.37534">
        <ele>22.200000762939</ele>
        <time>2019-12-26T10:55:47.000Z</time>
      </trkpt>
      <trkpt lat="47.29677" lon="-2.37538">
        <ele>21.799999237061</ele>
        <time>2019-12-26T10:55:48.000Z</time>
      </trkpt>
      <trkpt lat="47.29683" lon="-2.37543">
        <ele>21.200000762939</ele>
        <time>2019-12-26T10:55:49.000Z</time>
      </trkpt>
      <trkpt lat="47.29688" lon="-2.37548">
        <ele>20.799999237061</ele>
        <time>2019-12-26T10:55:50.000Z</time>
      </trkpt>
      <trkpt lat="47.29694" lon="-2.37552">
        <ele>20.39999961853</ele>
        <time>2019-12-26T10:55:51.000Z</time>
      </trkpt>
      <trkpt lat="47.29708" lon="-2.37565">
        <ele>20.39999961853</ele>
        <time>2019-12-26T10:55:54.000Z</time>
      </trkpt>
      <trkpt lat="47.29715" lon="-2.37575">
        <ele>20.39999961853</ele>
        <time>2019-12-26T10:55:56.000Z</time>
      </trkpt>
      <trkpt lat="47.29736" lon="-2.37601">
        <ele>21</ele>
        <time>2019-12-26T10:56:01.000Z</time>
      </trkpt>
      <trkpt lat="47.2974" lon="-2.37606">
        <ele>21.39999961853</ele>
        <time>2019-12-26T10:56:02.000Z</time>
      </trkpt>
      <trkpt lat="47.29744" lon="-2.37611">
        <ele>21.799999237061</ele>
        <time>2019-12-26T10:56:03.000Z</time>
      </trkpt>
      <trkpt lat="47.29748" lon="-2.37616">
        <ele>22.200000762939</ele>
        <time>2019-12-26T10:56:04.000Z</time>
      </trkpt>
      <trkpt lat="47.29751" lon="-2.37621">
        <ele>22.60000038147</ele>
        <time>2019-12-26T10:56:05.000Z</time>
      </trkpt>
      <trkpt lat="47.29765" lon="-2.37639">
        <ele>22.60000038147</ele>
        <time>2019-12-26T10:56:09.000Z</time>
      </trkpt>
      <trkpt lat="47.29781" lon="-2.37662">
        <ele>23</ele>
        <time>2019-12-26T10:56:14.000Z</time>
      </trkpt>
      <trkpt lat="47.29784" lon="-2.37666">
        <ele>23.39999961853</ele>
        <time>2019-12-26T10:56:15.000Z</time>
      </trkpt>
      <trkpt lat="47.29787" lon="-2.37671">
        <ele>24.200000762939</ele>
        <time>2019-12-26T10:56:16.000Z</time>
      </trkpt>
      <trkpt lat="47.2979" lon="-2.37675">
        <ele>24.799999237061</ele>
        <time>2019-12-26T10:56:17.000Z</time>
      </trkpt>
      <trkpt lat="47.29799" lon="-2.37688">
        <ele>25.200000762939</ele>
        <time>2019-12-26T10:56:20.000Z</time>
      </trkpt>
      <trkpt lat="47.29802" lon="-2.37693">
        <ele>25.60000038147</ele>
        <time>2019-12-26T10:56:21.000Z</time>
      </trkpt>
      <trkpt lat="47.29805" lon="-2.37697">
        <ele>26</ele>
        <time>2019-12-26T10:56:22.000Z</time>
      </trkpt>
      <trkpt lat="47.29807" lon="-2.37701">
        <ele>26.39999961853</ele>
        <time>2019-12-26T10:56:23.000Z</time>
      </trkpt>
      <trkpt lat="47.2981" lon="-2.37706">
        <ele>26.799999237061</ele>
        <time>2019-12-26T10:56:24.000Z</time>
      </trkpt>
      <trkpt lat="47.29813" lon="-2.37711">
        <ele>26.799999237061</ele>
        <time>2019-12-26T10:56:25.000Z</time>
      </trkpt>
      <trkpt lat="47.29836" lon="-2.37747">
        <ele>26.799999237061</ele>
        <time>2019-12-26T10:56:32.000Z</time>
      </trkpt>
      <trkpt lat="47.29846" lon="-2.37764">
        <ele>26.39999961853</ele>
        <time>2019-12-26T10:56:35.000Z</time>
      </trkpt>
      <trkpt lat="47.29849" lon="-2.3777">
        <ele>25.799999237061</ele>
        <time>2019-12-26T10:56:36.000Z</time>
      </trkpt>
      <trkpt lat="47.29852" lon="-2.37775">
        <ele>25.39999961853</ele>
        <time>2019-12-26T10:56:37.000Z</time>
      </trkpt>
      <trkpt lat="47.29856" lon="-2.37781">
        <ele>25</ele>
        <time>2019-12-26T10:56:38.000Z</time>
      </trkpt>
      <trkpt lat="47.29859" lon="-2.37786">
        <ele>24.60000038147</ele>
        <time>2019-12-26T10:56:39.000Z</time>
      </trkpt>
      <trkpt lat="47.29863" lon="-2.37792">
        <ele>24.60000038147</ele>
        <time>2019-12-26T10:56:40.000Z</time>
      </trkpt>
      <trkpt lat="47.29869" lon="-2.37802">
        <ele>24</ele>
        <time>2019-12-26T10:56:42.000Z</time>
      </trkpt>
      <trkpt lat="47.2987" lon="-2.37807">
        <ele>23.60000038147</ele>
        <time>2019-12-26T10:56:43.000Z</time>
      </trkpt>
      <trkpt lat="47.29871" lon="-2.37813">
        <ele>23.200000762939</ele>
        <time>2019-12-26T10:56:44.000Z</time>
      </trkpt>
      <trkpt lat="47.29869" lon="-2.37818">
        <ele>22.799999237061</ele>
        <time>2019-12-26T10:56:45.000Z</time>
      </trkpt>
      <trkpt lat="47.29868" lon="-2.37823">
        <ele>22.200000762939</ele>
        <time>2019-12-26T10:56:46.000Z</time>
      </trkpt>
      <trkpt lat="47.29866" lon="-2.37827">
        <ele>22.200000762939</ele>
        <time>2019-12-26T10:56:47.000Z</time>
      </trkpt>
      <trkpt lat="47.29864" lon="-2.37831">
        <ele>22.200000762939</ele>
        <time>2019-12-26T10:56:48.000Z</time>
      </trkpt>
      <trkpt lat="47.29861" lon="-2.37839">
        <ele>22.200000762939</ele>
        <time>2019-12-26T10:56:51.000Z</time>
      </trkpt>
      <trkpt lat="47.2985" lon="-2.37859">
        <ele>22.200000762939</ele>
        <time>2019-12-26T10:56:56.000Z</time>
      </trkpt>
      <trkpt lat="47.29837" lon="-2.37879">
        <ele>22.200000762939</ele>
        <time>2019-12-26T10:57:00.000Z</time>
      </trkpt>
      <trkpt lat="47.29833" lon="-2.37882">
        <ele>22.200000762939</ele>
        <time>2019-12-26T10:57:01.000Z</time>
      </trkpt>
      <trkpt lat="47.29813" lon="-2.37897">
        <ele>22.200000762939</ele>
        <time>2019-12-26T10:57:07.000Z</time>
      </trkpt>
      <trkpt lat="47.29793" lon="-2.3791">
        <ele>22.200000762939</ele>
        <time>2019-12-26T10:57:12.000Z</time>
      </trkpt>
      <trkpt lat="47.29771" lon="-2.37923">
        <ele>22.200000762939</ele>
        <time>2019-12-26T10:57:18.000Z</time>
      </trkpt>
      <trkpt lat="47.29758" lon="-2.37933">
        <ele>22.200000762939</ele>
        <time>2019-12-26T10:57:22.000Z</time>
      </trkpt>
      <trkpt lat="47.29741" lon="-2.37956">
        <ele>22.200000762939</ele>
        <time>2019-12-26T10:57:29.000Z</time>
      </trkpt>
      <trkpt lat="47.29733" lon="-2.37973">
        <ele>21.799999237061</ele>
        <time>2019-12-26T10:57:34.000Z</time>
      </trkpt>
      <trkpt lat="47.29732" lon="-2.37977">
        <ele>21.39999961853</ele>
        <time>2019-12-26T10:57:35.000Z</time>
      </trkpt>
      <trkpt lat="47.29731" lon="-2.37981">
        <ele>21</ele>
        <time>2019-12-26T10:57:36.000Z</time>
      </trkpt>
      <trkpt lat="47.2973" lon="-2.37986">
        <ele>20.60000038147</ele>
        <time>2019-12-26T10:57:37.000Z</time>
      </trkpt>
      <trkpt lat="47.29729" lon="-2.3799">
        <ele>20.200000762939</ele>
        <time>2019-12-26T10:57:38.000Z</time>
      </trkpt>
      <trkpt lat="47.29729" lon="-2.37995">
        <ele>19.60000038147</ele>
        <time>2019-12-26T10:57:39.000Z</time>
      </trkpt>
      <trkpt lat="47.2973" lon="-2.38">
        <ele>19</ele>
        <time>2019-12-26T10:57:40.000Z</time>
      </trkpt>
      <trkpt lat="47.2973" lon="-2.38006">
        <ele>18.60000038147</ele>
        <time>2019-12-26T10:57:41.000Z</time>
      </trkpt>
      <trkpt lat="47.29731" lon="-2.38012">
        <ele>17.799999237061</ele>
        <time>2019-12-26T10:57:42.000Z</time>
      </trkpt>
      <trkpt lat="47.29732" lon="-2.38018">
        <ele>17.200000762939</ele>
        <time>2019-12-26T10:57:43.000Z</time>
      </trkpt>
      <trkpt lat="47.29734" lon="-2.38023">
        <ele>16.39999961853</ele>
        <time>2019-12-26T10:57:44.000Z</time>
      </trkpt>
      <trkpt lat="47.29735" lon="-2.38028">
        <ele>15.60000038147</ele>
        <time>2019-12-26T10:57:45.000Z</time>
      </trkpt>
      <trkpt lat="47.29734" lon="-2.38031">
        <ele>15</ele>
        <time>2019-12-26T10:57:46.000Z</time>
      </trkpt>
      <trkpt lat="47.29732" lon="-2.38034">
        <ele>14.199999809265</ele>
        <time>2019-12-26T10:57:47.000Z</time>
      </trkpt>
      <trkpt lat="47.29729" lon="-2.38038">
        <ele>13.60000038147</ele>
        <time>2019-12-26T10:57:48.000Z</time>
      </trkpt>
      <trkpt lat="47.29725" lon="-2.38041">
        <ele>13</ele>
        <time>2019-12-26T10:57:49.000Z</time>
      </trkpt>
      <trkpt lat="47.29721" lon="-2.38044">
        <ele>12.39999961853</ele>
        <time>2019-12-26T10:57:50.000Z</time>
      </trkpt>
      <trkpt lat="47.29715" lon="-2.38049">
        <ele>11.800000190735</ele>
        <time>2019-12-26T10:57:51.000Z</time>
      </trkpt>
      <trkpt lat="47.29709" lon="-2.38053">
        <ele>11.199999809265</ele>
        <time>2019-12-26T10:57:52.000Z</time>
      </trkpt>
      <trkpt lat="47.29703" lon="-2.38058">
        <ele>10.60000038147</ele>
        <time>2019-12-26T10:57:53.000Z</time>
      </trkpt>
      <trkpt lat="47.29697" lon="-2.38063">
        <ele>9.8000001907349</ele>
        <time>2019-12-26T10:57:54.000Z</time>
      </trkpt>
      <trkpt lat="47.29691" lon="-2.38068">
        <ele>9.1999998092651</ele>
        <time>2019-12-26T10:57:55.000Z</time>
      </trkpt>
      <trkpt lat="47.29685" lon="-2.38073">
        <ele>8.6000003814697</ele>
        <time>2019-12-26T10:57:56.000Z</time>
      </trkpt>
      <trkpt lat="47.29679" lon="-2.38077">
        <ele>8</ele>
        <time>2019-12-26T10:57:57.000Z</time>
      </trkpt>
      <trkpt lat="47.29672" lon="-2.38081">
        <ele>7.1999998092651</ele>
        <time>2019-12-26T10:57:58.000Z</time>
      </trkpt>
      <trkpt lat="47.29665" lon="-2.38085">
        <ele>6.5999999046326</ele>
        <time>2019-12-26T10:57:59.000Z</time>
      </trkpt>
      <trkpt lat="47.29658" lon="-2.38089">
        <ele>5.8000001907349</ele>
        <time>2019-12-26T10:58:00.000Z</time>
      </trkpt>
      <trkpt lat="47.29651" lon="-2.38093">
        <ele>5</ele>
        <time>2019-12-26T10:58:01.000Z</time>
      </trkpt>
      <trkpt lat="47.29644" lon="-2.38096">
        <ele>4.1999998092651</ele>
        <time>2019-12-26T10:58:02.000Z</time>
      </trkpt>
      <trkpt lat="47.29638" lon="-2.38099">
        <ele>3.5999999046326</ele>
        <time>2019-12-26T10:58:03.000Z</time>
      </trkpt>
      <trkpt lat="47.29631" lon="-2.38103">
        <ele>3</ele>
        <time>2019-12-26T10:58:04.000Z</time>
      </trkpt>
      <trkpt lat="47.29625" lon="-2.38105">
        <ele>2.4000000953674</ele>
        <time>2019-12-26T10:58:05.000Z</time>
      </trkpt>
      <trkpt lat="47.29618" lon="-2.38107">
        <ele>1.7999999523163</ele>
        <time>2019-12-26T10:58:06.000Z</time>
      </trkpt>
      <trkpt lat="47.29612" lon="-2.38109">
        <ele>1.2000000476837</ele>
        <time>2019-12-26T10:58:07.000Z</time>
      </trkpt>
      <trkpt lat="47.29604" lon="-2.38111">
        <ele>0.80000001192093</ele>
        <time>2019-12-26T10:58:08.000Z</time>
      </trkpt>
      <trkpt lat="47.29597" lon="-2.38113">
        <ele>0.20000000298023</ele>
        <time>2019-12-26T10:58:09.000Z</time>
      </trkpt>
      <trkpt lat="47.2959" lon="-2.38114">
        <ele>-0.40000000596046</ele>
        <time>2019-12-26T10:58:10.000Z</time>
      </trkpt>
      <trkpt lat="47.29583" lon="-2.38116">
        <ele>-0.80000001192093</ele>
        <time>2019-12-26T10:58:11.000Z</time>
      </trkpt>
      <trkpt lat="47.29549" lon="-2.38122">
        <ele>-1.3999999761581</ele>
        <time>2019-12-26T10:58:16.000Z</time>
      </trkpt>
      <trkpt lat="47.29542" lon="-2.38122">
        <ele>-1.7999999523163</ele>
        <time>2019-12-26T10:58:17.000Z</time>
      </trkpt>
      <trkpt lat="47.29535" lon="-2.38122">
        <ele>-2.2000000476837</ele>
        <time>2019-12-26T10:58:18.000Z</time>
      </trkpt>
      <trkpt lat="47.29529" lon="-2.38122">
        <ele>-3.2000000476837</ele>
        <time>2019-12-26T10:58:19.000Z</time>
      </trkpt>
      <trkpt lat="47.29522" lon="-2.38121">
        <ele>-3.5999999046326</ele>
        <time>2019-12-26T10:58:20.000Z</time>
      </trkpt>
      <trkpt lat="47.29515" lon="-2.3812">
        <ele>-4</ele>
        <time>2019-12-26T10:58:21.000Z</time>
      </trkpt>
      <trkpt lat="47.29508" lon="-2.3812">
        <ele>-4.4000000953674</ele>
        <time>2019-12-26T10:58:22.000Z</time>
      </trkpt>
      <trkpt lat="47.29502" lon="-2.38119">
        <ele>-4.8000001907349</ele>
        <time>2019-12-26T10:58:23.000Z</time>
      </trkpt>
      <trkpt lat="47.29495" lon="-2.3812">
        <ele>-5.1999998092651</ele>
        <time>2019-12-26T10:58:24.000Z</time>
      </trkpt>
      <trkpt lat="47.29483" lon="-2.38126">
        <ele>-5.1999998092651</ele>
        <time>2019-12-26T10:58:26.000Z</time>
      </trkpt>
      <trkpt lat="47.29473" lon="-2.38132">
        <ele>-5.5999999046326</ele>
        <time>2019-12-26T10:58:28.000Z</time>
      </trkpt>
      <trkpt lat="47.29469" lon="-2.38135">
        <ele>-6</ele>
        <time>2019-12-26T10:58:29.000Z</time>
      </trkpt>
      <trkpt lat="47.29467" lon="-2.38138">
        <ele>-6.4000000953674</ele>
        <time>2019-12-26T10:58:30.000Z</time>
      </trkpt>
      <trkpt lat="47.29465" lon="-2.3814">
        <ele>-6.8000001907349</ele>
        <time>2019-12-26T10:58:31.000Z</time>
      </trkpt>
      <trkpt lat="47.29463" lon="-2.38142">
        <ele>-7.1999998092651</ele>
        <time>2019-12-26T10:58:32.000Z</time>
      </trkpt>
      <trkpt lat="47.29456" lon="-2.38147">
        <ele>-7.1999998092651</ele>
        <time>2019-12-26T10:58:35.000Z</time>
      </trkpt>
      <trkpt lat="47.2945" lon="-2.38148">
        <ele>-7.1999998092651</ele>
        <time>2019-12-26T10:58:37.000Z</time>
      </trkpt>
      <trkpt lat="47.29444" lon="-2.38142">
        <ele>-7.1999998092651</ele>
        <time>2019-12-26T10:58:39.000Z</time>
      </trkpt>
      <trkpt lat="47.2944" lon="-2.3813">
        <ele>-7.8000001907349</ele>
        <time>2019-12-26T10:58:41.000Z</time>
      </trkpt>
      <trkpt lat="47.29438" lon="-2.38124">
        <ele>-8.6000003814697</ele>
        <time>2019-12-26T10:58:42.000Z</time>
      </trkpt>
      <trkpt lat="47.29436" lon="-2.38117">
        <ele>-9</ele>
        <time>2019-12-26T10:58:43.000Z</time>
      </trkpt>
      <trkpt lat="47.29433" lon="-2.38109">
        <ele>-9.3999996185303</ele>
        <time>2019-12-26T10:58:44.000Z</time>
      </trkpt>
      <trkpt lat="47.29423" lon="-2.38078">
        <ele>-9.3999996185303</ele>
        <time>2019-12-26T10:58:48.000Z</time>
      </trkpt>
      <trkpt lat="47.29404" lon="-2.38029">
        <ele>-9.3999996185303</ele>
        <time>2019-12-26T10:58:54.000Z</time>
      </trkpt>
      <trkpt lat="47.29385" lon="-2.37976">
        <ele>-9.3999996185303</ele>
        <time>2019-12-26T10:59:01.000Z</time>
      </trkpt>
      <trkpt lat="47.29366" lon="-2.3792">
        <ele>-9.3999996185303</ele>
        <time>2019-12-26T10:59:09.000Z</time>
      </trkpt>
      <trkpt lat="47.29362" lon="-2.37907">
        <ele>-9</ele>
        <time>2019-12-26T10:59:11.000Z</time>
      </trkpt>
      <trkpt lat="47.29359" lon="-2.379">
        <ele>-8.6000003814697</ele>
        <time>2019-12-26T10:59:12.000Z</time>
      </trkpt>
      <trkpt lat="47.29357" lon="-2.37893">
        <ele>-8</ele>
        <time>2019-12-26T10:59:13.000Z</time>
      </trkpt>
      <trkpt lat="47.29354" lon="-2.37887">
        <ele>-7.5999999046326</ele>
        <time>2019-12-26T10:59:14.000Z</time>
      </trkpt>
      <trkpt lat="47.29351" lon="-2.3788">
        <ele>-7.1999998092651</ele>
        <time>2019-12-26T10:59:15.000Z</time>
      </trkpt>
      <trkpt lat="47.29343" lon="-2.3786">
        <ele>-7.1999998092651</ele>
        <time>2019-12-26T10:59:18.000Z</time>
      </trkpt>
      <trkpt lat="47.29339" lon="-2.37839">
        <ele>-7.1999998092651</ele>
        <time>2019-12-26T10:59:21.000Z</time>
      </trkpt>
      <trkpt lat="47.29338" lon="-2.37832">
        <ele>-7.1999998092651</ele>
        <time>2019-12-26T10:59:22.000Z</time>
      </trkpt>
      <trkpt lat="47.29337" lon="-2.37825">
        <ele>-6.8000001907349</ele>
        <time>2019-12-26T10:59:23.000Z</time>
      </trkpt>
      <trkpt lat="47.29336" lon="-2.37818">
        <ele>-6.4000000953674</ele>
        <time>2019-12-26T10:59:24.000Z</time>
      </trkpt>
      <trkpt lat="47.29335" lon="-2.37811">
        <ele>-5.8000001907349</ele>
        <time>2019-12-26T10:59:25.000Z</time>
      </trkpt>
      <trkpt lat="47.29334" lon="-2.37803">
        <ele>-5.4000000953674</ele>
        <time>2019-12-26T10:59:26.000Z</time>
      </trkpt>
      <trkpt lat="47.29334" lon="-2.37797">
        <ele>-5</ele>
        <time>2019-12-26T10:59:27.000Z</time>
      </trkpt>
      <trkpt lat="47.29333" lon="-2.37783">
        <ele>-5</ele>
        <time>2019-12-26T10:59:29.000Z</time>
      </trkpt>
      <trkpt lat="47.29332" lon="-2.37769">
        <ele>-5</ele>
        <time>2019-12-26T10:59:31.000Z</time>
      </trkpt>
      <trkpt lat="47.29332" lon="-2.37755">
        <ele>-4.5999999046326</ele>
        <time>2019-12-26T10:59:33.000Z</time>
      </trkpt>
      <trkpt lat="47.29331" lon="-2.37748">
        <ele>-4.1999998092651</ele>
        <time>2019-12-26T10:59:34.000Z</time>
      </trkpt>
      <trkpt lat="47.29331" lon="-2.37742">
        <ele>-3.7999999523163</ele>
        <time>2019-12-26T10:59:35.000Z</time>
      </trkpt>
      <trkpt lat="47.29331" lon="-2.37736">
        <ele>-3.4000000953674</ele>
        <time>2019-12-26T10:59:36.000Z</time>
      </trkpt>
      <trkpt lat="47.2933" lon="-2.3773">
        <ele>-3</ele>
        <time>2019-12-26T10:59:37.000Z</time>
      </trkpt>
      <trkpt lat="47.2933" lon="-2.37718">
        <ele>-2.5999999046326</ele>
        <time>2019-12-26T10:59:39.000Z</time>
      </trkpt>
      <trkpt lat="47.2933" lon="-2.37712">
        <ele>-2</ele>
        <time>2019-12-26T10:59:40.000Z</time>
      </trkpt>
      <trkpt lat="47.29329" lon="-2.37705">
        <ele>-1.6000000238419</ele>
        <time>2019-12-26T10:59:41.000Z</time>
      </trkpt>
      <trkpt lat="47.29329" lon="-2.37699">
        <ele>-1</ele>
        <time>2019-12-26T10:59:42.000Z</time>
      </trkpt>
      <trkpt lat="47.29329" lon="-2.37692">
        <ele>-0.60000002384186</ele>
        <time>2019-12-26T10:59:43.000Z</time>
      </trkpt>
      <trkpt lat="47.29329" lon="-2.37661">
        <ele>-0.20000000298023</ele>
        <time>2019-12-26T10:59:48.000Z</time>
      </trkpt>
      <trkpt lat="47.29328" lon="-2.37655">
        <ele>0.40000000596046</ele>
        <time>2019-12-26T10:59:49.000Z</time>
      </trkpt>
      <trkpt lat="47.29327" lon="-2.37648">
        <ele>0.80000001192093</ele>
        <time>2019-12-26T10:59:50.000Z</time>
      </trkpt>
      <trkpt lat="47.29325" lon="-2.37642">
        <ele>1.2000000476837</ele>
        <time>2019-12-26T10:59:51.000Z</time>
      </trkpt>
      <trkpt lat="47.29324" lon="-2.37635">
        <ele>1.6000000238419</ele>
        <time>2019-12-26T10:59:52.000Z</time>
      </trkpt>
      <trkpt lat="47.29318" lon="-2.37617">
        <ele>1.6000000238419</ele>
        <time>2019-12-26T10:59:55.000Z</time>
      </trkpt>
      <trkpt lat="47.2931" lon="-2.376">
        <ele>1.6000000238419</ele>
        <time>2019-12-26T10:59:58.000Z</time>
      </trkpt>
      <trkpt lat="47.29304" lon="-2.37591">
        <ele>1.6000000238419</ele>
        <time>2019-12-26T11:00:00.000Z</time>
      </trkpt>
      <trkpt lat="47.2929" lon="-2.37569">
        <ele>1.6000000238419</ele>
        <time>2019-12-26T11:00:04.000Z</time>
      </trkpt>
      <trkpt lat="47.29286" lon="-2.37563">
        <ele>1.6000000238419</ele>
        <time>2019-12-26T11:00:05.000Z</time>
      </trkpt>
      <trkpt lat="47.29279" lon="-2.37551">
        <ele>1.6000000238419</ele>
        <time>2019-12-26T11:00:07.000Z</time>
      </trkpt>
      <trkpt lat="47.29269" lon="-2.37532">
        <ele>1.6000000238419</ele>
        <time>2019-12-26T11:00:10.000Z</time>
      </trkpt>
      <trkpt lat="47.29251" lon="-2.37507">
        <ele>1.6000000238419</ele>
        <time>2019-12-26T11:00:15.000Z</time>
      </trkpt>
      <trkpt lat="47.29248" lon="-2.37502">
        <ele>1.6000000238419</ele>
        <time>2019-12-26T11:00:16.000Z</time>
      </trkpt>
      <trkpt lat="47.29238" lon="-2.37486">
        <ele>2</ele>
        <time>2019-12-26T11:00:19.000Z</time>
      </trkpt>
      <trkpt lat="47.29235" lon="-2.3748">
        <ele>2.5999999046326</ele>
        <time>2019-12-26T11:00:20.000Z</time>
      </trkpt>
      <trkpt lat="47.29231" lon="-2.37476">
        <ele>3.4000000953674</ele>
        <time>2019-12-26T11:00:21.000Z</time>
      </trkpt>
      <trkpt lat="47.29228" lon="-2.3747">
        <ele>3.7999999523163</ele>
        <time>2019-12-26T11:00:22.000Z</time>
      </trkpt>
      <trkpt lat="47.29221" lon="-2.37459">
        <ele>3.7999999523163</ele>
        <time>2019-12-26T11:00:24.000Z</time>
      </trkpt>
      <trkpt lat="47.29208" lon="-2.37437">
        <ele>4.1999998092651</ele>
        <time>2019-12-26T11:00:28.000Z</time>
      </trkpt>
      <trkpt lat="47.29204" lon="-2.37433">
        <ele>4.5999999046326</ele>
        <time>2019-12-26T11:00:29.000Z</time>
      </trkpt>
      <trkpt lat="47.29201" lon="-2.37428">
        <ele>5.1999998092651</ele>
        <time>2019-12-26T11:00:30.000Z</time>
      </trkpt>
      <trkpt lat="47.29197" lon="-2.37423">
        <ele>5.5999999046326</ele>
        <time>2019-12-26T11:00:31.000Z</time>
      </trkpt>
      <trkpt lat="47.29194" lon="-2.37418">
        <ele>6</ele>
        <time>2019-12-26T11:00:32.000Z</time>
      </trkpt>
      <trkpt lat="47.29174" lon="-2.37388">
        <ele>6</ele>
        <time>2019-12-26T11:00:38.000Z</time>
      </trkpt>
      <trkpt lat="47.29169" lon="-2.37378">
        <ele>6</ele>
        <time>2019-12-26T11:00:40.000Z</time>
      </trkpt>
      <trkpt lat="47.29158" lon="-2.37351">
        <ele>6</ele>
        <time>2019-12-26T11:00:45.000Z</time>
      </trkpt>
      <trkpt lat="47.29146" lon="-2.37324">
        <ele>6</ele>
        <time>2019-12-26T11:00:50.000Z</time>
      </trkpt>
      <trkpt lat="47.29143" lon="-2.37319">
        <ele>6</ele>
        <time>2019-12-26T11:00:51.000Z</time>
      </trkpt>
      <trkpt lat="47.2914" lon="-2.37315">
        <ele>6.4000000953674</ele>
        <time>2019-12-26T11:00:52.000Z</time>
      </trkpt>
      <trkpt lat="47.29136" lon="-2.37311">
        <ele>6.8000001907349</ele>
        <time>2019-12-26T11:00:53.000Z</time>
      </trkpt>
      <trkpt lat="47.29132" lon="-2.37307">
        <ele>7.1999998092651</ele>
        <time>2019-12-26T11:00:54.000Z</time>
      </trkpt>
      <trkpt lat="47.29128" lon="-2.37303">
        <ele>7.5999999046326</ele>
        <time>2019-12-26T11:00:55.000Z</time>
      </trkpt>
      <trkpt lat="47.29125" lon="-2.373">
        <ele>8</ele>
        <time>2019-12-26T11:00:56.000Z</time>
      </trkpt>
      <trkpt lat="47.29121" lon="-2.37296">
        <ele>8</ele>
        <time>2019-12-26T11:00:57.000Z</time>
      </trkpt>
      <trkpt lat="47.29114" lon="-2.37289">
        <ele>8</ele>
        <time>2019-12-26T11:00:59.000Z</time>
      </trkpt>
      <trkpt lat="47.29101" lon="-2.37275">
        <ele>8</ele>
        <time>2019-12-26T11:01:03.000Z</time>
      </trkpt>
      <trkpt lat="47.29094" lon="-2.37267">
        <ele>8</ele>
        <time>2019-12-26T11:01:05.000Z</time>
      </trkpt>
      <trkpt lat="47.29079" lon="-2.37253">
        <ele>8</ele>
        <time>2019-12-26T11:01:09.000Z</time>
      </trkpt>
      <trkpt lat="47.29059" lon="-2.37231">
        <ele>8</ele>
        <time>2019-12-26T11:01:15.000Z</time>
      </trkpt>
      <trkpt lat="47.2904" lon="-2.37211">
        <ele>8</ele>
        <time>2019-12-26T11:01:20.000Z</time>
      </trkpt>
      <trkpt lat="47.29036" lon="-2.37207">
        <ele>8</ele>
        <time>2019-12-26T11:01:21.000Z</time>
      </trkpt>
      <trkpt lat="47.29031" lon="-2.37204">
        <ele>7.5999999046326</ele>
        <time>2019-12-26T11:01:22.000Z</time>
      </trkpt>
      <trkpt lat="47.29026" lon="-2.372">
        <ele>7.1999998092651</ele>
        <time>2019-12-26T11:01:23.000Z</time>
      </trkpt>
      <trkpt lat="47.29021" lon="-2.37195">
        <ele>6.8000001907349</ele>
        <time>2019-12-26T11:01:24.000Z</time>
      </trkpt>
      <trkpt lat="47.29017" lon="-2.3719">
        <ele>6.4000000953674</ele>
        <time>2019-12-26T11:01:25.000Z</time>
      </trkpt>
      <trkpt lat="47.29014" lon="-2.37186">
        <ele>6</ele>
        <time>2019-12-26T11:01:26.000Z</time>
      </trkpt>
      <trkpt lat="47.29006" lon="-2.37178">
        <ele>6</ele>
        <time>2019-12-26T11:01:28.000Z</time>
      </trkpt>
      <trkpt lat="47.29001" lon="-2.37175">
        <ele>5.5999999046326</ele>
        <time>2019-12-26T11:01:30.000Z</time>
      </trkpt>
      <trkpt lat="47.28998" lon="-2.37176">
        <ele>5</ele>
        <time>2019-12-26T11:01:31.000Z</time>
      </trkpt>
      <trkpt lat="47.28994" lon="-2.37177">
        <ele>4.5999999046326</ele>
        <time>2019-12-26T11:01:32.000Z</time>
      </trkpt>
      <trkpt lat="47.2899" lon="-2.37178">
        <ele>4</ele>
        <time>2019-12-26T11:01:33.000Z</time>
      </trkpt>
      <trkpt lat="47.28986" lon="-2.3718">
        <ele>3.5999999046326</ele>
        <time>2019-12-26T11:01:34.000Z</time>
      </trkpt>
      <trkpt lat="47.28981" lon="-2.37183">
        <ele>3.2000000476837</ele>
        <time>2019-12-26T11:01:36.000Z</time>
      </trkpt>
      <trkpt lat="47.28979" lon="-2.37184">
        <ele>2.5999999046326</ele>
        <time>2019-12-26T11:01:37.000Z</time>
      </trkpt>
      <trkpt lat="47.28977" lon="-2.37184">
        <ele>2.2000000476837</ele>
        <time>2019-12-26T11:01:38.000Z</time>
      </trkpt>
      <trkpt lat="47.28977" lon="-2.37184">
        <ele>1.7999999523163</ele>
        <time>2019-12-26T11:01:39.000Z</time>
      </trkpt>
      <trkpt lat="47.28977" lon="-2.37184">
        <ele>1.2000000476837</ele>
        <time>2019-12-26T11:01:40.000Z</time>
      </trkpt>
      <trkpt lat="47.28976" lon="-2.37185">
        <ele>1.2000000476837</ele>
        <time>2019-12-26T11:02:24.000Z</time>
      </trkpt>
      <trkpt lat="47.28966" lon="-2.37194">
        <ele>1.2000000476837</ele>
        <time>2019-12-26T11:02:28.000Z</time>
      </trkpt>
      <trkpt lat="47.28959" lon="-2.37198">
        <ele>1.2000000476837</ele>
        <time>2019-12-26T11:02:30.000Z</time>
      </trkpt>
      <trkpt lat="47.28944" lon="-2.37203">
        <ele>1.2000000476837</ele>
        <time>2019-12-26T11:02:33.000Z</time>
      </trkpt>
      <trkpt lat="47.28919" lon="-2.37212">
        <ele>0.80000001192093</ele>
        <time>2019-12-26T11:02:37.000Z</time>
      </trkpt>
      <trkpt lat="47.28913" lon="-2.37215">
        <ele>0.40000000596046</ele>
        <time>2019-12-26T11:02:38.000Z</time>
      </trkpt>
      <trkpt lat="47.28906" lon="-2.37218">
        <ele>9.6</ele>
        <time>2019-12-26T11:02:39.000Z</time>
      </trkpt>
      <trkpt lat="47.289" lon="-2.37221">
        <ele>-0.40000000596046</ele>
        <time>2019-12-26T11:02:40.000Z</time>
      </trkpt>
      <trkpt lat="47.28893" lon="-2.37224">
        <ele>-1</ele>
        <time>2019-12-26T11:02:41.000Z</time>
      </trkpt>
      <trkpt lat="47.28877" lon="-2.37231">
        <ele>-1</ele>
        <time>2019-12-26T11:02:44.000Z</time>
      </trkpt>
      <trkpt lat="47.28867" lon="-2.37237">
        <ele>-1</ele>
        <time>2019-12-26T11:02:46.000Z</time>
      </trkpt>
      <trkpt lat="47.28862" lon="-2.3724">
        <ele>-1.3999999761581</ele>
        <time>2019-12-26T11:02:47.000Z</time>
      </trkpt>
      <trkpt lat="47.28858" lon="-2.37241">
        <ele>-1.7999999523163</ele>
        <time>2019-12-26T11:02:48.000Z</time>
      </trkpt>
      <trkpt lat="47.28855" lon="-2.37243">
        <ele>-2.5999999046326</ele>
        <time>2019-12-26T11:02:49.000Z</time>
      </trkpt>
      <trkpt lat="47.28851" lon="-2.37243">
        <ele>-3</ele>
        <time>2019-12-26T11:02:50.000Z</time>
      </trkpt>
      <trkpt lat="47.28845" lon="-2.37239">
        <ele>-3.4000000953674</ele>
        <time>2019-12-26T11:02:52.000Z</time>
      </trkpt>
      <trkpt lat="47.28843" lon="-2.37235">
        <ele>-3.7999999523163</ele>
        <time>2019-12-26T11:02:53.000Z</time>
      </trkpt>
      <trkpt lat="47.28842" lon="-2.3723">
        <ele>-4.1999998092651</ele>
        <time>2019-12-26T11:02:54.000Z</time>
      </trkpt>
      <trkpt lat="47.28841" lon="-2.37225">
        <ele>-4.5999999046326</ele>
        <time>2019-12-26T11:02:55.000Z</time>
      </trkpt>
      <trkpt lat="47.2884" lon="-2.3722">
        <ele>-5</ele>
        <time>2019-12-26T11:02:56.000Z</time>
      </trkpt>
      <trkpt lat="47.28839" lon="-2.37216">
        <ele>-5</ele>
        <time>2019-12-26T11:02:57.000Z</time>
      </trkpt>
      <trkpt lat="47.28833" lon="-2.37179">
        <ele>-5</ele>
        <time>2019-12-26T11:03:04.000Z</time>
      </trkpt>
      <trkpt lat="47.2883" lon="-2.37161">
        <ele>-5</ele>
        <time>2019-12-26T11:03:07.000Z</time>
      </trkpt>
      <trkpt lat="47.28828" lon="-2.3715">
        <ele>-5</ele>
        <time>2019-12-26T11:03:09.000Z</time>
      </trkpt>
      <trkpt lat="47.28827" lon="-2.37126">
        <ele>-5</ele>
        <time>2019-12-26T11:03:14.000Z</time>
      </trkpt>
      <trkpt lat="47.28828" lon="-2.37124">
        <ele>-5</ele>
        <time>2019-12-26T11:03:15.000Z</time>
      </trkpt>
      <trkpt lat="47.28829" lon="-2.37119">
        <ele>-5</ele>
        <time>2019-12-26T11:03:18.000Z</time>
      </trkpt>
      <trkpt lat="47.28826" lon="-2.3711">
        <ele>-4.5999999046326</ele>
        <time>2019-12-26T11:03:24.000Z</time>
      </trkpt>
      <trkpt lat="47.28825" lon="-2.37112">
        <ele>-4.1999998092651</ele>
        <time>2019-12-26T11:03:25.000Z</time>
      </trkpt>
      <trkpt lat="47.28824" lon="-2.37114">
        <ele>-3.7999999523163</ele>
        <time>2019-12-26T11:03:26.000Z</time>
      </trkpt>
      <trkpt lat="47.28822" lon="-2.37115">
        <ele>-3.4000000953674</ele>
        <time>2019-12-26T11:03:27.000Z</time>
      </trkpt>
      <trkpt lat="47.28822" lon="-2.37116">
        <ele>-2.7999999523163</ele>
        <time>2019-12-26T11:03:28.000Z</time>
      </trkpt>
      <trkpt lat="47.28821" lon="-2.37117">
        <ele>-2.7999999523163</ele>
        <time>2019-12-26T11:03:29.000Z</time>
      </trkpt>
      <trkpt lat="47.2882" lon="-2.37118">
        <ele>-2.4000000953674</ele>
        <time>2019-12-26T11:03:30.000Z</time>
      </trkpt>
      <trkpt lat="47.28818" lon="-2.37118">
        <ele>-2</ele>
        <time>2019-12-26T11:03:31.000Z</time>
      </trkpt>
      <trkpt lat="47.28816" lon="-2.37119">
        <ele>-1.6000000238419</ele>
        <time>2019-12-26T11:03:32.000Z</time>
      </trkpt>
      <trkpt lat="47.28815" lon="-2.37118">
        <ele>-1</ele>
        <time>2019-12-26T11:03:33.000Z</time>
      </trkpt>
      <trkpt lat="47.28813" lon="-2.37117">
        <ele>-0.60000002384186</ele>
        <time>2019-12-26T11:03:34.000Z</time>
      </trkpt>
      <trkpt lat="47.28807" lon="-2.37117">
        <ele>-0.20000000298023</ele>
        <time>2019-12-26T11:03:37.000Z</time>
      </trkpt>
      <trkpt lat="47.28805" lon="-2.37116">
        <ele>0.20000000298023</ele>
        <time>2019-12-26T11:03:38.000Z</time>
      </trkpt>
      <trkpt lat="47.28803" lon="-2.37115">
        <ele>1.2000000476837</ele>
        <time>2019-12-26T11:03:39.000Z</time>
      </trkpt>
      <trkpt lat="47.28802" lon="-2.37112">
        <ele>1.6000000238419</ele>
        <time>2019-12-26T11:03:40.000Z</time>
      </trkpt>
      <trkpt lat="47.288" lon="-2.37101">
        <ele>1.6000000238419</ele>
        <time>2019-12-26T11:03:43.000Z</time>
      </trkpt>
      <trkpt lat="47.28798" lon="-2.37086">
        <ele>2</ele>
        <time>2019-12-26T11:03:47.000Z</time>
      </trkpt>
      <trkpt lat="47.28798" lon="-2.37083">
        <ele>2.4000000953674</ele>
        <time>2019-12-26T11:03:48.000Z</time>
      </trkpt>
      <trkpt lat="47.28797" lon="-2.37079">
        <ele>2.7999999523163</ele>
        <time>2019-12-26T11:03:49.000Z</time>
      </trkpt>
      <trkpt lat="47.28797" lon="-2.37075">
        <ele>3.2000000476837</ele>
        <time>2019-12-26T11:03:50.000Z</time>
      </trkpt>
      <trkpt lat="47.28796" lon="-2.37071">
        <ele>3.7999999523163</ele>
        <time>2019-12-26T11:03:51.000Z</time>
      </trkpt>
      <trkpt lat="47.28791" lon="-2.37059">
        <ele>4.1999998092651</ele>
        <time>2019-12-26T11:03:54.000Z</time>
      </trkpt>
      <trkpt lat="47.28791" lon="-2.37056">
        <ele>4.5999999046326</ele>
        <time>2019-12-26T11:03:55.000Z</time>
      </trkpt>
      <trkpt lat="47.28789" lon="-2.37053">
        <ele>5</ele>
        <time>2019-12-26T11:03:56.000Z</time>
      </trkpt>
      <trkpt lat="47.28787" lon="-2.37048">
        <ele>5.4000000953674</ele>
        <time>2019-12-26T11:03:57.000Z</time>
      </trkpt>
      <trkpt lat="47.28786" lon="-2.37045">
        <ele>6</ele>
        <time>2019-12-26T11:03:58.000Z</time>
      </trkpt>
      <trkpt lat="47.28782" lon="-2.37033">
        <ele>6</ele>
        <time>2019-12-26T11:04:01.000Z</time>
      </trkpt>
      <trkpt lat="47.28777" lon="-2.37014">
        <ele>6.4000000953674</ele>
        <time>2019-12-26T11:04:05.000Z</time>
      </trkpt>
      <trkpt lat="47.28775" lon="-2.37011">
        <ele>6.8000001907349</ele>
        <time>2019-12-26T11:04:06.000Z</time>
      </trkpt>
      <trkpt lat="47.28773" lon="-2.37008">
        <ele>7.1999998092651</ele>
        <time>2019-12-26T11:04:07.000Z</time>
      </trkpt>
      <trkpt lat="47.2877" lon="-2.37006">
        <ele>7.5999999046326</ele>
        <time>2019-12-26T11:04:08.000Z</time>
      </trkpt>
      <trkpt lat="47.28768" lon="-2.37004">
        <ele>8</ele>
        <time>2019-12-26T11:04:09.000Z</time>
      </trkpt>
      <trkpt lat="47.28766" lon="-2.36998">
        <ele>8</ele>
        <time>2019-12-26T11:04:11.000Z</time>
      </trkpt>
      <trkpt lat="47.28759" lon="-2.36979">
        <ele>8</ele>
        <time>2019-12-26T11:04:17.000Z</time>
      </trkpt>
      <trkpt lat="47.28757" lon="-2.36972">
        <ele>8</ele>
        <time>2019-12-26T11:04:19.000Z</time>
      </trkpt>
      <trkpt lat="47.28752" lon="-2.3696">
        <ele>8</ele>
        <time>2019-12-26T11:04:22.000Z</time>
      </trkpt>
      <trkpt lat="47.28748" lon="-2.36955">
        <ele>7.5999999046326</ele>
        <time>2019-12-26T11:04:23.000Z</time>
      </trkpt>
      <trkpt lat="47.28744" lon="-2.3695">
        <ele>7.1999998092651</ele>
        <time>2019-12-26T11:04:24.000Z</time>
      </trkpt>
      <trkpt lat="47.2874" lon="-2.36945">
        <ele>6.8000001907349</ele>
        <time>2019-12-26T11:04:25.000Z</time>
      </trkpt>
      <trkpt lat="47.28736" lon="-2.36939">
        <ele>6.4000000953674</ele>
        <time>2019-12-26T11:04:26.000Z</time>
      </trkpt>
      <trkpt lat="47.28732" lon="-2.36935">
        <ele>6</ele>
        <time>2019-12-26T11:04:27.000Z</time>
      </trkpt>
      <trkpt lat="47.2872" lon="-2.36923">
        <ele>6</ele>
        <time>2019-12-26T11:04:30.000Z</time>
      </trkpt>
      <trkpt lat="47.2871" lon="-2.36905">
        <ele>6</ele>
        <time>2019-12-26T11:04:34.000Z</time>
      </trkpt>
      <trkpt lat="47.28702" lon="-2.36886">
        <ele>6</ele>
        <time>2019-12-26T11:04:38.000Z</time>
      </trkpt>
      <trkpt lat="47.28686" lon="-2.36848">
        <ele>6.4000000953674</ele>
        <time>2019-12-26T11:04:46.000Z</time>
      </trkpt>
      <trkpt lat="47.28684" lon="-2.36845">
        <ele>6.8000001907349</ele>
        <time>2019-12-26T11:04:47.000Z</time>
      </trkpt>
      <trkpt lat="47.28682" lon="-2.36841">
        <ele>7.1999998092651</ele>
        <time>2019-12-26T11:04:48.000Z</time>
      </trkpt>
      <trkpt lat="47.28681" lon="-2.36838">
        <ele>7.5999999046326</ele>
        <time>2019-12-26T11:04:49.000Z</time>
      </trkpt>
      <trkpt lat="47.28679" lon="-2.36834">
        <ele>8</ele>
        <time>2019-12-26T11:04:50.000Z</time>
      </trkpt>
      <trkpt lat="47.28671" lon="-2.36821">
        <ele>8</ele>
        <time>2019-12-26T11:04:54.000Z</time>
      </trkpt>
      <trkpt lat="47.28667" lon="-2.36817">
        <ele>8</ele>
        <time>2019-12-26T11:04:56.000Z</time>
      </trkpt>
      <trkpt lat="47.28658" lon="-2.36813">
        <ele>8</ele>
        <time>2019-12-26T11:04:59.000Z</time>
      </trkpt>
      <trkpt lat="47.28651" lon="-2.36814">
        <ele>8</ele>
        <time>2019-12-26T11:05:01.000Z</time>
      </trkpt>
      <trkpt lat="47.28644" lon="-2.36818">
        <ele>8</ele>
        <time>2019-12-26T11:05:03.000Z</time>
      </trkpt>
      <trkpt lat="47.28616" lon="-2.36843">
        <ele>8</ele>
        <time>2019-12-26T11:05:09.000Z</time>
      </trkpt>
      <trkpt lat="47.286" lon="-2.36849">
        <ele>8</ele>
        <time>2019-12-26T11:05:12.000Z</time>
      </trkpt>
      <trkpt lat="47.28586" lon="-2.36837">
        <ele>8</ele>
        <time>2019-12-26T11:05:15.000Z</time>
      </trkpt>
      <trkpt lat="47.28576" lon="-2.36816">
        <ele>8</ele>
        <time>2019-12-26T11:05:18.000Z</time>
      </trkpt>
      <trkpt lat="47.2857" lon="-2.36803">
        <ele>8</ele>
        <time>2019-12-26T11:05:20.000Z</time>
      </trkpt>
      <trkpt lat="47.28561" lon="-2.36786">
        <ele>8</ele>
        <time>2019-12-26T11:05:23.000Z</time>
      </trkpt>
      <trkpt lat="47.28549" lon="-2.36764">
        <ele>8</ele>
        <time>2019-12-26T11:05:27.000Z</time>
      </trkpt>
      <trkpt lat="47.28532" lon="-2.3673">
        <ele>8</ele>
        <time>2019-12-26T11:05:34.000Z</time>
      </trkpt>
      <trkpt lat="47.28524" lon="-2.36711">
        <ele>8.3999996185303</ele>
        <time>2019-12-26T11:05:38.000Z</time>
      </trkpt>
      <trkpt lat="47.28522" lon="-2.36707">
        <ele>8.8000001907349</ele>
        <time>2019-12-26T11:05:39.000Z</time>
      </trkpt>
      <trkpt lat="47.28521" lon="-2.36702">
        <ele>9.1999998092651</ele>
        <time>2019-12-26T11:05:40.000Z</time>
      </trkpt>
      <trkpt lat="47.28519" lon="-2.36698">
        <ele>9.8000001907349</ele>
        <time>2019-12-26T11:05:41.000Z</time>
      </trkpt>
      <trkpt lat="47.28517" lon="-2.36695">
        <ele>10.199999809265</ele>
        <time>2019-12-26T11:05:42.000Z</time>
      </trkpt>
      <trkpt lat="47.28512" lon="-2.36688">
        <ele>10.60000038147</ele>
        <time>2019-12-26T11:05:45.000Z</time>
      </trkpt>
      <trkpt lat="47.2851" lon="-2.36686">
        <ele>11</ele>
        <time>2019-12-26T11:05:46.000Z</time>
      </trkpt>
      <trkpt lat="47.28508" lon="-2.36684">
        <ele>11.60000038147</ele>
        <time>2019-12-26T11:05:47.000Z</time>
      </trkpt>
      <trkpt lat="47.28506" lon="-2.36682">
        <ele>12</ele>
        <time>2019-12-26T11:05:48.000Z</time>
      </trkpt>
      <trkpt lat="47.28503" lon="-2.36679">
        <ele>12.39999961853</ele>
        <time>2019-12-26T11:05:49.000Z</time>
      </trkpt>
      <trkpt lat="47.28501" lon="-2.36675">
        <ele>12.39999961853</ele>
        <time>2019-12-26T11:05:50.000Z</time>
      </trkpt>
      <trkpt lat="47.28493" lon="-2.36655">
        <ele>12.39999961853</ele>
        <time>2019-12-26T11:05:55.000Z</time>
      </trkpt>
      <trkpt lat="47.28486" lon="-2.36631">
        <ele>12.39999961853</ele>
        <time>2019-12-26T11:06:00.000Z</time>
      </trkpt>
      <trkpt lat="47.28476" lon="-2.36601">
        <ele>12.39999961853</ele>
        <time>2019-12-26T11:06:07.000Z</time>
      </trkpt>
      <trkpt lat="47.28473" lon="-2.36571">
        <ele>12.39999961853</ele>
        <time>2019-12-26T11:06:12.000Z</time>
      </trkpt>
      <trkpt lat="47.28475" lon="-2.36565">
        <ele>12.39999961853</ele>
        <time>2019-12-26T11:06:13.000Z</time>
      </trkpt>
      <trkpt lat="47.28483" lon="-2.3655">
        <ele>12.39999961853</ele>
        <time>2019-12-26T11:06:16.000Z</time>
      </trkpt>
      <trkpt lat="47.28486" lon="-2.36546">
        <ele>12.800000190735</ele>
        <time>2019-12-26T11:06:17.000Z</time>
      </trkpt>
      <trkpt lat="47.28489" lon="-2.36542">
        <ele>13.199999809265</ele>
        <time>2019-12-26T11:06:18.000Z</time>
      </trkpt>
      <trkpt lat="47.28492" lon="-2.36538">
        <ele>13.60000038147</ele>
        <time>2019-12-26T11:06:19.000Z</time>
      </trkpt>
      <trkpt lat="47.28495" lon="-2.36533">
        <ele>14</ele>
        <time>2019-12-26T11:06:20.000Z</time>
      </trkpt>
      <trkpt lat="47.28499" lon="-2.36529">
        <ele>14.60000038147</ele>
        <time>2019-12-26T11:06:21.000Z</time>
      </trkpt>
      <trkpt lat="47.28507" lon="-2.3652">
        <ele>14.60000038147</ele>
        <time>2019-12-26T11:06:24.000Z</time>
      </trkpt>
      <trkpt lat="47.28523" lon="-2.36499">
        <ele>15</ele>
        <time>2019-12-26T11:06:30.000Z</time>
      </trkpt>
      <trkpt lat="47.28524" lon="-2.36495">
        <ele>15.800000190735</ele>
        <time>2019-12-26T11:06:31.000Z</time>
      </trkpt>
      <trkpt lat="47.28522" lon="-2.36491">
        <ele>16.200000762939</ele>
        <time>2019-12-26T11:06:32.000Z</time>
      </trkpt>
      <trkpt lat="47.28522" lon="-2.36486">
        <ele>16.60000038147</ele>
        <time>2019-12-26T11:06:33.000Z</time>
      </trkpt>
      <trkpt lat="47.28522" lon="-2.36481">
        <ele>16.60000038147</ele>
        <time>2019-12-26T11:06:34.000Z</time>
      </trkpt>
      <trkpt lat="47.28515" lon="-2.3646">
        <ele>16.60000038147</ele>
        <time>2019-12-26T11:06:38.000Z</time>
      </trkpt>
      <trkpt lat="47.28501" lon="-2.36443">
        <ele>16.60000038147</ele>
        <time>2019-12-26T11:06:42.000Z</time>
      </trkpt>
      <trkpt lat="47.2848" lon="-2.36429">
        <ele>16.60000038147</ele>
        <time>2019-12-26T11:06:47.000Z</time>
      </trkpt>
      <trkpt lat="47.28478" lon="-2.36426">
        <ele>17.200000762939</ele>
        <time>2019-12-26T11:06:48.000Z</time>
      </trkpt>
      <trkpt lat="47.28475" lon="-2.36424">
        <ele>17.60000038147</ele>
        <time>2019-12-26T11:06:49.000Z</time>
      </trkpt>
      <trkpt lat="47.28473" lon="-2.36421">
        <ele>18</ele>
        <time>2019-12-26T11:06:50.000Z</time>
      </trkpt>
      <trkpt lat="47.28472" lon="-2.36417">
        <ele>18.39999961853</ele>
        <time>2019-12-26T11:06:51.000Z</time>
      </trkpt>
      <trkpt lat="47.2847" lon="-2.36413">
        <ele>18.799999237061</ele>
        <time>2019-12-26T11:06:52.000Z</time>
      </trkpt>
      <trkpt lat="47.28459" lon="-2.36397">
        <ele>18.799999237061</ele>
        <time>2019-12-26T11:06:57.000Z</time>
      </trkpt>
      <trkpt lat="47.28433" lon="-2.36383">
        <ele>18.799999237061</ele>
        <time>2019-12-26T11:07:02.000Z</time>
      </trkpt>
      <trkpt lat="47.28428" lon="-2.36378">
        <ele>18.799999237061</ele>
        <time>2019-12-26T11:07:03.000Z</time>
      </trkpt>
      <trkpt lat="47.28421" lon="-2.36366">
        <ele>18.799999237061</ele>
        <time>2019-12-26T11:07:05.000Z</time>
      </trkpt>
      <trkpt lat="47.28413" lon="-2.36353">
        <ele>18.799999237061</ele>
        <time>2019-12-26T11:07:07.000Z</time>
      </trkpt>
      <trkpt lat="47.28404" lon="-2.36344">
        <ele>18.39999961853</ele>
        <time>2019-12-26T11:07:09.000Z</time>
      </trkpt>
      <trkpt lat="47.28399" lon="-2.36339">
        <ele>18</ele>
        <time>2019-12-26T11:07:10.000Z</time>
      </trkpt>
      <trkpt lat="47.28395" lon="-2.36335">
        <ele>17.60000038147</ele>
        <time>2019-12-26T11:07:11.000Z</time>
      </trkpt>
      <trkpt lat="47.28388" lon="-2.36331">
        <ele>17.200000762939</ele>
        <time>2019-12-26T11:07:12.000Z</time>
      </trkpt>
      <trkpt lat="47.28381" lon="-2.36327">
        <ele>16.799999237061</ele>
        <time>2019-12-26T11:07:13.000Z</time>
      </trkpt>
      <trkpt lat="47.28372" lon="-2.36325">
        <ele>16.799999237061</ele>
        <time>2019-12-26T11:07:15.000Z</time>
      </trkpt>
      <trkpt lat="47.28361" lon="-2.3632">
        <ele>16.39999961853</ele>
        <time>2019-12-26T11:07:18.000Z</time>
      </trkpt>
      <trkpt lat="47.28359" lon="-2.36318">
        <ele>16</ele>
        <time>2019-12-26T11:07:19.000Z</time>
      </trkpt>
      <trkpt lat="47.28358" lon="-2.36315">
        <ele>15</ele>
        <time>2019-12-26T11:07:20.000Z</time>
      </trkpt>
      <trkpt lat="47.28357" lon="-2.36312">
        <ele>14.60000038147</ele>
        <time>2019-12-26T11:07:21.000Z</time>
      </trkpt>
      <trkpt lat="47.28356" lon="-2.36305">
        <ele>14.60000038147</ele>
        <time>2019-12-26T11:07:23.000Z</time>
      </trkpt>
      <trkpt lat="47.28359" lon="-2.36286">
        <ele>14.60000038147</ele>
        <time>2019-12-26T11:07:28.000Z</time>
      </trkpt>
      <trkpt lat="47.2836" lon="-2.36272">
        <ele>14.60000038147</ele>
        <time>2019-12-26T11:07:32.000Z</time>
      </trkpt>
      <trkpt lat="47.28363" lon="-2.36267">
        <ele>14.60000038147</ele>
        <time>2019-12-26T11:07:34.000Z</time>
      </trkpt>
      <trkpt lat="47.28367" lon="-2.36261">
        <ele>14.60000038147</ele>
        <time>2019-12-26T11:07:37.000Z</time>
      </trkpt>
      <trkpt lat="47.28377" lon="-2.36252">
        <ele>14.60000038147</ele>
        <time>2019-12-26T11:07:42.000Z</time>
      </trkpt>
      <trkpt lat="47.28381" lon="-2.36247">
        <ele>15</ele>
        <time>2019-12-26T11:07:44.000Z</time>
      </trkpt>
      <trkpt lat="47.28382" lon="-2.36244">
        <ele>15.39999961853</ele>
        <time>2019-12-26T11:07:45.000Z</time>
      </trkpt>
      <trkpt lat="47.28384" lon="-2.36241">
        <ele>15.800000190735</ele>
        <time>2019-12-26T11:07:46.000Z</time>
      </trkpt>
      <trkpt lat="47.28385" lon="-2.36237">
        <ele>16.200000762939</ele>
        <time>2019-12-26T11:07:47.000Z</time>
      </trkpt>
      <trkpt lat="47.28388" lon="-2.36236">
        <ele>16.60000038147</ele>
        <time>2019-12-26T11:07:48.000Z</time>
      </trkpt>
      <trkpt lat="47.28396" lon="-2.36229">
        <ele>16.60000038147</ele>
        <time>2019-12-26T11:07:51.000Z</time>
      </trkpt>
      <trkpt lat="47.28399" lon="-2.36225">
        <ele>16.60000038147</ele>
        <time>2019-12-26T11:07:52.000Z</time>
      </trkpt>
      <trkpt lat="47.28402" lon="-2.36223">
        <ele>17</ele>
        <time>2019-12-26T11:07:53.000Z</time>
      </trkpt>
      <trkpt lat="47.28404" lon="-2.36221">
        <ele>17.39999961853</ele>
        <time>2019-12-26T11:07:54.000Z</time>
      </trkpt>
      <trkpt lat="47.28407" lon="-2.3622">
        <ele>18</ele>
        <time>2019-12-26T11:07:55.000Z</time>
      </trkpt>
      <trkpt lat="47.28411" lon="-2.3622">
        <ele>18.39999961853</ele>
        <time>2019-12-26T11:07:56.000Z</time>
      </trkpt>
      <trkpt lat="47.28414" lon="-2.36219">
        <ele>18.799999237061</ele>
        <time>2019-12-26T11:07:57.000Z</time>
      </trkpt>
      <trkpt lat="47.28424" lon="-2.36209">
        <ele>18.799999237061</ele>
        <time>2019-12-26T11:08:01.000Z</time>
      </trkpt>
      <trkpt lat="47.28425" lon="-2.36208">
        <ele>18.799999237061</ele>
        <time>2019-12-26T11:08:02.000Z</time>
      </trkpt>
      <trkpt lat="47.2843" lon="-2.3621">
        <ele>18.799999237061</ele>
        <time>2019-12-26T11:08:05.000Z</time>
      </trkpt>
      <trkpt lat="47.28434" lon="-2.36209">
        <ele>18.799999237061</ele>
        <time>2019-12-26T11:08:09.000Z</time>
      </trkpt>
      <trkpt lat="47.28446" lon="-2.362">
        <ele>19.200000762939</ele>
        <time>2019-12-26T11:08:20.000Z</time>
      </trkpt>
      <trkpt lat="47.2845" lon="-2.36196">
        <ele>19.799999237061</ele>
        <time>2019-12-26T11:08:21.000Z</time>
      </trkpt>
      <trkpt lat="47.28452" lon="-2.36191">
        <ele>20.200000762939</ele>
        <time>2019-12-26T11:08:22.000Z</time>
      </trkpt>
      <trkpt lat="47.28456" lon="-2.36189">
        <ele>20.60000038147</ele>
        <time>2019-12-26T11:08:23.000Z</time>
      </trkpt>
      <trkpt lat="47.2846" lon="-2.36186">
        <ele>21</ele>
        <time>2019-12-26T11:08:24.000Z</time>
      </trkpt>
      <trkpt lat="47.28461" lon="-2.36182">
        <ele>21</ele>
        <time>2019-12-26T11:08:25.000Z</time>
      </trkpt>
      <trkpt lat="47.28474" lon="-2.36173">
        <ele>21</ele>
        <time>2019-12-26T11:08:29.000Z</time>
      </trkpt>
      <trkpt lat="47.28477" lon="-2.36171">
        <ele>21</ele>
        <time>2019-12-26T11:08:30.000Z</time>
      </trkpt>
      <trkpt lat="47.28484" lon="-2.36164">
        <ele>21.39999961853</ele>
        <time>2019-12-26T11:08:32.000Z</time>
      </trkpt>
      <trkpt lat="47.28487" lon="-2.36161">
        <ele>22.200000762939</ele>
        <time>2019-12-26T11:08:33.000Z</time>
      </trkpt>
      <trkpt lat="47.28489" lon="-2.36158">
        <ele>22.799999237061</ele>
        <time>2019-12-26T11:08:34.000Z</time>
      </trkpt>
      <trkpt lat="47.28492" lon="-2.36155">
        <ele>23.200000762939</ele>
        <time>2019-12-26T11:08:35.000Z</time>
      </trkpt>
      <trkpt lat="47.28501" lon="-2.36149">
        <ele>23.200000762939</ele>
        <time>2019-12-26T11:08:39.000Z</time>
      </trkpt>
      <trkpt lat="47.28503" lon="-2.3615">
        <ele>23.60000038147</ele>
        <time>2019-12-26T11:08:40.000Z</time>
      </trkpt>
      <trkpt lat="47.28505" lon="-2.3615">
        <ele>24</ele>
        <time>2019-12-26T11:08:41.000Z</time>
      </trkpt>
      <trkpt lat="47.28507" lon="-2.3615">
        <ele>24.39999961853</ele>
        <time>2019-12-26T11:08:42.000Z</time>
      </trkpt>
      <trkpt lat="47.2851" lon="-2.36152">
        <ele>24.799999237061</ele>
        <time>2019-12-26T11:08:43.000Z</time>
      </trkpt>
      <trkpt lat="47.28513" lon="-2.36154">
        <ele>25.200000762939</ele>
        <time>2019-12-26T11:08:44.000Z</time>
      </trkpt>
      <trkpt lat="47.28515" lon="-2.36157">
        <ele>25.200000762939</ele>
        <time>2019-12-26T11:08:45.000Z</time>
      </trkpt>
      <trkpt lat="47.28519" lon="-2.36158">
        <ele>25.60000038147</ele>
        <time>2019-12-26T11:08:47.000Z</time>
      </trkpt>
      <trkpt lat="47.2852" lon="-2.36158">
        <ele>26</ele>
        <time>2019-12-26T11:08:48.000Z</time>
      </trkpt>
      <trkpt lat="47.28522" lon="-2.36158">
        <ele>26.60000038147</ele>
        <time>2019-12-26T11:08:49.000Z</time>
      </trkpt>
      <trkpt lat="47.28524" lon="-2.36157">
        <ele>27</ele>
        <time>2019-12-26T11:08:50.000Z</time>
      </trkpt>
      <trkpt lat="47.28526" lon="-2.36156">
        <ele>27.39999961853</ele>
        <time>2019-12-26T11:08:51.000Z</time>
      </trkpt>
      <trkpt lat="47.28533" lon="-2.36156">
        <ele>27.39999961853</ele>
        <time>2019-12-26T11:08:54.000Z</time>
      </trkpt>
      <trkpt lat="47.2854" lon="-2.36158">
        <ele>27.39999961853</ele>
        <time>2019-12-26T11:08:56.000Z</time>
      </trkpt>
      <trkpt lat="47.28542" lon="-2.36159">
        <ele>27.799999237061</ele>
        <time>2019-12-26T11:08:57.000Z</time>
      </trkpt>
      <trkpt lat="47.28543" lon="-2.36157">
        <ele>28.60000038147</ele>
        <time>2019-12-26T11:08:58.000Z</time>
      </trkpt>
      <trkpt lat="47.28544" lon="-2.36157">
        <ele>29</ele>
        <time>2019-12-26T11:08:59.000Z</time>
      </trkpt>
      <trkpt lat="47.28544" lon="-2.36156">
        <ele>29.60000038147</ele>
        <time>2019-12-26T11:09:00.000Z</time>
      </trkpt>
      <trkpt lat="47.28544" lon="-2.36154">
        <ele>29.60000038147</ele>
        <time>2019-12-26T11:09:01.000Z</time>
      </trkpt>
      <trkpt lat="47.28545" lon="-2.36148">
        <ele>29.60000038147</ele>
        <time>2019-12-26T11:09:06.000Z</time>
      </trkpt>
      <trkpt lat="47.28544" lon="-2.36146">
        <ele>29.60000038147</ele>
        <time>2019-12-26T11:09:32.000Z</time>
      </trkpt>
      <trkpt lat="47.28539" lon="-2.36133">
        <ele>29.60000038147</ele>
        <time>2019-12-26T11:09:36.000Z</time>
      </trkpt>
      <trkpt lat="47.28533" lon="-2.36105">
        <ele>29.60000038147</ele>
        <time>2019-12-26T11:09:42.000Z</time>
      </trkpt>
      <trkpt lat="47.2853" lon="-2.36085">
        <ele>30</ele>
        <time>2019-12-26T11:09:47.000Z</time>
      </trkpt>
      <trkpt lat="47.28529" lon="-2.3608">
        <ele>30.39999961853</ele>
        <time>2019-12-26T11:09:48.000Z</time>
      </trkpt>
      <trkpt lat="47.28527" lon="-2.36077">
        <ele>30.799999237061</ele>
        <time>2019-12-26T11:09:49.000Z</time>
      </trkpt>
      <trkpt lat="47.28525" lon="-2.36073">
        <ele>31.200000762939</ele>
        <time>2019-12-26T11:09:50.000Z</time>
      </trkpt>
      <trkpt lat="47.28524" lon="-2.36069">
        <ele>31.799999237061</ele>
        <time>2019-12-26T11:09:51.000Z</time>
      </trkpt>
      <trkpt lat="47.28522" lon="-2.36065">
        <ele>31.799999237061</ele>
        <time>2019-12-26T11:09:52.000Z</time>
      </trkpt>
      <trkpt lat="47.28516" lon="-2.36059">
        <ele>31.799999237061</ele>
        <time>2019-12-26T11:09:54.000Z</time>
      </trkpt>
      <trkpt lat="47.28511" lon="-2.36049">
        <ele>31.799999237061</ele>
        <time>2019-12-26T11:09:56.000Z</time>
      </trkpt>
      <trkpt lat="47.28497" lon="-2.36036">
        <ele>31.799999237061</ele>
        <time>2019-12-26T11:10:01.000Z</time>
      </trkpt>
      <trkpt lat="47.28485" lon="-2.36033">
        <ele>31.799999237061</ele>
        <time>2019-12-26T11:10:04.000Z</time>
      </trkpt>
      <trkpt lat="47.28481" lon="-2.36031">
        <ele>31.799999237061</ele>
        <time>2019-12-26T11:10:05.000Z</time>
      </trkpt>
      <trkpt lat="47.28466" lon="-2.36016">
        <ele>31.799999237061</ele>
        <time>2019-12-26T11:10:09.000Z</time>
      </trkpt>
      <trkpt lat="47.28459" lon="-2.36002">
        <ele>31.799999237061</ele>
        <time>2019-12-26T11:10:12.000Z</time>
      </trkpt>
      <trkpt lat="47.28453" lon="-2.35991">
        <ele>31.799999237061</ele>
        <time>2019-12-26T11:10:14.000Z</time>
      </trkpt>
      <trkpt lat="47.28444" lon="-2.35991">
        <ele>31.799999237061</ele>
        <time>2019-12-26T11:10:16.000Z</time>
      </trkpt>
      <trkpt lat="47.28439" lon="-2.35993">
        <ele>31.799999237061</ele>
        <time>2019-12-26T11:10:17.000Z</time>
      </trkpt>
      <trkpt lat="47.28426" lon="-2.36007">
        <ele>31.799999237061</ele>
        <time>2019-12-26T11:10:20.000Z</time>
      </trkpt>
      <trkpt lat="47.28422" lon="-2.36011">
        <ele>31.799999237061</ele>
        <time>2019-12-26T11:10:21.000Z</time>
      </trkpt>
      <trkpt lat="47.28405" lon="-2.36025">
        <ele>31.799999237061</ele>
        <time>2019-12-26T11:10:26.000Z</time>
      </trkpt>
      <trkpt lat="47.28385" lon="-2.36028">
        <ele>31.799999237061</ele>
        <time>2019-12-26T11:10:29.000Z</time>
      </trkpt>
      <trkpt lat="47.28379" lon="-2.36029">
        <ele>31.200000762939</ele>
        <time>2019-12-26T11:10:30.000Z</time>
      </trkpt>
      <trkpt lat="47.28372" lon="-2.3603">
        <ele>30.799999237061</ele>
        <time>2019-12-26T11:10:31.000Z</time>
      </trkpt>
      <trkpt lat="47.28364" lon="-2.36032">
        <ele>30</ele>
        <time>2019-12-26T11:10:32.000Z</time>
      </trkpt>
      <trkpt lat="47.28356" lon="-2.36035">
        <ele>29.200000762939</ele>
        <time>2019-12-26T11:10:33.000Z</time>
      </trkpt>
      <trkpt lat="47.28349" lon="-2.3604">
        <ele>28.60000038147</ele>
        <time>2019-12-26T11:10:34.000Z</time>
      </trkpt>
      <trkpt lat="47.28343" lon="-2.36045">
        <ele>27.799999237061</ele>
        <time>2019-12-26T11:10:35.000Z</time>
      </trkpt>
      <trkpt lat="47.28338" lon="-2.3605">
        <ele>26.60000038147</ele>
        <time>2019-12-26T11:10:36.000Z</time>
      </trkpt>
      <trkpt lat="47.28333" lon="-2.36054">
        <ele>26.200000762939</ele>
        <time>2019-12-26T11:10:37.000Z</time>
      </trkpt>
      <trkpt lat="47.28328" lon="-2.36055">
        <ele>25.799999237061</ele>
        <time>2019-12-26T11:10:38.000Z</time>
      </trkpt>
      <trkpt lat="47.28323" lon="-2.36053">
        <ele>25.39999961853</ele>
        <time>2019-12-26T11:10:39.000Z</time>
      </trkpt>
      <trkpt lat="47.28317" lon="-2.36052">
        <ele>25</ele>
        <time>2019-12-26T11:10:40.000Z</time>
      </trkpt>
      <trkpt lat="47.2831" lon="-2.3605">
        <ele>24.60000038147</ele>
        <time>2019-12-26T11:10:41.000Z</time>
      </trkpt>
      <trkpt lat="47.28304" lon="-2.36048">
        <ele>24.200000762939</ele>
        <time>2019-12-26T11:10:42.000Z</time>
      </trkpt>
      <trkpt lat="47.28299" lon="-2.36046">
        <ele>23.799999237061</ele>
        <time>2019-12-26T11:10:43.000Z</time>
      </trkpt>
      <trkpt lat="47.28294" lon="-2.36043">
        <ele>23.39999961853</ele>
        <time>2019-12-26T11:10:44.000Z</time>
      </trkpt>
      <trkpt lat="47.28289" lon="-2.36037">
        <ele>22.799999237061</ele>
        <time>2019-12-26T11:10:45.000Z</time>
      </trkpt>
      <trkpt lat="47.28285" lon="-2.36032">
        <ele>22.200000762939</ele>
        <time>2019-12-26T11:10:46.000Z</time>
      </trkpt>
      <trkpt lat="47.28282" lon="-2.36027">
        <ele>21.60000038147</ele>
        <time>2019-12-26T11:10:47.000Z</time>
      </trkpt>
      <trkpt lat="47.2828" lon="-2.36021">
        <ele>20.799999237061</ele>
        <time>2019-12-26T11:10:48.000Z</time>
      </trkpt>
      <trkpt lat="47.28279" lon="-2.36015">
        <ele>20.200000762939</ele>
        <time>2019-12-26T11:10:49.000Z</time>
      </trkpt>
      <trkpt lat="47.2828" lon="-2.36008">
        <ele>19.39999961853</ele>
        <time>2019-12-26T11:10:50.000Z</time>
      </trkpt>
      <trkpt lat="47.28281" lon="-2.36001">
        <ele>18.60000038147</ele>
        <time>2019-12-26T11:10:51.000Z</time>
      </trkpt>
      <trkpt lat="47.28282" lon="-2.35995">
        <ele>17.60000038147</ele>
        <time>2019-12-26T11:10:52.000Z</time>
      </trkpt>
      <trkpt lat="47.28283" lon="-2.35988">
        <ele>16.799999237061</ele>
        <time>2019-12-26T11:10:53.000Z</time>
      </trkpt>
      <trkpt lat="47.28282" lon="-2.35983">
        <ele>16</ele>
        <time>2019-12-26T11:10:54.000Z</time>
      </trkpt>
      <trkpt lat="47.28281" lon="-2.35978">
        <ele>15.199999809265</ele>
        <time>2019-12-26T11:10:55.000Z</time>
      </trkpt>
      <trkpt lat="47.28278" lon="-2.35964">
        <ele>15.199999809265</ele>
        <time>2019-12-26T11:10:58.000Z</time>
      </trkpt>
      <trkpt lat="47.28271" lon="-2.35949">
        <ele>15.199999809265</ele>
        <time>2019-12-26T11:11:01.000Z</time>
      </trkpt>
      <trkpt lat="47.28269" lon="-2.35943">
        <ele>15.199999809265</ele>
        <time>2019-12-26T11:11:02.000Z</time>
      </trkpt>
      <trkpt lat="47.28262" lon="-2.35926">
        <ele>15.199999809265</ele>
        <time>2019-12-26T11:11:06.000Z</time>
      </trkpt>
      <trkpt lat="47.28257" lon="-2.35918">
        <ele>15.199999809265</ele>
        <time>2019-12-26T11:11:09.000Z</time>
      </trkpt>
      <trkpt lat="47.28252" lon="-2.35917">
        <ele>15.199999809265</ele>
        <time>2019-12-26T11:11:10.000Z</time>
      </trkpt>
      <trkpt lat="47.28234" lon="-2.35917">
        <ele>15.199999809265</ele>
        <time>2019-12-26T11:11:14.000Z</time>
      </trkpt>
      <trkpt lat="47.28225" lon="-2.35915">
        <ele>15.199999809265</ele>
        <time>2019-12-26T11:11:16.000Z</time>
      </trkpt>
      <trkpt lat="47.28204" lon="-2.35911">
        <ele>15.199999809265</ele>
        <time>2019-12-26T11:11:21.000Z</time>
      </trkpt>
      <trkpt lat="47.28196" lon="-2.3591">
        <ele>15.199999809265</ele>
        <time>2019-12-26T11:11:23.000Z</time>
      </trkpt>
      <trkpt lat="47.2819" lon="-2.35905">
        <ele>15.199999809265</ele>
        <time>2019-12-26T11:11:25.000Z</time>
      </trkpt>
      <trkpt lat="47.28175" lon="-2.35898">
        <ele>15.199999809265</ele>
        <time>2019-12-26T11:11:29.000Z</time>
      </trkpt>
      <trkpt lat="47.28171" lon="-2.35898">
        <ele>15.199999809265</ele>
        <time>2019-12-26T11:11:30.000Z</time>
      </trkpt>
      <trkpt lat="47.28161" lon="-2.35893">
        <ele>15.199999809265</ele>
        <time>2019-12-26T11:11:33.000Z</time>
      </trkpt>
      <trkpt lat="47.28142" lon="-2.35883">
        <ele>15.199999809265</ele>
        <time>2019-12-26T11:11:38.000Z</time>
      </trkpt>
      <trkpt lat="47.28138" lon="-2.35875">
        <ele>15.199999809265</ele>
        <time>2019-12-26T11:11:40.000Z</time>
      </trkpt>
      <trkpt lat="47.28135" lon="-2.35864">
        <ele>15.199999809265</ele>
        <time>2019-12-26T11:11:43.000Z</time>
      </trkpt>
      <trkpt lat="47.28124" lon="-2.35854">
        <ele>15.199999809265</ele>
        <time>2019-12-26T11:11:46.000Z</time>
      </trkpt>
      <trkpt lat="47.28104" lon="-2.35849">
        <ele>15.199999809265</ele>
        <time>2019-12-26T11:11:51.000Z</time>
      </trkpt>
      <trkpt lat="47.28086" lon="-2.35832">
        <ele>15.199999809265</ele>
        <time>2019-12-26T11:11:55.000Z</time>
      </trkpt>
      <trkpt lat="47.2808" lon="-2.35804">
        <ele>15.199999809265</ele>
        <time>2019-12-26T11:11:59.000Z</time>
      </trkpt>
      <trkpt lat="47.28083" lon="-2.35792">
        <ele>15.199999809265</ele>
        <time>2019-12-26T11:12:01.000Z</time>
      </trkpt>
      <trkpt lat="47.28085" lon="-2.35779">
        <ele>15.199999809265</ele>
        <time>2019-12-26T11:12:03.000Z</time>
      </trkpt>
      <trkpt lat="47.2809" lon="-2.35761">
        <ele>15.199999809265</ele>
        <time>2019-12-26T11:12:07.000Z</time>
      </trkpt>
      <trkpt lat="47.2809" lon="-2.35756">
        <ele>15.60000038147</ele>
        <time>2019-12-26T11:12:08.000Z</time>
      </trkpt>
      <trkpt lat="47.28091" lon="-2.35751">
        <ele>16</ele>
        <time>2019-12-26T11:12:09.000Z</time>
      </trkpt>
      <trkpt lat="47.2809" lon="-2.35746">
        <ele>16.39999961853</ele>
        <time>2019-12-26T11:12:10.000Z</time>
      </trkpt>
      <trkpt lat="47.2809" lon="-2.3574">
        <ele>16.799999237061</ele>
        <time>2019-12-26T11:12:11.000Z</time>
      </trkpt>
      <trkpt lat="47.28091" lon="-2.35734">
        <ele>17.200000762939</ele>
        <time>2019-12-26T11:12:12.000Z</time>
      </trkpt>
      <trkpt lat="47.2809" lon="-2.35695">
        <ele>17.200000762939</ele>
        <time>2019-12-26T11:12:18.000Z</time>
      </trkpt>
      <trkpt lat="47.2808" lon="-2.35654">
        <ele>17.200000762939</ele>
        <time>2019-12-26T11:12:22.000Z</time>
      </trkpt>
      <trkpt lat="47.28079" lon="-2.35646">
        <ele>17.200000762939</ele>
        <time>2019-12-26T11:12:23.000Z</time>
      </trkpt>
      <trkpt lat="47.28079" lon="-2.35635">
        <ele>16.799999237061</ele>
        <time>2019-12-26T11:12:24.000Z</time>
      </trkpt>
      <trkpt lat="47.28079" lon="-2.35625">
        <ele>16.200000762939</ele>
        <time>2019-12-26T11:12:25.000Z</time>
      </trkpt>
      <trkpt lat="47.28079" lon="-2.35615">
        <ele>15.800000190735</ele>
        <time>2019-12-26T11:12:26.000Z</time>
      </trkpt>
      <trkpt lat="47.28077" lon="-2.35608">
        <ele>15.39999961853</ele>
        <time>2019-12-26T11:12:27.000Z</time>
      </trkpt>
      <trkpt lat="47.28073" lon="-2.35603">
        <ele>14.800000190735</ele>
        <time>2019-12-26T11:12:28.000Z</time>
      </trkpt>
      <trkpt lat="47.28069" lon="-2.356">
        <ele>14.800000190735</ele>
        <time>2019-12-26T11:12:29.000Z</time>
      </trkpt>
      <trkpt lat="47.28058" lon="-2.35589">
        <ele>14.800000190735</ele>
        <time>2019-12-26T11:12:33.000Z</time>
      </trkpt>
      <trkpt lat="47.28047" lon="-2.35585">
        <ele>14.800000190735</ele>
        <time>2019-12-26T11:12:35.000Z</time>
      </trkpt>
      <trkpt lat="47.28032" lon="-2.35578">
        <ele>14.39999961853</ele>
        <time>2019-12-26T11:12:38.000Z</time>
      </trkpt>
      <trkpt lat="47.28028" lon="-2.35576">
        <ele>14</ele>
        <time>2019-12-26T11:12:39.000Z</time>
      </trkpt>
      <trkpt lat="47.28026" lon="-2.35576">
        <ele>13.199999809265</ele>
        <time>2019-12-26T11:12:40.000Z</time>
      </trkpt>
      <trkpt lat="47.28026" lon="-2.35575">
        <ele>12.800000190735</ele>
        <time>2019-12-26T11:12:41.000Z</time>
      </trkpt>
      <trkpt lat="47.28026" lon="-2.35575">
        <ele>12.39999961853</ele>
        <time>2019-12-26T11:12:42.000Z</time>
      </trkpt>
      <trkpt lat="47.28026" lon="-2.35575">
        <ele>11.800000190735</ele>
        <time>2019-12-26T11:12:43.000Z</time>
      </trkpt>
      <trkpt lat="47.28023" lon="-2.35575">
        <ele>10.39999961853</ele>
        <time>2019-12-26T11:15:13.000Z</time>
      </trkpt>
      <trkpt lat="47.28021" lon="-2.35575">
        <ele>10.39999961853</ele>
        <time>2019-12-26T11:15:14.000Z</time>
      </trkpt>
      <trkpt lat="47.28008" lon="-2.35576">
        <ele>10.39999961853</ele>
        <time>2019-12-26T11:15:18.000Z</time>
      </trkpt>
      <trkpt lat="47.27987" lon="-2.35581">
        <ele>10.39999961853</ele>
        <time>2019-12-26T11:15:24.000Z</time>
      </trkpt>
      <trkpt lat="47.27975" lon="-2.35583">
        <ele>10.39999961853</ele>
        <time>2019-12-26T11:15:28.000Z</time>
      </trkpt>
      <trkpt lat="47.2796" lon="-2.35581">
        <ele>10.39999961853</ele>
        <time>2019-12-26T11:15:32.000Z</time>
      </trkpt>
      <trkpt lat="47.27955" lon="-2.35581">
        <ele>10.39999961853</ele>
        <time>2019-12-26T11:15:33.000Z</time>
      </trkpt>
      <trkpt lat="47.27932" lon="-2.35588">
        <ele>10.39999961853</ele>
        <time>2019-12-26T11:15:38.000Z</time>
      </trkpt>
      <trkpt lat="47.27901" lon="-2.35594">
        <ele>10.39999961853</ele>
        <time>2019-12-26T11:15:44.000Z</time>
      </trkpt>
      <trkpt lat="47.27873" lon="-2.35601">
        <ele>10.39999961853</ele>
        <time>2019-12-26T11:15:49.000Z</time>
      </trkpt>
      <trkpt lat="47.27861" lon="-2.35604">
        <ele>10</ele>
        <time>2019-12-26T11:15:51.000Z</time>
      </trkpt>
      <trkpt lat="47.27855" lon="-2.35606">
        <ele>9.6000003814697</ele>
        <time>2019-12-26T11:15:52.000Z</time>
      </trkpt>
      <trkpt lat="47.27849" lon="-2.35607">
        <ele>9.1999998092651</ele>
        <time>2019-12-26T11:15:53.000Z</time>
      </trkpt>
      <trkpt lat="47.27844" lon="-2.35609">
        <ele>8.8000001907349</ele>
        <time>2019-12-26T11:15:54.000Z</time>
      </trkpt>
      <trkpt lat="47.27838" lon="-2.35611">
        <ele>8.3999996185303</ele>
        <time>2019-12-26T11:15:55.000Z</time>
      </trkpt>
      <trkpt lat="47.27808" lon="-2.35618">
        <ele>8.3999996185303</ele>
        <time>2019-12-26T11:16:00.000Z</time>
      </trkpt>
      <trkpt lat="47.27785" lon="-2.35627">
        <ele>8.3999996185303</ele>
        <time>2019-12-26T11:16:04.000Z</time>
      </trkpt>
      <trkpt lat="47.2778" lon="-2.35631">
        <ele>8.3999996185303</ele>
        <time>2019-12-26T11:16:05.000Z</time>
      </trkpt>
      <trkpt lat="47.27775" lon="-2.35635">
        <ele>8</ele>
        <time>2019-12-26T11:16:06.000Z</time>
      </trkpt>
      <trkpt lat="47.2777" lon="-2.3564">
        <ele>7.5999999046326</ele>
        <time>2019-12-26T11:16:07.000Z</time>
      </trkpt>
      <trkpt lat="47.27766" lon="-2.35645">
        <ele>7.1999998092651</ele>
        <time>2019-12-26T11:16:08.000Z</time>
      </trkpt>
      <trkpt lat="47.27761" lon="-2.35649">
        <ele>6.8000001907349</ele>
        <time>2019-12-26T11:16:09.000Z</time>
      </trkpt>
      <trkpt lat="47.27757" lon="-2.35654">
        <ele>6.4000000953674</ele>
        <time>2019-12-26T11:16:10.000Z</time>
      </trkpt>
      <trkpt lat="47.27754" lon="-2.3566">
        <ele>6.4000000953674</ele>
        <time>2019-12-26T11:16:11.000Z</time>
      </trkpt>
      <trkpt lat="47.27735" lon="-2.35687">
        <ele>6.4000000953674</ele>
        <time>2019-12-26T11:16:16.000Z</time>
      </trkpt>
      <trkpt lat="47.27731" lon="-2.35691">
        <ele>6</ele>
        <time>2019-12-26T11:16:17.000Z</time>
      </trkpt>
      <trkpt lat="47.27727" lon="-2.35697">
        <ele>5.4000000953674</ele>
        <time>2019-12-26T11:16:18.000Z</time>
      </trkpt>
      <trkpt lat="47.27723" lon="-2.35702">
        <ele>5</ele>
        <time>2019-12-26T11:16:19.000Z</time>
      </trkpt>
      <trkpt lat="47.27719" lon="-2.35707">
        <ele>4.5999999046326</ele>
        <time>2019-12-26T11:16:20.000Z</time>
      </trkpt>
      <trkpt lat="47.27714" lon="-2.35712">
        <ele>4.1999998092651</ele>
        <time>2019-12-26T11:16:21.000Z</time>
      </trkpt>
      <trkpt lat="47.27701" lon="-2.35724">
        <ele>4.1999998092651</ele>
        <time>2019-12-26T11:16:24.000Z</time>
      </trkpt>
      <trkpt lat="47.27692" lon="-2.35731">
        <ele>3.7999999523163</ele>
        <time>2019-12-26T11:16:26.000Z</time>
      </trkpt>
      <trkpt lat="47.27689" lon="-2.35734">
        <ele>3.4000000953674</ele>
        <time>2019-12-26T11:16:27.000Z</time>
      </trkpt>
      <trkpt lat="47.27686" lon="-2.35739">
        <ele>2.7999999523163</ele>
        <time>2019-12-26T11:16:28.000Z</time>
      </trkpt>
      <trkpt lat="47.27683" lon="-2.35743">
        <ele>2.4000000953674</ele>
        <time>2019-12-26T11:16:29.000Z</time>
      </trkpt>
      <trkpt lat="47.27679" lon="-2.35746">
        <ele>2</ele>
        <time>2019-12-26T11:16:30.000Z</time>
      </trkpt>
      <trkpt lat="47.27675" lon="-2.35746">
        <ele>2</ele>
        <time>2019-12-26T11:16:31.000Z</time>
      </trkpt>
      <trkpt lat="47.27662" lon="-2.35733">
        <ele>2</ele>
        <time>2019-12-26T11:16:34.000Z</time>
      </trkpt>
      <trkpt lat="47.27645" lon="-2.3572">
        <ele>2</ele>
        <time>2019-12-26T11:16:37.000Z</time>
      </trkpt>
      <trkpt lat="47.27631" lon="-2.35717">
        <ele>2</ele>
        <time>2019-12-26T11:16:39.000Z</time>
      </trkpt>
      <trkpt lat="47.27616" lon="-2.35713">
        <ele>2</ele>
        <time>2019-12-26T11:16:41.000Z</time>
      </trkpt>
      <trkpt lat="47.27567" lon="-2.35702">
        <ele>1.6000000238419</ele>
        <time>2019-12-26T11:16:48.000Z</time>
      </trkpt>
      <trkpt lat="47.27561" lon="-2.357">
        <ele>1.2000000476837</ele>
        <time>2019-12-26T11:16:49.000Z</time>
      </trkpt>
      <trkpt lat="47.27555" lon="-2.35698">
        <ele>0.80000001192093</ele>
        <time>2019-12-26T11:16:50.000Z</time>
      </trkpt>
      <trkpt lat="47.27548" lon="-2.35696">
        <ele>0.40000000596046</ele>
        <time>2019-12-26T11:16:51.000Z</time>
      </trkpt>
      <trkpt lat="47.27542" lon="-2.35694">
        <ele>7.5</ele>
        <time>2019-12-26T11:16:52.000Z</time>
      </trkpt>
      <trkpt lat="47.27511" lon="-2.35686">
        <ele>6.6</ele>
        <time>2019-12-26T11:16:57.000Z</time>
      </trkpt>
      <trkpt lat="47.27484" lon="-2.3568">
        <ele>-0.40000000596046</ele>
        <time>2019-12-26T11:17:01.000Z</time>
      </trkpt>
      <trkpt lat="47.27478" lon="-2.35679">
        <ele>-0.80000001192093</ele>
        <time>2019-12-26T11:17:02.000Z</time>
      </trkpt>
      <trkpt lat="47.27471" lon="-2.35678">
        <ele>-1.2000000476837</ele>
        <time>2019-12-26T11:17:03.000Z</time>
      </trkpt>
      <trkpt lat="47.27464" lon="-2.35676">
        <ele>-1.6000000238419</ele>
        <time>2019-12-26T11:17:04.000Z</time>
      </trkpt>
      <trkpt lat="47.27457" lon="-2.35675">
        <ele>-2</ele>
        <time>2019-12-26T11:17:05.000Z</time>
      </trkpt>
      <trkpt lat="47.27444" lon="-2.35672">
        <ele>-2</ele>
        <time>2019-12-26T11:17:07.000Z</time>
      </trkpt>
      <trkpt lat="47.27426" lon="-2.35667">
        <ele>-2</ele>
        <time>2019-12-26T11:17:10.000Z</time>
      </trkpt>
      <trkpt lat="47.27414" lon="-2.35665">
        <ele>-2</ele>
        <time>2019-12-26T11:17:12.000Z</time>
      </trkpt>
      <trkpt lat="47.27387" lon="-2.35675">
        <ele>-2</ele>
        <time>2019-12-26T11:17:16.000Z</time>
      </trkpt>
      <trkpt lat="47.27359" lon="-2.35698">
        <ele>-2</ele>
        <time>2019-12-26T11:17:21.000Z</time>
      </trkpt>
      <trkpt lat="47.27333" lon="-2.3572">
        <ele>-2</ele>
        <time>2019-12-26T11:17:26.000Z</time>
      </trkpt>
      <trkpt lat="47.27329" lon="-2.35725">
        <ele>-2</ele>
        <time>2019-12-26T11:17:27.000Z</time>
      </trkpt>
      <trkpt lat="47.27319" lon="-2.35737">
        <ele>-2.5999999046326</ele>
        <time>2019-12-26T11:17:30.000Z</time>
      </trkpt>
      <trkpt lat="47.27316" lon="-2.3574">
        <ele>-3</ele>
        <time>2019-12-26T11:17:31.000Z</time>
      </trkpt>
      <trkpt lat="47.27312" lon="-2.35741">
        <ele>-3.5999999046326</ele>
        <time>2019-12-26T11:17:32.000Z</time>
      </trkpt>
      <trkpt lat="47.27309" lon="-2.35739">
        <ele>-4</ele>
        <time>2019-12-26T11:17:33.000Z</time>
      </trkpt>
      <trkpt lat="47.27306" lon="-2.35735">
        <ele>-4.4000000953674</ele>
        <time>2019-12-26T11:17:34.000Z</time>
      </trkpt>
      <trkpt lat="47.27302" lon="-2.35723">
        <ele>-4.4000000953674</ele>
        <time>2019-12-26T11:17:36.000Z</time>
      </trkpt>
      <trkpt lat="47.27295" lon="-2.35704">
        <ele>-4.4000000953674</ele>
        <time>2019-12-26T11:17:39.000Z</time>
      </trkpt>
      <trkpt lat="47.27274" lon="-2.35661">
        <ele>-4.4000000953674</ele>
        <time>2019-12-26T11:17:45.000Z</time>
      </trkpt>
      <trkpt lat="47.27245" lon="-2.35593">
        <ele>-4.4000000953674</ele>
        <time>2019-12-26T11:17:54.000Z</time>
      </trkpt>
      <trkpt lat="47.27216" lon="-2.35529">
        <ele>-4.4000000953674</ele>
        <time>2019-12-26T11:18:02.000Z</time>
      </trkpt>
      <trkpt lat="47.27195" lon="-2.35479">
        <ele>-4.4000000953674</ele>
        <time>2019-12-26T11:18:08.000Z</time>
      </trkpt>
      <trkpt lat="47.2716" lon="-2.35412">
        <ele>-4.4000000953674</ele>
        <time>2019-12-26T11:18:16.000Z</time>
      </trkpt>
      <trkpt lat="47.27125" lon="-2.35351">
        <ele>-4.4000000953674</ele>
        <time>2019-12-26T11:18:23.000Z</time>
      </trkpt>
      <trkpt lat="47.27115" lon="-2.35334">
        <ele>-4.4000000953674</ele>
        <time>2019-12-26T11:18:25.000Z</time>
      </trkpt>
      <trkpt lat="47.27076" lon="-2.35272">
        <ele>-4.4000000953674</ele>
        <time>2019-12-26T11:18:32.000Z</time>
      </trkpt>
      <trkpt lat="47.27035" lon="-2.3521">
        <ele>-4.4000000953674</ele>
        <time>2019-12-26T11:18:39.000Z</time>
      </trkpt>
      <trkpt lat="47.26995" lon="-2.35145">
        <ele>-4.4000000953674</ele>
        <time>2019-12-26T11:18:46.000Z</time>
      </trkpt>
      <trkpt lat="47.26952" lon="-2.35082">
        <ele>-4.4000000953674</ele>
        <time>2019-12-26T11:18:53.000Z</time>
      </trkpt>
      <trkpt lat="47.26946" lon="-2.35073">
        <ele>-4.4000000953674</ele>
        <time>2019-12-26T11:18:54.000Z</time>
      </trkpt>
      <trkpt lat="47.26903" lon="-2.35008">
        <ele>-4.4000000953674</ele>
        <time>2019-12-26T11:19:01.000Z</time>
      </trkpt>
      <trkpt lat="47.26885" lon="-2.34981">
        <ele>-4.4000000953674</ele>
        <time>2019-12-26T11:19:04.000Z</time>
      </trkpt>
      <trkpt lat="47.26843" lon="-2.34917">
        <ele>-4.4000000953674</ele>
        <time>2019-12-26T11:19:11.000Z</time>
      </trkpt>
      <trkpt lat="47.2683" lon="-2.34899">
        <ele>-4.4000000953674</ele>
        <time>2019-12-26T11:19:13.000Z</time>
      </trkpt>
      <trkpt lat="47.26791" lon="-2.34841">
        <ele>-4.4000000953674</ele>
        <time>2019-12-26T11:19:20.000Z</time>
      </trkpt>
      <trkpt lat="47.26771" lon="-2.34815">
        <ele>-4.4000000953674</ele>
        <time>2019-12-26T11:19:24.000Z</time>
      </trkpt>
      <trkpt lat="47.26767" lon="-2.3481">
        <ele>-4.4000000953674</ele>
        <time>2019-12-26T11:19:25.000Z</time>
      </trkpt>
      <trkpt lat="47.26763" lon="-2.34804">
        <ele>-4.4000000953674</ele>
        <time>2019-12-26T11:19:26.000Z</time>
      </trkpt>
      <trkpt lat="47.26753" lon="-2.3479">
        <ele>-4.4000000953674</ele>
        <time>2019-12-26T11:19:29.000Z</time>
      </trkpt>
      <trkpt lat="47.2673" lon="-2.34763">
        <ele>-4.4000000953674</ele>
        <time>2019-12-26T11:19:34.000Z</time>
      </trkpt>
      <trkpt lat="47.267" lon="-2.34724">
        <ele>-4.4000000953674</ele>
        <time>2019-12-26T11:19:40.000Z</time>
      </trkpt>
      <trkpt lat="47.26663" lon="-2.34677">
        <ele>-4.4000000953674</ele>
        <time>2019-12-26T11:19:47.000Z</time>
      </trkpt>
      <trkpt lat="47.26637" lon="-2.34646">
        <ele>-4.4000000953674</ele>
        <time>2019-12-26T11:19:52.000Z</time>
      </trkpt>
      <trkpt lat="47.26597" lon="-2.34598">
        <ele>-4.4000000953674</ele>
        <time>2019-12-26T11:20:00.000Z</time>
      </trkpt>
      <trkpt lat="47.26567" lon="-2.34565">
        <ele>-4.4000000953674</ele>
        <time>2019-12-26T11:20:06.000Z</time>
      </trkpt>
      <trkpt lat="47.26521" lon="-2.3452">
        <ele>-4.4000000953674</ele>
        <time>2019-12-26T11:20:15.000Z</time>
      </trkpt>
      <trkpt lat="47.26493" lon="-2.34498">
        <ele>-4.4000000953674</ele>
        <time>2019-12-26T11:20:20.000Z</time>
      </trkpt>
      <trkpt lat="47.26444" lon="-2.34465">
        <ele>-4.4000000953674</ele>
        <time>2019-12-26T11:20:28.000Z</time>
      </trkpt>
      <trkpt lat="47.26403" lon="-2.34436">
        <ele>-4.4000000953674</ele>
        <time>2019-12-26T11:20:35.000Z</time>
      </trkpt>
      <trkpt lat="47.26364" lon="-2.34402">
        <ele>-4.4000000953674</ele>
        <time>2019-12-26T11:20:42.000Z</time>
      </trkpt>
      <trkpt lat="47.26338" lon="-2.3438">
        <ele>-4.4000000953674</ele>
        <time>2019-12-26T11:20:47.000Z</time>
      </trkpt>
      <trkpt lat="47.26332" lon="-2.34379">
        <ele>-4.4000000953674</ele>
        <time>2019-12-26T11:20:48.000Z</time>
      </trkpt>
      <trkpt lat="47.26318" lon="-2.34371">
        <ele>-4.4000000953674</ele>
        <time>2019-12-26T11:20:51.000Z</time>
      </trkpt>
      <trkpt lat="47.26304" lon="-2.34347">
        <ele>-4.4000000953674</ele>
        <time>2019-12-26T11:20:55.000Z</time>
      </trkpt>
      <trkpt lat="47.26298" lon="-2.34342">
        <ele>-4.4000000953674</ele>
        <time>2019-12-26T11:20:56.000Z</time>
      </trkpt>
      <trkpt lat="47.2627" lon="-2.34312">
        <ele>-4.4000000953674</ele>
        <time>2019-12-26T11:21:02.000Z</time>
      </trkpt>
      <trkpt lat="47.26235" lon="-2.34274">
        <ele>-4.4000000953674</ele>
        <time>2019-12-26T11:21:10.000Z</time>
      </trkpt>
      <trkpt lat="47.26199" lon="-2.34236">
        <ele>-4.4000000953674</ele>
        <time>2019-12-26T11:21:18.000Z</time>
      </trkpt>
      <trkpt lat="47.26171" lon="-2.34208">
        <ele>-4.4000000953674</ele>
        <time>2019-12-26T11:21:25.000Z</time>
      </trkpt>
      <trkpt lat="47.26144" lon="-2.34185">
        <ele>-4.4000000953674</ele>
        <time>2019-12-26T11:21:31.000Z</time>
      </trkpt>
      <trkpt lat="47.2614" lon="-2.34184">
        <ele>-4.4000000953674</ele>
        <time>2019-12-26T11:21:32.000Z</time>
      </trkpt>
      <trkpt lat="47.26127" lon="-2.34175">
        <ele>-4.4000000953674</ele>
        <time>2019-12-26T11:21:35.000Z</time>
      </trkpt>
      <trkpt lat="47.26124" lon="-2.3417">
        <ele>-4.4000000953674</ele>
        <time>2019-12-26T11:21:36.000Z</time>
      </trkpt>
      <trkpt lat="47.2612" lon="-2.34165">
        <ele>-4.4000000953674</ele>
        <time>2019-12-26T11:21:37.000Z</time>
      </trkpt>
      <trkpt lat="47.26111" lon="-2.34158">
        <ele>-4.4000000953674</ele>
        <time>2019-12-26T11:21:39.000Z</time>
      </trkpt>
      <trkpt lat="47.261" lon="-2.34153">
        <ele>-4.4000000953674</ele>
        <time>2019-12-26T11:21:41.000Z</time>
      </trkpt>
      <trkpt lat="47.26078" lon="-2.34142">
        <ele>-4.4000000953674</ele>
        <time>2019-12-26T11:21:45.000Z</time>
      </trkpt>
      <trkpt lat="47.2604" lon="-2.34123">
        <ele>-4.8000001907349</ele>
        <time>2019-12-26T11:21:52.000Z</time>
      </trkpt>
      <trkpt lat="47.26034" lon="-2.3412">
        <ele>-5.1999998092651</ele>
        <time>2019-12-26T11:21:53.000Z</time>
      </trkpt>
      <trkpt lat="47.26028" lon="-2.34117">
        <ele>-5.5999999046326</ele>
        <time>2019-12-26T11:21:54.000Z</time>
      </trkpt>
      <trkpt lat="47.26023" lon="-2.34115">
        <ele>-6</ele>
        <time>2019-12-26T11:21:55.000Z</time>
      </trkpt>
      <trkpt lat="47.26018" lon="-2.34112">
        <ele>-6.4000000953674</ele>
        <time>2019-12-26T11:21:56.000Z</time>
      </trkpt>
      <trkpt lat="47.2599" lon="-2.34099">
        <ele>-6.4000000953674</ele>
        <time>2019-12-26T11:22:01.000Z</time>
      </trkpt>
      <trkpt lat="47.25959" lon="-2.34084">
        <ele>-6.4000000953674</ele>
        <time>2019-12-26T11:22:07.000Z</time>
      </trkpt>
      <trkpt lat="47.25923" lon="-2.34072">
        <ele>-6.4000000953674</ele>
        <time>2019-12-26T11:22:14.000Z</time>
      </trkpt>
      <trkpt lat="47.25912" lon="-2.3407">
        <ele>-6.4000000953674</ele>
        <time>2019-12-26T11:22:16.000Z</time>
      </trkpt>
      <trkpt lat="47.25902" lon="-2.34064">
        <ele>-6.4000000953674</ele>
        <time>2019-12-26T11:22:18.000Z</time>
      </trkpt>
      <trkpt lat="47.25897" lon="-2.34043">
        <ele>-6.4000000953674</ele>
        <time>2019-12-26T11:22:21.000Z</time>
      </trkpt>
      <trkpt lat="47.25902" lon="-2.3402">
        <ele>-6.4000000953674</ele>
        <time>2019-12-26T11:22:24.000Z</time>
      </trkpt>
      <trkpt lat="47.25905" lon="-2.34012">
        <ele>-6.4000000953674</ele>
        <time>2019-12-26T11:22:25.000Z</time>
      </trkpt>
      <trkpt lat="47.25918" lon="-2.33972">
        <ele>-6.4000000953674</ele>
        <time>2019-12-26T11:22:30.000Z</time>
      </trkpt>
      <trkpt lat="47.25932" lon="-2.33943">
        <ele>-6.4000000953674</ele>
        <time>2019-12-26T11:22:34.000Z</time>
      </trkpt>
      <trkpt lat="47.2594" lon="-2.3393">
        <ele>-6.4000000953674</ele>
        <time>2019-12-26T11:22:36.000Z</time>
      </trkpt>
      <trkpt lat="47.25947" lon="-2.33915">
        <ele>-6.4000000953674</ele>
        <time>2019-12-26T11:22:38.000Z</time>
      </trkpt>
      <trkpt lat="47.25949" lon="-2.33907">
        <ele>-6.4000000953674</ele>
        <time>2019-12-26T11:22:39.000Z</time>
      </trkpt>
      <trkpt lat="47.2596" lon="-2.33875">
        <ele>-6.4000000953674</ele>
        <time>2019-12-26T11:22:43.000Z</time>
      </trkpt>
      <trkpt lat="47.25963" lon="-2.33867">
        <ele>-6.4000000953674</ele>
        <time>2019-12-26T11:22:44.000Z</time>
      </trkpt>
      <trkpt lat="47.25971" lon="-2.33844">
        <ele>-6.4000000953674</ele>
        <time>2019-12-26T11:22:47.000Z</time>
      </trkpt>
      <trkpt lat="47.2598" lon="-2.33821">
        <ele>-6.4000000953674</ele>
        <time>2019-12-26T11:22:50.000Z</time>
      </trkpt>
      <trkpt lat="47.25994" lon="-2.33774">
        <ele>-6.4000000953674</ele>
        <time>2019-12-26T11:22:56.000Z</time>
      </trkpt>
      <trkpt lat="47.26009" lon="-2.33723">
        <ele>-6.4000000953674</ele>
        <time>2019-12-26T11:23:03.000Z</time>
      </trkpt>
      <trkpt lat="47.26021" lon="-2.33683">
        <ele>-6.4000000953674</ele>
        <time>2019-12-26T11:23:08.000Z</time>
      </trkpt>
      <trkpt lat="47.26024" lon="-2.33666">
        <ele>-6.4000000953674</ele>
        <time>2019-12-26T11:23:10.000Z</time>
      </trkpt>
      <trkpt lat="47.26025" lon="-2.33658">
        <ele>-6.4000000953674</ele>
        <time>2019-12-26T11:23:11.000Z</time>
      </trkpt>
      <trkpt lat="47.26023" lon="-2.33631">
        <ele>-6.4000000953674</ele>
        <time>2019-12-26T11:23:14.000Z</time>
      </trkpt>
      <trkpt lat="47.26022" lon="-2.33622">
        <ele>-6.4000000953674</ele>
        <time>2019-12-26T11:23:15.000Z</time>
      </trkpt>
      <trkpt lat="47.2602" lon="-2.33614">
        <ele>-6.4000000953674</ele>
        <time>2019-12-26T11:23:16.000Z</time>
      </trkpt>
      <trkpt lat="47.26013" lon="-2.3359">
        <ele>-6.4000000953674</ele>
        <time>2019-12-26T11:23:19.000Z</time>
      </trkpt>
      <trkpt lat="47.25992" lon="-2.33547">
        <ele>-6.4000000953674</ele>
        <time>2019-12-26T11:23:25.000Z</time>
      </trkpt>
      <trkpt lat="47.25973" lon="-2.33513">
        <ele>-6.4000000953674</ele>
        <time>2019-12-26T11:23:30.000Z</time>
      </trkpt>
      <trkpt lat="47.25969" lon="-2.33507">
        <ele>-6.4000000953674</ele>
        <time>2019-12-26T11:23:31.000Z</time>
      </trkpt>
      <trkpt lat="47.25961" lon="-2.33496">
        <ele>-6.4000000953674</ele>
        <time>2019-12-26T11:23:33.000Z</time>
      </trkpt>
      <trkpt lat="47.25955" lon="-2.33482">
        <ele>-6.4000000953674</ele>
        <time>2019-12-26T11:23:35.000Z</time>
      </trkpt>
      <trkpt lat="47.2595" lon="-2.33468">
        <ele>-6.4000000953674</ele>
        <time>2019-12-26T11:23:37.000Z</time>
      </trkpt>
      <trkpt lat="47.25938" lon="-2.33442">
        <ele>-6.4000000953674</ele>
        <time>2019-12-26T11:23:41.000Z</time>
      </trkpt>
      <trkpt lat="47.25922" lon="-2.33397">
        <ele>-6.4000000953674</ele>
        <time>2019-12-26T11:23:47.000Z</time>
      </trkpt>
      <trkpt lat="47.25908" lon="-2.33339">
        <ele>-6.4000000953674</ele>
        <time>2019-12-26T11:23:54.000Z</time>
      </trkpt>
      <trkpt lat="47.25904" lon="-2.33284">
        <ele>-6.4000000953674</ele>
        <time>2019-12-26T11:24:00.000Z</time>
      </trkpt>
      <trkpt lat="47.25904" lon="-2.33218">
        <ele>-6.4000000953674</ele>
        <time>2019-12-26T11:24:07.000Z</time>
      </trkpt>
      <trkpt lat="47.25897" lon="-2.33153">
        <ele>-6.4000000953674</ele>
        <time>2019-12-26T11:24:14.000Z</time>
      </trkpt>
      <trkpt lat="47.25882" lon="-2.33095">
        <ele>-6.4000000953674</ele>
        <time>2019-12-26T11:24:21.000Z</time>
      </trkpt>
      <trkpt lat="47.25866" lon="-2.33041">
        <ele>-6.4000000953674</ele>
        <time>2019-12-26T11:24:28.000Z</time>
      </trkpt>
      <trkpt lat="47.25864" lon="-2.33033">
        <ele>-6</ele>
        <time>2019-12-26T11:24:29.000Z</time>
      </trkpt>
      <trkpt lat="47.25862" lon="-2.33026">
        <ele>-5.5999999046326</ele>
        <time>2019-12-26T11:24:30.000Z</time>
      </trkpt>
      <trkpt lat="47.25859" lon="-2.33019">
        <ele>-5.1999998092651</ele>
        <time>2019-12-26T11:24:31.000Z</time>
      </trkpt>
      <trkpt lat="47.25857" lon="-2.33012">
        <ele>-4.8000001907349</ele>
        <time>2019-12-26T11:24:32.000Z</time>
      </trkpt>
      <trkpt lat="47.25854" lon="-2.33006">
        <ele>-4.4000000953674</ele>
        <time>2019-12-26T11:24:33.000Z</time>
      </trkpt>
      <trkpt lat="47.25847" lon="-2.32992">
        <ele>-4.4000000953674</ele>
        <time>2019-12-26T11:24:35.000Z</time>
      </trkpt>
      <trkpt lat="47.2584" lon="-2.3298">
        <ele>-3.7999999523163</ele>
        <time>2019-12-26T11:24:37.000Z</time>
      </trkpt>
      <trkpt lat="47.25836" lon="-2.32974">
        <ele>-3.4000000953674</ele>
        <time>2019-12-26T11:24:38.000Z</time>
      </trkpt>
      <trkpt lat="47.25832" lon="-2.32968">
        <ele>-3</ele>
        <time>2019-12-26T11:24:39.000Z</time>
      </trkpt>
      <trkpt lat="47.25828" lon="-2.32963">
        <ele>-2.5999999046326</ele>
        <time>2019-12-26T11:24:40.000Z</time>
      </trkpt>
      <trkpt lat="47.25823" lon="-2.32957">
        <ele>-2.2000000476837</ele>
        <time>2019-12-26T11:24:41.000Z</time>
      </trkpt>
      <trkpt lat="47.2579" lon="-2.32912">
        <ele>-2.2000000476837</ele>
        <time>2019-12-26T11:24:49.000Z</time>
      </trkpt>
      <trkpt lat="47.25766" lon="-2.32877">
        <ele>-2.2000000476837</ele>
        <time>2019-12-26T11:24:55.000Z</time>
      </trkpt>
      <trkpt lat="47.25758" lon="-2.32864">
        <ele>-2.2000000476837</ele>
        <time>2019-12-26T11:24:57.000Z</time>
      </trkpt>
      <trkpt lat="47.25752" lon="-2.32849">
        <ele>-1.7999999523163</ele>
        <time>2019-12-26T11:24:59.000Z</time>
      </trkpt>
      <trkpt lat="47.2575" lon="-2.32842">
        <ele>-1.3999999761581</ele>
        <time>2019-12-26T11:25:00.000Z</time>
      </trkpt>
      <trkpt lat="47.25747" lon="-2.32836">
        <ele>-1</ele>
        <time>2019-12-26T11:25:01.000Z</time>
      </trkpt>
      <trkpt lat="47.25745" lon="-2.32829">
        <ele>-0.20000000298023</ele>
        <time>2019-12-26T11:25:02.000Z</time>
      </trkpt>
      <trkpt lat="47.25735" lon="-2.32793">
        <ele>-0.20000000298023</ele>
        <time>2019-12-26T11:25:07.000Z</time>
      </trkpt>
      <trkpt lat="47.25725" lon="-2.32736">
        <ele>-0.20000000298023</ele>
        <time>2019-12-26T11:25:14.000Z</time>
      </trkpt>
      <trkpt lat="47.25721" lon="-2.3268">
        <ele>-0.20000000298023</ele>
        <time>2019-12-26T11:25:20.000Z</time>
      </trkpt>
      <trkpt lat="47.25711" lon="-2.32613">
        <ele>-0.20000000298023</ele>
        <time>2019-12-26T11:25:27.000Z</time>
      </trkpt>
      <trkpt lat="47.2569" lon="-2.3254">
        <ele>-0.20000000298023</ele>
        <time>2019-12-26T11:25:35.000Z</time>
      </trkpt>
      <trkpt lat="47.25687" lon="-2.3253">
        <ele>-0.20000000298023</ele>
        <time>2019-12-26T11:25:36.000Z</time>
      </trkpt>
      <trkpt lat="47.25681" lon="-2.3251">
        <ele>-0.60000002384186</ele>
        <time>2019-12-26T11:25:38.000Z</time>
      </trkpt>
      <trkpt lat="47.25678" lon="-2.325">
        <ele>-1.2000000476837</ele>
        <time>2019-12-26T11:25:39.000Z</time>
      </trkpt>
      <trkpt lat="47.25675" lon="-2.3249">
        <ele>-1.6000000238419</ele>
        <time>2019-12-26T11:25:40.000Z</time>
      </trkpt>
      <trkpt lat="47.25672" lon="-2.3248">
        <ele>-2</ele>
        <time>2019-12-26T11:25:41.000Z</time>
      </trkpt>
      <trkpt lat="47.25669" lon="-2.3247">
        <ele>-2.5999999046326</ele>
        <time>2019-12-26T11:25:42.000Z</time>
      </trkpt>
      <trkpt lat="47.25662" lon="-2.32449">
        <ele>-2.5999999046326</ele>
        <time>2019-12-26T11:25:44.000Z</time>
      </trkpt>
      <trkpt lat="47.25659" lon="-2.32427">
        <ele>-3</ele>
        <time>2019-12-26T11:25:46.000Z</time>
      </trkpt>
      <trkpt lat="47.25657" lon="-2.32417">
        <ele>-3.4000000953674</ele>
        <time>2019-12-26T11:25:47.000Z</time>
      </trkpt>
      <trkpt lat="47.25655" lon="-2.32406">
        <ele>-3.7999999523163</ele>
        <time>2019-12-26T11:25:48.000Z</time>
      </trkpt>
      <trkpt lat="47.25655" lon="-2.32395">
        <ele>-4.1999998092651</ele>
        <time>2019-12-26T11:25:49.000Z</time>
      </trkpt>
      <trkpt lat="47.25655" lon="-2.32384">
        <ele>-4.5999999046326</ele>
        <time>2019-12-26T11:25:50.000Z</time>
      </trkpt>
      <trkpt lat="47.25653" lon="-2.32353">
        <ele>-4.5999999046326</ele>
        <time>2019-12-26T11:25:53.000Z</time>
      </trkpt>
      <trkpt lat="47.25648" lon="-2.32299">
        <ele>-4.1999998092651</ele>
        <time>2019-12-26T11:25:59.000Z</time>
      </trkpt>
      <trkpt lat="47.25648" lon="-2.32289">
        <ele>-3.7999999523163</ele>
        <time>2019-12-26T11:26:00.000Z</time>
      </trkpt>
      <trkpt lat="47.25648" lon="-2.3228">
        <ele>-3.4000000953674</ele>
        <time>2019-12-26T11:26:01.000Z</time>
      </trkpt>
      <trkpt lat="47.25648" lon="-2.3227">
        <ele>-3</ele>
        <time>2019-12-26T11:26:02.000Z</time>
      </trkpt>
      <trkpt lat="47.25648" lon="-2.32261">
        <ele>-2.5999999046326</ele>
        <time>2019-12-26T11:26:03.000Z</time>
      </trkpt>
      <trkpt lat="47.25647" lon="-2.32253">
        <ele>-2.5999999046326</ele>
        <time>2019-12-26T11:26:04.000Z</time>
      </trkpt>
      <trkpt lat="47.25647" lon="-2.32244">
        <ele>-2.2000000476837</ele>
        <time>2019-12-26T11:26:05.000Z</time>
      </trkpt>
      <trkpt lat="47.25646" lon="-2.32235">
        <ele>-1.6000000238419</ele>
        <time>2019-12-26T11:26:06.000Z</time>
      </trkpt>
      <trkpt lat="47.25646" lon="-2.32226">
        <ele>-1.2000000476837</ele>
        <time>2019-12-26T11:26:07.000Z</time>
      </trkpt>
      <trkpt lat="47.25645" lon="-2.32217">
        <ele>-0.80000001192093</ele>
        <time>2019-12-26T11:26:08.000Z</time>
      </trkpt>
      <trkpt lat="47.25644" lon="-2.32209">
        <ele>-0.20000000298023</ele>
        <time>2019-12-26T11:26:09.000Z</time>
      </trkpt>
      <trkpt lat="47.25643" lon="-2.32201">
        <ele>0.20000000298023</ele>
        <time>2019-12-26T11:26:10.000Z</time>
      </trkpt>
      <trkpt lat="47.25642" lon="-2.32194">
        <ele>0.60000002384186</ele>
        <time>2019-12-26T11:26:11.000Z</time>
      </trkpt>
      <trkpt lat="47.2564" lon="-2.32186">
        <ele>1.2000000476837</ele>
        <time>2019-12-26T11:26:12.000Z</time>
      </trkpt>
      <trkpt lat="47.25639" lon="-2.32179">
        <ele>1.6000000238419</ele>
        <time>2019-12-26T11:26:13.000Z</time>
      </trkpt>
      <trkpt lat="47.25637" lon="-2.32171">
        <ele>2</ele>
        <time>2019-12-26T11:26:14.000Z</time>
      </trkpt>
      <trkpt lat="47.25632" lon="-2.32155">
        <ele>2</ele>
        <time>2019-12-26T11:26:16.000Z</time>
      </trkpt>
      <trkpt lat="47.25622" lon="-2.32119">
        <ele>2.4000000953674</ele>
        <time>2019-12-26T11:26:21.000Z</time>
      </trkpt>
      <trkpt lat="47.25619" lon="-2.32112">
        <ele>2.7999999523163</ele>
        <time>2019-12-26T11:26:22.000Z</time>
      </trkpt>
      <trkpt lat="47.25617" lon="-2.32105">
        <ele>3.2000000476837</ele>
        <time>2019-12-26T11:26:23.000Z</time>
      </trkpt>
      <trkpt lat="47.25615" lon="-2.32099">
        <ele>3.5999999046326</ele>
        <time>2019-12-26T11:26:24.000Z</time>
      </trkpt>
      <trkpt lat="47.25613" lon="-2.32093">
        <ele>4</ele>
        <time>2019-12-26T11:26:25.000Z</time>
      </trkpt>
      <trkpt lat="47.25609" lon="-2.32082">
        <ele>4</ele>
        <time>2019-12-26T11:26:27.000Z</time>
      </trkpt>
      <trkpt lat="47.25605" lon="-2.32072">
        <ele>4</ele>
        <time>2019-12-26T11:26:29.000Z</time>
      </trkpt>
      <trkpt lat="47.25596" lon="-2.32065">
        <ele>4</ele>
        <time>2019-12-26T11:26:32.000Z</time>
      </trkpt>
      <trkpt lat="47.25593" lon="-2.32063">
        <ele>4</ele>
        <time>2019-12-26T11:26:33.000Z</time>
      </trkpt>
      <trkpt lat="47.25583" lon="-2.32063">
        <ele>4</ele>
        <time>2019-12-26T11:26:37.000Z</time>
      </trkpt>
      <trkpt lat="47.25581" lon="-2.3206">
        <ele>4</ele>
        <time>2019-12-26T11:26:40.000Z</time>
      </trkpt>
      <trkpt lat="47.25569" lon="-2.32052">
        <ele>4</ele>
        <time>2019-12-26T11:26:44.000Z</time>
      </trkpt>
      <trkpt lat="47.25561" lon="-2.32053">
        <ele>4</ele>
        <time>2019-12-26T11:26:48.000Z</time>
      </trkpt>
      <trkpt lat="47.25566" lon="-2.32052">
        <ele>6</ele>
        <time>2019-12-26T11:40:10.000Z</time>
      </trkpt>
      <trkpt lat="47.25567" lon="-2.32042">
        <ele>6</ele>
        <time>2019-12-26T11:40:14.000Z</time>
      </trkpt>
      <trkpt lat="47.25567" lon="-2.32038">
        <ele>6</ele>
        <time>2019-12-26T11:40:16.000Z</time>
      </trkpt>
      <trkpt lat="47.25571" lon="-2.32039">
        <ele>6</ele>
        <time>2019-12-26T11:40:18.000Z</time>
      </trkpt>
      <trkpt lat="47.25576" lon="-2.32051">
        <ele>6</ele>
        <time>2019-12-26T11:40:22.000Z</time>
      </trkpt>
      <trkpt lat="47.25577" lon="-2.32055">
        <ele>6</ele>
        <time>2019-12-26T11:40:23.000Z</time>
      </trkpt>
      <trkpt lat="47.25583" lon="-2.32064">
        <ele>6</ele>
        <time>2019-12-26T11:40:27.000Z</time>
      </trkpt>
      <trkpt lat="47.25586" lon="-2.32064">
        <ele>6</ele>
        <time>2019-12-26T11:40:28.000Z</time>
      </trkpt>
      <trkpt lat="47.25595" lon="-2.32069">
        <ele>6</ele>
        <time>2019-12-26T11:40:33.000Z</time>
      </trkpt>
      <trkpt lat="47.25603" lon="-2.32071">
        <ele>6</ele>
        <time>2019-12-26T11:40:38.000Z</time>
      </trkpt>
      <trkpt lat="47.25606" lon="-2.32075">
        <ele>6</ele>
        <time>2019-12-26T11:40:39.000Z</time>
      </trkpt>
      <trkpt lat="47.25611" lon="-2.32082">
        <ele>6</ele>
        <time>2019-12-26T11:40:41.000Z</time>
      </trkpt>
      <trkpt lat="47.25622" lon="-2.32078">
        <ele>6</ele>
        <time>2019-12-26T11:40:44.000Z</time>
      </trkpt>
      <trkpt lat="47.25629" lon="-2.32071">
        <ele>6</ele>
        <time>2019-12-26T11:40:46.000Z</time>
      </trkpt>
      <trkpt lat="47.25634" lon="-2.32065">
        <ele>6</ele>
        <time>2019-12-26T11:40:48.000Z</time>
      </trkpt>
      <trkpt lat="47.25653" lon="-2.32047">
        <ele>6</ele>
        <time>2019-12-26T11:40:54.000Z</time>
      </trkpt>
      <trkpt lat="47.25675" lon="-2.32019">
        <ele>6</ele>
        <time>2019-12-26T11:41:01.000Z</time>
      </trkpt>
      <trkpt lat="47.25686" lon="-2.32005">
        <ele>6</ele>
        <time>2019-12-26T11:41:05.000Z</time>
      </trkpt>
      <trkpt lat="47.25694" lon="-2.31991">
        <ele>6</ele>
        <time>2019-12-26T11:41:09.000Z</time>
      </trkpt>
      <trkpt lat="47.25698" lon="-2.3199">
        <ele>6</ele>
        <time>2019-12-26T11:41:10.000Z</time>
      </trkpt>
      <trkpt lat="47.25711" lon="-2.31986">
        <ele>6</ele>
        <time>2019-12-26T11:41:13.000Z</time>
      </trkpt>
      <trkpt lat="47.25716" lon="-2.31982">
        <ele>6</ele>
        <time>2019-12-26T11:41:14.000Z</time>
      </trkpt>
      <trkpt lat="47.2572" lon="-2.31978">
        <ele>5.5999999046326</ele>
        <time>2019-12-26T11:41:15.000Z</time>
      </trkpt>
      <trkpt lat="47.25726" lon="-2.31974">
        <ele>5.1999998092651</ele>
        <time>2019-12-26T11:41:16.000Z</time>
      </trkpt>
      <trkpt lat="47.25731" lon="-2.31971">
        <ele>4.8000001907349</ele>
        <time>2019-12-26T11:41:17.000Z</time>
      </trkpt>
      <trkpt lat="47.25737" lon="-2.31967">
        <ele>4.4000000953674</ele>
        <time>2019-12-26T11:41:18.000Z</time>
      </trkpt>
      <trkpt lat="47.25743" lon="-2.31963">
        <ele>3.7999999523163</ele>
        <time>2019-12-26T11:41:19.000Z</time>
      </trkpt>
      <trkpt lat="47.25779" lon="-2.31935">
        <ele>3.7999999523163</ele>
        <time>2019-12-26T11:41:25.000Z</time>
      </trkpt>
      <trkpt lat="47.25784" lon="-2.3193">
        <ele>3.4000000953674</ele>
        <time>2019-12-26T11:41:26.000Z</time>
      </trkpt>
      <trkpt lat="47.2579" lon="-2.31925">
        <ele>3</ele>
        <time>2019-12-26T11:41:27.000Z</time>
      </trkpt>
      <trkpt lat="47.25795" lon="-2.3192">
        <ele>2.5999999046326</ele>
        <time>2019-12-26T11:41:28.000Z</time>
      </trkpt>
      <trkpt lat="47.25801" lon="-2.31915">
        <ele>2.2000000476837</ele>
        <time>2019-12-26T11:41:29.000Z</time>
      </trkpt>
      <trkpt lat="47.25806" lon="-2.3191">
        <ele>1.7999999523163</ele>
        <time>2019-12-26T11:41:30.000Z</time>
      </trkpt>
      <trkpt lat="47.25823" lon="-2.31897">
        <ele>1.7999999523163</ele>
        <time>2019-12-26T11:41:33.000Z</time>
      </trkpt>
      <trkpt lat="47.2583" lon="-2.31893">
        <ele>1.3999999761581</ele>
        <time>2019-12-26T11:41:34.000Z</time>
      </trkpt>
      <trkpt lat="47.25836" lon="-2.31889">
        <ele>1</ele>
        <time>2019-12-26T11:41:35.000Z</time>
      </trkpt>
      <trkpt lat="47.25842" lon="-2.31884">
        <ele>0.60000002384186</ele>
        <time>2019-12-26T11:41:36.000Z</time>
      </trkpt>
      <trkpt lat="47.25848" lon="-2.31879">
        <ele>0.20000000298023</ele>
        <time>2019-12-26T11:41:37.000Z</time>
      </trkpt>
      <trkpt lat="47.25854" lon="-2.31874">
        <ele>-0.20000000298023</ele>
        <time>2019-12-26T11:41:38.000Z</time>
      </trkpt>
      <trkpt lat="47.2586" lon="-2.31868">
        <ele>-0.20000000298023</ele>
        <time>2019-12-26T11:41:39.000Z</time>
      </trkpt>
      <trkpt lat="47.25874" lon="-2.31846">
        <ele>-0.20000000298023</ele>
        <time>2019-12-26T11:41:42.000Z</time>
      </trkpt>
      <trkpt lat="47.25898" lon="-2.31798">
        <ele>-0.20000000298023</ele>
        <time>2019-12-26T11:41:48.000Z</time>
      </trkpt>
      <trkpt lat="47.25916" lon="-2.31751">
        <ele>-0.20000000298023</ele>
        <time>2019-12-26T11:41:54.000Z</time>
      </trkpt>
      <trkpt lat="47.25931" lon="-2.31723">
        <ele>-0.60000002384186</ele>
        <time>2019-12-26T11:41:58.000Z</time>
      </trkpt>
      <trkpt lat="47.25935" lon="-2.31717">
        <ele>-1</ele>
        <time>2019-12-26T11:41:59.000Z</time>
      </trkpt>
      <trkpt lat="47.25939" lon="-2.31712">
        <ele>-1.3999999761581</ele>
        <time>2019-12-26T11:42:00.000Z</time>
      </trkpt>
      <trkpt lat="47.25943" lon="-2.31706">
        <ele>-1.7999999523163</ele>
        <time>2019-12-26T11:42:01.000Z</time>
      </trkpt>
      <trkpt lat="47.25947" lon="-2.317">
        <ele>-2.2000000476837</ele>
        <time>2019-12-26T11:42:02.000Z</time>
      </trkpt>
      <trkpt lat="47.2597" lon="-2.31679">
        <ele>-2.2000000476837</ele>
        <time>2019-12-26T11:42:07.000Z</time>
      </trkpt>
      <trkpt lat="47.26006" lon="-2.3166">
        <ele>-2.2000000476837</ele>
        <time>2019-12-26T11:42:13.000Z</time>
      </trkpt>
      <trkpt lat="47.2603" lon="-2.31642">
        <ele>-2.2000000476837</ele>
        <time>2019-12-26T11:42:17.000Z</time>
      </trkpt>
      <trkpt lat="47.26043" lon="-2.31631">
        <ele>-2.2000000476837</ele>
        <time>2019-12-26T11:42:19.000Z</time>
      </trkpt>
      <trkpt lat="47.26068" lon="-2.31599">
        <ele>-2.2000000476837</ele>
        <time>2019-12-26T11:42:24.000Z</time>
      </trkpt>
      <trkpt lat="47.26078" lon="-2.31582">
        <ele>-2.2000000476837</ele>
        <time>2019-12-26T11:42:27.000Z</time>
      </trkpt>
      <trkpt lat="47.2608" lon="-2.31576">
        <ele>-2.2000000476837</ele>
        <time>2019-12-26T11:42:28.000Z</time>
      </trkpt>
      <trkpt lat="47.26085" lon="-2.3157">
        <ele>-2.2000000476837</ele>
        <time>2019-12-26T11:42:30.000Z</time>
      </trkpt>
      <trkpt lat="47.26088" lon="-2.31571">
        <ele>-2.2000000476837</ele>
        <time>2019-12-26T11:42:31.000Z</time>
      </trkpt>
      <trkpt lat="47.26095" lon="-2.31586">
        <ele>-2.2000000476837</ele>
        <time>2019-12-26T11:42:34.000Z</time>
      </trkpt>
      <trkpt lat="47.26103" lon="-2.31604">
        <ele>-2.2000000476837</ele>
        <time>2019-12-26T11:42:37.000Z</time>
      </trkpt>
      <trkpt lat="47.26111" lon="-2.31613">
        <ele>-2.2000000476837</ele>
        <time>2019-12-26T11:42:39.000Z</time>
      </trkpt>
      <trkpt lat="47.26117" lon="-2.31615">
        <ele>-2.5999999046326</ele>
        <time>2019-12-26T11:42:40.000Z</time>
      </trkpt>
      <trkpt lat="47.26123" lon="-2.31615">
        <ele>-3</ele>
        <time>2019-12-26T11:42:41.000Z</time>
      </trkpt>
      <trkpt lat="47.26129" lon="-2.31614">
        <ele>-3.4000000953674</ele>
        <time>2019-12-26T11:42:42.000Z</time>
      </trkpt>
      <trkpt lat="47.26134" lon="-2.31612">
        <ele>-3.7999999523163</ele>
        <time>2019-12-26T11:42:43.000Z</time>
      </trkpt>
      <trkpt lat="47.2614" lon="-2.31611">
        <ele>-4.1999998092651</ele>
        <time>2019-12-26T11:42:44.000Z</time>
      </trkpt>
      <trkpt lat="47.2616" lon="-2.31606">
        <ele>-4.1999998092651</ele>
        <time>2019-12-26T11:42:48.000Z</time>
      </trkpt>
      <trkpt lat="47.26196" lon="-2.31595">
        <ele>-4.1999998092651</ele>
        <time>2019-12-26T11:42:55.000Z</time>
      </trkpt>
      <trkpt lat="47.26216" lon="-2.31593">
        <ele>-4.1999998092651</ele>
        <time>2019-12-26T11:42:59.000Z</time>
      </trkpt>
      <trkpt lat="47.26226" lon="-2.31597">
        <ele>-4.1999998092651</ele>
        <time>2019-12-26T11:43:01.000Z</time>
      </trkpt>
      <trkpt lat="47.26235" lon="-2.31603">
        <ele>-4.1999998092651</ele>
        <time>2019-12-26T11:43:03.000Z</time>
      </trkpt>
      <trkpt lat="47.26252" lon="-2.31619">
        <ele>-4.1999998092651</ele>
        <time>2019-12-26T11:43:07.000Z</time>
      </trkpt>
      <trkpt lat="47.26274" lon="-2.3165">
        <ele>-4.1999998092651</ele>
        <time>2019-12-26T11:43:13.000Z</time>
      </trkpt>
      <trkpt lat="47.26281" lon="-2.31667">
        <ele>-4.1999998092651</ele>
        <time>2019-12-26T11:43:16.000Z</time>
      </trkpt>
      <trkpt lat="47.26285" lon="-2.31679">
        <ele>-4.1999998092651</ele>
        <time>2019-12-26T11:43:18.000Z</time>
      </trkpt>
      <trkpt lat="47.26288" lon="-2.31685">
        <ele>-4.1999998092651</ele>
        <time>2019-12-26T11:43:19.000Z</time>
      </trkpt>
      <trkpt lat="47.26296" lon="-2.31702">
        <ele>-4.1999998092651</ele>
        <time>2019-12-26T11:43:22.000Z</time>
      </trkpt>
      <trkpt lat="47.26299" lon="-2.31707">
        <ele>-4.1999998092651</ele>
        <time>2019-12-26T11:43:23.000Z</time>
      </trkpt>
      <trkpt lat="47.26303" lon="-2.3171">
        <ele>-4.1999998092651</ele>
        <time>2019-12-26T11:43:24.000Z</time>
      </trkpt>
      <trkpt lat="47.26311" lon="-2.31712">
        <ele>-4.1999998092651</ele>
        <time>2019-12-26T11:43:26.000Z</time>
      </trkpt>
      <trkpt lat="47.26324" lon="-2.31708">
        <ele>-4.1999998092651</ele>
        <time>2019-12-26T11:43:29.000Z</time>
      </trkpt>
      <trkpt lat="47.26332" lon="-2.31704">
        <ele>-4.1999998092651</ele>
        <time>2019-12-26T11:43:31.000Z</time>
      </trkpt>
      <trkpt lat="47.26334" lon="-2.317">
        <ele>-4.1999998092651</ele>
        <time>2019-12-26T11:43:32.000Z</time>
      </trkpt>
      <trkpt lat="47.26337" lon="-2.31689">
        <ele>-4.1999998092651</ele>
        <time>2019-12-26T11:43:34.000Z</time>
      </trkpt>
      <trkpt lat="47.26345" lon="-2.31684">
        <ele>-4.1999998092651</ele>
        <time>2019-12-26T11:43:37.000Z</time>
      </trkpt>
      <trkpt lat="47.26357" lon="-2.31675">
        <ele>-3.7999999523163</ele>
        <time>2019-12-26T11:43:42.000Z</time>
      </trkpt>
      <trkpt lat="47.26361" lon="-2.31673">
        <ele>-3.4000000953674</ele>
        <time>2019-12-26T11:43:43.000Z</time>
      </trkpt>
      <trkpt lat="47.26364" lon="-2.31672">
        <ele>-3</ele>
        <time>2019-12-26T11:43:44.000Z</time>
      </trkpt>
      <trkpt lat="47.26367" lon="-2.3167">
        <ele>-2.5999999046326</ele>
        <time>2019-12-26T11:43:45.000Z</time>
      </trkpt>
      <trkpt lat="47.2637" lon="-2.3167">
        <ele>-2.2000000476837</ele>
        <time>2019-12-26T11:43:46.000Z</time>
      </trkpt>
      <trkpt lat="47.26378" lon="-2.31667">
        <ele>-2.2000000476837</ele>
        <time>2019-12-26T11:43:48.000Z</time>
      </trkpt>
      <trkpt lat="47.26392" lon="-2.31661">
        <ele>-2.2000000476837</ele>
        <time>2019-12-26T11:43:53.000Z</time>
      </trkpt>
      <trkpt lat="47.26405" lon="-2.31653">
        <ele>-2.2000000476837</ele>
        <time>2019-12-26T11:43:58.000Z</time>
      </trkpt>
      <trkpt lat="47.26411" lon="-2.31644">
        <ele>-2.2000000476837</ele>
        <time>2019-12-26T11:44:01.000Z</time>
      </trkpt>
      <trkpt lat="47.26411" lon="-2.3164">
        <ele>-2.2000000476837</ele>
        <time>2019-12-26T11:44:02.000Z</time>
      </trkpt>
      <trkpt lat="47.26414" lon="-2.31613">
        <ele>-2.2000000476837</ele>
        <time>2019-12-26T11:44:08.000Z</time>
      </trkpt>
      <trkpt lat="47.26414" lon="-2.3159">
        <ele>-2.2000000476837</ele>
        <time>2019-12-26T11:44:13.000Z</time>
      </trkpt>
      <trkpt lat="47.26414" lon="-2.31585">
        <ele>-1.7999999523163</ele>
        <time>2019-12-26T11:44:14.000Z</time>
      </trkpt>
      <trkpt lat="47.26414" lon="-2.3158">
        <ele>-1.2000000476837</ele>
        <time>2019-12-26T11:44:15.000Z</time>
      </trkpt>
      <trkpt lat="47.26414" lon="-2.31576">
        <ele>-0.80000001192093</ele>
        <time>2019-12-26T11:44:16.000Z</time>
      </trkpt>
      <trkpt lat="47.26414" lon="-2.31572">
        <ele>-0.40000000596046</ele>
        <time>2019-12-26T11:44:17.000Z</time>
      </trkpt>
      <trkpt lat="47.26414" lon="-2.31568">
        <ele>9.9</ele>
        <time>2019-12-26T11:44:18.000Z</time>
      </trkpt>
      <trkpt lat="47.26418" lon="-2.31554">
        <ele>10.1</ele>
        <time>2019-12-26T11:44:23.000Z</time>
      </trkpt>
      <trkpt lat="47.2642" lon="-2.31555">
        <ele>10.2</ele>
        <time>2019-12-26T11:44:27.000Z</time>
      </trkpt>
    </trkseg>
  </trk>
</gpx>